# Wetter Temperatur Luftdruck Luftfeuchtigkeit Sichtweite Windgeschwindigkeit Windrichtung Zeit
1 Clear 21 1016 40 10000 3.1 350 20:40 02.04.2020
2 Clear 21 1016 40 10000 3.1 350 20:21 02.04.2020
3 Clear 21 1015 35 10000 4.1 330 19:44 02.04.2020
4 Clear 22 1015 35 10000 4.1 330 19:21 02.04.2020
5 Clear 22 1015 35 10000 4.1 330 19:21 02.04.2020
6 Clear 22 1015 33 10000 4.1 340 18:58 02.04.2020
7 Clear 22 1015 35 10000 3.6 340 18:39 02.04.2020
8 Clear 22 1015 35 10000 3.6 340 18:20 02.04.2020
9 Clear 23 1015 33 10000 4.1 300 17:56 02.04.2020
10 Clear 23 1015 33 10000 5.1 320 17:38 02.04.2020
11 Clear 23 1015 33 10000 5.1 320 17:19 02.04.2020
12 Clear 23 1015 33 10000 2.6 320 16:55 02.04.2020
13 Clear 23 1015 31 10000 5.1 310 16:37 02.04.2020
14 Clear 24 1015 31 10000 5.1 310 16:19 02.04.2020
15 Clear 24 1014 29 10000 5.1 300 15:44 02.04.2020
16 Clear 23 1015 27 10000 3.6 330 15:21 02.04.2020
17 Clear 23 1015 27 10000 3.6 340 14:59 02.04.2020
18 Clear 23 1015 25 10000 5.1 270 14:40 02.04.2020
19 Clear 23 1015 25 10000 5.1 270 14:20 02.04.2020
20 Clear 23 1015 28 10000 1 210 13:58 02.04.2020
21 Clear 23 1015 28 10000 3.6 340 13:39 02.04.2020
22 Clear 22 1015 35 10000 4.6 340 13:21 02.04.2020
23 Clear 22 1015 35 10000 4.6 340 12:56 02.04.2020
24 Clear 22 1015 35 10000 4.6 340 12:56 02.04.2020
25 Clear 22 1016 35 10000 4.6 290 12:37 02.04.2020
26 Clear 22 1016 35 10000 4.6 290 12:19 02.04.2020
27 Clear 22 1016 30 10000 4.1 280 11:57 02.04.2020
28 Clear 21 1016 37 10000 3.6 280 11:38 02.04.2020
29 Clear 21 1016 37 10000 3.6 280 11:19 02.04.2020
30 Clear 21 1016 37 10000 3.6 280 11:19 02.04.2020
31 Clear 21 1016 46 6000 3.6 290 10:55 02.04.2020
32 Clear 20 1016 56 6000 2.1 290 10:37 02.04.2020
33 Clear 20 1016 60 6000 1.5 310 10:18 02.04.2020
34 Clear 20 1016 63 6000 2.6 310 09:43 02.04.2020
35 Clear 19 1016 63 6000 2.6 310 09:25 02.04.2020
36 Clouds 18 1016 68 6000 1.5 310 08:58 02.04.2020
37 Clouds 18 1016 63 6000 2.1 330 08:40 02.04.2020
38 Clouds 18 1016 63 6000 2.1 330 08:22 02.04.2020
39 Clouds 18 1016 63 6000 2.1 320 07:44 02.04.2020
40 Clouds 18 1016 63 6000 0.72 347 07:20 02.04.2020
41 Clouds 17 1015 67 6000 0.72 347 06:57 02.04.2020
42 Clouds 16 1015 67 10000 1.01 53 06:21 02.04.2020
43 Clouds 16 1015 67 10000 1.01 53 05:44 02.04.2020
44 Clouds 16 1014 72 10000 1.01 53 03:57 02.04.2020
45 Clouds 17 1015 67 10000 3.1 50 01:34 02.04.2020
46 Clouds 17 1015 67 10000 3.6 50 00:46 02.04.2020
47 Clouds 17 1015 67 10000 4.1 50 00:26 02.04.2020
48 Clouds 17 1016 67 10000 5.1 50 23:54 01.04.2020
49 Clouds 17 1016 72 10000 6.2 50 23:36 01.04.2020
50 Clouds 17 1016 72 10000 6.2 50 23:18 01.04.2020
51 Clouds 17 1016 72 10000 6.7 30 22:40 01.04.2020
52 Clouds 18 1016 72 10000 6.7 30 22:21 01.04.2020
53 Clouds 19 1016 63 10000 7.7 30 21:55 01.04.2020
54 Clouds 19 1015 56 10000 7.2 350 21:37 01.04.2020
55 Clouds 20 1015 56 10000 7.2 350 21:18 01.04.2020
56 Clouds 21 1015 40 10000 3.1 320 20:54 01.04.2020
57 Clouds 21 1015 40 10000 3.1 320 20:54 01.04.2020
58 Clouds 21 1015 40 10000 3.1 320 20:54 01.04.2020
59 Clouds 21 1015 40 10000 3.1 320 20:36 01.04.2020
60 Clouds 21 1015 40 10000 3.1 320 20:18 01.04.2020
61 Clouds 22 1014 40 6000 4.6 320 19:42 01.04.2020
62 Clouds 22 1014 40 6000 4.6 320 19:21 01.04.2020
63 Clouds 22 1014 37 6000 4.1 310 18:56 01.04.2020
64 Clouds 22 1014 37 6000 4.1 310 18:56 01.04.2020
65 Clouds 22 1014 37 6000 4.1 310 18:38 01.04.2020
66 Clouds 22 1014 37 6000 4.1 310 18:19 01.04.2020
67 Clouds 23 1013 35 6000 3.6 320 17:55 01.04.2020
68 Clouds 23 1013 35 6000 3.1 320 17:36 01.04.2020
69 Clouds 23 1013 35 6000 3.1 320 17:18 01.04.2020
70 Clouds 24 1013 33 6000 3.6 250 16:42 01.04.2020
71 Clouds 24 1013 33 6000 1 320 16:24 01.04.2020
72 Clouds 23 1014 33 6000 3.6 270 15:58 01.04.2020
73 Clouds 23 1014 36 6000 2.1 250 15:40 01.04.2020
74 Clouds 24 1014 36 6000 2.1 250 15:21 01.04.2020
75 Clouds 23 1014 35 6000 2.6 240 14:57 01.04.2020
76 Clouds 23 1014 35 6000 2.6 240 14:57 01.04.2020
77 Clouds 23 1014 38 6000 2.1 250 14:38 01.04.2020
78 Clouds 23 1014 38 6000 2.1 250 14:38 01.04.2020
79 Clouds 23 1014 38 6000 2.1 250 14:19 01.04.2020
80 Clouds 23 1014 38 6000 2.1 250 14:19 01.04.2020
81 Clouds 22 1015 40 6000 4.6 210 13:58 01.04.2020
82 Clouds 22 1015 40 6000 4.1 210 13:38 01.04.2020
83 Clouds 22 1015 40 6000 4.1 210 13:19 01.04.2020
84 Clouds 21 1015 43 6000 4.1 220 12:55 01.04.2020
85 Clouds 21 1015 46 6000 3.1 260 12:36 01.04.2020
86 Clouds 21 1015 46 6000 3.1 260 12:18 01.04.2020
87 Clouds 20 1016 52 6000 3.1 240 11:42 01.04.2020
88 Clouds 20 1016 52 6000 3.1 240 11:23 01.04.2020
89 Clouds 20 1016 52 6000 3.1 240 10:58 01.04.2020
90 Clouds 20 1016 59 6000 2.6 240 10:38 01.04.2020
91 Clouds 19 1016 59 6000 2.6 240 10:19 01.04.2020
92 Clouds 18 1016 63 6000 2.6 210 09:57 01.04.2020
93 Clouds 17 1016 67 6000 2.6 250 09:39 01.04.2020
94 Clouds 17 1016 67 6000 2.6 250 09:18 01.04.2020
95 Clouds 16 1015 77 10000 3.6 240 08:41 01.04.2020
96 Clouds 16 1015 77 10000 3.6 240 08:18 01.04.2020
97 Clouds 16 1015 77 10000 2.6 240 07:46 01.04.2020
98 Clouds 16 1014 77 10000 3.1 260 07:21 01.04.2020
99 Clouds 16 1014 72 10000 4.6 260 06:52 01.04.2020
100 Clouds 16 1014 72 10000 4.6 260 06:27 01.04.2020
101 Clouds 16 1014 72 10000 5.7 260 05:59 01.04.2020
102 Clear 16 1013 63 10000 5.1 250 04:36 01.04.2020
103 Clear 17 1013 55 10000 6.2 250 03:33 01.04.2020
104 Clear 17 1013 55 10000 6.7 260 02:57 01.04.2020
105 Clear 17 1013 51 10000 8.7 250 02:21 01.04.2020
106 Clear 17 1013 48 10000 6.7 250 01:43 01.04.2020
107 Clear 18 1013 48 10000 6.7 250 01:22 01.04.2020
108 Clear 18 1013 52 10000 5.7 240 00:46 01.04.2020
109 Clear 18 1013 52 10000 5.7 240 00:46 01.04.2020
110 Clear 18 1013 52 10000 5.7 240 00:21 01.04.2020
111 Clouds 18 1013 52 6000 6.2 240 23:49 31.03.2020
112 Clouds 18 1013 52 6000 6.2 240 23:28 31.03.2020
113 Sand 18 1013 52 4000 6.2 280 22:59 31.03.2020
114 Sand 18 1013 55 4000 7.2 280 22:38 31.03.2020
115 Sand 18 1013 55 4000 7.2 280 22:20 31.03.2020
116 Sand 19 1013 55 4000 7.2 270 21:57 31.03.2020
117 Sand 20 1012 56 4000 7.7 300 21:39 31.03.2020
118 Sand 20 1012 56 4000 7.7 300 21:20 31.03.2020
119 Clear 24 1009 19 0 9.39 240 20:56 31.03.2020
120 Sand 24 1009 19 2000 9.8 240 20:37 31.03.2020
121 Sand 24 1009 19 2000 9.8 240 20:18 31.03.2020
122 Sand 24 1009 19 2000 9.8 240 19:55 31.03.2020
123 Sand 24 1009 19 2000 9.8 240 19:36 31.03.2020
124 Clear 24 1009 19 0 9.39 240 19:18 31.03.2020
125 Clear 22 1010 30 0 6.84 283 18:41 31.03.2020
126 Clear 28 1007 18 0 12.52 240 18:20 31.03.2020
127 Clear 28 1007 18 0 12.52 240 17:56 31.03.2020
128 Clear 28 1007 18 0 12.52 240 17:56 31.03.2020
129 Clear 28 1007 18 0 12.52 240 17:38 31.03.2020
130 Sand 28 1007 18 2000 12.9 240 17:20 31.03.2020
131 Clear 28 1007 18 0 12.52 240 16:42 31.03.2020
132 Sand 29 1006 18 2000 12.9 240 16:20 31.03.2020
133 Sand 29 1006 18 2000 12.9 240 15:59 31.03.2020
134 Clear 29 1006 18 0 12.52 240 15:41 31.03.2020
135 Sand 30 1007 17 2000 11.8 250 15:23 31.03.2020
136 Sand 30 1007 17 2000 11.8 250 14:59 31.03.2020
137 Sand 30 1007 17 2000 11.8 250 14:59 31.03.2020
138 Sand 30 1007 17 2000 11.8 250 14:41 31.03.2020
139 Sand 30 1007 17 2000 11.8 250 14:22 31.03.2020
140 Sand 30 1007 16 3000 10.8 240 13:55 31.03.2020
141 Sand 30 1007 16 3000 10.8 240 13:37 31.03.2020
142 Sand 30 1007 16 3000 10.8 240 13:18 31.03.2020
143 Clear 29 1008 19 0 7.6 220 12:44 31.03.2020
144 Sand 27 1008 13 3000 6.2 210 12:20 31.03.2020
145 Sand 27 1008 13 3000 6.2 210 11:55 31.03.2020
146 Sand 27 1008 13 3000 6.2 210 11:36 31.03.2020
147 Sand 27 1008 13 3000 6.2 210 11:36 31.03.2020
148 Sand 26 1009 15 3000 7.7 210 11:18 31.03.2020
149 Sand 26 1009 15 3000 7.7 210 10:55 31.03.2020
150 Sand 26 1009 15 3000 7.7 210 10:37 31.03.2020
151 Sand 26 1009 15 3000 7.7 210 10:18 31.03.2020
152 Clouds 26 1008 12 6000 8.2 190 09:43 31.03.2020
153 Clouds 26 1008 12 6000 8.2 190 09:24 31.03.2020
154 Clouds 25 1008 13 6000 10.8 190 08:57 31.03.2020
155 Clouds 25 1008 13 6000 10.8 190 08:39 31.03.2020
156 Clouds 25 1008 13 6000 10.8 190 08:19 31.03.2020
157 Clouds 25 1006 12 10000 9.8 200 07:56 31.03.2020
158 Clouds 25 1006 12 10000 9.8 200 07:38 31.03.2020
159 Clouds 25 1006 12 10000 9.8 200 07:19 31.03.2020
160 Clouds 25 1006 29 10000 7.7 190 06:47 31.03.2020
161 Clouds 26 1006 9 10000 8.7 180 06:23 31.03.2020
162 Clouds 26 1006 9 10000 8.7 180 05:39 31.03.2020
163 Rain 25 1005 13 10000 5.7 160 03:43 31.03.2020
164 Clouds 27 1007 9 10000 6.7 270 02:19 31.03.2020
165 Clouds 27 1006 10 10000 10.8 160 01:45 31.03.2020
166 Clouds 26 1007 12 10000 7.7 150 00:51 31.03.2020
167 Clouds 26 1007 12 10000 7.7 150 00:25 31.03.2020
168 Clouds 26 1008 14 10000 5.7 150 23:58 30.03.2020
169 Clouds 26 1008 14 0 5.36 150 23:38 30.03.2020
170 Clouds 26 1008 14 10000 5.1 140 23:18 30.03.2020
171 Clouds 26 1008 14 10000 5.1 140 22:55 30.03.2020
172 Clouds 26 1008 14 10000 5.1 140 22:36 30.03.2020
173 Clouds 26 1008 14 10000 5.1 140 22:18 30.03.2020
174 Clouds 26 1008 14 10000 5.7 150 21:55 30.03.2020
175 Clouds 26 1008 14 10000 5.7 150 21:36 30.03.2020
176 Clouds 26 1008 14 10000 5.7 150 21:18 30.03.2020
177 Clouds 27 1008 12 6000 4.6 150 20:42 30.03.2020
178 Clouds 27 1008 12 6000 4.6 150 20:24 30.03.2020
179 Clouds 27 1008 12 6000 4.6 150 20:24 30.03.2020
180 Clouds 27 1008 12 6000 4.6 150 20:24 30.03.2020
181 Clouds 27 1008 12 6000 4.6 190 19:59 30.03.2020
182 Clouds 27 1008 12 6000 4.6 190 19:40 30.03.2020
183 Clouds 27 1008 12 6000 4.6 190 19:21 30.03.2020
184 Clouds 27 1008 12 6000 4.6 190 18:56 30.03.2020
185 Clouds 28 1008 13 6000 5.7 170 18:38 30.03.2020
186 Clouds 28 1008 13 6000 5.7 170 18:38 30.03.2020
187 Clouds 28 1008 13 6000 5.7 170 18:19 30.03.2020
188 Clouds 28 1008 13 6000 5.7 170 17:56 30.03.2020
189 Clouds 28 1008 13 6000 5.7 170 17:56 30.03.2020
190 Clouds 28 1008 13 6000 5.7 170 17:56 30.03.2020
191 Clouds 29 1009 12 6000 6.7 230 17:37 30.03.2020
192 Clouds 29 1009 13 6000 8.2 200 17:18 30.03.2020
193 Clouds 29 1009 13 6000 8.2 200 16:55 30.03.2020
194 Clouds 29 1009 13 6000 8.2 200 16:36 30.03.2020
195 Clouds 29 1009 13 6000 8.2 200 16:18 30.03.2020
196 Clouds 30 1009 12 6000 7.2 190 15:54 30.03.2020
197 Clouds 30 1009 12 6000 7.2 190 15:36 30.03.2020
198 Clouds 30 1009 12 6000 7.2 190 15:18 30.03.2020
199 Clouds 29 1010 13 6000 9.3 200 14:39 30.03.2020
200 Clouds 29 1010 13 6000 9.3 200 14:19 30.03.2020
201 Clouds 29 1010 13 6000 10.3 190 13:59 30.03.2020
202 Clouds 29 1010 13 6000 10.3 190 13:40 30.03.2020
203 Clouds 29 1010 13 6000 10.3 190 13:20 30.03.2020
204 Clouds 28 1011 15 6000 9.8 190 12:55 30.03.2020
205 Clouds 28 1011 15 6000 9.8 190 12:36 30.03.2020
206 Clouds 28 1011 15 6000 9.8 190 12:18 30.03.2020
207 Clouds 28 1011 15 6000 9.8 190 12:18 30.03.2020
208 Clouds 27 1012 16 6000 7.2 190 11:43 30.03.2020
209 Clouds 27 1012 16 6000 7.2 190 11:24 30.03.2020
210 Clouds 26 1012 16 10000 5.1 180 10:59 30.03.2020
211 Clouds 26 1012 16 10000 5.1 180 10:39 30.03.2020
212 Clouds 26 1012 16 10000 5.1 180 10:21 30.03.2020
213 Clouds 24 1012 16 10000 3.1 160 09:54 30.03.2020
214 Clouds 24 1012 16 10000 3.1 160 09:36 30.03.2020
215 Clouds 24 1012 22 10000 3.1 160 09:18 30.03.2020
216 Clouds 23 1012 22 6000 3.6 150 08:40 30.03.2020
217 Clouds 23 1012 22 6000 3.6 150 08:21 30.03.2020
218 Haze 22 1012 24 4000 3.1 140 07:48 30.03.2020
219 Haze 20 1012 32 4000 4.6 140 07:26 30.03.2020
220 Haze 19 1012 32 4000 4.6 140 06:52 30.03.2020
221 Clouds 18 1012 31 6000 4.6 150 06:30 30.03.2020
222 Clouds 18 1012 34 10000 5.1 150 05:47 30.03.2020
223 Clouds 18 1012 31 10000 1.5 150 05:18 30.03.2020
224 Clouds 18 1012 36 10000 3.91 177 04:22 30.03.2020
225 Clouds 18 1013 36 10000 1.5 190 03:34 30.03.2020
226 Clouds 18 1013 36 10000 3.6 140 02:37 30.03.2020
227 Clouds 19 1014 34 10000 5.1 120 01:35 30.03.2020
228 Clouds 19 1014 34 10000 4.6 100 00:47 30.03.2020
229 Clouds 19 1014 34 10000 4.6 100 00:21 30.03.2020
230 Clouds 20 1015 32 10000 3.6 90 23:41 29.03.2020
231 Clouds 20 1015 32 10000 3.6 90 23:23 29.03.2020
232 Clouds 20 1015 32 10000 2.6 80 22:57 29.03.2020
233 Clouds 20 1015 30 10000 3.1 60 22:37 29.03.2020
234 Clouds 21 1015 30 10000 3.1 60 22:19 29.03.2020
235 Clouds 22 1015 23 10000 2.1 290 21:55 29.03.2020
236 Clouds 22 1015 24 10000 1 310 21:36 29.03.2020
237 Clouds 22 1015 24 10000 1 310 21:36 29.03.2020
238 Clear 22 1015 24 10000 1 310 21:18 29.03.2020
239 Clear 22 1015 24 10000 3.6 170 20:54 29.03.2020
240 Clear 22 1014 26 10000 3.1 170 20:36 29.03.2020
241 Clear 22 1014 26 10000 3.1 170 20:18 29.03.2020
242 Clear 23 1014 19 10000 2.1 240 19:42 29.03.2020
243 Clear 23 1014 19 10000 2.1 240 19:24 29.03.2020
244 Clear 24 1014 16 10000 3.1 270 18:58 29.03.2020
245 Clear 25 1013 15 10000 3.6 290 18:40 29.03.2020
246 Clear 25 1013 15 10000 3.6 290 18:20 29.03.2020
247 Clear 25 1013 15 10000 3.6 290 18:20 29.03.2020
248 Clear 25 1013 15 10000 3.6 290 18:20 29.03.2020
249 Clear 25 1013 15 10000 3.6 290 17:58 29.03.2020
250 Clear 26 1013 15 10000 3.6 290 17:40 29.03.2020
251 Clear 26 1013 15 10000 3.6 290 17:22 29.03.2020
252 Clear 26 1013 15 10000 3.1 260 16:58 29.03.2020
253 Clear 26 1013 14 10000 2.1 240 16:39 29.03.2020
254 Clear 26 1013 14 10000 2.1 240 16:20 29.03.2020
255 Clear 25 1013 17 10000 5.1 200 15:58 29.03.2020
256 Clear 25 1013 17 10000 5.1 200 15:39 29.03.2020
257 Clear 25 1013 17 10000 5.1 200 15:19 29.03.2020
258 Clear 26 1014 16 10000 2.1 250 14:55 29.03.2020
259 Clear 25 1014 17 10000 4.6 240 14:36 29.03.2020
260 Clear 25 1014 17 10000 4.6 240 14:36 29.03.2020
261 Clear 25 1014 17 10000 4.6 240 14:18 29.03.2020
262 Clear 25 1015 17 10000 4.6 220 13:42 29.03.2020
263 Clear 24 1015 17 10000 4.6 220 13:22 29.03.2020
264 Clear 24 1015 22 10000 6.2 220 12:58 29.03.2020
265 Clear 23 1016 27 10000 6.7 200 12:39 29.03.2020
266 Clear 23 1016 27 10000 6.7 200 12:19 29.03.2020
267 Clear 23 1016 27 10000 6.7 200 11:59 29.03.2020
268 Clear 21 1017 32 6000 6.7 210 11:38 29.03.2020
269 Clear 21 1017 32 6000 6.7 210 11:19 29.03.2020
270 Clear 20 1017 34 6000 6.2 210 10:39 29.03.2020
271 Clear 20 1017 34 6000 6.2 210 10:39 29.03.2020
272 Clear 20 1017 34 6000 6.2 210 10:21 29.03.2020
273 Clear 20 1017 32 10000 5.7 200 09:57 29.03.2020
274 Clouds 20 1017 32 10000 5.1 210 09:38 29.03.2020
275 Clouds 20 1017 32 10000 5.1 210 09:18 29.03.2020
276 Clouds 20 1017 32 10000 5.1 210 09:18 29.03.2020
277 Clouds 20 1017 34 10000 3.1 200 08:45 29.03.2020
278 Clouds 20 1017 34 10000 3.1 200 08:26 29.03.2020
279 Clouds 17 1017 48 10000 3.6 170 07:48 29.03.2020
280 Clouds 17 1017 48 10000 3.6 170 07:24 29.03.2020
281 Clouds 15 1016 58 10000 3.6 170 06:55 29.03.2020
282 Clouds 14 1016 67 10000 1.5 60 04:57 29.03.2020
283 Clouds 14 1017 67 10000 1.5 60 03:41 29.03.2020
284 Clouds 14 1017 67 10000 1.5 60 03:22 29.03.2020
285 Clouds 14 1017 67 10000 1.5 60 01:44 29.03.2020
286 Clouds 14 1017 67 10000 1.5 60 01:23 29.03.2020
287 Clouds 15 1018 62 10000 1.5 90 00:46 29.03.2020
288 Clouds 15 1018 62 10000 1.5 90 00:28 29.03.2020
289 Clouds 15 1018 62 10000 2.6 30 23:41 28.03.2020
290 Clouds 15 1018 62 10000 2.6 30 23:23 28.03.2020
291 Clouds 15 1018 62 10000 2.6 30 23:23 28.03.2020
292 Clouds 15 1018 59 10000 2.6 350 22:56 28.03.2020
293 Clouds 16 1018 59 10000 2.6 350 22:37 28.03.2020
294 Clouds 16 1018 59 10000 2.6 350 22:18 28.03.2020
295 Clouds 16 1018 48 10000 5.1 340 21:41 28.03.2020
296 Clouds 17 1018 48 10000 5.1 340 21:23 28.03.2020
297 Clouds 17 1018 48 10000 5.1 340 20:58 28.03.2020
298 Clouds 17 1017 42 10000 5.1 340 20:39 28.03.2020
299 Clouds 18 1017 42 10000 5.1 340 20:20 28.03.2020
300 Clouds 18 1017 34 10000 4.1 330 19:56 28.03.2020
301 Clouds 18 1017 36 10000 6.2 330 19:36 28.03.2020
302 Clouds 18 1017 36 10000 6.2 330 19:18 28.03.2020
303 Clouds 19 1016 34 10000 5.7 330 18:47 28.03.2020
304 Clouds 20 1016 34 10000 6.2 330 18:22 28.03.2020
305 Clouds 20 1016 37 10000 5.7 340 17:58 28.03.2020
306 Clouds 20 1015 37 10000 3.1 330 17:38 28.03.2020
307 Clouds 21 1015 37 10000 3.1 330 17:18 28.03.2020
308 Clouds 21 1015 35 10000 4.6 330 16:42 28.03.2020
309 Clouds 21 1015 35 10000 4.6 330 16:20 28.03.2020
310 Clouds 21 1015 37 10000 3.1 310 15:56 28.03.2020
311 Clouds 21 1015 37 10000 4.6 340 15:37 28.03.2020
312 Clouds 21 1015 37 10000 4.6 340 15:18 28.03.2020
313 Clouds 21 1016 37 10000 6.2 330 14:42 28.03.2020
314 Clouds 21 1016 37 10000 6.2 330 14:22 28.03.2020
315 Clouds 21 1016 37 10000 5.7 330 13:56 28.03.2020
316 Clouds 21 1016 35 10000 5.1 290 13:37 28.03.2020
317 Clouds 21 1016 37 10000 4.6 300 13:18 28.03.2020
318 Clouds 21 1016 37 10000 4.6 300 13:18 28.03.2020
319 Clouds 21 1017 35 10000 4.1 270 12:38 28.03.2020
320 Clouds 21 1017 35 10000 4.1 270 12:19 28.03.2020
321 Clouds 20 1017 42 10000 3.1 270 11:42 28.03.2020
322 Clouds 20 1017 42 10000 3.1 270 11:42 28.03.2020
323 Clouds 20 1017 42 10000 3.1 270 11:21 28.03.2020
324 Clouds 19 1017 48 10000 3.6 290 10:55 28.03.2020
325 Clouds 19 1017 55 10000 3.6 280 10:36 28.03.2020
326 Clouds 19 1017 55 10000 3.6 280 10:18 28.03.2020
327 Clouds 18 1018 68 6000 2.6 300 09:40 28.03.2020
328 Clouds 18 1018 68 6000 2.6 300 09:22 28.03.2020
329 Clouds 17 1017 72 6000 2.6 330 08:45 28.03.2020
330 Clouds 16 1017 82 6000 4.1 330 08:25 28.03.2020
331 Mist 16 1017 77 4000 5.1 320 07:58 28.03.2020
332 Mist 15 1017 87 4000 4.6 310 07:40 28.03.2020
333 Mist 15 1017 87 4000 4.6 320 06:54 28.03.2020
334 Clouds 15 1016 93 6000 3.1 330 06:29 28.03.2020
335 Clouds 15 1016 93 6000 3.6 290 05:38 28.03.2020
336 Clouds 15 1016 93 6000 3.6 290 05:19 28.03.2020
337 Clouds 15 1015 87 6000 3.1 320 04:39 28.03.2020
338 Clouds 15 1015 87 10000 2.1 340 02:52 28.03.2020
339 Clouds 16 1015 82 10000 2.6 320 01:48 28.03.2020
340 Clouds 16 1015 87 10000 4.1 330 01:23 28.03.2020
341 Clouds 16 1015 87 10000 3.6 330 00:51 28.03.2020
342 Clouds 16 1015 87 10000 4.6 320 00:25 28.03.2020
343 Clouds 16 1015 87 10000 5.7 320 23:44 27.03.2020
344 Clouds 16 1015 87 10000 5.7 320 23:26 27.03.2020
345 Clouds 16 1014 87 10000 5.7 320 22:57 27.03.2020
346 Clouds 16 1014 77 10000 6.2 320 22:39 27.03.2020
347 Clouds 17 1014 77 10000 6.2 320 22:21 27.03.2020
348 Clouds 17 1014 72 10000 5.7 330 21:59 27.03.2020
349 Clouds 17 1014 72 10000 5.7 320 21:40 27.03.2020
350 Clouds 17 1014 72 10000 5.7 320 21:22 27.03.2020
351 Clouds 17 1013 63 10000 5.7 330 20:57 27.03.2020
352 Clouds 18 1013 59 10000 5.1 340 20:39 27.03.2020
353 Clouds 18 1013 59 10000 5.1 340 20:19 27.03.2020
354 Clouds 18 1013 59 10000 5.1 340 20:19 27.03.2020
355 Clouds 19 1012 55 10000 6.7 340 19:55 27.03.2020
356 Clouds 19 1012 49 10000 6.2 350 19:36 27.03.2020
357 Clouds 20 1012 49 10000 6.2 350 19:18 27.03.2020
358 Clouds 20 1011 52 6000 6.7 350 18:42 27.03.2020
359 Clouds 20 1011 52 6000 6.7 350 18:23 27.03.2020
360 Clouds 21 1010 49 6000 6.2 340 17:55 27.03.2020
361 Clouds 21 1010 49 6000 6.2 340 17:36 27.03.2020
362 Clouds 22 1009 40 6000 7.7 340 17:18 27.03.2020
363 Clouds 23 1009 40 6000 8.2 350 16:43 27.03.2020
364 Clouds 23 1009 40 6000 8.2 350 16:24 27.03.2020
365 Clouds 24 1008 44 6000 7.2 340 15:45 27.03.2020
366 Clouds 24 1008 44 6000 7.2 340 15:26 27.03.2020
367 Clouds 24 1008 41 6000 7.2 330 14:56 27.03.2020
368 Clouds 25 1008 44 6000 6.7 340 14:37 27.03.2020
369 Clouds 25 1008 44 6000 6.7 340 14:18 27.03.2020
370 Clouds 25 1008 44 6000 8.2 340 13:43 27.03.2020
371 Clouds 25 1007 44 6000 7.7 340 13:22 27.03.2020
372 Clear 25 1007 47 6000 7.7 330 12:59 27.03.2020
373 Clear 25 1007 47 6000 7.7 330 12:41 27.03.2020
374 Clear 25 1007 44 6000 8.2 330 12:19 27.03.2020
375 Clear 25 1007 44 6000 8.2 330 11:43 27.03.2020
376 Clear 25 1007 44 6000 8.2 330 11:25 27.03.2020
377 Clear 26 1007 34 6000 4.6 340 10:57 27.03.2020
378 Clear 25 1006 36 6000 4.1 10 10:39 27.03.2020
379 Clear 24 1006 36 6000 4.1 10 10:20 27.03.2020
380 Clear 23 1006 40 6000 4.1 10 09:58 27.03.2020
381 Dust 22 1006 40 4000 4.6 20 09:39 27.03.2020
382 Dust 22 1006 40 4000 4.6 20 09:21 27.03.2020
383 Dust 21 1006 43 4000 4.6 30 08:58 27.03.2020
384 Dust 20 1006 49 4000 4.6 20 08:39 27.03.2020
385 Dust 20 1006 49 4000 4.6 20 08:21 27.03.2020
386 Dust 20 1005 49 4000 4.1 50 07:53 27.03.2020
387 Dust 18 1005 59 4000 3.6 40 07:28 27.03.2020
388 Dust 18 1005 59 4000 3.1 30 06:59 27.03.2020
389 Dust 17 1005 63 4000 3.1 30 06:37 27.03.2020
390 Haze 17 1004 63 4000 3.1 30 05:38 27.03.2020
391 Clouds 18 1003 55 6000 5.7 360 02:51 27.03.2020
392 Clouds 18 1003 55 6000 10.3 80 01:54 27.03.2020
393 Clouds 18 1003 55 6000 13.4 70 00:56 27.03.2020
394 Clouds 18 1004 55 6000 11.3 70 00:37 27.03.2020
395 Clouds 18 1004 55 6000 11.3 70 00:18 27.03.2020
396 Clouds 18 1006 59 6000 10.8 50 23:36 26.03.2020
397 Clouds 18 1006 59 6000 10.8 50 23:18 26.03.2020
398 Clouds 18 1006 59 6000 8.7 50 22:54 26.03.2020
399 Clouds 18 1005 68 6000 11.3 50 22:36 26.03.2020
400 Clouds 18 1005 68 6000 11.3 50 22:18 26.03.2020
401 Clouds 18 1006 72 6000 9.3 40 21:39 26.03.2020
402 Clouds 18 1006 72 6000 9.3 40 21:21 26.03.2020
403 Clouds 18 1006 72 6000 10.8 50 20:58 26.03.2020
404 Clouds 18 1006 72 6000 9.3 30 20:39 26.03.2020
405 Clouds 18 1006 72 6000 9.3 30 20:20 26.03.2020
406 Clouds 18 1006 72 6000 8.7 30 19:57 26.03.2020
407 Clouds 18 1006 72 6000 10.8 40 19:39 26.03.2020
408 Clouds 18 1006 72 6000 10.8 40 19:20 26.03.2020
409 Clouds 18 1006 72 6000 10.8 40 19:20 26.03.2020
410 Clouds 18 1006 72 6000 10.8 40 19:20 26.03.2020
411 Sand 18 1006 68 4000 8.7 20 18:58 26.03.2020
412 Sand 18 1006 68 4000 8.7 20 18:58 26.03.2020
413 Sand 19 1006 64 4000 8.7 20 18:39 26.03.2020
414 Sand 20 1005 64 4000 7.2 360 18:21 26.03.2020
415 Sand 21 1005 49 4000 7.2 350 17:44 26.03.2020
416 Clouds 24 1004 29 6000 7.7 20 17:19 26.03.2020
417 Clouds 25 1004 29 6000 7.7 20 16:55 26.03.2020
418 Clouds 25 1004 22 6000 8.2 40 16:37 26.03.2020
419 Clouds 26 1004 22 6000 8.2 40 16:18 26.03.2020
420 Clouds 26 1004 24 6000 7.7 30 15:41 26.03.2020
421 Clouds 26 1004 24 6000 7.7 30 15:22 26.03.2020
422 Clouds 26 1004 26 6000 7.7 20 14:58 26.03.2020
423 Clouds 26 1004 25 6000 7.7 30 14:39 26.03.2020
424 Clouds 26 1004 21 6000 8.2 20 14:19 26.03.2020
425 Clouds 26 1005 21 6000 6.2 20 13:45 26.03.2020
426 Clouds 26 1005 21 6000 6.2 20 13:24 26.03.2020
427 Clouds 26 1006 21 6000 5.7 350 12:59 26.03.2020
428 Clouds 27 1005 15 6000 6.2 50 12:38 26.03.2020
429 Clouds 28 1005 15 6000 6.2 50 12:20 26.03.2020
430 Clouds 26 1005 21 6000 6.7 70 11:46 26.03.2020
431 Clouds 26 1005 21 6000 6.7 70 11:22 26.03.2020
432 Clouds 24 1005 29 6000 4.6 70 10:57 26.03.2020
433 Haze 23 1006 33 4000 4.6 50 10:38 26.03.2020
434 Haze 22 1006 33 4000 4.6 50 10:19 26.03.2020
435 Rain 20 1008 42 4000 2.1 250 09:44 26.03.2020
436 Clouds 21 1008 35 6000 2.1 250 09:21 26.03.2020
437 Clouds 20 1007 40 10000 5.7 50 08:57 26.03.2020
438 Clouds 19 1009 52 10000 1.5 250 08:38 26.03.2020
439 Clouds 18 1009 52 10000 1.5 250 08:19 26.03.2020
440 Clouds 17 1009 59 10000 3.6 190 07:44 26.03.2020
441 Clouds 17 1009 59 10000 3.6 190 07:22 26.03.2020
442 Clouds 16 1008 67 10000 3.6 40 06:56 26.03.2020
443 Clouds 16 1008 67 10000 3.6 40 06:27 26.03.2020
444 Clouds 16 1008 63 10000 9.3 80 05:22 26.03.2020
445 Clouds 16 1010 72 10000 5.1 60 03:45 26.03.2020
446 Clouds 16 1010 77 10000 5.1 60 02:56 26.03.2020
447 Clouds 15 1011 77 10000 5.1 60 01:50 26.03.2020
448 Clouds 16 1012 72 10000 6.7 40 00:55 26.03.2020
449 Clouds 16 1012 72 10000 6.7 40 00:22 26.03.2020
450 Clouds 17 1012 63 10000 4.1 40 23:41 25.03.2020
451 Clouds 17 1012 63 10000 4.1 40 23:21 25.03.2020
452 Clouds 17 1013 59 10000 5.1 40 22:42 25.03.2020
453 Clouds 17 1013 59 10000 5.1 40 22:21 25.03.2020
454 Clouds 18 1013 59 6000 5.1 40 21:56 25.03.2020
455 Clouds 18 1013 59 6000 5.1 40 21:38 25.03.2020
456 Clouds 18 1013 59 6000 7.2 40 21:20 25.03.2020
457 Clouds 18 1013 59 6000 7.2 40 20:56 25.03.2020
458 Clouds 18 1013 59 6000 7.2 40 20:37 25.03.2020
459 Clouds 18 1013 59 6000 7.2 40 20:18 25.03.2020
460 Clouds 19 1013 55 6000 8.2 40 19:43 25.03.2020
461 Clouds 19 1013 55 6000 8.2 40 19:23 25.03.2020
462 Clouds 19 1012 49 6000 8.7 40 18:58 25.03.2020
463 Clouds 20 1012 49 6000 8.7 40 18:40 25.03.2020
464 Clouds 20 1012 49 6000 6.7 30 18:21 25.03.2020
465 Clouds 20 1012 49 6000 6.7 30 17:56 25.03.2020
466 Clouds 21 1013 46 6000 6.7 30 17:37 25.03.2020
467 Clouds 21 1013 46 6000 6.7 30 17:19 25.03.2020
468 Clouds 21 1013 43 6000 5.7 360 16:43 25.03.2020
469 Clouds 22 1013 43 6000 5.7 360 16:24 25.03.2020
470 Clouds 22 1013 40 10000 5.7 360 15:59 25.03.2020
471 Clouds 22 1013 40 10000 5.7 360 15:41 25.03.2020
472 Clouds 22 1013 40 10000 5.7 360 15:20 25.03.2020
473 Clouds 22 1013 43 10000 3.6 20 14:55 25.03.2020
474 Clouds 22 1013 43 10000 3.6 20 14:37 25.03.2020
475 Clouds 22 1013 43 10000 3.6 20 14:18 25.03.2020
476 Clouds 22 1013 40 10000 5.1 350 13:42 25.03.2020
477 Clouds 22 1013 40 10000 5.1 350 13:22 25.03.2020
478 Clouds 22 1013 37 10000 4.1 20 12:38 25.03.2020
479 Clouds 22 1013 37 10000 4.1 20 12:19 25.03.2020
480 Clouds 22 1013 37 10000 4.1 20 11:56 25.03.2020
481 Clouds 20 1014 45 10000 4.1 10 11:37 25.03.2020
482 Clouds 20 1014 45 10000 4.1 10 11:19 25.03.2020
483 Clouds 19 1014 48 10000 6.2 40 10:56 25.03.2020
484 Clouds 19 1014 48 10000 6.2 40 10:38 25.03.2020
485 Clouds 19 1014 48 10000 6.2 40 10:18 25.03.2020
486 Clear 17 1014 63 10000 6.2 40 09:43 25.03.2020
487 Clear 17 1014 63 10000 6.2 40 09:24 25.03.2020
488 Clouds 17 1014 63 10000 7.2 50 08:57 25.03.2020
489 Clouds 16 1014 72 10000 6.2 40 08:39 25.03.2020
490 Clouds 16 1014 72 10000 6.2 40 08:19 25.03.2020
491 Clouds 15 1013 82 6000 4.6 40 07:41 25.03.2020
492 Clouds 15 1013 82 6000 4.6 40 07:22 25.03.2020
493 Clouds 14 1013 87 6000 4.6 30 06:50 25.03.2020
494 Clouds 14 1013 87 6000 3.6 30 06:28 25.03.2020
495 Clouds 14 1013 87 6000 3.6 30 05:56 25.03.2020
496 Clouds 14 1013 87 6000 3.6 30 05:30 25.03.2020
497 Clouds 14 1012 87 6000 3.6 360 04:39 25.03.2020
498 Clouds 14 1012 87 6000 3.6 360 03:36 25.03.2020
499 Clear 14 1012 82 10000 2.6 360 02:40 25.03.2020
500 Clear 15 1013 82 10000 4.1 360 01:23 25.03.2020
501 Clear 15 1013 82 10000 4.1 360 00:49 25.03.2020
502 Clear 15 1013 77 10000 3.6 40 00:24 25.03.2020
503 Clear 15 1013 77 10000 4.1 20 23:46 24.03.2020
504 Clear 15 1013 77 10000 4.1 20 23:28 24.03.2020
505 Clear 16 1013 72 10000 5.7 30 22:57 24.03.2020
506 Clear 16 1013 72 10000 6.2 20 22:38 24.03.2020
507 Clear 16 1013 72 10000 6.2 20 22:19 24.03.2020
508 Clear 16 1013 72 10000 6.2 20 22:19 24.03.2020
509 Clear 16 1013 72 10000 6.2 20 22:19 24.03.2020
510 Clear 16 1013 72 10000 6.2 30 21:56 24.03.2020
511 Clear 16 1013 72 10000 5.1 40 21:38 24.03.2020
512 Clear 17 1013 72 10000 5.1 40 21:18 24.03.2020
513 Clear 17 1013 72 10000 5.1 40 21:18 24.03.2020
514 Clear 17 1013 72 10000 6.2 40 20:57 24.03.2020
515 Clear 17 1013 72 10000 6.2 40 20:39 24.03.2020
516 Clear 17 1013 72 10000 6.2 40 20:21 24.03.2020
517 Clear 18 1012 68 10000 6.2 350 19:45 24.03.2020
518 Clear 19 1012 68 10000 6.2 350 19:19 24.03.2020
519 Clear 19 1012 60 10000 6.2 340 18:56 24.03.2020
520 Clear 19 1012 60 10000 6.2 340 18:56 24.03.2020
521 Clear 20 1012 60 10000 6.2 340 18:37 24.03.2020
522 Clear 20 1012 60 10000 6.2 340 18:37 24.03.2020
523 Clear 20 1011 60 10000 6.2 350 18:19 24.03.2020
524 Clear 21 1010 52 10000 6.7 340 17:43 24.03.2020
525 Clear 21 1010 52 10000 6.7 340 17:24 24.03.2020
526 Clear 23 1010 46 10000 5.7 340 16:59 24.03.2020
527 Clear 23 1010 36 10000 5.1 320 16:41 24.03.2020
528 Clear 24 1010 36 10000 5.1 320 16:23 24.03.2020
529 Clear 24 1009 38 10000 5.1 300 15:59 24.03.2020
530 Clear 25 1009 33 10000 5.1 300 15:40 24.03.2020
531 Clear 25 1009 33 10000 5.1 300 15:22 24.03.2020
532 Clear 25 1010 36 10000 5.1 300 14:43 24.03.2020
533 Clear 25 1010 36 10000 5.1 300 14:43 24.03.2020
534 Clear 24 1010 38 10000 5.1 300 14:43 24.03.2020
535 Clouds 24 1010 38 10000 5.1 300 14:22 24.03.2020
536 Clouds 25 1010 38 10000 5.1 290 13:55 24.03.2020
537 Clouds 25 1010 31 10000 4.6 270 13:36 24.03.2020
538 Clouds 25 1010 31 10000 4.6 270 13:18 24.03.2020
539 Clouds 25 1011 31 10000 5.1 260 12:41 24.03.2020
540 Clouds 24 1011 31 10000 5.1 260 12:23 24.03.2020
541 Clouds 23 1011 35 6000 3.6 280 11:41 24.03.2020
542 Clouds 23 1011 35 6000 3.6 280 11:21 24.03.2020
543 Clouds 23 1011 28 6000 3.6 240 10:59 24.03.2020
544 Clouds 22 1011 30 6000 3.6 250 10:40 24.03.2020
545 Clouds 22 1011 30 6000 3.6 250 10:40 24.03.2020
546 Dust 22 1011 30 4000 3.6 270 10:18 24.03.2020
547 Dust 22 1011 30 4000 3.6 270 10:18 24.03.2020
548 Dust 22 1011 30 4000 3.6 270 10:18 24.03.2020
549 Dust 21 1011 34 4000 2.6 240 09:44 24.03.2020
550 Dust 20 1011 34 4000 2.6 240 09:25 24.03.2020
551 Dust 20 1011 34 4000 1 290 08:57 24.03.2020
552 Dust 20 1011 34 4000 1 290 08:37 24.03.2020
553 Dust 20 1011 34 4000 1 290 08:18 24.03.2020
554 Dust 19 1011 39 4000 2.1 290 07:44 24.03.2020
555 Dust 18 1011 39 4000 2.1 290 07:22 24.03.2020
556 Dust 18 1011 39 4000 2.1 290 07:22 24.03.2020
557 Dust 17 1010 36 4000 1 300 06:40 24.03.2020
558 Dust 17 1010 36 4000 1 300 06:21 24.03.2020
559 Dust 17 1009 36 4000 1.93 242 04:52 24.03.2020
560 Dust 17 1009 33 3000 1.5 190 03:32 24.03.2020
561 Dust 17 1009 36 3000 2.1 230 02:44 24.03.2020
562 Dust 19 1010 32 3000 2.6 180 00:57 24.03.2020
563 Dust 19 1010 34 3000 1 180 00:28 24.03.2020
564 Dust 19 1010 34 3000 1 240 23:59 23.03.2020
565 Dust 19 1010 32 3000 2.6 280 23:38 23.03.2020
566 Dust 21 1010 30 3000 2.1 270 23:19 23.03.2020
567 Dust 22 1009 23 3000 4.6 270 22:45 23.03.2020
568 Dust 23 1009 23 3000 4.6 270 22:23 23.03.2020
569 Dust 22 1009 28 3000 3.6 200 21:55 23.03.2020
570 Dust 22 1009 27 3000 3.6 200 21:37 23.03.2020
571 Dust 22 1009 27 3000 3.6 200 21:37 23.03.2020
572 Dust 23 1009 27 3000 3.6 200 21:37 23.03.2020
573 Dust 23 1009 27 3000 3.6 200 21:19 23.03.2020
574 Sand 23 1009 27 2000 5.7 210 20:56 23.03.2020
575 Sand 23 1009 25 2000 5.7 210 20:38 23.03.2020
576 Sand 24 1009 25 2000 5.7 210 20:19 23.03.2020
577 Sand 25 1008 22 2000 5.7 200 19:42 23.03.2020
578 Sand 25 1008 22 2000 5.7 200 19:23 23.03.2020
579 Sand 26 1008 21 2000 6.2 190 18:56 23.03.2020
580 Sand 26 1008 19 2000 6.7 200 18:38 23.03.2020
581 Sand 26 1008 21 2000 6.7 200 18:19 23.03.2020
582 Sand 26 1008 26 2000 8.7 200 17:41 23.03.2020
583 Sand 27 1008 20 2000 8.7 200 17:20 23.03.2020
584 Sand 27 1007 15 2000 7.7 200 16:56 23.03.2020
585 Sand 27 1007 14 3000 8.2 190 16:37 23.03.2020
586 Sand 28 1007 14 3000 8.2 190 16:18 23.03.2020
587 Sand 27 1008 14 3000 9.3 180 15:41 23.03.2020
588 Sand 27 1008 14 3000 9.3 180 15:19 23.03.2020
589 Clouds 27 1008 15 6000 10.3 190 14:38 23.03.2020
590 Clouds 27 1008 15 6000 10.3 190 14:20 23.03.2020
591 Clouds 27 1008 15 6000 10.3 190 14:20 23.03.2020
592 Clouds 27 1008 15 6000 12.3 190 13:58 23.03.2020
593 Clouds 28 1008 14 6000 10.8 210 13:40 23.03.2020
594 Clouds 27 1008 14 6000 10.8 210 13:40 23.03.2020
595 Clouds 28 1008 14 6000 10.8 210 13:20 23.03.2020
596 Clouds 27 1008 14 6000 13.4 190 12:44 23.03.2020
597 Clouds 27 1008 14 6000 13.4 190 12:25 23.03.2020
598 Clouds 27 1009 11 6000 13.4 180 11:59 23.03.2020
599 Clouds 28 1008 13 6000 14.4 190 11:59 23.03.2020
600 Clouds 27 1009 11 6000 13.4 180 11:39 23.03.2020
601 Clouds 27 1009 11 6000 13.4 180 11:19 23.03.2020
602 Clouds 27 1009 10 6000 11.8 190 10:57 23.03.2020
603 Clouds 27 1010 10 6000 12.3 180 10:38 23.03.2020
604 Clouds 27 1010 10 6000 12.3 180 10:20 23.03.2020
605 Clouds 27 1010 10 6000 13.4 180 09:44 23.03.2020
606 Clouds 26 1010 9 10000 13.4 180 09:21 23.03.2020
607 Clouds 25 1011 12 10000 6.7 180 08:57 23.03.2020
608 Clouds 24 1011 12 10000 6.7 180 08:36 23.03.2020
609 Rain 24 1011 12 10000 6.7 180 08:18 23.03.2020
610 Rain 18 1011 36 10000 4.6 60 07:42 23.03.2020
611 Rain 18 1011 36 10000 4.6 60 07:23 23.03.2020
612 Rain 18 1011 31 10000 4.6 90 06:49 23.03.2020
613 Rain 16 1012 41 10000 2.1 70 05:54 23.03.2020
614 Rain 16 1012 41 10000 2.1 40 05:29 23.03.2020
615 Rain 16 1011 31 10000 4.1 50 03:28 23.03.2020
616 Clouds 16 1013 31 10000 1 190 01:51 23.03.2020
617 Clouds 16 1013 31 10000 2.6 90 01:33 23.03.2020
618 Clouds 16 1013 31 10000 2.1 110 00:39 23.03.2020
619 Clouds 17 1013 23 10000 4.1 110 23:48 22.03.2020
620 Clouds 17 1013 23 10000 4.1 110 23:26 22.03.2020
621 Clear 17 1014 23 10000 3.1 140 22:45 22.03.2020
622 Clear 17 1014 23 10000 3.1 140 22:26 22.03.2020
623 Clear 17 1014 29 10000 2.6 150 21:57 22.03.2020
624 Clear 17 1014 29 10000 2.6 150 21:39 22.03.2020
625 Clear 17 1014 29 10000 2.6 150 21:20 22.03.2020
626 Clear 17 1015 29 10000 3.1 140 20:54 22.03.2020
627 Clear 18 1015 29 10000 3.1 140 20:36 22.03.2020
628 Clear 18 1015 33 10000 3.1 140 20:18 22.03.2020
629 Clear 19 1015 32 10000 3.1 120 19:54 22.03.2020
630 Clear 19 1015 32 10000 3.1 120 19:36 22.03.2020
631 Clear 19 1015 32 10000 3.1 120 19:18 22.03.2020
632 Clear 20 1015 28 10000 5.1 70 18:41 22.03.2020
633 Clear 20 1015 28 10000 5.1 70 18:22 22.03.2020
634 Clear 20 1014 28 10000 5.1 70 17:59 22.03.2020
635 Clear 21 1015 32 10000 4.1 80 17:39 22.03.2020
636 Clear 21 1015 20 10000 4.1 80 17:21 22.03.2020
637 Clear 21 1014 26 10000 5.7 70 16:59 22.03.2020
638 Clouds 21 1015 26 10000 6.2 50 16:41 22.03.2020
639 Clouds 21 1015 26 10000 6.2 50 16:22 22.03.2020
640 Clouds 21 1015 20 10000 5.1 50 15:58 22.03.2020
641 Clouds 21 1015 20 10000 5.1 50 15:39 22.03.2020
642 Clouds 21 1016 22 10000 2.6 60 14:47 22.03.2020
643 Clouds 21 1016 22 10000 4.1 50 14:20 22.03.2020
644 Clouds 20 1017 22 10000 3.1 30 13:58 22.03.2020
645 Clouds 20 1017 22 10000 3.1 30 13:40 22.03.2020
646 Clouds 20 1017 22 10000 3.1 30 13:19 22.03.2020
647 Clouds 19 1018 22 10000 3.1 40 12:44 22.03.2020
648 Clouds 19 1018 22 10000 3.1 40 12:23 22.03.2020
649 Clouds 18 1017 25 10000 4.1 60 11:58 22.03.2020
650 Clouds 18 1017 25 10000 4.1 60 11:39 22.03.2020
651 Clouds 18 1017 25 10000 4.1 60 11:21 22.03.2020
652 Clouds 17 1018 33 10000 3.1 70 10:44 22.03.2020
653 Clouds 17 1018 33 10000 3.1 70 10:24 22.03.2020
654 Clouds 17 1018 33 10000 3.1 70 10:24 22.03.2020
655 Clouds 16 1018 36 10000 4.1 60 10:00 22.03.2020
656 Clouds 16 1019 36 10000 4.1 80 09:40 22.03.2020
657 Clouds 16 1019 36 10000 4.1 80 09:19 22.03.2020
658 Clouds 15 1019 41 10000 3.6 90 08:42 22.03.2020
659 Clouds 15 1019 41 10000 3.6 90 08:24 22.03.2020
660 Clouds 15 1019 44 10000 3.1 100 07:50 22.03.2020
661 Clouds 14 1018 50 10000 3.6 110 07:22 22.03.2020
662 Clouds 12 1018 62 10000 2.6 110 06:35 22.03.2020
663 Clouds 10 1018 66 10000 3.51 108 05:31 22.03.2020
664 Clouds 11 1018 62 10000 2.55 98 03:25 22.03.2020
665 Clouds 11 1018 62 10000 3.09 95 01:26 22.03.2020
666 Clouds 11 1018 62 10000 3.09 95 00:47 22.03.2020
667 Clouds 11 1018 57 10000 3.09 95 00:25 22.03.2020
668 Clouds 12 1018 54 10000 4.1 80 23:43 21.03.2020
669 Clouds 12 1018 54 10000 4.1 80 23:19 21.03.2020
670 Clouds 12 1018 54 10000 4.1 80 23:19 21.03.2020
671 Clouds 13 1018 50 10000 3.1 60 22:55 21.03.2020
672 Clouds 13 1018 50 10000 3.1 60 22:36 21.03.2020
673 Clouds 13 1018 50 10000 3.1 60 22:18 21.03.2020
674 Clouds 14 1018 47 10000 3.1 60 21:42 21.03.2020
675 Clouds 14 1018 47 10000 3.1 60 21:23 21.03.2020
676 Clouds 14 1018 47 10000 6.2 40 20:59 21.03.2020
677 Clouds 14 1017 47 10000 6.2 40 20:41 21.03.2020
678 Clouds 14 1017 47 10000 6.2 40 20:19 21.03.2020
679 Clouds 15 1017 47 10000 6.2 40 19:44 21.03.2020
680 Clouds 15 1017 47 10000 6.2 40 19:25 21.03.2020
681 Clouds 16 1016 41 10000 6.2 10 18:59 21.03.2020
682 Clouds 16 1016 41 10000 6.2 10 18:39 21.03.2020
683 Clouds 16 1016 41 10000 6.2 10 18:20 21.03.2020
684 Clouds 16 1015 41 10000 6.2 10 17:57 21.03.2020
685 Clouds 16 1015 41 10000 6.2 10 17:39 21.03.2020
686 Clouds 16 1015 36 10000 6.2 10 17:20 21.03.2020
687 Clouds 17 1015 39 10000 6.2 360 16:41 21.03.2020
688 Clouds 17 1015 39 10000 6.2 360 16:22 21.03.2020
689 Clouds 17 1015 39 10000 6.7 360 15:57 21.03.2020
690 Clouds 17 1015 42 10000 6.7 340 15:39 21.03.2020
691 Clouds 17 1015 42 10000 6.7 340 15:20 21.03.2020
692 Clouds 17 1015 42 10000 5.7 340 14:54 21.03.2020
693 Clouds 17 1015 36 10000 6.7 350 14:36 21.03.2020
694 Clouds 18 1015 36 10000 6.7 350 14:18 21.03.2020
695 Clouds 18 1015 36 10000 5.7 310 13:57 21.03.2020
696 Clouds 18 1015 34 10000 3.6 290 13:38 21.03.2020
697 Clouds 17 1015 36 10000 4.1 320 13:19 21.03.2020
698 Clouds 17 1016 39 10000 4.1 330 12:41 21.03.2020
699 Clouds 16 1016 41 10000 4.6 330 12:20 21.03.2020
700 Clouds 16 1016 41 10000 4.6 330 11:59 21.03.2020
701 Clouds 16 1016 44 10000 5.1 320 11:39 21.03.2020
702 Clouds 16 1016 44 10000 5.1 320 11:20 21.03.2020
703 Clouds 16 1016 48 10000 4.1 300 10:58 21.03.2020
704 Clouds 15 1016 51 10000 3.1 310 10:39 21.03.2020
705 Clouds 15 1016 51 10000 3.1 310 10:21 21.03.2020
706 Clouds 15 1016 51 10000 3.1 310 09:59 21.03.2020
707 Clouds 15 1017 51 10000 2.6 320 09:39 21.03.2020
708 Clouds 15 1017 51 10000 2.6 320 09:20 21.03.2020
709 Clouds 14 1016 54 10000 3.6 300 08:55 21.03.2020
710 Clouds 13 1016 62 10000 2.6 270 08:37 21.03.2020
711 Clouds 13 1016 62 10000 2.6 270 08:19 21.03.2020
712 Clear 12 1016 71 10000 3.1 240 07:37 21.03.2020
713 Clear 12 1016 71 10000 3.1 240 07:19 21.03.2020
714 Clear 12 1016 71 10000 3.1 240 06:44 21.03.2020
715 Clear 11 1016 71 10000 3.1 240 06:24 21.03.2020
716 Clear 10 1015 76 10000 2.6 240 05:40 21.03.2020
717 Clear 10 1015 76 10000 2.6 230 04:26 21.03.2020
718 Clear 11 1015 71 0 1.79 250 02:37 21.03.2020
719 Clouds 11 1015 66 10000 3.1 260 01:45 21.03.2020
720 Clouds 11 1015 66 10000 3.1 260 01:25 21.03.2020
721 Clouds 12 1016 62 10000 4.6 250 00:43 21.03.2020
722 Clouds 12 1016 62 10000 4.1 260 00:23 21.03.2020
723 Clouds 12 1016 66 10000 4.6 260 23:44 20.03.2020
724 Clouds 12 1016 66 10000 4.6 260 23:22 20.03.2020
725 Clouds 12 1016 58 10000 4.1 250 22:44 20.03.2020
726 Clouds 13 1016 58 10000 4.1 250 22:25 20.03.2020
727 Clouds 13 1016 58 10000 6.2 270 21:59 20.03.2020
728 Clouds 13 1016 54 10000 6.2 260 21:40 20.03.2020
729 Clouds 13 1016 54 10000 6.2 260 21:20 20.03.2020
730 Clouds 13 1016 54 10000 6.2 260 20:59 20.03.2020
731 Clouds 13 1016 54 10000 7.2 260 20:41 20.03.2020
732 Clouds 13 1016 54 10000 7.2 260 20:20 20.03.2020
733 Clouds 13 1016 54 10000 8.2 280 19:48 20.03.2020
734 Clouds 13 1016 54 10000 7.2 280 19:22 20.03.2020
735 Clouds 14 1015 47 10000 8.2 290 18:58 20.03.2020
736 Clouds 14 1015 47 10000 8.7 290 18:39 20.03.2020
737 Clouds 14 1015 47 10000 8.7 290 18:20 20.03.2020
738 Clouds 14 1015 47 10000 6.7 300 17:56 20.03.2020
739 Clouds 14 1014 41 10000 8.7 280 17:38 20.03.2020
740 Clouds 16 1014 41 10000 11.3 260 17:19 20.03.2020
741 Clouds 16 1014 41 10000 11.3 260 16:42 20.03.2020
742 Clouds 16 1014 41 10000 11.3 260 16:21 20.03.2020
743 Clouds 16 1014 44 10000 8.7 270 15:56 20.03.2020
744 Clouds 16 1014 44 10000 8.7 270 15:37 20.03.2020
745 Clouds 16 1014 44 10000 8.7 270 15:19 20.03.2020
746 Clouds 16 1014 51 10000 9.8 300 14:42 20.03.2020
747 Clouds 16 1014 51 10000 9.8 300 14:21 20.03.2020
748 Rain 17 1014 45 10000 5.7 250 13:50 20.03.2020
749 Clouds 17 1014 45 10000 5.7 250 13:26 20.03.2020
750 Clouds 16 1015 48 10000 6.7 250 12:59 20.03.2020
751 Clouds 16 1015 48 10000 6.7 250 12:38 20.03.2020
752 Clouds 16 1015 48 10000 6.7 250 12:20 20.03.2020
753 Clouds 16 1016 44 10000 6.2 260 11:41 20.03.2020
754 Clouds 16 1016 44 10000 6.2 260 11:21 20.03.2020
755 Clouds 16 1016 44 10000 7.2 260 10:58 20.03.2020
756 Clouds 15 1017 44 10000 6.7 240 10:40 20.03.2020
757 Clouds 15 1017 44 10000 6.7 240 10:18 20.03.2020
758 Clouds 15 1017 44 10000 7.2 250 09:46 20.03.2020
759 Clouds 15 1017 51 10000 3.6 230 09:21 20.03.2020
760 Clouds 14 1017 54 10000 4.6 220 08:58 20.03.2020
761 Clouds 13 1017 58 10000 5.1 210 08:39 20.03.2020
762 Rain 13 1017 58 10000 5.1 210 08:19 20.03.2020
763 Rain 13 1017 58 10000 5.1 200 07:45 20.03.2020
764 Rain 12 1017 62 10000 5.7 210 07:26 20.03.2020
765 Rain 11 1016 62 10000 4.6 200 06:43 20.03.2020
766 Rain 11 1016 62 10000 4.6 200 06:22 20.03.2020
767 Clear 11 1016 57 10000 3.6 220 04:49 20.03.2020
768 Clear 11 1016 58 10000 3.1 240 03:18 20.03.2020
769 Clear 12 1017 54 10000 4.1 250 01:51 20.03.2020
770 Clear 12 1017 54 10000 4.6 260 00:46 20.03.2020
771 Clear 12 1017 54 10000 4.6 260 00:24 20.03.2020
772 Clear 12 1018 50 10000 4.1 250 23:42 19.03.2020
773 Clear 12 1018 50 10000 4.1 250 23:23 19.03.2020
774 Clear 12 1018 50 10000 3.6 270 22:55 19.03.2020
775 Clear 12 1019 50 10000 3.6 260 22:37 19.03.2020
776 Clear 12 1019 50 10000 3.6 260 22:18 19.03.2020
777 Clear 12 1019 54 10000 5.1 280 21:40 19.03.2020
778 Clear 12 1019 54 10000 5.1 280 21:20 19.03.2020
779 Clear 13 1019 50 10000 7.7 280 20:55 19.03.2020
780 Clear 13 1019 50 10000 7.7 280 20:37 19.03.2020
781 Clear 13 1019 50 10000 7.7 280 20:19 19.03.2020
782 Clear 13 1018 50 10000 6.7 280 19:54 19.03.2020
783 Clear 14 1018 50 10000 7.2 300 19:36 19.03.2020
784 Clouds 14 1018 50 10000 5.7 300 19:18 19.03.2020
785 Clouds 14 1017 47 10000 6.7 290 18:41 19.03.2020
786 Clouds 15 1017 47 10000 6.7 290 18:22 19.03.2020
787 Clouds 15 1017 47 10000 6.2 290 17:56 19.03.2020
788 Clouds 16 1017 44 10000 7.2 280 17:38 19.03.2020
789 Clouds 16 1017 44 10000 7.2 280 17:18 19.03.2020
790 Clouds 16 1017 39 10000 8.2 290 16:43 19.03.2020
791 Clouds 17 1017 39 10000 8.2 290 16:22 19.03.2020
792 Clouds 17 1016 48 10000 8.7 300 15:44 19.03.2020
793 Clouds 17 1016 48 10000 8.7 300 15:25 19.03.2020
794 Clouds 17 1016 45 10000 7.2 310 14:55 19.03.2020
795 Clouds 19 1016 32 10000 8.7 280 14:37 19.03.2020
796 Clouds 19 1016 32 10000 8.7 280 14:18 19.03.2020
797 Clouds 19 1017 34 10000 6.7 270 13:39 19.03.2020
798 Clouds 19 1017 34 10000 6.7 270 13:19 19.03.2020
799 Clouds 19 1017 34 10000 7.2 270 12:55 19.03.2020
800 Clouds 19 1017 34 10000 7.7 260 12:37 19.03.2020
801 Clouds 19 1017 34 10000 7.7 260 12:18 19.03.2020
802 Clouds 17 1018 42 10000 5.1 260 11:41 19.03.2020
803 Clouds 17 1018 42 10000 5.1 260 11:23 19.03.2020
804 Clouds 17 1018 48 10000 5.1 270 10:56 19.03.2020
805 Clouds 16 1019 48 10000 6.2 260 10:36 19.03.2020
806 -273 0 0 0 0 0 10:18 19.03.2020
807 Clouds 15 1019 54 10000 6.2 260 09:42 19.03.2020
808 Clouds 15 1019 54 10000 6.2 260 09:24 19.03.2020
809 Clouds 15 1019 58 10000 6.2 260 08:48 19.03.2020
810 Clouds 15 1019 62 10000 3.6 230 08:23 19.03.2020
811 Clouds 14 1018 67 10000 3.6 230 07:57 19.03.2020
812 Clouds 14 1018 67 10000 3.6 230 07:38 19.03.2020
813 Clouds 14 1018 67 10000 4.1 240 07:18 19.03.2020
814 Clouds 13 1018 66 10000 4.1 240 06:27 19.03.2020
815 Clouds 13 1018 66 10000 4.1 240 05:25 19.03.2020
816 Clouds 13 1018 66 10000 4.1 240 04:47 19.03.2020
817 Clouds 13 1018 66 10000 4.1 240 03:55 19.03.2020
818 Clouds 14 1018 62 10000 5.1 250 01:46 19.03.2020
819 Clouds 14 1019 62 10000 4.1 260 00:53 19.03.2020
820 Clouds 14 1019 62 10000 4.1 260 00:19 19.03.2020
821 Clouds 14 1019 62 10000 4.1 260 23:43 18.03.2020
822 Clouds 14 1019 62 10000 4.1 260 23:23 18.03.2020
823 Clouds 14 1018 62 10000 4.1 260 22:43 18.03.2020
824 Clouds 14 1018 62 10000 4.1 260 22:23 18.03.2020
825 Clouds 14 1019 58 10000 5.1 280 21:58 18.03.2020
826 Clouds 15 1019 58 10000 5.1 280 21:40 18.03.2020
827 Clouds 15 1018 54 10000 6.2 280 21:20 18.03.2020
828 Clouds 15 1018 54 10000 6.2 280 20:55 18.03.2020
829 Clouds 15 1018 54 10000 6.2 280 20:37 18.03.2020
830 Clouds 15 1018 54 10000 6.2 280 20:19 18.03.2020
831 Clouds 15 1018 54 10000 5.1 280 19:41 18.03.2020
832 Clouds 15 1018 54 10000 5.1 280 19:21 18.03.2020
833 Clouds 16 1018 51 10000 6.2 280 18:59 18.03.2020
834 Clouds 16 1017 51 10000 6.2 280 18:40 18.03.2020
835 Clouds 16 1017 51 10000 6.2 280 18:19 18.03.2020
836 Clouds 16 1017 51 10000 6.2 280 18:19 18.03.2020
837 Clouds 16 1017 51 10000 6.2 280 17:56 18.03.2020
838 Clouds 17 1017 48 10000 7.2 280 17:38 18.03.2020
839 Clouds 17 1017 48 10000 7.2 280 17:19 18.03.2020
840 Clouds 18 1016 42 10000 7.2 290 16:43 18.03.2020
841 Clouds 18 1016 42 10000 7.2 290 16:21 18.03.2020
842 Clouds 19 1016 42 10000 7.2 280 15:58 18.03.2020
843 Clouds 19 1016 42 10000 7.2 280 15:38 18.03.2020
844 Clouds 19 1016 42 10000 7.2 280 15:20 18.03.2020
845 Clouds 18 1016 42 10000 6.2 260 14:43 18.03.2020
846 Clouds 18 1016 42 10000 6.2 260 14:21 18.03.2020
847 Clouds 18 1016 42 10000 6.2 270 13:42 18.03.2020
848 Clouds 18 1016 42 10000 6.2 270 13:19 18.03.2020
849 Clouds 18 1016 42 10000 6.2 270 13:19 18.03.2020
850 Clouds 18 1016 42 10000 6.7 250 12:55 18.03.2020
851 Clouds 18 1016 42 10000 6.7 250 12:37 18.03.2020
852 Clouds 17 1017 45 10000 7.2 250 12:19 18.03.2020
853 Clouds 17 1017 45 10000 7.2 250 11:38 18.03.2020
854 Clouds 16 1017 48 10000 6.2 260 11:19 18.03.2020
855 Clouds 16 1017 48 10000 6.2 260 10:57 18.03.2020
856 Clouds 16 1017 48 10000 7.2 260 10:37 18.03.2020
857 Clouds 16 1017 48 10000 7.2 260 10:19 18.03.2020
858 Clouds 16 1017 48 10000 7.2 270 09:43 18.03.2020
859 Clouds 15 1018 47 10000 6.7 260 09:24 18.03.2020
860 Clouds 15 1018 47 10000 6.2 260 08:56 18.03.2020
861 Clouds 14 1018 50 10000 6.2 250 08:38 18.03.2020
862 Clouds 14 1018 50 10000 6.2 250 08:20 18.03.2020
863 Clouds 14 1017 50 10000 5.1 260 07:44 18.03.2020
864 Clouds 14 1017 50 10000 5.1 260 07:25 18.03.2020
865 Clouds 12 1017 58 10000 4.6 250 06:44 18.03.2020
866 Clouds 12 1017 58 10000 4.1 260 06:18 18.03.2020
867 Clouds 12 1017 58 10000 4.1 260 05:34 18.03.2020
868 Clouds 11 1016 62 10000 3.6 220 04:24 18.03.2020
869 Clouds 12 1016 54 10000 4.6 250 02:43 18.03.2020
870 Clouds 12 1017 50 10000 4.6 280 01:48 18.03.2020
871 Clouds 12 1017 50 10000 4.6 280 01:26 18.03.2020
872 Clouds 12 1017 54 10000 5.7 290 00:24 18.03.2020
873 Clouds 12 1017 54 10000 6.2 280 23:47 17.03.2020
874 Clouds 12 1017 54 10000 6.2 280 23:27 17.03.2020
875 Clouds 12 1018 54 10000 6.2 280 22:57 17.03.2020
876 Clouds 12 1018 54 10000 7.7 280 22:37 17.03.2020
877 Clouds 12 1018 50 10000 9.8 280 22:19 17.03.2020
878 Clouds 13 1017 54 10000 6.7 280 21:39 17.03.2020
879 Clouds 13 1017 54 10000 6.7 280 21:21 17.03.2020
880 Clouds 13 1017 54 10000 6.7 280 21:21 17.03.2020
881 Clouds 13 1017 50 10000 7.2 280 20:40 17.03.2020
882 Clouds 13 1017 50 10000 7.2 280 20:40 17.03.2020
883 Clouds 13 1017 50 10000 7.2 280 20:21 17.03.2020
884 Clouds 13 1017 54 10000 8.2 280 19:58 17.03.2020
885 Clouds 13 1017 50 10000 8.2 300 19:39 17.03.2020
886 Clouds 13 1017 50 10000 8.2 300 19:18 17.03.2020
887 Clouds 13 1017 50 10000 8.7 290 18:56 17.03.2020
888 Clouds 13 1016 50 10000 8.2 300 18:37 17.03.2020
889 Clouds 14 1016 50 10000 8.2 300 18:19 17.03.2020
890 Clouds 15 1015 47 10000 9.3 280 17:40 17.03.2020
891 Clouds 15 1015 41 10000 10.3 290 17:21 17.03.2020
892 Clouds 16 1015 41 10000 10.3 290 16:55 17.03.2020
893 Clouds 16 1015 55 10000 11.8 280 16:37 17.03.2020
894 Clouds 16 1015 55 10000 11.8 280 16:18 17.03.2020
895 Clouds 17 1014 42 10000 10.8 280 15:43 17.03.2020
896 Clouds 17 1014 45 10000 10.3 270 15:21 17.03.2020
897 Clouds 18 1014 45 10000 9.8 270 14:42 17.03.2020
898 Clouds 18 1014 45 10000 9.8 270 14:42 17.03.2020
899 Clouds 18 1014 36 10000 10.8 270 14:21 17.03.2020
900 Clouds 18 1014 36 10000 10.8 260 13:45 17.03.2020
901 Clouds 18 1014 36 10000 10.8 260 13:27 17.03.2020
902 Clouds 18 1014 36 10000 10.8 260 12:58 17.03.2020
903 Clouds 18 1015 48 10000 8.7 280 12:40 17.03.2020
904 Clouds 18 1015 48 10000 8.7 280 12:22 17.03.2020
905 Clouds 18 1015 42 10000 8.2 270 11:47 17.03.2020
906 Clouds 17 1015 55 10000 7.7 270 11:28 17.03.2020
907 Clouds 17 1016 59 10000 6.7 270 10:58 17.03.2020
908 Clouds 16 1016 67 10000 7.7 290 10:38 17.03.2020
909 Clouds 16 1016 67 10000 7.7 290 10:20 17.03.2020
910 Clouds 16 1016 72 10000 7.7 290 09:59 17.03.2020
911 Clouds 16 1016 77 10000 5.7 280 09:39 17.03.2020
912 Clouds 16 1016 77 10000 5.7 280 09:19 17.03.2020
913 Clouds 16 1016 82 10000 3.6 290 08:47 17.03.2020
914 Clouds 16 1016 82 10000 3.6 290 08:22 17.03.2020
915 Clouds 15 1016 87 10000 3.6 320 07:50 17.03.2020
916 Clouds 15 1016 87 10000 3.6 320 07:26 17.03.2020
917 Clouds 15 1016 87 10000 2.1 310 06:58 17.03.2020
918 Clouds 15 1016 82 10000 4.6 290 06:33 17.03.2020
919 Clouds 15 1016 82 10000 3.1 300 05:49 17.03.2020
920 Clouds 15 1015 77 10000 4.1 310 03:43 17.03.2020
921 Clouds 15 1015 82 6000 3.6 330 02:46 17.03.2020
922 Clouds 15 1015 82 6000 4.1 320 01:43 17.03.2020
923 Clouds 15 1016 87 6000 4.1 330 01:24 17.03.2020
924 Clouds 16 1016 82 6000 4.6 330 00:31 17.03.2020
925 Clouds 16 1016 87 6000 5.1 360 23:45 16.03.2020
926 Clouds 16 1016 87 6000 5.1 360 23:27 16.03.2020
927 Clouds 16 1016 82 6000 5.7 340 22:41 16.03.2020
928 Clouds 16 1016 82 6000 5.7 340 22:41 16.03.2020
929 Clouds 17 1016 82 6000 5.7 340 22:23 16.03.2020
930 Clouds 17 1016 82 6000 5.1 340 21:57 16.03.2020
931 Clouds 17 1016 82 6000 4.1 350 21:39 16.03.2020
932 Clouds 18 1016 82 6000 4.1 350 21:21 16.03.2020
933 Clouds 18 1016 88 6000 5.1 360 20:56 16.03.2020
934 Clouds 18 1016 88 6000 5.7 340 20:37 16.03.2020
935 Clouds 18 1016 88 6000 5.7 340 20:18 16.03.2020
936 Clouds 19 1016 77 6000 6.2 360 19:41 16.03.2020
937 Clouds 20 1016 77 6000 6.2 360 19:20 16.03.2020
938 Clear 21 1015 53 6000 4.6 330 18:43 16.03.2020
939 Clear 22 1015 53 6000 4.6 330 18:21 16.03.2020
940 Clouds 22 1014 53 10000 5.7 340 17:56 16.03.2020
941 Clouds 22 1014 49 10000 5.1 340 17:37 16.03.2020
942 Clouds 23 1014 49 10000 5.1 340 17:18 16.03.2020
943 Clouds 24 1013 44 10000 5.1 320 16:45 16.03.2020
944 Clouds 24 1013 44 10000 5.1 320 16:27 16.03.2020
945 Clouds 25 1013 44 10000 4.6 300 15:46 16.03.2020
946 Clouds 25 1013 44 10000 4.6 300 15:28 16.03.2020
947 Clouds 26 1014 31 10000 3.6 280 14:49 16.03.2020
948 Clouds 26 1014 31 10000 3.6 280 14:28 16.03.2020
949 Clouds 26 1014 31 10000 3.6 260 13:59 16.03.2020
950 Clouds 26 1014 31 10000 3.6 260 13:41 16.03.2020
951 Clouds 26 1014 31 10000 3.6 260 13:22 16.03.2020
952 Clouds 25 1015 38 10000 3.1 240 12:45 16.03.2020
953 Clouds 25 1015 38 10000 3.1 240 12:24 16.03.2020
954 Clouds 25 1015 38 10000 3.1 240 11:56 16.03.2020
955 Clear 24 1015 41 10000 3.1 260 11:37 16.03.2020
956 Clear 23 1016 46 10000 3.1 240 11:18 16.03.2020
957 Clear 23 1016 46 10000 3.1 240 10:40 16.03.2020
958 Clear 23 1016 46 10000 3.1 240 10:19 16.03.2020
959 Clear 22 1016 49 10000 3.1 220 09:42 16.03.2020
960 Clear 22 1016 49 10000 3.1 220 09:24 16.03.2020
961 Clear 21 1016 60 10000 4.1 210 08:54 16.03.2020
962 Clear 21 1016 60 10000 4.1 210 08:25 16.03.2020
963 Clear 20 1016 64 10000 3.6 200 07:50 16.03.2020
964 Clear 19 1016 72 10000 3.1 190 07:27 16.03.2020
965 Clear 18 1015 77 6000 3.6 170 06:54 16.03.2020
966 Clear 17 1015 77 6000 3.1 160 06:25 16.03.2020
967 Clear 16 1015 82 6000 4.6 160 05:42 16.03.2020
968 Clouds 17 1014 82 6000 4.1 150 02:45 16.03.2020
969 Clouds 17 1015 82 10000 3.6 160 01:20 16.03.2020
970 Clouds 18 1015 77 10000 3.6 160 00:40 16.03.2020
971 Clouds 18 1015 72 10000 0.9 73 23:48 15.03.2020
972 Clouds 18 1015 72 10000 1.56 34 23:20 15.03.2020
973 Clouds 18 1015 72 10000 3.6 150 22:43 15.03.2020
974 Clouds 18 1015 72 10000 3.6 150 22:23 15.03.2020
975 Clouds 18 1016 72 10000 3.6 150 21:59 15.03.2020
976 Clouds 18 1016 68 10000 3.6 150 21:38 15.03.2020
977 Clouds 19 1016 68 10000 3.6 150 21:19 15.03.2020
978 Clouds 19 1016 56 10000 2.6 160 20:43 15.03.2020
979 Clouds 20 1016 56 10000 2.6 160 20:22 15.03.2020
980 Clouds 20 1016 56 10000 2.6 160 19:58 15.03.2020
981 Clouds 21 1016 49 10000 2.1 240 19:40 15.03.2020
982 Clouds 21 1016 49 10000 2.1 240 19:21 15.03.2020
983 Clouds 21 1016 49 10000 1.5 230 18:56 15.03.2020
984 Clouds 21 1015 49 10000 1.5 250 18:38 15.03.2020
985 Clouds 21 1015 49 10000 1.5 250 18:20 15.03.2020
986 Clouds 22 1015 35 10000 3.1 240 17:41 15.03.2020
987 Clouds 23 1015 35 10000 3.1 240 17:22 15.03.2020
988 Clouds 23 1015 36 6000 4.6 250 16:59 15.03.2020
989 Clouds 24 1015 38 6000 4.6 260 16:40 15.03.2020
990 Clouds 24 1015 38 6000 4.6 260 16:21 15.03.2020
991 Clouds 24 1015 44 6000 4.1 250 15:54 15.03.2020
992 Clouds 24 1015 53 6000 4.6 220 15:36 15.03.2020
993 Clouds 24 1015 53 6000 4.6 210 15:18 15.03.2020
994 Clouds 23 1015 56 6000 4.6 210 14:39 15.03.2020
995 Clouds 23 1015 56 6000 4.6 210 14:21 15.03.2020
996 Clouds 23 1015 56 6000 4.6 210 13:56 15.03.2020
997 Clouds 23 1015 60 6000 4.6 220 13:37 15.03.2020
998 Clouds 23 1015 60 6000 4.6 220 13:18 15.03.2020
999 Clouds 22 1016 64 10000 4.1 220 12:40 15.03.2020
1000 Clouds 22 1016 64 10000 4.1 220 12:22 15.03.2020
1001 Clouds 22 1017 64 10000 3.6 220 11:44 15.03.2020
1002 Clouds 22 1017 64 10000 3.6 220 11:25 15.03.2020
1003 Clouds 22 1017 68 10000 2.6 190 10:59 15.03.2020
1004 Clouds 21 1017 73 6000 2.1 180 10:40 15.03.2020
1005 Clouds 21 1017 73 6000 2.1 180 10:22 15.03.2020
1006 Clouds 21 1017 73 6000 2.1 180 09:59 15.03.2020
1007 Mist 21 1017 73 3000 2.1 180 09:38 15.03.2020
1008 Mist 21 1017 73 3000 2.1 180 09:20 15.03.2020
1009 Mist 20 1017 82 3000 3.6 180 08:41 15.03.2020
1010 Mist 20 1017 82 3000 3.6 180 08:20 15.03.2020
1011 Mist 18 1017 100 3000 2.1 180 07:50 15.03.2020
1012 Mist 16 1017 100 3000 3.6 150 07:23 15.03.2020
1013 Mist 16 1017 100 3000 3.6 150 06:44 15.03.2020
1014 Mist 16 1017 100 3000 2.6 150 05:49 15.03.2020
1015 Mist 16 1017 100 3000 3.6 150 04:58 15.03.2020
1016 Mist 16 1017 100 3000 3.6 150 04:40 15.03.2020
1017 Mist 16 1017 100 3000 3.6 150 04:20 15.03.2020
1018 Mist 16 1017 100 3000 1.23 131 03:24 15.03.2020
1019 Mist 16 1017 100 3000 1.23 131 02:36 15.03.2020
1020 Mist 16 1017 100 3000 2.6 110 01:19 15.03.2020
1021 Mist 16 1018 100 3000 2.1 80 00:42 15.03.2020
1022 Mist 16 1018 100 3000 2.1 80 00:20 15.03.2020
1023 Mist 17 1018 88 3000 2.1 80 23:41 14.03.2020
1024 Mist 17 1018 88 3000 2.1 80 23:20 14.03.2020
1025 Mist 17 1018 82 3000 2.1 20 22:57 14.03.2020
1026 Mist 18 1018 82 3000 2.1 340 22:38 14.03.2020
1027 Mist 18 1018 82 3000 2.1 340 22:20 14.03.2020
1028 Clouds 18 1018 77 6000 2.1 340 21:56 14.03.2020
1029 Clouds 19 1017 77 6000 2.1 340 21:36 14.03.2020
1030 Clouds 19 1017 77 6000 2.1 340 21:18 14.03.2020
1031 Clouds 19 1017 77 6000 3.1 360 20:58 14.03.2020
1032 Clouds 19 1017 68 6000 3.1 360 20:39 14.03.2020
1033 Clouds 20 1017 68 6000 3.1 360 20:18 14.03.2020
1034 Clouds 20 1016 72 0 1.79 300 19:42 14.03.2020
1035 Clouds 20 1016 72 6000 2.1 300 19:24 14.03.2020
1036 Clouds 20 1016 72 0 1.79 300 18:41 14.03.2020
1037 Clouds 21 1015 68 10000 2.6 310 18:22 14.03.2020
1038 Clouds 21 1015 68 10000 2.6 310 17:56 14.03.2020
1039 Clouds 22 1015 60 0 2.24 280 17:37 14.03.2020
1040 Clouds 22 1015 60 10000 2.6 280 17:19 14.03.2020
1041 Rain 22 1014 60 0 1.79 300 16:40 14.03.2020
1042 Clouds 22 1014 60 10000 2.1 300 16:22 14.03.2020
1043 Clouds 22 1014 60 10000 2.1 300 15:54 14.03.2020
1044 Clouds 22 1014 60 10000 2.1 280 15:26 14.03.2020
1045 Clouds 22 1014 60 10000 2.1 280 14:55 14.03.2020
1046 Clouds 22 1014 64 10000 3.6 270 14:36 14.03.2020
1047 Clouds 22 1014 64 10000 3.6 270 14:18 14.03.2020
1048 Clouds 22 1014 64 10000 4.1 270 13:42 14.03.2020
1049 Clouds 22 1014 64 10000 4.1 270 13:23 14.03.2020
1050 Clouds 22 1015 64 10000 4.1 290 12:47 14.03.2020
1051 Clouds 22 1015 64 10000 4.1 290 12:27 14.03.2020
1052 Clouds 21 1015 68 10000 3.6 280 11:57 14.03.2020
1053 Clouds 21 1015 68 10000 3.6 300 11:38 14.03.2020
1054 Clouds 20 1015 72 10000 2.6 250 11:20 14.03.2020
1055 Clouds 21 1015 68 10000 3.6 300 11:20 14.03.2020
1056 Clouds 19 1015 77 10000 2.6 260 10:45 14.03.2020
1057 Clouds 19 1015 77 10000 2.6 260 10:27 14.03.2020
1058 Clouds 19 1015 77 6000 3.6 240 09:57 14.03.2020
1059 Clouds 18 1015 88 6000 3.6 260 09:39 14.03.2020
1060 Clouds 18 1015 88 6000 3.6 260 09:19 14.03.2020
1061 Clouds 17 1014 93 6000 3.6 280 08:45 14.03.2020
1062 Clouds 17 1014 93 6000 3.6 280 08:22 14.03.2020
1063 Clouds 16 1013 100 6000 2.6 270 07:39 14.03.2020
1064 Clouds 16 1013 100 6000 2.6 270 07:39 14.03.2020
1065 Clouds 16 1013 100 6000 2.6 270 07:20 14.03.2020
1066 Clouds 16 1013 100 6000 3.1 260 06:41 14.03.2020
1067 Clouds 16 1012 100 6000 2.1 250 05:56 14.03.2020
1068 Clouds 16 1012 100 6000 2.6 260 04:51 14.03.2020
1069 Mist 16 1010 100 4000 4.6 270 03:25 14.03.2020
1070 Mist 16 1010 100 4000 3.6 270 02:35 14.03.2020
1071 Mist 16 1010 100 4000 3.6 270 02:35 14.03.2020
1072 Mist 16 1009 100 4000 4.6 260 01:27 14.03.2020
1073 Mist 16 1009 100 4000 4.1 250 00:22 14.03.2020
1074 Rain 16 1008 100 2000 4.1 230 23:38 13.03.2020
1075 Rain 16 1008 100 2000 4.1 230 23:18 13.03.2020
1076 Clouds 16 1008 100 6000 4.6 220 22:41 13.03.2020
1077 Clouds 16 1008 100 6000 4.6 220 22:20 13.03.2020
1078 Clouds 16 1007 100 6000 4.1 220 21:40 13.03.2020
1079 Clouds 16 1007 100 6000 4.1 230 21:18 13.03.2020
1080 Clouds 16 1007 100 6000 4.1 240 20:41 13.03.2020
1081 Clouds 16 1007 100 6000 4.1 240 20:22 13.03.2020
1082 Clouds 16 1006 100 6000 3.1 240 19:55 13.03.2020
1083 Clouds 16 1005 93 6000 3.6 250 19:36 13.03.2020
1084 Clouds 16 1005 93 6000 3.6 240 19:18 13.03.2020
1085 Clouds 16 1004 82 10000 2.6 270 18:39 13.03.2020
1086 Clouds 17 1004 82 10000 2.6 270 18:21 13.03.2020
1087 Clouds 17 1003 77 10000 2.6 270 17:42 13.03.2020
1088 Clouds 18 1003 77 10000 2.6 270 17:21 13.03.2020
1089 Clouds 18 1002 72 10000 5.1 260 16:56 13.03.2020
1090 Clouds 18 1002 72 10000 5.1 260 16:38 13.03.2020
1091 Clouds 18 1002 72 10000 5.1 260 16:19 13.03.2020
1092 Clouds 18 1001 77 10000 4.1 270 15:42 13.03.2020
1093 Clouds 18 1001 77 10000 4.1 270 15:21 13.03.2020
1094 Clouds 18 1000 72 10000 7.7 250 14:55 13.03.2020
1095 Rain 18 1000 72 0 7.6 250 14:36 13.03.2020
1096 Clouds 17 1000 77 6000 7.2 240 14:18 13.03.2020
1097 Clouds 17 1000 77 6000 7.2 240 13:42 13.03.2020
1098 Clouds 17 1000 77 6000 7.2 240 13:21 13.03.2020
1099 Clouds 17 999 77 6000 8.7 250 12:58 13.03.2020
1100 Clouds 17 999 77 6000 8.7 250 12:38 13.03.2020
1101 Clouds 17 999 77 6000 8.7 250 12:19 13.03.2020
1102 Rain 16 997 87 4000 10.3 280 11:55 13.03.2020
1103 Rain 16 997 87 4000 10.3 280 11:36 13.03.2020
1104 Rain 15 995 100 3000 11.3 280 11:18 13.03.2020
1105 Rain 15 992 100 3000 11.8 200 10:42 13.03.2020
1106 Rain 14 992 100 3000 11.8 200 10:24 13.03.2020
1107 Rain 14 992 100 2000 9.8 190 09:46 13.03.2020
1108 Rain 14 992 100 2000 9.8 190 09:27 13.03.2020
1109 Rain 14 994 100 2000 8.7 200 08:57 13.03.2020
1110 Rain 15 994 100 2000 8.7 200 08:38 13.03.2020
1111 Rain 15 994 100 2000 8.7 200 08:19 13.03.2020
1112 Rain 14 995 93 2000 8.7 190 07:44 13.03.2020
1113 Rain 14 995 93 2000 8.7 190 07:23 13.03.2020
1114 Rain 13 995 93 4000 5.1 190 06:46 13.03.2020
1115 Rain 13 995 93 4000 5.1 190 06:21 13.03.2020
1116 Rain 13 995 93 6000 6.7 200 05:45 13.03.2020
1117 Clouds 13 995 93 6000 5.7 220 04:57 13.03.2020
1118 Clouds 14 994 87 6000 6.7 220 04:25 13.03.2020
1119 Clouds 14 993 93 6000 9.3 210 02:42 13.03.2020
1120 Rain 14 992 100 6000 9.8 200 01:37 13.03.2020
1121 Rain 14 992 100 6000 9.8 200 01:18 13.03.2020
1122 Rain 12 993 100 6000 8.7 160 00:41 13.03.2020
1123 Rain 12 993 100 6000 8.7 160 00:19 13.03.2020
1124 Clouds 12 996 93 3000 7.2 130 23:39 12.03.2020
1125 Clouds 13 996 93 3000 7.2 130 23:19 12.03.2020
1126 Clouds 13 998 93 3000 6.2 160 22:47 12.03.2020
1127 Clouds 13 998 93 3000 6.2 160 22:28 12.03.2020
1128 Clouds 13 999 93 3000 6.2 170 21:57 12.03.2020
1129 Clouds 13 999 87 3000 8.2 170 21:39 12.03.2020
1130 Clouds 14 999 87 3000 8.2 170 21:20 12.03.2020
1131 Clouds 15 999 87 3000 8.7 170 20:42 12.03.2020
1132 Clouds 15 999 87 3000 8.7 170 20:20 12.03.2020
1133 Clouds 16 998 100 3000 7.7 180 19:56 12.03.2020
1134 Clouds 16 998 100 3000 7.7 180 19:37 12.03.2020
1135 Clouds 16 998 100 3000 7.7 180 19:18 12.03.2020
1136 Clouds 16 998 100 3000 7.7 60 18:42 12.03.2020
1137 Clouds 16 998 100 3000 7.7 60 18:22 12.03.2020
1138 Clouds 16 999 100 3000 8.7 70 17:56 12.03.2020
1139 Clouds 16 998 100 3000 8.7 60 17:37 12.03.2020
1140 Clouds 16 998 100 3000 8.7 60 17:18 12.03.2020
1141 Clouds 16 999 100 3000 7.7 70 16:41 12.03.2020
1142 Clouds 16 999 100 3000 7.7 70 16:23 12.03.2020
1143 Clouds 16 999 100 3000 9.3 40 15:59 12.03.2020
1144 Clouds 16 999 100 3000 9.3 50 15:39 12.03.2020
1145 Clouds 16 999 100 3000 9.3 50 15:21 12.03.2020
1146 Clouds 16 1001 100 3000 9.3 50 14:38 12.03.2020
1147 Clouds 16 1001 100 3000 9.3 50 14:19 12.03.2020
1148 Clouds 17 1001 100 3000 6.2 20 13:40 12.03.2020
1149 Clouds 17 1001 100 3000 6.2 20 13:21 12.03.2020
1150 Clouds 17 1002 100 3000 5.1 360 12:55 12.03.2020
1151 Clouds 17 1002 100 3000 7.7 30 12:37 12.03.2020
1152 Clouds 17 1003 100 6000 9.3 40 12:18 12.03.2020
1153 Clouds 17 1003 100 6000 9.3 40 11:56 12.03.2020
1154 Clouds 17 1003 100 6000 9.3 40 11:37 12.03.2020
1155 Clouds 17 1003 100 6000 9.3 40 11:18 12.03.2020
1156 Clouds 17 1003 100 6000 9.3 40 10:44 12.03.2020
1157 Clouds 17 1003 100 6000 9.3 40 10:26 12.03.2020
1158 Rain 17 1003 100 6000 12.9 60 09:59 12.03.2020
1159 Clouds 17 1004 100 6000 12.9 60 09:41 12.03.2020
1160 Clouds 17 1004 100 6000 12.9 60 09:23 12.03.2020
1161 Clouds 16 1006 100 6000 11.3 60 08:39 12.03.2020
1162 Clouds 16 1006 100 6000 11.3 60 08:19 12.03.2020
1163 Rain 15 1006 100 6000 11.8 50 07:48 12.03.2020
1164 Rain 15 1006 100 6000 11.8 50 07:23 12.03.2020
1165 Rain 15 1007 100 6000 8.2 40 06:38 12.03.2020
1166 Rain 15 1007 100 6000 9.8 50 05:40 12.03.2020
1167 Rain 15 1007 100 6000 8.7 30 03:54 12.03.2020
1168 Clouds 15 1008 100 6000 6.2 10 02:21 12.03.2020
1169 Clouds 15 1008 93 6000 5.1 360 01:29 12.03.2020
1170 Rain 15 1009 93 6000 4.1 330 00:42 12.03.2020
1171 Rain 15 1009 93 6000 4.1 330 23:59 11.03.2020
1172 Clouds 15 1009 93 6000 5.1 20 23:40 11.03.2020
1173 Clouds 15 1009 93 6000 5.1 20 23:22 11.03.2020
1174 Rain 16 1011 82 6000 5.1 310 22:45 11.03.2020
1175 Rain 16 1011 82 6000 5.1 310 22:25 11.03.2020
1176 Clouds 16 1010 82 6000 6.7 20 21:58 11.03.2020
1177 Clouds 16 1010 82 6000 6.7 20 21:40 11.03.2020
1178 Clouds 16 1010 82 6000 6.7 20 21:22 11.03.2020
1179 Clouds 16 1009 77 6000 8.7 20 20:57 11.03.2020
1180 Clouds 16 1009 77 6000 8.7 20 20:38 11.03.2020
1181 Clouds 16 1009 77 6000 8.7 20 20:19 11.03.2020
1182 Clouds 16 1010 77 6000 9.3 30 19:43 11.03.2020
1183 Clouds 16 1010 77 6000 9.3 30 19:25 11.03.2020
1184 Clouds 17 1010 67 6000 9.3 30 18:58 11.03.2020
1185 Clouds 17 1010 67 6000 9.3 30 18:38 11.03.2020
1186 Clouds 17 1010 67 6000 9.3 30 18:20 11.03.2020
1187 Clouds 18 1010 63 6000 9.3 30 17:56 11.03.2020
1188 Clouds 18 1009 59 6000 8.7 20 17:37 11.03.2020
1189 Clouds 19 1009 59 6000 8.7 20 17:19 11.03.2020
1190 Clouds 21 1009 53 6000 9.8 20 16:45 11.03.2020
1191 Clouds 22 1009 53 6000 9.8 20 16:22 11.03.2020
1192 Clouds 22 1009 53 6000 9.8 20 15:45 11.03.2020
1193 Clouds 22 1009 53 6000 9.8 20 15:24 11.03.2020
1194 Clouds 22 1009 53 6000 9.8 20 14:58 11.03.2020
1195 Clouds 22 1009 49 6000 9.3 20 14:40 11.03.2020
1196 Clouds 23 1009 49 6000 9.3 20 14:21 11.03.2020
1197 Clouds 23 1010 46 6000 8.7 30 13:44 11.03.2020
1198 Clouds 23 1010 46 6000 8.7 30 13:26 11.03.2020
1199 Clouds 23 1010 49 6000 9.3 30 12:58 11.03.2020
1200 Clouds 23 1010 49 6000 9.3 30 12:39 11.03.2020
1201 Clouds 23 1010 49 6000 9.3 30 12:19 11.03.2020
1202 Clouds 21 1011 52 6000 10.8 30 11:42 11.03.2020
1203 Clouds 21 1011 52 6000 10.8 30 11:42 11.03.2020
1204 Clouds 21 1011 52 6000 10.8 30 11:24 11.03.2020
1205 Clouds 20 1012 60 6000 10.8 50 10:59 11.03.2020
1206 Clouds 20 1012 60 6000 10.8 50 10:41 11.03.2020
1207 Clouds 20 1012 60 6000 10.8 50 10:18 11.03.2020
1208 Clouds 18 1013 68 10000 11.3 50 09:43 11.03.2020
1209 Clouds 18 1013 68 10000 11.3 50 09:24 11.03.2020
1210 Clouds 17 1014 72 10000 9.3 40 08:45 11.03.2020
1211 Clouds 17 1014 72 10000 9.3 40 08:27 11.03.2020
1212 Clouds 16 1014 72 10000 11.3 50 07:58 11.03.2020
1213 Clouds 15 1013 82 10000 9.8 40 07:38 11.03.2020
1214 Clouds 15 1013 82 10000 9.8 40 07:18 11.03.2020
1215 Clouds 13 1014 87 10000 8.2 40 06:37 11.03.2020
1216 Clouds 13 1014 82 10000 6.2 30 05:34 11.03.2020
1217 Clouds 14 1013 76 10000 7.7 40 03:59 11.03.2020
1218 Clouds 14 1014 71 10000 5.1 30 01:59 11.03.2020
1219 Clouds 14 1015 71 10000 5.1 50 01:27 11.03.2020
1220 Clouds 14 1015 71 10000 6.7 40 00:45 11.03.2020
1221 Clouds 15 1015 67 10000 6.2 50 23:57 10.03.2020
1222 Clouds 15 1015 67 10000 7.7 40 23:39 10.03.2020
1223 Clouds 15 1016 67 10000 7.2 40 23:20 10.03.2020
1224 Clouds 15 1016 67 10000 7.2 40 22:38 10.03.2020
1225 Clouds 15 1016 62 10000 7.2 30 22:20 10.03.2020
1226 Clouds 15 1016 62 10000 7.2 30 21:57 10.03.2020
1227 Clouds 16 1016 59 10000 7.7 30 21:38 10.03.2020
1228 Clouds 16 1016 59 10000 7.7 30 21:38 10.03.2020
1229 Clouds 16 1016 59 10000 7.7 30 21:20 10.03.2020
1230 Clouds 16 1017 59 10000 8.2 30 20:58 10.03.2020
1231 Clouds 16 1016 55 10000 9.3 30 20:40 10.03.2020
1232 Clouds 17 1016 55 10000 9.3 30 20:18 10.03.2020
1233 Clouds 17 1016 55 10000 9.3 30 19:56 10.03.2020
1234 Clouds 17 1016 51 10000 9.3 30 19:37 10.03.2020
1235 Clouds 17 1016 51 10000 9.3 30 19:18 10.03.2020
1236 Clouds 18 1015 52 10000 9.3 30 18:44 10.03.2020
1237 Clouds 18 1015 52 10000 9.3 30 18:25 10.03.2020
1238 Clouds 18 1015 48 10000 8.2 20 17:57 10.03.2020
1239 Clouds 19 1015 45 10000 7.7 20 17:38 10.03.2020
1240 Clouds 19 1015 42 10000 6.7 360 17:20 10.03.2020
1241 Clouds 21 1015 37 10000 5.7 20 16:39 10.03.2020
1242 Clouds 21 1015 37 10000 5.7 20 16:19 10.03.2020
1243 Clouds 21 1015 37 10000 6.7 10 15:55 10.03.2020
1244 Clouds 21 1015 37 10000 6.7 10 15:55 10.03.2020
1245 Clouds 21 1015 37 10000 6.2 360 15:37 10.03.2020
1246 Clouds 21 1015 37 10000 6.2 360 15:19 10.03.2020
1247 Clouds 21 1015 37 10000 4.6 360 14:41 10.03.2020
1248 Clouds 21 1015 37 10000 4.6 360 14:20 10.03.2020
1249 Clouds 21 1015 35 10000 5.1 10 13:57 10.03.2020
1250 Clouds 21 1015 37 10000 4.1 10 13:38 10.03.2020
1251 Clouds 20 1016 37 10000 5.1 10 13:19 10.03.2020
1252 Clouds 20 1016 40 10000 5.7 350 12:41 10.03.2020
1253 Clouds 20 1016 40 10000 5.7 350 12:19 10.03.2020
1254 Clouds 19 1017 42 10000 5.1 360 11:57 10.03.2020
1255 Clouds 19 1017 42 10000 5.1 360 11:39 10.03.2020
1256 Clouds 19 1017 42 10000 5.1 360 11:20 10.03.2020
1257 Clouds 18 1018 45 10000 4.1 10 10:42 10.03.2020
1258 Clouds 18 1018 45 10000 4.1 10 10:23 10.03.2020
1259 Clouds 18 1018 45 10000 5.7 40 09:57 10.03.2020
1260 Clouds 17 1018 59 10000 3.6 30 09:39 10.03.2020
1261 Clouds 16 1018 59 10000 4.6 40 09:19 10.03.2020
1262 Clouds 15 1018 67 10000 5.1 30 08:46 10.03.2020
1263 Clouds 15 1018 67 10000 5.1 30 08:28 10.03.2020
1264 Clouds 15 1018 67 10000 5.1 40 07:50 10.03.2020
1265 Clouds 14 1017 76 10000 3.6 40 07:31 10.03.2020
1266 Clouds 13 1017 76 6000 2.6 70 06:45 10.03.2020
1267 Clouds 13 1017 76 6000 2.6 70 06:27 10.03.2020
1268 Clouds 12 1017 76 6000 2.1 70 05:41 10.03.2020
1269 Clouds 14 1016 67 6000 2.1 30 04:40 10.03.2020
1270 Clouds 13 1016 71 10000 2.1 340 03:41 10.03.2020
1271 Clouds 14 1016 67 10000 2.6 340 02:26 10.03.2020
1272 Clear 15 1016 62 10000 3.1 360 01:22 10.03.2020
1273 Clear 15 1016 62 10000 3.6 330 00:42 10.03.2020
1274 Clear 15 1016 62 10000 3.6 330 00:22 10.03.2020
1275 Clear 15 1016 58 10000 3.6 320 23:40 09.03.2020
1276 Clear 15 1016 58 10000 3.6 320 23:21 09.03.2020
1277 Clear 16 1016 55 10000 4.6 330 22:41 09.03.2020
1278 Clear 16 1016 55 10000 4.6 330 22:22 09.03.2020
1279 Clear 16 1016 55 10000 6.2 300 21:59 09.03.2020
1280 Clear 16 1016 51 10000 6.7 300 21:40 09.03.2020
1281 Clear 17 1016 51 10000 6.7 300 21:20 09.03.2020
1282 Clear 17 1015 55 10000 5.7 300 20:56 09.03.2020
1283 Clear 17 1015 55 10000 5.7 300 20:56 09.03.2020
1284 Clear 17 1015 55 10000 6.7 300 20:38 09.03.2020
1285 Clear 18 1015 55 10000 6.7 300 20:20 09.03.2020
1286 Clear 19 1014 52 6000 6.7 300 19:44 09.03.2020
1287 Clear 20 1014 52 6000 6.7 300 19:25 09.03.2020
1288 Sand 20 1013 52 4000 7.2 320 18:58 09.03.2020
1289 Sand 20 1013 52 4000 7.2 320 18:58 09.03.2020
1290 Sand 21 1012 40 4000 7.7 300 18:38 09.03.2020
1291 Sand 22 1012 40 4000 7.7 300 18:20 09.03.2020
1292 Sand 26 1011 24 2000 8.2 260 17:57 09.03.2020
1293 Sand 26 1011 24 2000 8.2 260 17:38 09.03.2020
1294 Sand 26 1011 24 2000 8.2 260 17:38 09.03.2020
1295 Sand 26 1011 24 2000 8.2 260 17:20 09.03.2020
1296 Sand 26 1010 22 1500 8.2 270 16:58 09.03.2020
1297 Sand 27 1010 15 1000 8.2 210 16:39 09.03.2020
1298 Sand 28 1010 15 1000 8.2 210 16:21 09.03.2020
1299 Sand 28 1010 15 1000 8.2 210 16:21 09.03.2020
1300 Clear 30 1009 12 6000 9.8 210 15:58 09.03.2020
1301 Clear 30 1009 12 6000 9.8 210 15:38 09.03.2020
1302 Clear 30 1009 12 6000 9.8 210 15:20 09.03.2020
1303 Clear 30 1009 12 6000 9.3 200 14:55 09.03.2020
1304 Clear 30 1009 12 6000 9.3 200 14:37 09.03.2020
1305 Clouds 30 1009 12 6000 9.8 200 14:18 09.03.2020
1306 Clouds 30 1009 12 6000 8.7 210 13:55 09.03.2020
1307 Clouds 29 1010 13 6000 8.7 200 13:37 09.03.2020
1308 Clouds 29 1010 13 6000 8.7 200 13:18 09.03.2020
1309 Sand 29 1010 14 3000 9.3 200 12:41 09.03.2020
1310 Sand 29 1010 10 3000 11.8 210 12:22 09.03.2020
1311 Sand 26 1011 10 3000 8.2 200 11:42 09.03.2020
1312 Sand 26 1011 12 3000 8.2 200 11:22 09.03.2020
1313 Sand 27 1012 15 3000 7.2 220 10:59 09.03.2020
1314 Sand 27 1012 15 3000 7.2 220 10:40 09.03.2020
1315 Clouds 27 1012 13 6000 7.2 220 10:20 09.03.2020
1316 Clouds 27 1012 12 6000 7.2 190 09:59 09.03.2020
1317 Clouds 27 1012 12 6000 7.2 190 09:37 09.03.2020
1318 Clouds 26 1012 14 6000 5.7 180 09:19 09.03.2020
1319 Haze 23 1012 20 3000 4.1 180 08:43 09.03.2020
1320 Haze 23 1012 20 3000 4.1 180 08:25 09.03.2020
1321 Haze 21 1013 46 3000 3.6 170 07:41 09.03.2020
1322 Haze 17 1013 48 3000 2.1 190 07:22 09.03.2020
1323 Haze 16 1013 55 3000 3.1 150 06:46 09.03.2020
1324 Haze 15 1013 72 3000 4.48 179 06:25 09.03.2020
1325 Clouds 15 1013 72 6000 4.48 179 05:52 09.03.2020
1326 Clouds 16 1013 67 6000 4.48 179 05:34 09.03.2020
1327 Clouds 16 1013 67 6000 1 230 04:43 09.03.2020
1328 Clouds 15 1012 72 6000 1.5 190 04:22 09.03.2020
1329 Clouds 15 1012 72 10000 3.99 179 03:20 09.03.2020
1330 Clouds 15 1013 77 10000 4.54 148 01:49 09.03.2020
1331 Clouds 16 1013 77 10000 4.48 148 00:39 09.03.2020
1332 Clouds 16 1013 77 10000 1 300 00:20 09.03.2020
1333 Clouds 16 1014 77 10000 1.5 30 23:51 08.03.2020
1334 Clouds 16 1014 77 10000 2.6 50 23:25 08.03.2020
1335 Clouds 16 1014 77 10000 3.6 50 22:57 08.03.2020
1336 Clouds 16 1014 77 10000 3.6 50 22:38 08.03.2020
1337 Clouds 17 1015 72 10000 3.6 30 22:20 08.03.2020
1338 Clouds 17 1015 72 10000 4.6 30 21:54 08.03.2020
1339 Clouds 17 1015 72 10000 4.6 40 21:36 08.03.2020
1340 Clouds 17 1015 72 10000 4.6 40 21:18 08.03.2020
1341 Clouds 18 1016 63 10000 5.7 40 20:40 08.03.2020
1342 Clear 18 1016 63 10000 5.7 40 20:21 08.03.2020
1343 Clear 19 1016 59 10000 6.2 50 19:56 08.03.2020
1344 Clear 19 1016 59 10000 6.2 50 19:37 08.03.2020
1345 Clear 20 1015 56 10000 7.7 50 19:18 08.03.2020
1346 Clear 21 1015 49 10000 7.7 40 18:42 08.03.2020
1347 Clear 21 1015 49 10000 7.7 40 18:42 08.03.2020
1348 Clear 21 1015 49 10000 7.7 40 18:24 08.03.2020
1349 Clear 21 1015 49 10000 7.7 40 17:56 08.03.2020
1350 Clear 22 1016 40 10000 7.2 40 17:38 08.03.2020
1351 Clear 24 1016 27 10000 7.2 50 17:19 08.03.2020
1352 Clear 25 1016 27 10000 7.2 50 16:46 08.03.2020
1353 Clear 25 1016 27 10000 7.2 50 16:28 08.03.2020
1354 Clear 25 1016 27 10000 6.7 50 15:58 08.03.2020
1355 Clear 25 1016 27 10000 6.7 50 15:39 08.03.2020
1356 Clear 25 1016 27 10000 6.7 50 15:20 08.03.2020
1357 Clear 25 1016 25 10000 5.1 50 14:42 08.03.2020
1358 Clear 25 1016 25 10000 5.1 50 14:21 08.03.2020
1359 Clear 24 1017 29 10000 7.2 40 13:59 08.03.2020
1360 Clear 24 1017 29 10000 7.2 40 13:39 08.03.2020
1361 Clear 24 1017 29 10000 7.2 40 13:19 08.03.2020
1362 Clear 24 1018 29 10000 7.2 50 12:43 08.03.2020
1363 Clear 24 1018 29 10000 7.2 50 12:43 08.03.2020
1364 Clear 24 1018 29 10000 7.2 50 12:24 08.03.2020
1365 Clear 23 1018 33 10000 7.7 40 11:57 08.03.2020
1366 Clear 24 1018 29 10000 7.2 50 11:57 08.03.2020
1367 Clear 23 1018 33 10000 7.7 40 11:39 08.03.2020
1368 Clear 22 1018 35 10000 7.7 40 11:20 08.03.2020
1369 Clear 21 1019 45 10000 8.2 40 10:41 08.03.2020
1370 Clear 20 1019 45 10000 8.2 40 10:23 08.03.2020
1371 Clear 19 1020 52 10000 7.7 50 09:57 08.03.2020
1372 Clear 18 1020 55 10000 7.7 50 09:36 08.03.2020
1373 Clear 18 1020 55 10000 7.7 50 09:18 08.03.2020
1374 Clear 18 1020 55 10000 7.7 50 09:18 08.03.2020
1375 Clear 17 1020 59 10000 7.2 40 08:40 08.03.2020
1376 Clear 15 1020 72 10000 7.7 50 08:19 08.03.2020
1377 Clear 15 1020 72 10000 7.7 50 07:44 08.03.2020
1378 Clear 14 1020 82 10000 7.7 50 07:25 08.03.2020
1379 Clear 13 1020 87 10000 7.2 40 06:42 08.03.2020
1380 Clear 12 1019 93 10000 6.7 50 06:22 08.03.2020
1381 Clear 12 1019 93 10000 6.7 40 05:35 08.03.2020
1382 Clear 13 1019 87 10000 5.1 30 03:52 08.03.2020
1383 Clear 13 1019 87 10000 4.6 50 02:30 08.03.2020
1384 Clear 14 1020 76 10000 5.1 30 01:34 08.03.2020
1385 Clear 14 1020 76 10000 4.6 30 00:52 08.03.2020
1386 Clear 15 1020 72 10000 3.1 50 00:27 08.03.2020
1387 Clear 15 1020 72 10000 4.6 50 23:46 07.03.2020
1388 Clear 15 1020 72 10000 6.2 50 23:23 07.03.2020
1389 Clear 16 1020 67 10000 7.2 50 22:54 07.03.2020
1390 Clear 16 1020 67 10000 7.2 50 22:36 07.03.2020
1391 Clear 16 1020 67 10000 7.2 50 22:18 07.03.2020
1392 Clear 16 1020 67 10000 6.7 30 21:42 07.03.2020
1393 Clear 17 1020 63 10000 6.7 30 21:19 07.03.2020
1394 Clear 17 1020 55 10000 5.7 40 20:39 07.03.2020
1395 Clear 18 1020 55 10000 5.7 40 20:19 07.03.2020
1396 Clear 18 1019 55 10000 6.7 30 19:41 07.03.2020
1397 Clear 19 1019 52 10000 6.7 30 19:22 07.03.2020
1398 Clear 20 1019 49 10000 6.2 360 18:47 07.03.2020
1399 Clear 20 1019 49 10000 6.2 360 18:29 07.03.2020
1400 Clear 20 1019 49 10000 5.1 340 17:59 07.03.2020
1401 Clear 20 1019 49 10000 5.1 340 17:41 07.03.2020
1402 Clear 21 1018 46 10000 4.6 10 17:19 07.03.2020
1403 Clear 21 1018 43 10000 5.1 20 16:56 07.03.2020
1404 Clear 21 1018 43 10000 5.1 20 16:38 07.03.2020
1405 Clear 22 1018 35 10000 3.6 40 16:19 07.03.2020
1406 Clear 22 1018 35 10000 4.6 20 15:41 07.03.2020
1407 Clear 22 1018 35 10000 3.6 40 15:22 07.03.2020
1408 Clear 22 1018 37 10000 3.1 30 14:59 07.03.2020
1409 Clear 22 1018 37 10000 3.1 30 14:40 07.03.2020
1410 Clear 22 1018 35 10000 2.1 350 14:22 07.03.2020
1411 Clear 21 1019 40 10000 3.1 70 13:42 07.03.2020
1412 Clear 21 1019 40 10000 3.1 70 13:21 07.03.2020
1413 Clouds 20 1019 45 10000 3.6 70 12:55 07.03.2020
1414 Clouds 20 1020 49 10000 2.6 40 12:37 07.03.2020
1415 Clouds 20 1020 49 10000 2.6 40 12:18 07.03.2020
1416 Clouds 20 1020 49 10000 2.6 40 11:42 07.03.2020
1417 Clouds 20 1020 52 10000 2.6 60 11:23 07.03.2020
1418 Clouds 18 1020 59 10000 2.6 60 10:57 07.03.2020
1419 Clouds 18 1020 59 10000 2.6 60 10:37 07.03.2020
1420 Clouds 18 1020 59 10000 2.1 50 10:18 07.03.2020
1421 Clouds 17 1021 67 6000 1.5 50 09:40 07.03.2020
1422 Clouds 16 1021 72 6000 3.6 40 09:20 07.03.2020
1423 Clouds 16 1021 72 6000 3.6 40 09:20 07.03.2020
1424 Clouds 16 1021 72 6000 1.5 20 08:57 07.03.2020
1425 Clouds 17 1021 72 6000 1.5 20 08:39 07.03.2020
1426 Clouds 16 1020 77 6000 3.6 10 08:20 07.03.2020
1427 Mist 15 1020 82 3000 2.6 360 07:46 07.03.2020
1428 Mist 15 1019 82 3000 2.6 20 07:21 07.03.2020
1429 Mist 13 1018 87 4000 1 20 06:43 07.03.2020
1430 Mist 13 1018 87 4000 1 20 06:25 07.03.2020
1431 Mist 13 1018 87 4000 1 20 05:40 07.03.2020
1432 Clouds 14 1018 77 6000 2.1 340 03:57 07.03.2020
1433 Clouds 15 1018 77 6000 2.1 310 02:45 07.03.2020
1434 Clouds 15 1018 77 6000 2.1 300 01:58 07.03.2020
1435 Clouds 15 1018 77 6000 2.6 300 01:18 07.03.2020
1436 Clouds 15 1018 72 6000 3.1 330 00:28 07.03.2020
1437 Clouds 15 1018 77 6000 2.6 330 23:59 06.03.2020
1438 Clouds 15 1018 77 6000 2.6 330 23:40 06.03.2020
1439 Clouds 16 1018 72 6000 3.1 330 23:22 06.03.2020
1440 Clouds 16 1018 67 6000 3.1 310 22:46 06.03.2020
1441 Clouds 16 1018 67 6000 3.1 320 22:20 06.03.2020
1442 Dust 16 1018 67 3000 3.6 320 21:49 06.03.2020
1443 Dust 17 1018 59 3000 4.6 310 21:21 06.03.2020
1444 Dust 17 1017 59 3000 4.6 320 20:46 06.03.2020
1445 Dust 18 1017 48 3000 4.1 310 20:23 06.03.2020
1446 Dust 18 1016 45 3000 3.6 330 19:59 06.03.2020
1447 Dust 19 1016 45 3000 3.6 330 19:40 06.03.2020
1448 Dust 19 1016 45 3000 3.6 330 19:22 06.03.2020
1449 Clouds 19 1015 39 6000 3.1 330 18:42 06.03.2020
1450 Clouds 19 1015 39 6000 3.1 330 18:20 06.03.2020
1451 Clouds 19 1015 39 6000 3.1 320 17:57 06.03.2020
1452 Clouds 19 1015 39 6000 3.1 320 17:39 06.03.2020
1453 Clouds 19 1015 39 6000 3.1 320 17:39 06.03.2020
1454 Clouds 19 1014 40 6000 4.1 300 17:20 06.03.2020
1455 Clouds 20 1014 40 6000 4.1 300 16:54 06.03.2020
1456 Clouds 20 1014 40 6000 4.1 300 16:36 06.03.2020
1457 Clouds 20 1014 40 6000 4.1 300 16:18 06.03.2020
1458 Dust 20 1013 37 3000 4.6 240 15:42 06.03.2020
1459 Dust 20 1013 37 3000 4.6 240 15:23 06.03.2020
1460 Dust 20 1013 40 3000 4.1 270 14:41 06.03.2020
1461 Dust 20 1013 40 3000 4.1 270 14:23 06.03.2020
1462 Dust 19 1013 39 4000 4.1 250 13:57 06.03.2020
1463 Dust 19 1013 39 4000 4.1 250 13:39 06.03.2020
1464 Sand 19 1013 42 3000 5.7 250 13:19 06.03.2020
1465 Sand 18 1013 42 1000 6.2 250 12:54 06.03.2020
1466 Sand 18 1013 42 1000 6.2 250 12:36 06.03.2020
1467 Sand 18 1013 42 1000 6.2 250 12:18 06.03.2020
1468 Sand 19 1014 39 1000 6.7 250 11:42 06.03.2020
1469 Sand 19 1014 39 1000 6.7 250 11:20 06.03.2020
1470 Sand 18 1014 42 1000 6.7 260 10:56 06.03.2020
1471 Sand 18 1014 42 1000 6.7 260 10:36 06.03.2020
1472 Sand 18 1014 42 1000 7.2 240 10:18 06.03.2020
1473 Sand 17 1013 48 1000 7.2 250 09:42 06.03.2020
1474 Sand 17 1013 48 1000 7.2 250 09:23 06.03.2020
1475 Sand 17 1013 48 1000 7.2 250 09:23 06.03.2020
1476 Sand 16 1013 51 1500 7.7 260 08:56 06.03.2020
1477 Sand 16 1013 51 1500 7.7 260 08:37 06.03.2020
1478 Sand 16 1013 51 1500 7.7 260 08:18 06.03.2020
1479 Sand 16 1013 51 2000 7.7 240 07:42 06.03.2020
1480 Sand 16 1012 51 2000 7.7 240 07:22 06.03.2020
1481 Sand 16 1012 51 4000 7.7 240 06:42 06.03.2020
1482 Clouds 16 1011 51 6000 8.2 260 06:22 06.03.2020
1483 Clouds 16 1011 48 6000 8.7 270 05:38 06.03.2020
1484 Clouds 16 1010 48 6000 8.7 270 05:19 06.03.2020
1485 Clouds 16 1009 48 6000 8.2 260 04:35 06.03.2020
1486 Clouds 18 1008 45 10000 3.6 270 01:44 06.03.2020
1487 Clouds 18 1008 45 10000 2.6 270 01:25 06.03.2020
1488 Thunderstorm 18 1008 45 6000 3.1 300 00:50 06.03.2020
1489 Clouds 18 1008 52 10000 3.6 340 00:30 06.03.2020
1490 Rain 18 1008 52 10000 2.1 340 23:44 05.03.2020
1491 Rain 19 1008 48 10000 5.7 80 23:25 05.03.2020
1492 Clouds 19 1009 48 10000 7.7 70 22:56 05.03.2020
1493 Clouds 19 1009 48 10000 7.7 80 22:37 05.03.2020
1494 Clouds 19 1009 48 10000 7.7 80 22:18 05.03.2020
1495 Clouds 20 1010 37 10000 6.2 80 21:55 05.03.2020
1496 Clouds 20 1010 37 10000 6.2 80 21:37 05.03.2020
1497 Clouds 20 1010 37 10000 4.6 70 21:19 05.03.2020
1498 Clouds 20 1010 37 10000 4.6 70 20:42 05.03.2020
1499 Clouds 20 1010 37 10000 4.6 80 20:21 05.03.2020
1500 Clear 21 1010 35 10000 5.1 70 19:59 05.03.2020
1501 Clear 21 1010 35 10000 5.1 70 19:40 05.03.2020
1502 Clear 21 1010 35 10000 4.6 50 19:22 05.03.2020
1503 Clear 21 1010 30 10000 4.1 30 18:59 05.03.2020
1504 Clear 22 1010 25 10000 3.1 360 18:38 05.03.2020
1505 Clear 23 1010 25 10000 3.1 360 18:19 05.03.2020
1506 Clear 23 1010 22 10000 3.1 350 17:57 05.03.2020
1507 Clear 24 1010 22 10000 3.1 350 17:39 05.03.2020
1508 Clear 25 1009 22 10000 4.1 330 17:21 05.03.2020
1509 Clear 25 1009 22 10000 4.1 330 16:42 05.03.2020
1510 Clear 26 1009 25 10000 4.1 270 16:24 05.03.2020
1511 Clouds 26 1009 25 6000 4.1 270 15:59 05.03.2020
1512 Clouds 26 1009 25 6000 4.1 270 15:40 05.03.2020
1513 Clouds 26 1009 19 6000 6.2 280 15:21 05.03.2020
1514 Clouds 26 1009 21 6000 5.7 280 14:54 05.03.2020
1515 Clouds 26 1009 21 6000 5.7 280 14:36 05.03.2020
1516 Clouds 26 1009 21 6000 5.1 270 14:18 05.03.2020
1517 Clouds 26 1010 21 6000 5.1 260 13:41 05.03.2020
1518 Clouds 26 1010 19 6000 5.7 250 13:21 05.03.2020
1519 Clouds 26 1010 19 6000 5.7 250 13:21 05.03.2020
1520 Clouds 26 1010 19 6000 3.6 250 12:56 05.03.2020
1521 Clouds 26 1010 19 6000 3.6 250 12:38 05.03.2020
1522 Clouds 25 1010 12 6000 4.1 230 12:18 05.03.2020
1523 Clouds 25 1011 12 6000 5.1 220 11:56 05.03.2020
1524 Clouds 24 1011 17 6000 6.2 210 11:37 05.03.2020
1525 Clouds 24 1011 17 6000 6.2 210 11:18 05.03.2020
1526 Clouds 24 1011 17 6000 6.2 210 11:18 05.03.2020
1527 Clouds 23 1012 16 6000 7.2 210 10:56 05.03.2020
1528 Clouds 23 1012 16 6000 7.2 210 10:56 05.03.2020
1529 Clouds 23 1012 16 6000 7.2 210 10:38 05.03.2020
1530 Clouds 23 1012 15 6000 10.3 200 10:19 05.03.2020
1531 Clouds 23 1012 15 6000 10.3 200 09:44 05.03.2020
1532 Clouds 23 1012 15 6000 10.3 200 09:26 05.03.2020
1533 Clouds 22 1012 15 6000 8.2 190 08:44 05.03.2020
1534 Clouds 22 1012 15 6000 8.2 190 08:25 05.03.2020
1535 Clouds 20 1011 18 6000 7.2 200 07:47 05.03.2020
1536 Clouds 20 1011 18 6000 7.2 200 07:22 05.03.2020
1537 Clouds 21 1010 13 10000 8.7 160 06:49 05.03.2020
1538 Clouds 21 1010 13 10000 8.7 160 06:22 05.03.2020
1539 Clouds 21 1009 13 10000 7.2 160 05:57 05.03.2020
1540 Clouds 21 1009 13 10000 7.2 160 05:25 05.03.2020
1541 Clear 20 1009 15 10000 7.2 160 04:22 05.03.2020
1542 Clear 19 1009 17 10000 3.6 160 03:51 05.03.2020
1543 Clear 20 1010 18 10000 4.6 150 01:58 05.03.2020
1544 Clear 20 1010 18 10000 4.6 150 01:22 05.03.2020
1545 Clear 20 1011 19 6000 4.6 150 00:26 05.03.2020
1546 Clear 19 1012 32 6000 3.1 150 23:43 04.03.2020
1547 Clear 19 1012 32 6000 3.1 150 23:24 04.03.2020
1548 Clear 19 1012 30 6000 3.1 150 22:59 04.03.2020
1549 Clear 20 1012 30 6000 3.1 150 22:39 04.03.2020
1550 Clear 20 1012 30 6000 3.1 150 22:19 04.03.2020
1551 Clear 20 1012 30 6000 3.1 150 21:58 04.03.2020
1552 Clear 20 1012 30 6000 3.1 150 21:40 04.03.2020
1553 Clear 20 1012 30 6000 3.1 150 21:20 04.03.2020
1554 Clear 20 1013 28 6000 3.1 150 20:56 04.03.2020
1555 Clear 20 1013 28 6000 3.1 150 20:37 04.03.2020
1556 Clear 20 1013 28 6000 3.1 150 20:18 04.03.2020
1557 Dust 21 1013 26 3000 3.1 150 19:42 04.03.2020
1558 Dust 21 1013 28 3000 1 30 19:23 04.03.2020
1559 Dust 22 1013 28 3000 1 30 18:56 04.03.2020
1560 Dust 22 1013 28 3000 1 30 18:36 04.03.2020
1561 Dust 23 1013 33 3000 1 30 18:18 04.03.2020
1562 Dust 24 1012 29 3000 2.6 330 17:55 04.03.2020
1563 Dust 24 1012 29 3000 2.6 330 17:37 04.03.2020
1564 Dust 24 1012 29 3000 2.6 330 17:18 04.03.2020
1565 Dust 26 1012 16 3000 2.6 210 16:42 04.03.2020
1566 Clear 26 1012 16 6000 2.6 220 16:24 04.03.2020
1567 Clear 26 1012 19 6000 3.1 230 15:59 04.03.2020
1568 Clear 26 1012 19 6000 3.1 230 15:40 04.03.2020
1569 Clear 26 1012 19 6000 3.1 230 15:21 04.03.2020
1570 Dust 26 1012 14 3000 2.1 240 14:55 04.03.2020
1571 Dust 26 1012 14 3000 2.1 240 14:36 04.03.2020
1572 Dust 26 1012 19 3000 3.6 250 14:18 04.03.2020
1573 Dust 26 1012 15 3000 3.1 240 13:55 04.03.2020
1574 Dust 26 1012 21 3000 1.5 280 13:36 04.03.2020
1575 Dust 26 1012 21 3000 1.5 280 13:18 04.03.2020
1576 Dust 25 1013 22 3000 1.5 230 12:43 04.03.2020
1577 Dust 25 1013 22 3000 1.5 230 12:43 04.03.2020
1578 Dust 25 1013 20 3000 3.6 250 12:25 04.03.2020
1579 Dust 23 1014 25 3000 3.6 240 11:56 04.03.2020
1580 Dust 23 1014 25 3000 3.6 240 11:37 04.03.2020
1581 Dust 23 1014 25 3000 3.6 240 11:19 04.03.2020
1582 Sand 22 1015 26 3000 6.2 230 10:47 04.03.2020
1583 Sand 22 1015 26 3000 6.2 230 10:26 04.03.2020
1584 Haze 21 1015 32 2000 4.1 240 09:58 04.03.2020
1585 Haze 21 1015 32 2000 4.1 240 09:40 04.03.2020
1586 Haze 19 1015 52 2000 3.6 240 09:20 04.03.2020
1587 Haze 18 1015 63 3000 1.5 270 08:43 04.03.2020
1588 Mist 16 1015 72 3000 2.6 280 08:24 04.03.2020
1589 Clouds 15 1015 77 6000 1.5 200 07:48 04.03.2020
1590 Clouds 14 1015 82 6000 2.6 270 07:30 04.03.2020
1591 Clear 14 1015 82 6000 1.5 270 06:54 04.03.2020
1592 Clear 13 1014 76 6000 2.1 220 06:27 04.03.2020
1593 Clear 12 1015 81 6000 2.6 230 05:59 04.03.2020
1594 Clear 12 1014 81 6000 2.1 250 05:32 04.03.2020
1595 Clear 11 1014 81 10000 2.5 199 03:58 04.03.2020
1596 Clear 11 1014 81 10000 2.5 199 03:37 04.03.2020
1597 Clear 11 1014 76 10000 2.1 90 02:59 04.03.2020
1598 Clear 12 1015 76 10000 2.1 30 02:31 04.03.2020
1599 Clouds 13 1015 76 10000 2.6 20 01:57 04.03.2020
1600 Clouds 13 1015 76 10000 3.6 30 01:37 04.03.2020
1601 Clouds 14 1015 76 10000 4.1 60 00:42 04.03.2020
1602 Clouds 14 1015 76 10000 5.1 60 00:24 04.03.2020
1603 Clouds 14 1016 71 10000 5.1 60 23:44 03.03.2020
1604 Clouds 14 1016 71 10000 6.2 60 23:24 03.03.2020
1605 Clouds 14 1016 67 10000 5.7 60 22:56 03.03.2020
1606 Clouds 15 1016 67 10000 5.7 60 22:38 03.03.2020
1607 Clouds 15 1017 67 10000 5.1 60 22:19 03.03.2020
1608 Clouds 15 1017 67 10000 6.2 50 21:56 03.03.2020
1609 Clouds 15 1017 67 10000 6.2 50 21:36 03.03.2020
1610 Clouds 15 1017 67 10000 6.2 50 21:18 03.03.2020
1611 Clouds 15 1017 67 10000 6.2 50 21:18 03.03.2020
1612 Clouds 16 1017 63 10000 7.7 50 20:40 03.03.2020
1613 Clouds 16 1017 63 10000 6.7 50 20:19 03.03.2020
1614 Clouds 16 1017 63 10000 6.7 50 20:19 03.03.2020
1615 Clouds 16 1018 63 10000 7.7 40 19:58 03.03.2020
1616 Clouds 16 1018 59 10000 7.2 40 19:37 03.03.2020
1617 Clouds 17 1018 59 10000 7.2 40 19:19 03.03.2020
1618 Clouds 17 1017 55 10000 7.7 40 18:58 03.03.2020
1619 Clouds 18 1017 55 10000 7.7 40 18:40 03.03.2020
1620 Clouds 19 1017 52 10000 8.7 30 18:19 03.03.2020
1621 Clouds 20 1017 45 10000 8.7 30 17:55 03.03.2020
1622 Clouds 21 1017 37 10000 8.2 30 17:37 03.03.2020
1623 Clouds 21 1017 37 10000 8.2 30 17:19 03.03.2020
1624 Clouds 22 1017 30 10000 7.7 30 16:55 03.03.2020
1625 Clouds 22 1017 30 10000 7.7 30 16:36 03.03.2020
1626 Clouds 22 1017 30 10000 7.7 30 16:18 03.03.2020
1627 Clouds 23 1017 28 10000 7.7 30 15:43 03.03.2020
1628 Clouds 23 1017 31 10000 7.2 30 15:21 03.03.2020
1629 Clouds 23 1017 28 10000 7.2 40 14:55 03.03.2020
1630 Clouds 23 1017 28 10000 7.2 40 14:37 03.03.2020
1631 Clouds 23 1018 28 10000 6.7 40 14:18 03.03.2020
1632 Clouds 23 1018 31 10000 6.7 30 13:42 03.03.2020
1633 Clouds 23 1018 27 10000 7.2 40 13:24 03.03.2020
1634 Clouds 22 1018 30 10000 8.2 50 12:55 03.03.2020
1635 Clouds 22 1018 30 10000 8.2 50 12:37 03.03.2020
1636 Clouds 21 1019 35 10000 7.2 50 12:19 03.03.2020
1637 Clouds 21 1019 35 10000 7.2 50 11:55 03.03.2020
1638 Clouds 20 1020 40 10000 7.2 50 11:36 03.03.2020
1639 Clear 20 1020 40 10000 7.2 50 11:18 03.03.2020
1640 Clear 19 1021 42 10000 7.2 40 10:54 03.03.2020
1641 Clear 19 1021 42 10000 7.2 40 10:36 03.03.2020
1642 Clear 18 1021 48 10000 8.7 40 10:18 03.03.2020
1643 Clear 18 1021 48 10000 8.7 40 10:18 03.03.2020
1644 Clear 18 1021 48 10000 7.7 50 09:41 03.03.2020
1645 Clear 16 1021 55 10000 8.2 50 09:20 03.03.2020
1646 Clear 16 1021 59 10000 7.7 40 08:42 03.03.2020
1647 Clear 15 1022 62 10000 6.2 50 08:22 03.03.2020
1648 Clear 14 1022 67 10000 6.7 40 07:56 03.03.2020
1649 Clear 14 1022 67 10000 6.7 40 07:37 03.03.2020
1650 Clear 13 1021 71 10000 4.6 40 07:18 03.03.2020
1651 Clear 12 1021 76 10000 3.6 30 06:40 03.03.2020
1652 Clear 11 1021 76 10000 3.6 30 06:20 03.03.2020
1653 Clear 11 1021 76 10000 3.6 20 05:42 03.03.2020
1654 Clear 11 1020 76 10000 3.6 60 04:54 03.03.2020
1655 Clear 12 1020 71 10000 4.6 70 02:38 03.03.2020
1656 Clear 13 1021 62 10000 4.1 70 01:32 03.03.2020
1657 Clear 13 1021 62 10000 4.6 60 00:42 03.03.2020
1658 Clear 13 1021 62 10000 4.1 60 00:23 03.03.2020
1659 Clear 13 1021 66 10000 5.7 60 23:50 02.03.2020
1660 Clear 14 1022 62 10000 6.2 60 23:23 02.03.2020
1661 Clear 14 1022 62 10000 5.1 60 22:58 02.03.2020
1662 Clear 14 1022 62 10000 5.1 60 22:38 02.03.2020
1663 Clear 14 1022 62 10000 4.6 40 22:20 02.03.2020
1664 Clear 14 1022 62 10000 6.2 40 21:56 02.03.2020
1665 Clear 14 1022 58 10000 8.2 50 21:38 02.03.2020
1666 Clear 15 1022 58 10000 8.2 50 21:20 02.03.2020
1667 Clear 15 1022 62 10000 6.7 40 20:56 02.03.2020
1668 Clear 17 1022 51 10000 5.1 20 20:38 02.03.2020
1669 Clear 17 1022 51 10000 5.1 20 20:38 02.03.2020
1670 Clear 17 1022 51 10000 5.1 20 20:19 02.03.2020
1671 Clear 17 1022 51 10000 4.1 20 19:54 02.03.2020
1672 Clear 17 1021 55 10000 5.1 360 19:36 02.03.2020
1673 Clear 17 1021 55 10000 5.1 360 19:18 02.03.2020
1674 Clear 17 1021 55 10000 5.1 360 18:43 02.03.2020
1675 Clear 18 1021 48 10000 5.1 360 18:19 02.03.2020
1676 Clear 18 1021 48 10000 4.6 350 17:57 02.03.2020
1677 Clear 18 1021 48 10000 4.6 350 17:39 02.03.2020
1678 Clear 18 1021 48 10000 4.6 350 17:21 02.03.2020
1679 Clear 19 1020 42 10000 5.1 350 16:54 02.03.2020
1680 Clear 19 1020 45 10000 4.6 350 16:36 02.03.2020
1681 Clear 19 1020 45 10000 4.6 350 16:18 02.03.2020
1682 Clear 19 1020 45 10000 3.1 340 15:42 02.03.2020
1683 Clear 20 1020 40 10000 4.1 10 15:19 02.03.2020
1684 Clear 20 1020 40 10000 4.6 320 14:40 02.03.2020
1685 Clear 20 1020 40 10000 4.6 20 14:20 02.03.2020
1686 Clear 19 1020 42 10000 3.6 320 13:58 02.03.2020
1687 Clear 19 1020 42 10000 3.6 320 13:38 02.03.2020
1688 Clear 19 1021 42 10000 1 320 13:18 02.03.2020
1689 Clear 19 1021 42 10000 1.5 350 12:43 02.03.2020
1690 Clear 18 1021 45 10000 3.1 340 12:19 02.03.2020
1691 Clear 18 1021 45 10000 2.1 20 11:55 02.03.2020
1692 Clear 17 1022 48 10000 3.1 340 11:36 02.03.2020
1693 Clear 17 1022 48 10000 3.1 340 11:18 02.03.2020
1694 Clear 17 1022 48 10000 3.6 350 10:42 02.03.2020
1695 Clear 16 1023 55 10000 3.6 350 10:20 02.03.2020
1696 Clouds 16 1023 55 10000 2.6 360 09:58 02.03.2020
1697 Clouds 16 1023 55 10000 2.6 360 09:39 02.03.2020
1698 Clear 15 1023 58 10000 3.1 10 09:20 02.03.2020
1699 Clear 15 1023 58 10000 3.1 350 08:41 02.03.2020
1700 Clear 15 1023 58 10000 2.6 20 08:19 02.03.2020
1701 Clear 14 1023 67 10000 1 30 07:42 02.03.2020
1702 Clear 13 1023 71 10000 1.5 70 07:19 02.03.2020
1703 Clear 12 1022 71 6000 1.5 80 06:38 02.03.2020
1704 Clear 11 1021 71 6000 2.1 90 05:53 02.03.2020
1705 Clear 11 1021 71 10000 1.5 90 04:25 02.03.2020
1706 Clear 11 1020 71 10000 1.5 80 03:22 02.03.2020
1707 Clear 12 1020 66 10000 2.1 90 02:46 02.03.2020
1708 Clear 12 1021 66 10000 1.5 90 01:49 02.03.2020
1709 Clear 12 1021 66 10000 1.5 90 01:30 02.03.2020
1710 Clear 13 1021 62 10000 1 100 00:23 02.03.2020
1711 Clear 13 1021 62 10000 1.5 50 23:57 01.03.2020
1712 Clear 13 1021 62 10000 1.5 50 23:39 01.03.2020
1713 Clear 14 1022 58 10000 2.1 20 23:19 01.03.2020
1714 Clear 14 1022 58 10000 2.6 20 22:43 01.03.2020
1715 Clear 14 1022 62 10000 3.1 360 22:20 01.03.2020
1716 Clear 14 1022 62 10000 2.6 10 21:56 01.03.2020
1717 Clear 14 1022 62 10000 2.6 10 21:38 01.03.2020
1718 Clear 14 1022 62 10000 4.1 350 21:19 01.03.2020
1719 Clear 15 1022 58 10000 4.1 330 20:44 01.03.2020
1720 Clear 15 1021 58 10000 5.7 340 20:25 01.03.2020
1721 Clear 16 1021 55 10000 5.1 340 19:57 01.03.2020
1722 Clear 16 1021 55 10000 5.1 340 19:39 01.03.2020
1723 Clouds 17 1020 48 10000 5.1 340 19:21 01.03.2020
1724 Clouds 17 1020 48 10000 5.1 340 18:41 01.03.2020
1725 Clouds 17 1020 48 10000 4.6 340 18:20 01.03.2020
1726 Clouds 17 1020 45 10000 3.6 330 17:58 01.03.2020
1727 Clouds 18 1020 45 10000 3.6 330 17:40 01.03.2020
1728 Clouds 18 1019 45 10000 4.6 340 17:21 01.03.2020
1729 Clouds 19 1019 42 10000 4.1 300 16:58 01.03.2020
1730 Clouds 19 1019 42 10000 4.1 300 16:39 01.03.2020
1731 Clouds 19 1019 42 10000 4.1 300 16:19 01.03.2020
1732 Clouds 19 1019 39 10000 4.1 300 15:58 01.03.2020
1733 Clouds 19 1019 45 6000 3.6 280 15:40 01.03.2020
1734 Clouds 19 1019 45 6000 3.6 280 15:21 01.03.2020
1735 Clouds 19 1019 45 6000 3.6 280 14:57 01.03.2020
1736 Clouds 19 1019 45 6000 3.6 280 14:39 01.03.2020
1737 Clouds 19 1019 45 6000 3.6 280 14:21 01.03.2020
1738 Clouds 19 1019 42 6000 3.1 290 13:56 01.03.2020
1739 Clouds 19 1019 42 6000 3.1 290 13:38 01.03.2020
1740 Clouds 19 1019 42 6000 3.1 280 13:19 01.03.2020
1741 Clouds 19 1019 42 6000 2.6 310 12:44 01.03.2020
1742 Clouds 18 1020 48 6000 3.1 260 12:23 01.03.2020
1743 Clouds 18 1020 48 6000 3.1 260 12:23 01.03.2020
1744 Clouds 17 1020 48 6000 3.1 340 11:58 01.03.2020
1745 Clouds 17 1020 48 6000 3.1 340 11:39 01.03.2020
1746 Clouds 16 1021 48 6000 2.6 10 11:19 01.03.2020
1747 Clouds 16 1021 48 6000 2.6 10 10:56 01.03.2020
1748 Clouds 16 1021 48 6000 2.6 10 10:36 01.03.2020
1749 Clouds 16 1021 48 6000 2.6 10 10:18 01.03.2020
1750 Clouds 16 1021 51 6000 4.1 280 09:42 01.03.2020
1751 Clouds 16 1021 51 6000 4.1 280 09:42 01.03.2020
1752 Clouds 16 1021 51 6000 4.1 280 09:23 01.03.2020
1753 Clouds 14 1021 54 6000 3.1 270 08:46 01.03.2020
1754 Clouds 14 1021 54 6000 3.1 270 08:28 01.03.2020
1755 Clouds 13 1021 58 6000 2.6 230 07:56 01.03.2020
1756 Clouds 13 1021 58 6000 2.6 230 07:38 01.03.2020
1757 Clouds 13 1021 58 6000 2.6 230 07:19 01.03.2020
1758 Clouds 13 1020 58 6000 3.1 280 06:41 01.03.2020
1759 Clouds 13 1019 58 6000 3.6 290 05:58 01.03.2020
1760 Clouds 13 1019 62 10000 3.6 290 03:38 01.03.2020
1761 Clouds 13 1018 62 10000 5.7 300 02:23 01.03.2020
1762 Clouds 14 1018 58 10000 5.7 290 01:45 01.03.2020
1763 Clouds 14 1018 67 10000 7.2 280 00:59 01.03.2020
1764 Clouds 14 1018 67 10000 7.2 280 00:39 01.03.2020
1765 Clouds 14 1018 67 10000 7.2 280 00:18 01.03.2020
1766 Clouds 14 1018 67 10000 7.2 280 23:40 29.02.2020
1767 Clouds 14 1018 67 10000 7.2 280 23:22 29.02.2020
1768 Clouds 15 1018 62 10000 8.7 270 22:39 29.02.2020
1769 Clouds 15 1018 62 10000 8.7 270 22:21 29.02.2020
1770 Clouds 15 1018 62 10000 7.7 280 21:41 29.02.2020
1771 Clouds 16 1018 59 10000 7.7 280 21:21 29.02.2020
1772 Clouds 16 1018 55 10000 7.2 290 20:42 29.02.2020
1773 Clouds 16 1018 55 10000 7.2 290 20:21 29.02.2020
1774 Clouds 16 1017 51 10000 6.7 280 19:56 29.02.2020
1775 Clouds 17 1017 51 10000 6.7 280 19:37 29.02.2020
1776 Clouds 17 1017 51 10000 6.7 280 19:19 29.02.2020
1777 Clouds 19 1016 37 10000 7.2 250 18:42 29.02.2020
1778 -273 0 0 0 0 0 18:23 29.02.2020
1779 Clouds 19 1016 37 10000 7.2 250 17:57 29.02.2020
1780 Clouds 19 1016 37 10000 7.2 250 17:39 29.02.2020
1781 Clouds 19 1016 37 10000 7.2 250 17:19 29.02.2020
1782 Clouds 20 1015 40 10000 7.7 260 16:45 29.02.2020
1783 Clouds 21 1015 40 10000 6.2 260 16:20 29.02.2020
1784 Clouds 21 1015 40 10000 7.2 280 15:58 29.02.2020
1785 Clouds 21 1015 40 10000 5.7 270 15:38 29.02.2020
1786 Clouds 21 1015 40 10000 5.7 270 15:20 29.02.2020
1787 Clouds 20 1015 42 10000 6.2 260 14:40 29.02.2020
1788 Clouds 20 1015 42 10000 5.7 280 14:22 29.02.2020
1789 Clouds 20 1015 42 10000 6.2 270 13:46 29.02.2020
1790 Clouds 20 1015 42 10000 5.1 270 13:28 29.02.2020
1791 Clouds 20 1015 42 10000 5.1 270 13:28 29.02.2020
1792 Clouds 20 1016 42 10000 6.2 280 12:58 29.02.2020
1793 Clouds 20 1016 42 10000 6.2 280 12:39 29.02.2020
1794 Clouds 20 1016 42 10000 5.7 280 12:21 29.02.2020
1795 Clouds 19 1016 45 10000 6.2 280 11:55 29.02.2020
1796 Clouds 18 1017 55 10000 5.7 270 11:37 29.02.2020
1797 Clouds 18 1017 55 10000 5.7 270 11:18 29.02.2020
1798 Clouds 19 1017 52 10000 5.1 270 10:44 29.02.2020
1799 Clouds 18 1017 55 10000 5.1 270 10:26 29.02.2020
1800 Clouds 18 1018 52 10000 5.7 250 09:47 29.02.2020
1801 Clouds 17 1018 59 10000 4.6 260 09:23 29.02.2020
1802 Clouds 17 1018 59 10000 4.6 260 08:42 29.02.2020
1803 Clouds 17 1018 59 10000 4.6 260 08:22 29.02.2020
1804 Clouds 16 1018 63 6000 4.1 270 07:56 29.02.2020
1805 Clouds 15 1017 67 6000 3.6 220 07:36 29.02.2020
1806 Clouds 15 1017 67 6000 3.6 220 07:18 29.02.2020
1807 Clouds 15 1017 67 6000 3.6 220 06:41 29.02.2020
1808 Clouds 14 1017 76 6000 2.1 220 06:22 29.02.2020
1809 Clouds 15 1017 72 6000 2.6 280 05:40 29.02.2020
1810 Clouds 15 1017 72 6000 3.6 280 04:44 29.02.2020
1811 Clouds 15 1016 67 6000 2.6 300 03:37 29.02.2020
1812 Clouds 15 1016 67 6000 2.6 300 03:18 29.02.2020
1813 Clouds 15 1017 72 6000 3.6 300 02:34 29.02.2020
1814 Clouds 16 1017 82 6000 3.1 310 00:58 29.02.2020
1815 Clouds 16 1017 82 6000 3.1 310 00:36 29.02.2020
1816 Clouds 16 1017 82 6000 2.6 310 23:43 28.02.2020
1817 Clouds 16 1017 82 6000 3.1 300 23:24 28.02.2020
1818 Clouds 16 1017 82 6000 3.1 300 23:24 28.02.2020
1819 Clouds 16 1017 82 6000 3.6 300 22:54 28.02.2020
1820 Clouds 16 1017 82 6000 3.6 300 22:36 28.02.2020
1821 Clouds 16 1017 82 6000 4.6 310 22:18 28.02.2020
1822 Clouds 17 1017 77 6000 4.6 320 21:41 28.02.2020
1823 Clouds 17 1017 77 6000 4.6 320 21:41 28.02.2020
1824 Clouds 17 1017 77 6000 5.1 310 21:20 28.02.2020
1825 Mist 17 1017 77 4000 4.1 330 20:41 28.02.2020
1826 Mist 18 1017 82 4000 4.6 330 20:22 28.02.2020
1827 Mist 18 1017 82 4000 4.6 330 20:22 28.02.2020
1828 Mist 18 1017 82 4000 4.6 330 20:22 28.02.2020
1829 Mist 18 1016 82 4000 6.7 330 19:59 28.02.2020
1830 Mist 18 1016 82 4000 6.7 330 19:39 28.02.2020
1831 Clouds 21 1015 52 6000 4.6 310 19:21 28.02.2020
1832 Clouds 22 1014 31 6000 3.6 320 18:57 28.02.2020
1833 Clouds 24 1014 31 6000 3.6 320 18:39 28.02.2020
1834 Clouds 24 1014 31 6000 3.6 320 18:20 28.02.2020
1835 Clouds 24 1014 31 10000 3.6 320 17:41 28.02.2020
1836 Clouds 25 1014 23 10000 1.5 310 17:22 28.02.2020
1837 Clouds 26 1014 22 10000 2.6 320 16:47 28.02.2020
1838 Clouds 26 1014 22 10000 2.6 320 16:21 28.02.2020
1839 Clouds 26 1014 24 10000 3.1 310 15:59 28.02.2020
1840 Clouds 26 1014 24 10000 3.1 310 15:41 28.02.2020
1841 Clouds 26 1014 24 10000 3.1 310 15:20 28.02.2020
1842 Clouds 26 1014 24 10000 4.1 300 14:57 28.02.2020
1843 Clouds 26 1014 24 10000 4.1 300 14:39 28.02.2020
1844 Clouds 26 1014 24 10000 4.1 300 14:19 28.02.2020
1845 Haze 26 1014 22 4000 4.6 280 13:57 28.02.2020
1846 Haze 26 1014 22 4000 4.6 280 13:39 28.02.2020
1847 Haze 26 1014 22 4000 4.6 280 13:19 28.02.2020
1848 Haze 26 1015 19 3000 2.1 260 12:41 28.02.2020
1849 Haze 26 1015 19 2000 2.1 260 12:23 28.02.2020
1850 Haze 25 1015 29 2000 3.6 250 11:43 28.02.2020
1851 Haze 25 1016 29 3000 3.6 250 11:24 28.02.2020
1852 Haze 25 1016 25 3000 3.6 240 10:59 28.02.2020
1853 Haze 25 1016 25 3000 3.6 240 10:40 28.02.2020
1854 Haze 25 1017 29 3000 3.6 240 10:20 28.02.2020
1855 Haze 23 1017 33 3000 3.6 210 09:47 28.02.2020
1856 Haze 23 1017 33 3000 3.6 210 09:21 28.02.2020
1857 Haze 21 1017 43 3000 3.6 180 08:57 28.02.2020
1858 Haze 21 1017 43 3000 3.6 180 08:37 28.02.2020
1859 Haze 19 1017 48 3000 2.07 184 08:18 28.02.2020
1860 Haze 19 1017 48 3000 2.07 184 07:40 28.02.2020
1861 Haze 18 1017 52 3000 2.1 200 07:20 28.02.2020
1862 Haze 17 1016 51 3000 4.1 160 06:45 28.02.2020
1863 Haze 17 1016 51 3000 4.1 160 06:20 28.02.2020
1864 Haze 16 1016 59 3000 3.6 180 04:45 28.02.2020
1865 Haze 16 1016 63 3000 3.1 200 04:18 28.02.2020
1866 Clear 16 1016 63 6000 1 150 02:46 28.02.2020
1867 Clear 16 1016 63 6000 1 150 02:46 28.02.2020
1868 Clear 17 1016 59 6000 1.08 176 02:25 28.02.2020
1869 Clouds 18 1016 55 6000 0.78 144 00:48 28.02.2020
1870 Clouds 18 1016 55 6000 0.78 144 00:26 28.02.2020
1871 Clouds 20 1017 45 6000 3.6 130 23:42 27.02.2020
1872 Clouds 20 1017 45 10000 4.1 120 23:19 27.02.2020
1873 Clouds 20 1017 45 10000 3.6 110 22:43 27.02.2020
1874 Clouds 21 1017 40 10000 4.1 110 22:25 27.02.2020
1875 Clouds 20 1017 42 10000 3.6 110 21:57 27.02.2020
1876 Clouds 20 1017 42 10000 3.6 110 21:39 27.02.2020
1877 Clouds 21 1017 40 10000 4.1 110 21:19 27.02.2020
1878 Clouds 22 1017 35 10000 3.6 120 20:56 27.02.2020
1879 Clouds 22 1017 35 10000 3.6 120 20:38 27.02.2020
1880 Clouds 22 1017 37 10000 3.1 130 20:19 27.02.2020
1881 Clouds 22 1017 37 10000 2.6 120 19:42 27.02.2020
1882 Clouds 22 1017 35 10000 2.1 120 19:24 27.02.2020
1883 Clouds 23 1017 31 10000 2.6 120 18:58 27.02.2020
1884 Clouds 23 1017 31 10000 2.6 120 18:40 27.02.2020
1885 Clouds 23 1018 31 10000 0.66 100 18:21 27.02.2020
1886 Clouds 24 1017 29 10000 0.66 100 17:57 27.02.2020
1887 Clouds 24 1017 29 10000 0.66 100 17:57 27.02.2020
1888 Clouds 24 1017 29 10000 0.66 100 17:39 27.02.2020
1889 Clouds 24 1017 29 10000 0.73 255 17:19 27.02.2020
1890 Clouds 24 1017 29 10000 1 240 16:55 27.02.2020
1891 Clouds 24 1017 29 10000 1 240 16:37 27.02.2020
1892 Clouds 24 1017 29 10000 0.73 255 16:18 27.02.2020
1893 Clouds 25 1017 25 10000 2.1 210 15:54 27.02.2020
1894 Clouds 25 1017 25 10000 2.1 210 15:36 27.02.2020
1895 Clouds 25 1018 27 10000 2.6 220 15:18 27.02.2020
1896 Clouds 25 1018 29 10000 1.5 220 14:40 27.02.2020
1897 Clouds 25 1018 29 6000 2.1 230 14:22 27.02.2020
1898 Clouds 24 1018 31 6000 1.5 250 13:56 27.02.2020
1899 Clouds 24 1018 31 6000 1.5 250 13:38 27.02.2020
1900 Clouds 24 1018 31 6000 2.6 220 13:19 27.02.2020
1901 Clouds 25 1019 29 6000 3.1 250 12:45 27.02.2020
1902 Clouds 24 1020 31 6000 3.1 240 12:22 27.02.2020
1903 Clouds 24 1020 33 6000 3.1 240 11:56 27.02.2020
1904 Clouds 23 1020 35 6000 3.1 210 11:37 27.02.2020
1905 Clouds 23 1020 35 6000 3.1 210 11:18 27.02.2020
1906 Clouds 23 1021 38 6000 2.6 230 10:41 27.02.2020
1907 Clouds 23 1021 38 6000 2.6 230 10:20 27.02.2020
1908 Clouds 22 1021 40 6000 2.6 220 09:45 27.02.2020
1909 Clouds 22 1021 40 6000 2.6 220 09:26 27.02.2020
1910 Clouds 21 1021 43 6000 2.66 202 08:55 27.02.2020
1911 Clouds 20 1021 48 6000 2.66 202 08:37 27.02.2020
1912 Clouds 19 1021 48 6000 2.62 157 08:18 27.02.2020
1913 Clouds 16 1020 63 6000 2.1 40 07:42 27.02.2020
1914 Clouds 16 1020 63 6000 2.1 40 07:24 27.02.2020
1915 Clouds 14 1020 71 6000 2.72 157 06:23 27.02.2020
1916 Clouds 14 1019 71 6000 2.72 157 05:23 27.02.2020
1917 Clouds 14 1019 76 6000 2.6 150 03:20 27.02.2020
1918 Clear 15 1020 72 6000 1.5 90 01:34 27.02.2020
1919 Clear 16 1020 63 10000 3.53 143 00:42 27.02.2020
1920 Clear 16 1020 63 10000 3.53 143 00:19 27.02.2020
1921 Clear 16 1020 67 10000 1.5 150 23:38 26.02.2020
1922 Clear 16 1020 67 10000 1.5 150 23:18 26.02.2020
1923 Clear 16 1020 63 10000 1.5 150 22:55 26.02.2020
1924 Clear 17 1020 63 10000 1.5 150 22:37 26.02.2020
1925 Clear 17 1020 63 10000 1.5 150 22:19 26.02.2020
1926 Clear 18 1021 59 10000 2.6 160 21:40 26.02.2020
1927 Clear 18 1021 59 10000 2.6 160 21:20 26.02.2020
1928 Clear 19 1021 52 10000 3.1 170 20:56 26.02.2020
1929 Clear 19 1020 52 10000 3.1 170 20:38 26.02.2020
1930 Clear 19 1020 52 10000 3.1 170 20:19 26.02.2020
1931 Clear 19 1020 45 10000 2.6 160 19:56 26.02.2020
1932 Clear 20 1020 45 10000 2.6 160 19:38 26.02.2020
1933 Clear 20 1020 45 10000 2.6 160 19:19 26.02.2020
1934 Clouds 20 1019 45 10000 2.1 160 18:57 26.02.2020
1935 Clouds 20 1019 45 10000 2.1 160 18:37 26.02.2020
1936 Clouds 20 1019 45 10000 2.1 160 18:19 26.02.2020
1937 Clouds 21 1020 43 10000 3.1 190 17:41 26.02.2020
1938 Clouds 21 1020 43 10000 3.1 190 17:41 26.02.2020
1939 Clouds 21 1020 43 10000 3.1 190 17:20 26.02.2020
1940 Clouds 21 1020 43 10000 3.1 190 17:20 26.02.2020
1941 Clouds 21 1019 43 10000 1.5 230 16:57 26.02.2020
1942 Clouds 22 1019 43 10000 1.5 230 16:38 26.02.2020
1943 Clouds 22 1019 43 10000 1.5 230 16:20 26.02.2020
1944 Clouds 22 1019 40 6000 2.6 240 15:45 26.02.2020
1945 Clouds 22 1019 40 6000 2.6 240 15:27 26.02.2020
1946 Clouds 22 1020 43 6000 3.1 200 14:55 26.02.2020
1947 Clouds 22 1020 43 6000 3.1 200 14:55 26.02.2020
1948 Clouds 22 1020 43 6000 3.1 200 14:37 26.02.2020
1949 Clouds 22 1020 43 6000 3.1 200 14:37 26.02.2020
1950 Clouds 22 1020 43 6000 2.6 190 14:18 26.02.2020
1951 Clouds 21 1020 49 6000 3.6 230 13:41 26.02.2020
1952 Clouds 21 1020 49 6000 3.6 230 13:20 26.02.2020
1953 Clouds 21 1020 46 6000 3.6 220 12:39 26.02.2020
1954 Clouds 20 1021 49 6000 4.1 240 12:20 26.02.2020
1955 Clouds 19 1021 52 6000 4.1 230 11:56 26.02.2020
1956 Clouds 19 1021 52 6000 4.1 230 11:56 26.02.2020
1957 Clouds 19 1021 52 6000 4.1 230 11:38 26.02.2020
1958 Clouds 19 1021 52 6000 4.1 230 11:20 26.02.2020
1959 Clouds 18 1022 55 6000 4.1 200 10:41 26.02.2020
1960 Clouds 18 1022 55 6000 4.1 200 10:41 26.02.2020
1961 Clouds 18 1022 55 6000 4.1 200 10:22 26.02.2020
1962 Haze 18 1022 55 4000 4.6 200 09:57 26.02.2020
1963 Haze 17 1022 59 4000 4.1 180 09:39 26.02.2020
1964 Haze 17 1022 59 4000 4.1 180 09:19 26.02.2020
1965 Haze 17 1022 59 4000 3.6 200 08:39 26.02.2020
1966 Haze 17 1022 59 4000 3.6 200 08:39 26.02.2020
1967 Haze 16 1022 59 4000 3.1 200 08:19 26.02.2020
1968 Haze 15 1022 62 2000 3.6 210 07:50 26.02.2020
1969 Haze 14 1021 67 2000 2.6 200 07:29 26.02.2020
1970 Mist 14 1021 67 2000 3.1 180 06:57 26.02.2020
1971 Mist 14 1021 67 2000 3.1 180 06:39 26.02.2020
1972 Mist 13 1021 71 2000 3.6 170 06:18 26.02.2020
1973 Mist 13 1021 71 2000 4.6 170 05:47 26.02.2020
1974 Mist 13 1020 76 4000 3.1 190 04:49 26.02.2020
1975 Mist 13 1020 87 4000 2.1 170 02:55 26.02.2020
1976 Clouds 13 1020 87 6000 1.6 257 01:51 26.02.2020
1977 Clouds 13 1020 93 6000 1.55 255 01:21 26.02.2020
1978 Clouds 14 1020 82 6000 1.55 255 00:28 26.02.2020
1979 Clouds 14 1020 82 6000 1.55 255 00:28 26.02.2020
1980 Clouds 14 1020 77 6000 1.55 255 23:59 25.02.2020
1981 Clouds 15 1020 77 6000 1.55 255 23:41 25.02.2020
1982 Clouds 15 1021 77 6000 1.64 311 23:21 25.02.2020
1983 Clouds 15 1021 77 6000 1.64 311 23:21 25.02.2020
1984 Clouds 15 1021 82 6000 1.64 311 22:43 25.02.2020
1985 Clouds 15 1021 77 6000 1.64 311 22:20 25.02.2020
1986 Clouds 15 1020 77 10000 1.64 311 21:58 25.02.2020
1987 Clouds 15 1020 77 10000 1.64 311 21:37 25.02.2020
1988 Clouds 15 1020 77 10000 1.64 311 21:19 25.02.2020
1989 Clouds 16 1020 72 10000 1.5 310 20:56 25.02.2020
1990 Clouds 16 1020 72 10000 1.5 310 20:37 25.02.2020
1991 Clouds 16 1020 72 10000 3.1 300 20:19 25.02.2020
1992 Clouds 16 1020 67 6000 4.13 299 19:44 25.02.2020
1993 Clouds 17 1019 59 6000 1.5 290 19:23 25.02.2020
1994 Clouds 17 1019 63 10000 1 300 18:59 25.02.2020
1995 Clouds 17 1019 63 10000 1 300 18:39 25.02.2020
1996 Clouds 17 1019 59 10000 1.5 300 18:20 25.02.2020
1997 Clouds 17 1019 59 10000 1.5 300 17:55 25.02.2020
1998 Clouds 18 1019 55 10000 3.1 290 17:37 25.02.2020
1999 Clouds 18 1019 55 10000 3.1 290 17:18 25.02.2020
2000 Clouds 18 1019 52 10000 3.6 300 16:55 25.02.2020
2001 Clouds 19 1018 48 10000 5.1 270 16:37 25.02.2020
2002 Clouds 19 1018 48 10000 5.1 270 16:19 25.02.2020
2003 Clouds 19 1018 48 10000 5.1 290 15:45 25.02.2020
2004 Clouds 19 1018 37 10000 5.1 270 15:20 25.02.2020
2005 Clouds 19 1018 52 10000 6.2 280 14:59 25.02.2020
2006 Clouds 19 1018 52 10000 6.2 280 14:39 25.02.2020
2007 Clouds 19 1018 52 10000 6.2 280 14:39 25.02.2020
2008 Clouds 20 1018 52 10000 6.2 260 14:18 25.02.2020
2009 Clouds 20 1018 52 10000 6.2 260 14:18 25.02.2020
2010 Clouds 19 1018 55 10000 5.1 270 13:58 25.02.2020
2011 Clouds 19 1018 55 10000 5.1 270 13:39 25.02.2020
2012 Clouds 18 1018 55 10000 4.6 270 13:20 25.02.2020
2013 Clouds 18 1018 55 10000 4.6 270 13:20 25.02.2020
2014 Clouds 19 1018 55 10000 4.1 280 12:56 25.02.2020
2015 Clouds 19 1018 55 10000 4.1 280 12:37 25.02.2020
2016 Clouds 18 1018 59 10000 4.6 290 12:19 25.02.2020
2017 Clouds 17 1018 63 10000 4.6 280 11:55 25.02.2020
2018 Clouds 17 1018 63 10000 4.6 280 11:37 25.02.2020
2019 Clouds 17 1019 67 10000 4.1 270 11:18 25.02.2020
2020 Clouds 17 1019 72 10000 3.1 290 10:42 25.02.2020
2021 Clouds 16 1019 82 10000 3.6 250 10:23 25.02.2020
2022 Rain 15 1019 87 6000 3.6 230 09:42 25.02.2020
2023 Rain 15 1019 87 6000 3.6 230 09:23 25.02.2020
2024 Rain 14 1019 93 6000 3.1 260 08:59 25.02.2020
2025 Rain 14 1019 93 6000 3.1 260 08:41 25.02.2020
2026 Clouds 13 1019 93 6000 3.1 260 08:22 25.02.2020
2027 Clouds 12 1018 100 6000 3.1 270 07:48 25.02.2020
2028 Clouds 12 1018 100 6000 3.1 270 07:23 25.02.2020
2029 Clouds 12 1017 93 6000 3.6 280 06:53 25.02.2020
2030 Clouds 12 1017 93 6000 3.1 260 05:51 25.02.2020
2031 Clouds 12 1016 93 6000 3.1 230 03:56 25.02.2020
2032 Clouds 12 1016 93 6000 3.1 210 02:32 25.02.2020
2033 Rain 11 1016 93 6000 3.1 230 00:58 25.02.2020
2034 Rain 11 1016 93 6000 2.1 210 00:31 25.02.2020
2035 Rain 12 1016 87 10000 2.1 190 23:48 24.02.2020
2036 Rain 12 1016 93 10000 3.1 220 23:29 24.02.2020
2037 Clouds 12 1016 93 10000 2.6 230 22:59 24.02.2020
2038 Clouds 12 1016 93 10000 2.1 230 22:37 24.02.2020
2039 Clouds 12 1016 93 10000 2.1 230 22:18 24.02.2020
2040 Clouds 12 1016 87 10000 3.6 220 21:54 24.02.2020
2041 Clouds 12 1016 87 10000 3.6 220 21:36 24.02.2020
2042 Clouds 12 1016 87 10000 3.6 220 21:18 24.02.2020
2043 Rain 12 1016 93 6000 3.6 240 20:41 24.02.2020
2044 Rain 12 1017 93 6000 3.6 250 20:21 24.02.2020
2045 Clouds 12 1016 87 10000 3.1 290 19:59 24.02.2020
2046 Clouds 12 1016 87 10000 3.1 290 19:41 24.02.2020
2047 Clouds 12 1016 87 10000 3.6 280 19:22 24.02.2020
2048 Rain 12 1016 93 8000 3.6 240 18:59 24.02.2020
2049 Rain 12 1016 93 8000 3.6 240 18:41 24.02.2020
2050 Rain 12 1015 87 8000 4.6 300 18:22 24.02.2020
2051 Rain 12 1015 87 8000 1 170 17:54 24.02.2020
2052 Rain 12 1015 87 8000 1 170 17:36 24.02.2020
2053 Rain 12 1015 81 8000 3.1 280 17:18 24.02.2020
2054 Rain 12 1015 81 8000 1 200 16:54 24.02.2020
2055 Clouds 12 1014 87 10000 3.6 150 16:36 24.02.2020
2056 Clouds 12 1014 87 10000 3.6 150 16:18 24.02.2020
2057 Rain 10 1015 87 6000 3.6 260 15:54 24.02.2020
2058 Rain 10 1015 87 4000 3.1 270 15:36 24.02.2020
2059 Rain 10 1015 87 4000 3.1 270 15:18 24.02.2020
2060 Rain 11 1015 76 4000 6.7 260 14:40 24.02.2020
2061 Rain 12 1014 76 4000 5.7 290 14:22 24.02.2020
2062 Rain 12 1014 71 6000 6.2 120 13:58 24.02.2020
2063 Rain 12 1014 71 6000 6.2 120 13:58 24.02.2020
2064 Rain 12 1014 71 6000 6.2 120 13:39 24.02.2020
2065 Clouds 13 1014 62 10000 7.7 140 13:21 24.02.2020
2066 Clouds 14 1014 58 10000 5.7 190 12:57 24.02.2020
2067 Clouds 14 1014 58 10000 5.7 190 12:39 24.02.2020
2068 Clouds 14 1014 67 10000 3.6 280 12:21 24.02.2020
2069 Rain 14 1015 67 6000 2.6 330 11:46 24.02.2020
2070 Clouds 15 1015 62 10000 4.6 350 11:28 24.02.2020
2071 Clouds 16 1015 59 10000 4.1 360 10:48 24.02.2020
2072 Clouds 16 1016 63 10000 3.1 10 10:30 24.02.2020
2073 Clouds 14 1016 71 10000 5.1 30 09:55 24.02.2020
2074 Clouds 14 1016 71 10000 5.1 30 09:37 24.02.2020
2075 Clouds 13 1016 76 10000 3.1 30 09:18 24.02.2020
2076 Clouds 13 1016 76 6000 3.6 40 08:47 24.02.2020
2077 Clouds 13 1016 76 6000 3.6 40 08:47 24.02.2020
2078 Clouds 12 1016 76 6000 2.6 50 08:28 24.02.2020
2079 Clouds 12 1016 81 6000 1.5 60 07:48 24.02.2020
2080 Clouds 10 1016 87 6000 1.5 60 07:28 24.02.2020
2081 Mist 10 1015 81 4000 1.5 20 06:37 24.02.2020
2082 Mist 10 1015 81 4000 2.1 10 06:18 24.02.2020
2083 Clouds 10 1015 81 6000 1.5 30 05:30 24.02.2020
2084 Clouds 10 1015 81 6000 4.6 90 04:42 24.02.2020
2085 Clouds 10 1016 81 10000 2.6 80 02:56 24.02.2020
2086 Clouds 10 1016 81 10000 3.1 80 01:50 24.02.2020
2087 Clouds 10 1016 81 10000 2.6 100 01:28 24.02.2020
2088 Clouds 10 1016 81 10000 2.1 80 00:36 24.02.2020
2089 Clouds 10 1017 81 10000 2.1 80 00:18 24.02.2020
2090 Clouds 10 1017 81 10000 1.5 60 23:42 23.02.2020
2091 Clouds 11 1017 76 10000 3.1 10 23:20 23.02.2020
2092 Clouds 11 1017 76 10000 3.6 360 22:57 23.02.2020
2093 Clouds 11 1017 76 10000 3.6 360 22:39 23.02.2020
2094 Clouds 12 1017 66 10000 5.1 350 22:19 23.02.2020
2095 Clouds 12 1017 66 10000 5.7 340 21:46 23.02.2020
2096 Clouds 12 1017 66 10000 5.7 340 21:46 23.02.2020
2097 Clouds 15 1017 51 10000 3.6 330 21:20 23.02.2020
2098 Clouds 15 1017 51 10000 3.1 340 20:57 23.02.2020
2099 Clouds 15 1017 51 10000 3.1 340 20:57 23.02.2020
2100 Clouds 15 1017 51 10000 3.1 340 20:57 23.02.2020
2101 Clouds 15 1017 51 10000 3.1 340 20:39 23.02.2020
2102 Clouds 15 1017 54 10000 2.1 360 20:20 23.02.2020
2103 Clouds 15 1017 51 10000 1.5 340 19:58 23.02.2020
2104 Clouds 15 1017 51 10000 1.5 340 19:40 23.02.2020
2105 Clouds 15 1017 51 10000 1.5 50 19:19 23.02.2020
2106 Clouds 15 1017 51 10000 0.5 50 18:58 23.02.2020
2107 Clouds 15 1017 54 10000 4.1 280 18:37 23.02.2020
2108 Clouds 15 1017 54 10000 4.1 280 18:19 23.02.2020
2109 Clouds 16 1017 48 10000 2.1 320 17:57 23.02.2020
2110 Clouds 16 1017 48 10000 2.1 320 17:38 23.02.2020
2111 Clouds 16 1016 48 10000 2.6 360 17:19 23.02.2020
2112 Clouds 16 1016 48 10000 2.1 350 16:46 23.02.2020
2113 Clouds 17 1016 48 10000 2.6 360 16:27 23.02.2020
2114 Clouds 16 1016 48 10000 3.6 320 15:59 23.02.2020
2115 Clouds 16 1016 48 10000 3.6 320 15:39 23.02.2020
2116 Clouds 16 1016 48 10000 3.6 320 15:20 23.02.2020
2117 Clouds 16 1016 44 10000 3.1 320 14:59 23.02.2020
2118 Clouds 16 1016 44 10000 3.1 320 14:40 23.02.2020
2119 Clouds 16 1016 44 10000 3.1 320 14:21 23.02.2020
2120 Clouds 16 1016 39 10000 3.6 320 13:57 23.02.2020
2121 Clouds 17 1016 39 10000 3.6 320 13:38 23.02.2020
2122 Clouds 18 1016 42 10000 1.5 340 13:20 23.02.2020
2123 Clouds 18 1016 42 10000 2.6 350 12:43 23.02.2020
2124 Clouds 18 1016 42 10000 2.6 350 12:43 23.02.2020
2125 Clouds 18 1017 42 10000 2.6 320 12:22 23.02.2020
2126 Clouds 18 1018 39 10000 1 340 11:57 23.02.2020
2127 Clouds 18 1018 39 10000 1 340 11:37 23.02.2020
2128 Clouds 18 1018 39 10000 1 340 11:37 23.02.2020
2129 Clouds 18 1018 39 10000 1 340 11:18 23.02.2020
2130 Clouds 17 1019 45 10000 1.5 60 10:55 23.02.2020
2131 Clouds 17 1019 45 10000 1.5 60 10:37 23.02.2020
2132 Clouds 17 1019 45 10000 1.5 60 10:18 23.02.2020
2133 Clouds 16 1019 51 6000 2.1 70 09:40 23.02.2020
2134 Clouds 16 1019 51 6000 2.1 70 09:21 23.02.2020
2135 Clouds 15 1019 58 6000 3.6 80 08:56 23.02.2020
2136 Clouds 14 1019 58 6000 3.6 80 08:38 23.02.2020
2137 Clouds 14 1019 58 6000 3.6 80 08:18 23.02.2020
2138 Clouds 14 1019 62 6000 2.1 60 07:40 23.02.2020
2139 Clouds 13 1019 62 6000 2.1 100 06:52 23.02.2020
2140 Clouds 13 1018 62 6000 1 100 05:50 23.02.2020
2141 Clouds 13 1018 66 6000 2.1 90 04:42 23.02.2020
2142 Clouds 13 1018 66 6000 2.1 90 04:42 23.02.2020
2143 Clouds 13 1018 62 6000 1.5 90 03:21 23.02.2020
2144 Clouds 13 1018 62 6000 1.5 90 02:27 23.02.2020
2145 Clouds 14 1019 58 6000 1.5 30 01:25 23.02.2020
2146 Clouds 14 1019 58 10000 1.5 30 00:48 23.02.2020
2147 Clouds 14 1020 58 10000 1.5 330 00:26 23.02.2020
2148 Clouds 14 1020 58 10000 1.5 330 23:47 22.02.2020
2149 Clouds 14 1020 58 10000 1.5 330 23:29 22.02.2020
2150 Clouds 14 1020 58 10000 1.5 330 22:59 22.02.2020
2151 Clouds 14 1020 58 10000 1.5 330 22:39 22.02.2020
2152 Clouds 14 1020 58 10000 1.5 330 22:18 22.02.2020
2153 Clouds 14 1020 58 10000 1.5 330 21:41 22.02.2020
2154 Clouds 15 1020 54 10000 1.5 330 21:23 22.02.2020
2155 Clouds 15 1020 54 10000 3.1 300 20:46 22.02.2020
2156 Clouds 15 1020 54 10000 3.1 300 20:25 22.02.2020
2157 Clouds 15 1020 62 10000 3.1 300 19:59 22.02.2020
2158 Clouds 15 1020 62 10000 3.1 300 19:41 22.02.2020
2159 Clouds 15 1020 62 10000 3.1 300 19:21 22.02.2020
2160 Clouds 15 1020 62 10000 4.1 340 18:41 22.02.2020
2161 Clouds 15 1020 62 10000 4.1 340 18:22 22.02.2020
2162 Clouds 15 1019 62 6000 4.1 340 17:58 22.02.2020
2163 Clouds 15 1019 62 6000 4.1 340 17:40 22.02.2020
2164 Clouds 16 1019 59 10000 4.1 340 17:21 22.02.2020
2165 Clouds 16 1019 42 10000 4.1 300 16:58 22.02.2020
2166 Clouds 17 1019 42 10000 4.1 300 16:39 22.02.2020
2167 Clouds 17 1019 45 10000 3.6 300 16:20 22.02.2020
2168 Clouds 17 1018 45 10000 3.1 300 15:45 22.02.2020
2169 Clouds 17 1018 45 10000 3.1 300 15:45 22.02.2020
2170 Clouds 17 1018 48 6000 3.6 220 15:26 22.02.2020
2171 Clouds 17 1018 48 6000 3.6 220 14:57 22.02.2020
2172 Clouds 17 1018 48 6000 3.6 220 14:39 22.02.2020
2173 Clouds 17 1018 48 6000 2.6 230 14:19 22.02.2020
2174 Clouds 17 1018 51 6000 2.1 230 13:41 22.02.2020
2175 Clouds 16 1019 55 6000 2.6 260 13:20 22.02.2020
2176 Clouds 16 1019 55 6000 2.6 250 12:48 22.02.2020
2177 Clouds 16 1019 51 6000 4.1 220 12:24 22.02.2020
2178 Clouds 16 1019 51 6000 4.1 280 11:56 22.02.2020
2179 Clouds 16 1019 51 6000 4.1 280 11:38 22.02.2020
2180 Clouds 16 1019 59 6000 0.5 350 11:20 22.02.2020
2181 Clouds 16 1019 59 6000 4.1 210 10:42 22.02.2020
2182 Clouds 16 1019 59 6000 4.1 210 10:42 22.02.2020
2183 Clouds 16 1020 63 6000 3.1 210 10:21 22.02.2020
2184 Clouds 15 1020 62 6000 3.6 220 09:59 22.02.2020
2185 Clouds 15 1020 62 6000 3.6 220 09:59 22.02.2020
2186 Clouds 15 1020 62 6000 3.6 220 09:40 22.02.2020
2187 Clouds 15 1020 62 6000 2.6 220 09:22 22.02.2020
2188 Clouds 14 1020 71 6000 3.1 210 08:51 22.02.2020
2189 Clouds 14 1020 67 6000 3.1 210 08:28 22.02.2020
2190 Clouds 13 1019 71 6000 4.1 200 07:58 22.02.2020
2191 Clouds 12 1019 76 6000 3.6 200 07:38 22.02.2020
2192 Clouds 12 1019 76 6000 3.6 200 07:18 22.02.2020
2193 Clouds 12 1019 76 10000 3.6 180 06:41 22.02.2020
2194 Clouds 11 1018 81 0 3.1 230 04:44 22.02.2020
2195 Clear 12 1018 71 10000 3.1 210 03:47 22.02.2020
2196 Clear 12 1017 71 10000 3.6 220 02:38 22.02.2020
2197 Clear 12 1017 71 10000 3.1 230 01:48 22.02.2020
2198 Clear 12 1017 66 10000 3.1 240 01:29 22.02.2020
2199 Clear 13 1017 66 10000 3.6 250 00:48 22.02.2020
2200 Clear 13 1018 66 10000 3.6 230 00:29 22.02.2020
2201 Clear 13 1018 62 0 3.58 240 23:53 21.02.2020
2202 Clear 14 1018 58 0 4.47 260 23:26 21.02.2020
2203 Clear 14 1018 58 10000 4.6 260 22:59 21.02.2020
2204 Clear 14 1018 58 10000 4.6 260 22:41 21.02.2020
2205 Clear 14 1018 58 10000 4.6 260 22:23 21.02.2020
2206 Clear 14 1018 58 10000 4.6 260 21:55 21.02.2020
2207 Clear 14 1018 58 10000 4.6 260 21:37 21.02.2020
2208 Clear 15 1018 54 10000 6.2 260 21:19 21.02.2020
2209 Clear 15 1018 51 10000 6.7 260 20:41 21.02.2020
2210 Clouds 15 1017 51 10000 7.7 270 20:23 21.02.2020
2211 Clouds 15 1017 47 10000 6.7 270 19:40 21.02.2020
2212 Clouds 16 1017 44 10000 6.7 280 19:20 21.02.2020
2213 Clouds 16 1017 51 10000 6.2 280 18:43 21.02.2020
2214 Clouds 16 1016 51 10000 7.7 290 18:24 21.02.2020
2215 Clouds 16 1016 48 10000 7.7 290 17:57 21.02.2020
2216 Clouds 16 1016 48 10000 7.7 290 17:38 21.02.2020
2217 Clouds 18 1015 36 10000 8.2 260 17:19 21.02.2020
2218 Clouds 19 1014 34 10000 9.3 260 16:54 21.02.2020
2219 Clouds 19 1014 34 10000 9.3 260 16:36 21.02.2020
2220 Clouds 19 1014 34 10000 9.3 260 16:18 21.02.2020
2221 Clouds 19 1014 37 10000 10.8 260 15:40 21.02.2020
2222 Clouds 19 1014 37 10000 10.8 260 15:19 21.02.2020
2223 Clouds 20 1014 34 10000 10.3 260 14:44 21.02.2020
2224 Clouds 20 1014 32 6000 9.8 260 14:22 21.02.2020
2225 Clouds 20 1014 32 6000 10.3 250 13:59 21.02.2020
2226 Clouds 20 1014 32 6000 10.3 250 13:41 21.02.2020
2227 Clouds 20 1014 32 6000 10.3 250 13:21 21.02.2020
2228 Clouds 19 1015 37 6000 10.3 220 12:46 21.02.2020
2229 Sand 19 1015 37 4000 10.3 220 12:27 21.02.2020
2230 Sand 18 1016 42 4000 7.2 220 11:58 21.02.2020
2231 Sand 18 1016 42 4000 7.2 220 11:38 21.02.2020
2232 Sand 18 1016 42 4000 7.2 220 11:20 21.02.2020
2233 Sand 18 1016 42 4000 6.2 220 10:55 21.02.2020
2234 Sand 18 1016 42 4000 6.2 220 10:36 21.02.2020
2235 Sand 17 1017 45 4000 7.2 210 10:18 21.02.2020
2236 Sand 17 1017 45 4000 7.2 210 09:42 21.02.2020
2237 Haze 16 1017 51 4000 4.6 190 09:23 21.02.2020
2238 Haze 15 1017 51 4000 4.6 190 08:56 21.02.2020
2239 Haze 14 1017 58 4000 4.6 170 08:37 21.02.2020
2240 Haze 14 1017 58 4000 4.6 170 08:19 21.02.2020
2241 Haze 14 1017 54 3000 4.6 180 07:55 21.02.2020
2242 Haze 13 1017 58 3000 4.6 170 07:36 21.02.2020
2243 Haze 13 1017 58 3000 4.6 170 07:18 21.02.2020
2244 Dust 12 1017 62 2000 4.6 170 06:39 21.02.2020
2245 Dust 12 1017 58 2000 4.6 170 06:21 21.02.2020
2246 Dust 12 1017 58 3000 4.6 170 05:35 21.02.2020
2247 Sand 13 1016 58 4000 6.2 170 04:26 21.02.2020
2248 Sand 13 1016 58 4000 6.2 170 03:52 21.02.2020
2249 Sand 13 1016 58 4000 6.2 170 03:19 21.02.2020
2250 Clouds 14 1017 50 6000 6.2 180 01:45 21.02.2020
2251 Clouds 15 1017 51 10000 6.7 180 01:23 21.02.2020
2252 Clouds 15 1017 47 10000 6.2 180 00:40 21.02.2020
2253 Clouds 14 1018 54 10000 4.6 170 00:20 21.02.2020
2254 Clouds 13 1018 58 10000 2.6 160 23:43 20.02.2020
2255 Clouds 14 1018 54 10000 2.6 160 23:22 20.02.2020
2256 Clouds 14 1018 54 10000 3.1 140 22:55 20.02.2020
2257 Clouds 14 1018 54 10000 3.1 130 22:37 20.02.2020
2258 Clouds 15 1018 54 10000 3.1 130 22:18 20.02.2020
2259 Clouds 14 1019 58 10000 3.1 110 21:54 20.02.2020
2260 Clouds 14 1019 58 10000 3.1 110 21:36 20.02.2020
2261 Clouds 15 1019 54 10000 3.1 110 21:18 20.02.2020
2262 Clouds 15 1019 54 10000 3.6 110 20:54 20.02.2020
2263 Clouds 15 1019 54 10000 3.6 110 20:36 20.02.2020
2264 Clouds 15 1019 51 10000 2.6 100 20:18 20.02.2020
2265 Clouds 15 1019 51 10000 2.1 100 19:42 20.02.2020
2266 Clouds 15 1019 54 10000 1.5 90 19:24 20.02.2020
2267 Clouds 16 1019 48 10000 2.1 50 18:58 20.02.2020
2268 Clouds 17 1019 48 10000 2.1 330 18:37 20.02.2020
2269 Clouds 17 1019 48 10000 2.1 330 18:19 20.02.2020
2270 Clouds 17 1019 45 10000 3.1 330 17:40 20.02.2020
2271 Clouds 18 1019 45 10000 3.1 330 17:22 20.02.2020
2272 Clouds 18 1019 42 10000 4.1 300 16:58 20.02.2020
2273 Clouds 18 1019 39 10000 5.1 260 16:39 20.02.2020
2274 Clouds 19 1019 39 10000 5.1 260 16:19 20.02.2020
2275 Clouds 19 1018 39 10000 6.2 270 15:57 20.02.2020
2276 Clouds 19 1018 39 10000 6.2 270 15:39 20.02.2020
2277 Clouds 19 1018 39 10000 6.2 280 15:20 20.02.2020
2278 Clouds 19 1018 39 10000 6.7 270 14:54 20.02.2020
2279 Clouds 19 1018 39 10000 6.7 270 14:36 20.02.2020
2280 Clouds 19 1018 39 10000 6.7 270 14:36 20.02.2020
2281 Clouds 19 1019 39 10000 5.7 270 14:18 20.02.2020
2282 Clouds 19 1019 39 10000 7.2 250 13:42 20.02.2020
2283 Clouds 19 1019 39 10000 6.7 260 13:19 20.02.2020
2284 Clouds 18 1019 42 10000 6.2 250 12:43 20.02.2020
2285 Clouds 18 1020 42 6000 6.7 240 12:22 20.02.2020
2286 Clouds 17 1020 48 6000 6.7 240 11:59 20.02.2020
2287 Clouds 17 1020 48 6000 6.7 240 11:41 20.02.2020
2288 Haze 17 1021 55 4000 4.6 240 11:22 20.02.2020
2289 Haze 16 1021 63 4000 4.6 210 10:57 20.02.2020
2290 Haze 16 1021 63 4000 4.6 210 10:38 20.02.2020
2291 Mist 16 1021 63 2000 4.6 210 10:20 20.02.2020
2292 Mist 14 1022 82 2000 4.6 200 09:45 20.02.2020
2293 Mist 14 1022 82 1000 4.6 200 09:25 20.02.2020
2294 Fog 13 1022 87 500 4.6 220 08:57 20.02.2020
2295 Fog 13 1022 87 500 4.6 220 08:38 20.02.2020
2296 Fog 13 1022 87 500 4.6 220 08:20 20.02.2020
2297 Fog 12 1021 93 500 2.1 210 07:45 20.02.2020
2298 Fog 11 1021 93 500 2.1 210 07:21 20.02.2020
2299 Mist 11 1021 93 1000 3.6 160 06:52 20.02.2020
2300 Mist 10 1020 93 2000 3.6 160 06:26 20.02.2020
2301 Mist 10 1020 93 2000 2.6 170 05:46 20.02.2020
2302 Mist 10 1020 93 2000 2.6 170 04:54 20.02.2020
2303 Mist 10 1020 87 2000 1.5 180 03:58 20.02.2020
2304 Mist 11 1020 87 2000 1.5 180 03:29 20.02.2020
2305 Mist 11 1020 87 2000 1.5 180 02:26 20.02.2020
2306 Mist 11 1020 87 3000 1.5 220 01:18 20.02.2020
2307 Clouds 12 1021 87 6000 2.1 220 00:33 20.02.2020
2308 Clouds 12 1021 87 10000 2.1 220 23:52 19.02.2020
2309 Clouds 13 1021 82 10000 2.1 220 23:23 19.02.2020
2310 Clouds 13 1021 82 10000 2.1 220 23:23 19.02.2020
2311 Clouds 13 1021 76 10000 3.1 280 22:55 19.02.2020
2312 Clouds 14 1021 76 10000 3.1 280 22:37 19.02.2020
2313 Clouds 14 1021 76 10000 3.1 280 22:18 19.02.2020
2314 Clouds 14 1021 76 10000 3.1 280 21:55 19.02.2020
2315 Clouds 14 1021 76 10000 3.1 280 21:36 19.02.2020
2316 Clouds 14 1020 76 10000 3.1 280 21:18 19.02.2020
2317 Clouds 14 1020 67 10000 3.1 280 20:55 19.02.2020
2318 Clouds 15 1020 67 10000 3.1 280 20:36 19.02.2020
2319 Clouds 15 1020 67 10000 3.1 280 20:18 19.02.2020
2320 Clouds 15 1019 67 10000 3.6 260 19:54 19.02.2020
2321 Clouds 15 1019 67 10000 3.6 260 19:36 19.02.2020
2322 Clouds 15 1019 67 10000 3.6 260 19:18 19.02.2020
2323 Clouds 15 1019 67 10000 4.6 260 18:55 19.02.2020
2324 Clouds 15 1019 67 10000 4.6 260 18:37 19.02.2020
2325 Clouds 15 1019 67 10000 4.6 260 18:19 19.02.2020
2326 Clouds 15 1018 62 10000 4.1 270 17:42 19.02.2020
2327 Clouds 15 1018 62 10000 4.1 270 17:19 19.02.2020
2328 Clouds 15 1018 58 10000 7.7 320 16:43 19.02.2020
2329 Clouds 15 1018 58 10000 7.7 320 16:19 19.02.2020
2330 Clouds 15 1017 62 10000 7.7 240 15:58 19.02.2020
2331 Clouds 15 1017 62 10000 7.7 240 15:39 19.02.2020
2332 Clouds 15 1017 62 10000 7.7 240 15:20 19.02.2020
2333 Clouds 16 1017 59 10000 2.6 310 14:42 19.02.2020
2334 Clouds 14 1017 67 10000 3.1 320 14:23 19.02.2020
2335 Rain 13 1017 66 6000 3.1 320 13:59 19.02.2020
2336 Rain 13 1017 66 6000 3.1 320 13:39 19.02.2020
2337 Clouds 16 1017 55 10000 10.8 280 13:19 19.02.2020
2338 Clouds 17 1017 55 10000 6.7 300 12:40 19.02.2020
2339 Clouds 15 1017 67 0 3.1 320 12:19 19.02.2020
2340 Rain 17 1018 55 6000 6.7 270 11:58 19.02.2020
2341 Rain 17 1018 55 6000 6.7 270 11:37 19.02.2020
2342 Clouds 17 1018 55 6000 4.6 280 11:19 19.02.2020
2343 Clouds 17 1018 55 6000 4.6 280 11:19 19.02.2020
2344 Clouds 16 1018 59 6000 4.6 270 10:56 19.02.2020
2345 Clouds 16 1018 59 6000 4.6 270 10:37 19.02.2020
2346 Clouds 16 1018 59 6000 4.6 270 10:19 19.02.2020
2347 Clouds 15 1018 67 6000 4.6 260 09:56 19.02.2020
2348 Clouds 14 1018 71 6000 4.6 260 09:37 19.02.2020
2349 Clouds 14 1018 71 6000 4.6 260 09:18 19.02.2020
2350 Clouds 14 1018 71 6000 4.1 250 08:42 19.02.2020
2351 Clouds 13 1018 76 6000 4.1 260 08:23 19.02.2020
2352 Clouds 13 1018 76 6000 4.1 250 07:41 19.02.2020
2353 Clouds 12 1018 81 6000 4.1 240 07:20 19.02.2020
2354 Clouds 12 1017 81 6000 3.1 240 06:47 19.02.2020
2355 Mist 12 1017 81 4000 3.6 240 06:20 19.02.2020
2356 Mist 12 1017 87 2000 2.1 260 04:20 19.02.2020
2357 Mist 11 1016 81 2000 2.39 268 02:56 19.02.2020
2358 Mist 11 1016 81 2000 2.39 268 02:30 19.02.2020
2359 Mist 13 1017 76 2000 1.5 270 01:24 19.02.2020
2360 Haze 13 1017 76 2000 2.1 280 00:49 19.02.2020
2361 Haze 13 1017 76 2000 2.6 300 00:29 19.02.2020
2362 Haze 13 1017 76 2000 2.1 290 23:44 18.02.2020
2363 Haze 13 1017 76 3000 2.1 330 23:21 18.02.2020
2364 Clouds 13 1017 76 6000 1.5 330 22:59 18.02.2020
2365 Clouds 13 1017 76 6000 1.5 330 22:41 18.02.2020
2366 Clouds 14 1017 71 6000 2.1 310 22:19 18.02.2020
2367 Clouds 14 1017 71 6000 1.5 320 21:56 18.02.2020
2368 Clouds 14 1017 71 6000 1.5 320 21:37 18.02.2020
2369 Clouds 14 1018 71 6000 2.1 330 21:19 18.02.2020
2370 Clouds 14 1018 71 6000 1 300 20:57 18.02.2020
2371 Clouds 14 1018 71 6000 1 300 20:38 18.02.2020
2372 Clouds 14 1018 67 6000 2.6 300 20:38 18.02.2020
2373 Clouds 14 1018 67 6000 2.6 300 20:20 18.02.2020
2374 Clouds 14 1017 67 6000 2.1 320 19:43 18.02.2020
2375 Clouds 15 1017 62 6000 2.6 330 19:20 18.02.2020
2376 Clouds 15 1017 62 6000 4.1 320 18:59 18.02.2020
2377 Clouds 15 1017 62 6000 4.1 320 18:41 18.02.2020
2378 Clouds 15 1017 62 6000 3.1 310 18:20 18.02.2020
2379 Clouds 15 1017 62 6000 3.1 310 18:20 18.02.2020
2380 Clouds 15 1017 62 6000 2.6 300 17:56 18.02.2020
2381 Clouds 15 1017 62 6000 2.6 300 17:37 18.02.2020
2382 Clouds 15 1017 62 6000 3.1 330 17:18 18.02.2020
2383 Clouds 15 1016 62 6000 4.6 330 16:39 18.02.2020
2384 Clouds 15 1016 62 6000 5.7 330 16:20 18.02.2020
2385 Clouds 15 1016 67 10000 5.7 320 15:41 18.02.2020
2386 Clouds 16 1016 63 10000 6.7 310 15:20 18.02.2020
2387 Clouds 16 1016 63 10000 8.2 310 14:58 18.02.2020
2388 Clouds 16 1016 63 10000 8.2 310 14:39 18.02.2020
2389 Clouds 18 1015 45 10000 5.1 300 14:20 18.02.2020
2390 Clouds 18 1015 45 10000 5.1 310 13:56 18.02.2020
2391 Clouds 18 1015 45 10000 4.1 320 13:37 18.02.2020
2392 Clouds 18 1015 45 10000 5.1 310 13:37 18.02.2020
2393 Clouds 19 1015 45 10000 4.1 320 13:19 18.02.2020
2394 Clouds 19 1015 42 10000 4.1 320 12:42 18.02.2020
2395 Clouds 19 1016 42 10000 4.1 320 12:23 18.02.2020
2396 Clouds 18 1016 45 10000 3.1 330 11:56 18.02.2020
2397 Clouds 18 1016 45 10000 3.1 330 11:37 18.02.2020
2398 Clouds 18 1016 52 10000 3.6 350 11:18 18.02.2020
2399 Clouds 17 1017 55 10000 3.6 360 10:42 18.02.2020
2400 Clouds 16 1017 59 10000 3.6 20 10:22 18.02.2020
2401 Clouds 16 1017 67 6000 3.6 350 09:56 18.02.2020
2402 Clouds 16 1017 67 6000 3.6 350 09:38 18.02.2020
2403 Clouds 15 1017 77 6000 3.1 360 09:19 18.02.2020
2404 Mist 15 1017 77 4000 3.1 10 08:54 18.02.2020
2405 Mist 15 1017 77 4000 3.1 10 08:36 18.02.2020
2406 Mist 13 1018 87 4000 2.6 10 08:18 18.02.2020
2407 Mist 13 1018 87 3000 2.6 10 07:42 18.02.2020
2408 Mist 12 1018 87 3000 2.1 350 07:23 18.02.2020
2409 Mist 12 1017 87 3000 2.1 330 06:48 18.02.2020
2410 Mist 12 1017 87 3000 2.1 330 06:27 18.02.2020
2411 Mist 11 1017 93 3000 1.5 350 05:47 18.02.2020
2412 Mist 11 1017 93 3000 1.5 350 05:47 18.02.2020
2413 Clear 10 1017 93 6000 2.6 40 05:18 18.02.2020
2414 Clear 11 1016 87 6000 3.6 70 03:41 18.02.2020
2415 Clear 10 1016 87 6000 3.1 50 02:58 18.02.2020
2416 Clear 11 1017 87 6000 2.6 70 01:25 18.02.2020
2417 Clear 12 1017 81 6000 3.1 30 00:23 18.02.2020
2418 Clear 12 1017 81 6000 3.1 30 23:59 17.02.2020
2419 Clear 12 1017 81 6000 3.1 30 23:39 17.02.2020
2420 Clear 12 1017 81 6000 3.1 40 23:19 17.02.2020
2421 Clear 13 1018 76 10000 3.6 40 22:58 17.02.2020
2422 Clear 13 1018 76 10000 3.6 40 22:39 17.02.2020
2423 Clear 13 1018 76 10000 3.1 40 22:18 17.02.2020
2424 Clear 13 1018 76 10000 4.1 50 21:39 17.02.2020
2425 Clear 14 1018 71 10000 4.1 40 21:19 17.02.2020
2426 Clear 14 1018 71 10000 4.6 40 20:55 17.02.2020
2427 Clear 14 1018 67 10000 5.1 30 20:37 17.02.2020
2428 Clouds 15 1018 67 10000 5.1 30 20:18 17.02.2020
2429 Clouds 15 1017 67 10000 6.2 20 19:43 17.02.2020
2430 Clouds 16 1017 59 10000 6.7 20 19:21 17.02.2020
2431 Clouds 16 1017 59 10000 6.2 20 18:56 17.02.2020
2432 Clouds 16 1017 63 10000 7.7 20 18:36 17.02.2020
2433 Clouds 16 1017 63 10000 7.7 20 18:36 17.02.2020
2434 Clouds 16 1017 63 10000 7.7 20 18:36 17.02.2020
2435 Clouds 16 1017 63 10000 7.7 20 18:36 17.02.2020
2436 Clouds 16 1017 63 10000 7.7 20 18:18 17.02.2020
2437 Clouds 17 1017 59 10000 7.2 10 17:38 17.02.2020
2438 Clouds 17 1017 59 10000 7.2 10 17:38 17.02.2020
2439 Clouds 17 1017 55 10000 6.7 10 17:20 17.02.2020
2440 Clouds 17 1016 52 10000 6.2 10 16:59 17.02.2020
2441 Clouds 18 1016 52 10000 6.2 10 16:40 17.02.2020
2442 Clouds 18 1016 52 10000 7.2 20 16:22 17.02.2020
2443 Clouds 19 1016 48 10000 8.2 10 15:46 17.02.2020
2444 Clouds 18 1016 52 10000 6.2 350 15:28 17.02.2020
2445 Clouds 18 1016 48 10000 6.7 10 14:59 17.02.2020
2446 Clouds 19 1016 48 10000 6.7 10 14:40 17.02.2020
2447 Clouds 19 1016 45 10000 6.7 350 14:22 17.02.2020
2448 Clouds 19 1016 45 10000 6.7 350 14:22 17.02.2020
2449 Clouds 19 1016 45 10000 5.1 360 13:57 17.02.2020
2450 Clouds 19 1016 45 10000 5.1 360 13:57 17.02.2020
2451 Clouds 19 1017 45 10000 4.1 350 13:38 17.02.2020
2452 Clouds 19 1017 45 10000 4.1 350 13:38 17.02.2020
2453 Clouds 19 1017 45 10000 4.1 350 13:18 17.02.2020
2454 Clouds 18 1017 48 10000 4.1 350 12:43 17.02.2020
2455 Clouds 18 1017 48 10000 4.1 10 12:24 17.02.2020
2456 Clouds 18 1018 48 10000 3.6 350 11:57 17.02.2020
2457 Clouds 18 1018 48 10000 3.6 350 11:39 17.02.2020
2458 Clouds 18 1018 48 10000 3.6 350 11:39 17.02.2020
2459 Clouds 18 1018 52 10000 5.7 360 11:20 17.02.2020
2460 Clouds 17 1018 59 10000 4.6 360 10:54 17.02.2020
2461 Clouds 17 1018 59 10000 4.6 360 10:36 17.02.2020
2462 Clouds 17 1018 59 10000 4.6 360 10:18 17.02.2020
2463 Clouds 16 1019 63 10000 5.7 30 09:41 17.02.2020
2464 Clouds 16 1019 63 10000 6.2 20 09:21 17.02.2020
2465 Clouds 15 1019 72 10000 5.7 40 08:57 17.02.2020
2466 Clouds 15 1019 72 10000 5.7 40 08:39 17.02.2020
2467 Clouds 14 1019 82 6000 3.6 360 08:19 17.02.2020
2468 Mist 13 1019 87 4000 4.6 10 07:43 17.02.2020
2469 Mist 13 1019 87 3000 4.6 350 07:23 17.02.2020
2470 Mist 13 1018 82 3000 4.1 350 06:51 17.02.2020
2471 Mist 13 1018 82 3000 4.1 350 06:32 17.02.2020
2472 Mist 13 1018 82 3000 3.1 350 05:56 17.02.2020
2473 Mist 13 1017 87 3000 3.1 350 05:37 17.02.2020
2474 Mist 13 1017 87 3000 3.6 360 03:21 17.02.2020
2475 Mist 14 1018 87 3000 3.6 320 01:47 17.02.2020
2476 Clouds 14 1018 82 6000 2.6 320 00:44 17.02.2020
2477 Clouds 14 1018 82 6000 2.1 300 00:21 17.02.2020
2478 Clouds 14 1018 82 6000 2.1 300 00:21 17.02.2020
2479 Clouds 14 1018 82 6000 2.6 330 23:53 16.02.2020
2480 Clouds 14 1018 82 10000 3.1 350 23:32 16.02.2020
2481 Clouds 14 1018 82 10000 2.6 360 22:57 16.02.2020
2482 Clouds 14 1018 82 10000 2.6 360 22:39 16.02.2020
2483 Clouds 14 1018 82 10000 2.6 360 22:39 16.02.2020
2484 Clouds 15 1018 77 10000 3.6 340 22:21 16.02.2020
2485 Clouds 15 1018 72 10000 2.6 360 21:57 16.02.2020
2486 Clouds 15 1018 72 10000 2.6 360 21:57 16.02.2020
2487 Clouds 15 1018 72 10000 2.6 360 21:39 16.02.2020
2488 Clouds 15 1018 72 10000 4.1 350 21:21 16.02.2020
2489 Clouds 16 1018 67 10000 3.6 350 20:57 16.02.2020
2490 Clouds 16 1018 67 10000 3.6 350 20:39 16.02.2020
2491 Clouds 16 1018 63 10000 4.6 350 20:21 16.02.2020
2492 Clouds 16 1017 63 6000 4.6 350 19:58 16.02.2020
2493 Clouds 16 1017 63 6000 4.6 350 19:38 16.02.2020
2494 Clouds 17 1017 63 6000 3.6 330 19:19 16.02.2020
2495 Clouds 17 1017 63 6000 4.1 350 18:44 16.02.2020
2496 Clouds 17 1017 59 10000 4.1 360 18:25 16.02.2020
2497 Clouds 17 1016 59 10000 4.6 340 17:57 16.02.2020
2498 Clouds 17 1016 59 10000 4.6 340 17:39 16.02.2020
2499 Clouds 18 1016 55 10000 4.6 330 17:19 16.02.2020
2500 Clouds 18 1015 52 10000 5.1 330 16:55 16.02.2020
2501 Clouds 18 1015 52 10000 5.1 330 16:36 16.02.2020
2502 Clouds 18 1015 52 10000 5.1 330 16:18 16.02.2020
2503 Clouds 19 1015 42 6000 5.1 300 15:41 16.02.2020
2504 Clouds 19 1015 42 6000 5.1 300 15:22 16.02.2020
2505 Clouds 19 1014 48 6000 4.1 300 14:45 16.02.2020
2506 Clouds 19 1014 48 6000 4.1 300 14:24 16.02.2020
2507 Clouds 19 1015 42 6000 4.6 290 13:59 16.02.2020
2508 Clouds 20 1015 42 6000 4.6 290 13:41 16.02.2020
2509 Clouds 20 1015 42 6000 4.6 290 13:23 16.02.2020
2510 Clouds 19 1015 55 6000 4.6 310 12:39 16.02.2020
2511 Clouds 19 1015 55 6000 4.6 310 12:20 16.02.2020
2512 Clouds 18 1015 59 6000 3.1 280 11:54 16.02.2020
2513 Clouds 18 1015 59 6000 3.1 280 11:36 16.02.2020
2514 Clouds 18 1015 59 6000 3.1 280 11:18 16.02.2020
2515 Clouds 17 1016 72 6000 2.1 300 10:55 16.02.2020
2516 Clouds 17 1016 72 6000 2.1 300 10:55 16.02.2020
2517 Clouds 17 1016 72 6000 2.1 300 10:37 16.02.2020
2518 Clouds 17 1016 72 6000 2.1 300 10:18 16.02.2020
2519 Mist 16 1016 77 2000 3.1 310 09:39 16.02.2020
2520 Mist 16 1016 77 2000 3.1 310 09:39 16.02.2020
2521 Mist 16 1016 77 2000 3.1 290 09:21 16.02.2020
2522 Mist 15 1016 87 2000 3.1 300 08:58 16.02.2020
2523 Mist 15 1016 87 2000 3.1 300 08:40 16.02.2020
2524 Mist 15 1016 87 2000 2.6 290 08:19 16.02.2020
2525 Mist 15 1016 87 2000 2.6 290 08:19 16.02.2020
2526 Mist 15 1016 87 2000 2.1 280 07:43 16.02.2020
2527 Mist 14 1016 93 2000 3.1 280 07:23 16.02.2020
2528 Mist 14 1015 93 2000 2.6 290 06:32 16.02.2020
2529 Mist 14 1015 93 2000 2.6 290 06:32 16.02.2020
2530 Mist 14 1014 93 2000 4.1 280 04:38 16.02.2020
2531 Mist 14 1014 87 4000 3.6 240 03:24 16.02.2020
2532 Mist 15 1014 82 4000 4.6 280 02:27 16.02.2020
2533 Mist 15 1013 77 4000 2.1 250 01:42 16.02.2020
2534 Mist 15 1013 82 4000 2.6 270 01:21 16.02.2020
2535 Clouds 15 1013 82 6000 2.6 210 00:51 16.02.2020
2536 Clouds 15 1013 82 6000 3.6 140 00:28 16.02.2020
2537 Clear 15 1013 82 6000 3.6 140 23:46 15.02.2020
2538 Clear 15 1014 82 6000 2.6 110 23:26 15.02.2020
2539 Clear 15 1015 82 10000 4.1 80 22:59 15.02.2020
2540 Clear 15 1015 82 10000 4.1 80 22:41 15.02.2020
2541 Clear 15 1015 82 6000 4.1 80 22:21 15.02.2020
2542 Clear 15 1015 82 6000 4.1 80 21:58 15.02.2020
2543 Clear 15 1015 82 6000 4.1 80 21:39 15.02.2020
2544 Clear 16 1016 77 6000 4.1 50 21:21 15.02.2020
2545 Haze 17 1016 67 4000 3.1 360 20:40 15.02.2020
2546 Haze 18 1016 63 4000 4.1 330 20:21 15.02.2020
2547 Haze 17 1015 63 4000 1.5 10 19:44 15.02.2020
2548 Haze 19 1015 59 4000 1.5 10 19:22 15.02.2020
2549 Clear 19 1015 59 6000 2.1 330 18:45 15.02.2020
2550 Clear 19 1015 59 6000 2.1 330 18:25 15.02.2020
2551 Clear 19 1015 59 6000 3.6 330 18:00 15.02.2020
2552 Clear 19 1015 59 6000 3.6 330 17:41 15.02.2020
2553 Clear 19 1014 59 6000 3.6 330 17:22 15.02.2020
2554 Clear 19 1014 56 6000 3.1 340 16:58 15.02.2020
2555 Clear 21 1014 52 6000 3.6 300 16:39 15.02.2020
2556 Clear 21 1014 52 6000 3.6 300 16:19 15.02.2020
2557 Clear 21 1014 52 6000 4.6 310 15:42 15.02.2020
2558 Clear 21 1014 49 6000 4.1 280 15:23 15.02.2020
2559 Clear 21 1014 49 6000 3.6 260 14:45 15.02.2020
2560 Clear 21 1014 49 6000 3.6 260 14:45 15.02.2020
2561 Clear 21 1014 49 6000 2.6 260 14:23 15.02.2020
2562 Clear 20 1014 52 6000 2.6 250 13:57 15.02.2020
2563 Clear 20 1014 52 6000 2.6 250 13:39 15.02.2020
2564 Clear 20 1014 60 6000 2.1 270 13:20 15.02.2020
2565 Clear 19 1014 63 6000 2.6 230 12:44 15.02.2020
2566 Clear 18 1014 72 6000 1.5 290 12:26 15.02.2020
2567 Clouds 17 1015 82 6000 1.5 200 11:56 15.02.2020
2568 Clouds 17 1015 82 6000 1.5 200 11:36 15.02.2020
2569 Clouds 16 1016 87 6000 1 250 11:18 15.02.2020
2570 Mist 15 1016 93 4000 3.1 300 10:46 15.02.2020
2571 Mist 14 1017 100 4000 2.6 280 10:27 15.02.2020
2572 Mist 13 1017 100 2000 3.1 290 09:45 15.02.2020
2573 Mist 13 1017 100 2000 3.1 290 09:25 15.02.2020
2574 Mist 13 1017 100 1000 3.1 270 08:59 15.02.2020
2575 Mist 13 1017 100 1000 3.1 270 08:59 15.02.2020
2576 Mist 13 1017 100 1000 3.1 270 08:39 15.02.2020
2577 Mist 12 1017 100 1000 3.1 270 08:20 15.02.2020
2578 Mist 12 1017 100 1000 1.5 210 07:42 15.02.2020
2579 Mist 12 1016 100 1000 1.5 210 07:23 15.02.2020
2580 Mist 12 1016 100 1000 2.6 240 06:39 15.02.2020
2581 Fog 12 1016 100 800 1.5 230 06:20 15.02.2020
2582 Fog 12 1015 100 100 1.36 343 04:52 15.02.2020
2583 Fog 12 1015 100 100 1.36 343 04:26 15.02.2020
2584 Fog 12 1016 100 300 2.1 110 02:59 15.02.2020
2585 Fog 12 1016 100 300 0.5 120 02:29 15.02.2020
2586 Fog 12 1016 100 100 0.81 17 01:59 15.02.2020
2587 Fog 13 1016 93 300 3.1 90 01:37 15.02.2020
2588 Mist 12 1013 93 3000 1.5 50 00:36 15.02.2020
2589 Mist 12 1013 93 3000 1.5 50 00:18 15.02.2020
2590 Mist 13 1017 93 4000 2.6 350 23:38 14.02.2020
2591 Mist 14 1017 93 4000 2.6 350 23:18 14.02.2020
2592 Mist 14 1017 87 4000 2.1 10 22:43 14.02.2020
2593 Mist 14 1018 87 4000 2.1 360 22:22 14.02.2020
2594 Mist 14 1018 87 4000 2.1 360 21:50 14.02.2020
2595 Mist 14 1018 87 4000 4.1 90 21:31 14.02.2020
2596 Mist 14 1018 87 4000 3.1 80 20:58 14.02.2020
2597 Mist 14 1018 87 4000 3.1 80 20:39 14.02.2020
2598 Clouds 15 1018 82 6000 4.6 40 20:19 14.02.2020
2599 Clouds 15 1018 82 6000 4.6 40 19:42 14.02.2020
2600 Clouds 16 1018 77 6000 3.1 30 19:24 14.02.2020
2601 Clouds 16 1018 77 6000 4.6 10 18:59 14.02.2020
2602 Clouds 16 1018 77 6000 4.6 10 18:40 14.02.2020
2603 Clouds 17 1018 72 6000 5.7 30 18:21 14.02.2020
2604 Clouds 17 1018 72 6000 4.6 360 17:56 14.02.2020
2605 Clouds 18 1018 63 6000 5.7 350 17:38 14.02.2020
2606 Clouds 18 1018 63 6000 5.7 350 17:18 14.02.2020
2607 Clouds 20 1017 52 6000 5.7 30 16:42 14.02.2020
2608 Clouds 20 1017 52 6000 5.7 30 16:23 14.02.2020
2609 Clouds 20 1017 52 6000 7.7 70 15:57 14.02.2020
2610 Clouds 20 1017 52 6000 7.7 70 15:39 14.02.2020
2611 Clouds 20 1017 52 6000 7.7 70 15:20 14.02.2020
2612 Clouds 20 1018 52 6000 6.7 50 14:59 14.02.2020
2613 Clouds 20 1018 52 6000 6.7 50 14:41 14.02.2020
2614 Clouds 20 1018 52 6000 6.7 50 14:22 14.02.2020
2615 Clouds 20 1019 49 6000 5.7 40 13:56 14.02.2020
2616 Clouds 20 1019 49 6000 5.7 40 13:38 14.02.2020
2617 Clouds 20 1019 49 6000 5.7 40 13:19 14.02.2020
2618 Clouds 20 1019 49 6000 5.7 30 12:56 14.02.2020
2619 Clouds 20 1019 49 6000 5.7 30 12:38 14.02.2020
2620 Clouds 20 1019 49 6000 5.7 30 12:20 14.02.2020
2621 Clouds 20 1020 56 6000 3.6 20 11:55 14.02.2020
2622 Clouds 20 1020 56 6000 3.6 20 11:37 14.02.2020
2623 Clouds 20 1020 56 6000 3.6 20 11:19 14.02.2020
2624 Clouds 16 1020 77 6000 6.2 50 10:41 14.02.2020
2625 Clouds 16 1020 77 6000 6.2 50 10:22 14.02.2020
2626 Clouds 16 1020 77 6000 6.2 50 10:22 14.02.2020
2627 Mist 14 1022 93 3000 4.6 30 09:45 14.02.2020
2628 Mist 14 1022 93 3000 4.6 30 09:24 14.02.2020
2629 Mist 13 1022 93 3000 4.6 30 08:58 14.02.2020
2630 Mist 13 1022 93 3000 4.6 30 08:39 14.02.2020
2631 Mist 13 1022 93 1500 4.1 10 08:21 14.02.2020
2632 Mist 12 1022 93 1500 4.1 10 07:50 14.02.2020
2633 Mist 12 1021 93 1500 3.6 40 07:29 14.02.2020
2634 Mist 11 1021 93 1500 3.6 50 06:39 14.02.2020
2635 Mist 11 1021 87 1500 4.1 30 06:20 14.02.2020
2636 Mist 11 1021 87 3000 2.1 40 05:38 14.02.2020
2637 Clouds 13 1020 76 6000 4.1 50 03:49 14.02.2020
2638 Clouds 14 1020 71 6000 4.6 50 02:58 14.02.2020
2639 Clouds 14 1020 71 10000 5.7 70 01:57 14.02.2020
2640 Clouds 14 1021 71 10000 5.1 70 00:59 14.02.2020
2641 Clouds 15 1022 72 10000 5.7 70 00:32 14.02.2020
2642 Clouds 15 1022 72 6000 5.1 70 23:59 13.02.2020
2643 Clouds 15 1022 72 6000 5.1 70 23:41 13.02.2020
2644 Clouds 15 1022 72 6000 4.6 60 23:19 13.02.2020
2645 Clouds 15 1022 72 6000 4.1 80 22:40 13.02.2020
2646 Clouds 16 1023 67 6000 4.6 70 22:19 13.02.2020
2647 Clouds 16 1023 67 6000 5.1 70 21:58 13.02.2020
2648 Clouds 16 1023 67 6000 5.1 70 21:40 13.02.2020
2649 Clouds 17 1023 63 6000 4.6 60 21:20 13.02.2020
2650 Clouds 17 1023 63 6000 4.6 60 20:43 13.02.2020
2651 Clouds 18 1022 52 6000 4.6 50 20:23 13.02.2020
2652 Clouds 18 1022 45 6000 5.1 60 19:58 13.02.2020
2653 Clouds 19 1022 45 6000 5.1 60 19:39 13.02.2020
2654 Clouds 19 1022 45 6000 4.1 70 19:21 13.02.2020
2655 Haze 19 1022 42 4000 3.1 70 18:59 13.02.2020
2656 Haze 20 1022 42 4000 3.1 70 18:41 13.02.2020
2657 Haze 21 1022 37 4000 2.6 10 18:22 13.02.2020
2658 Haze 21 1021 30 4000 3.21 5 17:57 13.02.2020
2659 Haze 22 1021 30 4000 3.21 5 17:37 13.02.2020
2660 Haze 22 1021 30 4000 1.26 292 17:19 13.02.2020
2661 Haze 23 1021 28 4000 1.26 292 16:55 13.02.2020
2662 Clear 23 1021 28 6000 1.26 292 16:36 13.02.2020
2663 Clear 23 1021 28 6000 1.26 292 16:18 13.02.2020
2664 Clear 24 1021 31 6000 0.5 300 15:54 13.02.2020
2665 Clear 24 1021 31 6000 2.1 280 15:36 13.02.2020
2666 Clear 24 1021 31 6000 2.1 280 15:18 13.02.2020
2667 Clear 24 1021 31 10000 0.5 220 14:54 13.02.2020
2668 Clear 23 1021 33 10000 1.5 240 14:36 13.02.2020
2669 Clear 23 1021 33 10000 1.5 240 14:18 13.02.2020
2670 Clear 23 1021 31 10000 1.5 220 13:41 13.02.2020
2671 Clear 22 1021 33 10000 3.1 230 13:18 13.02.2020
2672 Clear 23 1021 31 10000 3.1 240 12:48 13.02.2020
2673 Clear 22 1022 33 10000 3.1 240 12:30 13.02.2020
2674 Clear 21 1022 32 10000 2.6 240 11:59 13.02.2020
2675 Clear 21 1022 32 10000 2.6 240 11:41 13.02.2020
2676 Clear 21 1023 32 10000 3.6 250 11:19 13.02.2020
2677 Clear 20 1023 34 10000 3.6 210 10:44 13.02.2020
2678 Clear 20 1023 34 10000 3.6 210 10:26 13.02.2020
2679 Clear 19 1023 37 6000 4.6 180 09:50 13.02.2020
2680 Clear 19 1023 37 6000 4.6 180 09:26 13.02.2020
2681 Clear 17 1023 45 6000 4.6 180 08:48 13.02.2020
2682 Clear 17 1023 45 6000 4.6 180 08:21 13.02.2020
2683 Clear 16 1022 48 6000 4.6 160 07:57 13.02.2020
2684 Clear 15 1022 51 6000 4.6 160 07:38 13.02.2020
2685 Clear 15 1022 51 6000 4.6 160 07:20 13.02.2020
2686 Clear 14 1022 54 6000 4.6 170 06:44 13.02.2020
2687 Clear 13 1021 54 6000 4.6 170 06:18 13.02.2020
2688 Clear 14 1021 54 6000 4.6 170 05:25 13.02.2020
2689 Clear 14 1021 50 6000 5.1 170 04:25 13.02.2020
2690 Clear 14 1022 54 10000 5.1 170 03:47 13.02.2020
2691 Clear 15 1022 51 10000 5.1 170 03:18 13.02.2020
2692 Clear 15 1022 51 10000 5.1 170 02:48 13.02.2020
2693 Clear 15 1022 51 10000 5.1 170 02:19 13.02.2020
2694 Clear 15 1022 51 10000 5.1 170 01:32 13.02.2020
2695 Clear 16 1022 51 10000 6.2 170 00:33 13.02.2020
2696 Clear 16 1022 51 10000 6.2 170 23:59 12.02.2020
2697 Clear 16 1022 51 10000 6.2 170 23:38 12.02.2020
2698 Clear 16 1022 51 10000 6.2 170 23:20 12.02.2020
2699 Clear 16 1022 51 10000 5.1 180 22:44 12.02.2020
2700 Clear 16 1022 51 10000 5.1 180 22:24 12.02.2020
2701 Clear 16 1022 51 10000 5.7 170 21:58 12.02.2020
2702 Clear 16 1022 51 10000 5.7 170 21:40 12.02.2020
2703 Clear 16 1022 51 10000 5.7 170 21:19 12.02.2020
2704 Clear 17 1022 48 10000 4.6 180 20:56 12.02.2020
2705 Clear 17 1022 48 10000 4.6 180 20:37 12.02.2020
2706 Clear 17 1022 48 10000 4.6 180 20:19 12.02.2020
2707 Clear 17 1022 48 10000 4.6 180 19:45 12.02.2020
2708 Clear 17 1022 48 10000 4.6 180 19:24 12.02.2020
2709 Clear 18 1022 42 10000 4.1 170 18:56 12.02.2020
2710 Clear 18 1022 42 10000 4.1 170 18:37 12.02.2020
2711 Clear 18 1022 42 10000 4.1 170 18:18 12.02.2020
2712 Clear 18 1022 42 10000 4.1 190 17:43 12.02.2020
2713 Clear 19 1021 39 10000 4.1 190 17:21 12.02.2020
2714 Clear 19 1021 37 10000 5.7 210 16:59 12.02.2020
2715 Clear 20 1021 37 10000 5.7 210 16:39 12.02.2020
2716 Clear 20 1021 37 10000 5.7 210 16:19 12.02.2020
2717 Clear 20 1021 37 10000 6.7 230 15:43 12.02.2020
2718 Clear 20 1021 37 10000 6.7 230 15:23 12.02.2020
2719 Clear 20 1021 37 10000 5.7 210 14:57 12.02.2020
2720 Clear 20 1021 37 10000 5.7 210 14:39 12.02.2020
2721 Clear 20 1021 37 10000 5.1 240 14:20 12.02.2020
2722 Clear 20 1021 37 10000 5.1 180 13:57 12.02.2020
2723 Clear 20 1021 37 10000 5.1 190 13:39 12.02.2020
2724 Clear 20 1021 37 10000 5.1 190 13:20 12.02.2020
2725 Clear 19 1022 39 10000 4.6 200 12:57 12.02.2020
2726 Clear 19 1022 39 10000 4.6 200 12:38 12.02.2020
2727 Clear 19 1022 39 10000 6.2 200 12:18 12.02.2020
2728 Clear 18 1023 42 10000 5.7 210 11:57 12.02.2020
2729 Clear 18 1023 42 10000 5.7 210 11:38 12.02.2020
2730 Clear 18 1023 42 10000 5.7 210 11:20 12.02.2020
2731 Clear 17 1024 42 10000 5.7 210 10:55 12.02.2020
2732 Clear 17 1024 42 10000 5.7 210 10:36 12.02.2020
2733 Clear 17 1024 42 10000 5.7 210 10:18 12.02.2020
2734 Clear 16 1024 44 10000 6.2 210 09:42 12.02.2020
2735 Clear 16 1024 44 10000 6.2 210 09:42 12.02.2020
2736 Clear 16 1024 44 10000 6.2 210 09:42 12.02.2020
2737 Clear 16 1024 44 10000 6.2 200 09:23 12.02.2020
2738 Clear 15 1024 47 10000 5.7 180 08:58 12.02.2020
2739 Clear 15 1024 47 10000 5.7 180 08:58 12.02.2020
2740 Clear 15 1024 44 10000 6.2 180 08:38 12.02.2020
2741 Clear 15 1024 47 10000 5.7 180 08:38 12.02.2020
2742 Clear 15 1024 44 10000 6.2 180 08:19 12.02.2020
2743 Clear 15 1024 44 10000 6.2 180 08:19 12.02.2020
2744 Clouds 14 1024 47 6000 4.6 180 07:44 12.02.2020
2745 Clouds 13 1024 50 6000 4.6 170 07:24 12.02.2020
2746 Clouds 13 1023 50 6000 4.6 170 06:57 12.02.2020
2747 Clouds 13 1023 50 6000 4.6 170 06:57 12.02.2020
2748 Clouds 12 1023 54 6000 4.6 170 06:24 12.02.2020
2749 Clouds 12 1023 54 6000 4.6 150 05:44 12.02.2020
2750 Clouds 12 1023 54 6000 4.6 170 04:59 12.02.2020
2751 Clouds 12 1023 54 6000 4.6 170 04:40 12.02.2020
2752 Clouds 12 1022 54 6000 4.1 170 03:42 12.02.2020
2753 Clouds 11 1022 57 6000 4.1 170 03:23 12.02.2020
2754 Clouds 11 1022 53 6000 3.6 160 02:31 12.02.2020
2755 Clouds 11 1022 57 6000 4.6 160 01:59 12.02.2020
2756 Clouds 11 1023 57 6000 4.6 160 00:58 12.02.2020
2757 Clouds 11 1023 57 6000 4.6 160 00:39 12.02.2020
2758 Clouds 11 1023 62 6000 4.6 150 00:21 12.02.2020
2759 Clouds 11 1023 62 6000 4.6 150 23:42 11.02.2020
2760 Clouds 12 1024 62 6000 3.6 150 23:24 11.02.2020
2761 Clouds 12 1024 62 6000 2.6 130 22:56 11.02.2020
2762 Clouds 12 1024 62 6000 2.6 130 22:38 11.02.2020
2763 Clouds 12 1024 66 6000 2.6 150 22:19 11.02.2020
2764 Clouds 13 1024 67 6000 1 190 21:56 11.02.2020
2765 Clouds 13 1024 67 6000 1 190 21:56 11.02.2020
2766 Clouds 14 1024 62 6000 1 140 21:37 11.02.2020
2767 Clouds 14 1024 62 6000 1 140 21:18 11.02.2020
2768 Clouds 14 1024 62 6000 1 140 21:18 11.02.2020
2769 Clouds 14 1023 47 6000 2.38 242 20:56 11.02.2020
2770 Clouds 14 1023 47 6000 2.38 242 20:37 11.02.2020
2771 Clouds 14 1023 47 6000 2.38 242 20:37 11.02.2020
2772 Clouds 14 1023 47 6000 3.06 253 20:18 11.02.2020
2773 Clouds 15 1023 44 6000 3.1 200 19:43 11.02.2020
2774 Clouds 15 1023 44 6000 1.5 220 19:25 11.02.2020
2775 Clouds 15 1023 44 6000 1.5 220 18:57 11.02.2020
2776 Clouds 15 1023 44 6000 1.5 220 18:39 11.02.2020
2777 Clouds 15 1023 44 6000 1.5 220 18:39 11.02.2020
2778 Clouds 15 1023 44 6000 1.5 220 18:39 11.02.2020
2779 Clouds 15 1023 44 6000 1.5 220 18:39 11.02.2020
2780 Clouds 15 1023 44 6000 1.5 220 18:39 11.02.2020
2781 Clouds 15 1022 44 6000 2.6 220 18:20 11.02.2020
2782 Clouds 16 1022 41 10000 2.6 230 17:55 11.02.2020
2783 Clouds 16 1022 41 10000 2.6 230 17:37 11.02.2020
2784 Clouds 17 1022 39 10000 3.1 240 17:18 11.02.2020
2785 Clouds 17 1022 39 10000 3.1 240 17:18 11.02.2020
2786 Clouds 17 1022 39 10000 4.6 250 16:57 11.02.2020
2787 Clouds 17 1022 39 10000 4.6 250 16:57 11.02.2020
2788 Clouds 17 1022 39 10000 4.6 250 16:38 11.02.2020
2789 Clouds 17 1022 42 10000 3.6 270 16:19 11.02.2020
2790 Clouds 17 1022 42 10000 4.6 270 15:45 11.02.2020
2791 Clouds 18 1022 39 10000 4.1 260 15:26 11.02.2020
2792 Clouds 18 1022 39 10000 5.7 290 14:58 11.02.2020
2793 Clouds 18 1022 39 10000 5.7 290 14:39 11.02.2020
2794 Clouds 18 1022 39 10000 5.7 260 14:19 11.02.2020
2795 Clouds 17 1023 42 10000 5.7 260 13:42 11.02.2020
2796 Clouds 16 1023 55 10000 5.7 210 13:22 11.02.2020
2797 Clouds 16 1023 67 6000 6.2 220 12:59 11.02.2020
2798 Clouds 16 1023 67 6000 6.2 220 12:40 11.02.2020
2799 Clouds 16 1023 67 6000 6.7 200 12:21 11.02.2020
2800 Clouds 13 1024 71 6000 6.7 200 11:55 11.02.2020
2801 Clouds 13 1024 71 6000 6.7 200 11:36 11.02.2020
2802 Clouds 13 1024 71 6000 6.7 200 11:36 11.02.2020
2803 Mist 13 1024 82 4000 6.7 200 11:18 11.02.2020
2804 Mist 13 1025 66 3000 4.6 190 10:39 11.02.2020
2805 Mist 13 1025 66 3000 4.6 210 10:20 11.02.2020
2806 Rain 12 1025 62 3000 6.7 200 09:57 11.02.2020
2807 Rain 12 1025 62 3000 6.7 200 09:39 11.02.2020
2808 Haze 12 1025 62 4000 4.6 210 09:20 11.02.2020
2809 Haze 13 1025 58 4000 4.6 200 08:48 11.02.2020
2810 Haze 11 1025 66 4000 4.6 180 08:25 11.02.2020
2811 Haze 11 1025 66 2000 4.1 180 07:51 11.02.2020
2812 Haze 10 1025 66 2000 4.6 180 07:32 11.02.2020
2813 Haze 10 1025 66 2000 4.6 180 06:57 11.02.2020
2814 Haze 10 1025 66 2000 4.6 180 06:38 11.02.2020
2815 Haze 10 1025 66 2000 4.6 180 06:38 11.02.2020
2816 Haze 10 1025 66 2000 4.6 200 06:20 11.02.2020
2817 Haze 10 1025 66 2000 4.6 200 06:20 11.02.2020
2818 Haze 9 1025 70 4000 4.6 170 05:39 11.02.2020
2819 Haze 9 1024 70 4000 4.6 170 05:19 11.02.2020
2820 Clouds 10 1024 61 6000 3.1 180 03:27 11.02.2020
2821 Clouds 10 1025 61 6000 1.5 200 02:34 11.02.2020
2822 Clouds 11 1025 62 6000 1.5 210 01:52 11.02.2020
2823 Clouds 11 1025 62 6000 1 210 01:30 11.02.2020
2824 Clouds 10 1025 61 10000 3.26 336 00:23 11.02.2020
2825 Clouds 10 1025 61 10000 3.26 336 23:45 10.02.2020
2826 Clouds 11 1025 62 10000 3.26 336 23:26 10.02.2020
2827 Clouds 10 1026 61 10000 1 120 22:57 10.02.2020
2828 Clouds 11 1026 57 10000 2.1 70 22:37 10.02.2020
2829 Clouds 11 1026 57 10000 2.1 70 22:19 10.02.2020
2830 Clouds 12 1026 58 10000 2.1 340 21:40 10.02.2020
2831 Clouds 12 1026 58 10000 2.6 330 21:22 10.02.2020
2832 Clouds 12 1026 58 10000 3.1 320 20:56 10.02.2020
2833 Clouds 12 1026 58 10000 4.1 320 20:38 10.02.2020
2834 Clouds 12 1026 58 10000 4.1 320 20:19 10.02.2020
2835 Clouds 12 1026 58 10000 4.6 310 19:57 10.02.2020
2836 Clouds 12 1026 58 10000 4.6 310 19:57 10.02.2020
2837 Clouds 12 1026 54 10000 5.1 310 19:37 10.02.2020
2838 Clouds 13 1026 54 10000 5.1 310 19:18 10.02.2020
2839 Clouds 13 1026 54 10000 5.1 310 18:58 10.02.2020
2840 Clouds 13 1026 54 10000 5.1 310 18:38 10.02.2020
2841 Clouds 13 1026 50 10000 4.6 310 18:20 10.02.2020
2842 Clouds 13 1026 50 10000 4.6 310 18:20 10.02.2020
2843 Clouds 13 1026 50 10000 4.6 310 17:55 10.02.2020
2844 Clouds 13 1026 50 10000 5.1 300 17:37 10.02.2020
2845 Clouds 13 1026 50 10000 5.1 300 17:18 10.02.2020
2846 Clouds 14 1026 47 10000 5.1 300 16:56 10.02.2020
2847 Clouds 14 1026 50 10000 5.1 300 16:38 10.02.2020
2848 Clouds 14 1026 50 10000 5.1 300 16:18 10.02.2020
2849 Clouds 14 1026 50 10000 5.1 300 15:42 10.02.2020
2850 Clouds 14 1026 50 10000 6.2 280 15:22 10.02.2020
2851 Clouds 14 1025 50 10000 6.7 290 14:59 10.02.2020
2852 Clouds 14 1025 50 10000 6.7 290 14:41 10.02.2020
2853 Clouds 14 1026 47 6000 6.2 280 14:19 10.02.2020
2854 Clouds 14 1026 47 6000 5.1 300 13:56 10.02.2020
2855 Clouds 14 1026 47 6000 5.1 270 13:38 10.02.2020
2856 Clouds 14 1026 47 6000 5.1 270 13:18 10.02.2020
2857 Clouds 14 1026 44 6000 3.6 280 12:44 10.02.2020
2858 Clouds 14 1026 44 6000 3.6 280 12:25 10.02.2020
2859 Clouds 13 1028 46 6000 3.6 310 11:55 10.02.2020
2860 Clouds 12 1028 46 6000 3.6 310 11:37 10.02.2020
2861 Clouds 12 1028 46 6000 3.6 310 11:19 10.02.2020
2862 Clouds 12 1028 46 6000 3.6 310 10:45 10.02.2020
2863 Clouds 12 1028 46 6000 3.6 310 10:26 10.02.2020
2864 Clouds 12 1028 50 6000 3.6 310 09:45 10.02.2020
2865 Clouds 12 1029 50 6000 3.1 320 09:25 10.02.2020
2866 Clouds 12 1029 46 6000 3.6 310 08:55 10.02.2020
2867 Clouds 12 1029 46 6000 3.6 310 08:36 10.02.2020
2868 Clouds 12 1028 50 6000 4.1 320 08:18 10.02.2020
2869 Clouds 11 1028 57 10000 3.1 300 07:46 10.02.2020
2870 Clouds 11 1028 57 10000 1.5 280 07:25 10.02.2020
2871 Clouds 10 1028 61 10000 2.1 290 05:52 10.02.2020
2872 Clouds 10 1027 57 10000 2.6 340 04:27 10.02.2020
2873 Clouds 10 1028 57 10000 3.1 310 03:34 10.02.2020
2874 Clouds 10 1028 57 10000 4.1 310 02:54 10.02.2020
2875 Clouds 10 1028 57 10000 3.6 320 01:38 10.02.2020
2876 Clouds 10 1029 57 10000 3.6 330 00:48 10.02.2020
2877 Clouds 10 1029 57 10000 3.6 330 00:30 10.02.2020
2878 Clouds 10 1029 53 10000 3.6 330 23:55 09.02.2020
2879 Clouds 11 1029 53 10000 3.6 330 23:36 09.02.2020
2880 Clouds 11 1029 53 10000 3.6 330 23:18 09.02.2020
2881 Clouds 11 1029 53 10000 4.6 330 22:39 09.02.2020
2882 Clouds 11 1029 50 10000 5.1 320 22:20 09.02.2020
2883 Clouds 11 1029 50 10000 5.1 320 21:42 09.02.2020
2884 Clouds 11 1029 50 10000 5.7 310 21:23 09.02.2020
2885 Clouds 12 1029 50 10000 5.1 290 20:48 09.02.2020
2886 Clouds 11 1029 50 10000 5.1 320 20:27 09.02.2020
2887 Clouds 12 1029 50 10000 4.1 320 19:58 09.02.2020
2888 Clouds 12 1029 50 10000 4.1 320 19:39 09.02.2020
2889 Clouds 12 1029 50 10000 5.1 320 19:21 09.02.2020
2890 Clouds 12 1029 50 10000 5.1 320 19:21 09.02.2020
2891 Clouds 12 1029 46 10000 5.7 310 18:56 09.02.2020
2892 Clouds 12 1029 46 10000 5.7 310 18:38 09.02.2020
2893 Clouds 12 1029 46 10000 5.7 320 18:20 09.02.2020
2894 Clouds 12 1028 46 10000 5.7 320 17:42 09.02.2020
2895 Clouds 13 1028 43 10000 7.2 310 17:22 09.02.2020
2896 Clouds 13 1028 43 10000 7.2 320 16:56 09.02.2020
2897 Clouds 13 1028 43 10000 7.2 320 16:37 09.02.2020
2898 Clouds 13 1028 43 10000 7.2 320 16:18 09.02.2020
2899 Clouds 14 1027 62 10000 7.7 320 15:54 09.02.2020
2900 Clouds 14 1027 62 10000 7.7 320 15:36 09.02.2020
2901 Clouds 14 1027 62 10000 7.7 320 15:18 09.02.2020
2902 Clouds 14 1027 35 10000 5.7 320 14:42 09.02.2020
2903 Clouds 14 1027 35 10000 5.7 320 14:23 09.02.2020
2904 Clouds 14 1027 43 10000 5.7 320 13:47 09.02.2020
2905 Clouds 15 1027 40 10000 8.2 310 13:29 09.02.2020
2906 Clouds 15 1027 40 10000 7.2 310 12:58 09.02.2020
2907 Clouds 15 1027 40 10000 7.2 310 12:40 09.02.2020
2908 Clouds 15 1027 51 10000 5.7 310 12:19 09.02.2020
2909 Clouds 15 1027 38 10000 8.7 300 11:56 09.02.2020
2910 Clouds 15 1027 38 10000 8.7 300 11:36 09.02.2020
2911 Clouds 15 1027 38 10000 8.7 300 11:18 09.02.2020
2912 Clouds 13 1028 50 10000 7.7 310 10:42 09.02.2020
2913 Clouds 13 1028 50 10000 7.7 310 10:23 09.02.2020
2914 Clouds 13 1028 54 10000 5.1 310 09:56 09.02.2020
2915 Clouds 13 1028 54 10000 5.1 310 09:37 09.02.2020
2916 Clouds 13 1028 54 10000 5.1 290 09:18 09.02.2020
2917 Clouds 12 1028 62 10000 5.1 280 08:39 09.02.2020
2918 Clouds 12 1028 62 10000 4.6 290 08:20 09.02.2020
2919 Clouds 11 1028 71 10000 3.6 280 07:51 09.02.2020
2920 Clouds 11 1027 76 10000 3.6 270 06:59 09.02.2020
2921 Clouds 11 1026 76 10000 4.1 290 06:36 09.02.2020
2922 Clouds 11 1026 76 10000 3.1 270 05:52 09.02.2020
2923 Clouds 11 1026 76 10000 3.1 270 05:52 09.02.2020
2924 Clouds 11 1026 76 10000 3.1 270 05:32 09.02.2020
2925 Clouds 10 1026 81 10000 3.1 270 04:43 09.02.2020
2926 Clouds 11 1025 66 10000 3.6 290 02:50 09.02.2020
2927 Clouds 11 1025 66 10000 3.6 290 02:32 09.02.2020
2928 Clouds 11 1025 62 10000 2.1 230 01:38 09.02.2020
2929 Clouds 11 1025 62 10000 2.1 240 00:56 09.02.2020
2930 Clouds 11 1025 62 10000 2.6 250 00:29 09.02.2020
2931 Clouds 12 1025 58 10000 2.6 240 23:49 08.02.2020
2932 Clouds 12 1025 58 10000 3.1 280 23:25 08.02.2020
2933 Clouds 12 1026 58 10000 3.1 280 22:58 08.02.2020
2934 Clouds 12 1026 58 10000 3.1 280 22:40 08.02.2020
2935 Clouds 12 1026 58 10000 3.1 280 22:20 08.02.2020
2936 Clouds 12 1026 58 10000 2.1 320 21:46 08.02.2020
2937 Clouds 13 1026 50 10000 2.1 320 21:27 08.02.2020
2938 Clouds 13 1026 50 10000 2.1 320 20:59 08.02.2020
2939 Clouds 13 1026 50 10000 2.1 320 20:40 08.02.2020
2940 Clouds 13 1026 50 10000 2.1 320 20:20 08.02.2020
2941 Clouds 13 1025 50 10000 4.1 330 19:58 08.02.2020
2942 Clouds 13 1025 50 10000 4.1 330 19:38 08.02.2020
2943 Clouds 13 1025 50 10000 4.1 330 19:38 08.02.2020
2944 Clouds 13 1025 50 10000 4.1 330 19:20 08.02.2020
2945 Clouds 13 1025 54 10000 4.1 330 18:57 08.02.2020
2946 Clouds 13 1025 54 10000 4.1 330 18:38 08.02.2020
2947 Clouds 13 1025 54 10000 4.1 330 18:19 08.02.2020
2948 Clouds 13 1024 58 10000 4.1 330 17:41 08.02.2020
2949 Clouds 13 1024 58 10000 4.1 330 17:19 08.02.2020
2950 Clouds 14 1024 54 10000 5.7 340 16:42 08.02.2020
2951 Clouds 14 1024 54 10000 6.7 320 16:23 08.02.2020
2952 Clouds 14 1023 47 10000 6.2 320 15:59 08.02.2020
2953 Clouds 15 1023 47 10000 6.2 320 15:39 08.02.2020
2954 Clouds 16 1023 44 10000 5.1 290 15:18 08.02.2020
2955 Clouds 16 1023 41 10000 7.2 320 14:45 08.02.2020
2956 Clouds 15 1023 51 10000 7.2 320 14:24 08.02.2020
2957 Clouds 16 1023 44 10000 5.7 260 13:59 08.02.2020
2958 Clouds 16 1023 44 10000 5.7 260 13:40 08.02.2020
2959 Clouds 16 1023 44 10000 6.2 240 13:22 08.02.2020
2960 Clouds 15 1023 47 10000 4.6 250 12:49 08.02.2020
2961 Clouds 15 1023 47 10000 5.7 250 12:23 08.02.2020
2962 Clouds 15 1023 47 10000 5.7 250 12:23 08.02.2020
2963 Clouds 16 1024 44 10000 7.69 296 11:58 08.02.2020
2964 Clouds 16 1024 44 10000 7.69 296 11:40 08.02.2020
2965 Clouds 14 1024 58 10000 4.6 230 11:20 08.02.2020
2966 Clouds 14 1024 62 10000 4.6 220 10:42 08.02.2020
2967 Clouds 14 1024 62 10000 4.6 220 10:22 08.02.2020
2968 Clouds 14 1024 62 10000 5.1 230 09:53 08.02.2020
2969 Clouds 14 1024 62 10000 5.1 230 09:29 08.02.2020
2970 Clouds 13 1024 66 10000 5.7 240 08:57 08.02.2020
2971 Clouds 13 1024 66 10000 5.7 240 08:38 08.02.2020
2972 Clouds 12 1024 66 10000 5.7 240 08:20 08.02.2020
2973 Clouds 11 1023 71 10000 6.7 230 07:50 08.02.2020
2974 Clouds 11 1023 71 10000 6.7 230 07:30 08.02.2020
2975 Clouds 12 1022 66 10000 6.2 250 06:33 08.02.2020
2976 Clouds 12 1022 66 10000 6.2 250 06:33 08.02.2020
2977 Clouds 12 1022 62 10000 6.2 240 05:50 08.02.2020
2978 Clouds 12 1021 62 10000 6.2 240 05:31 08.02.2020
2979 Clouds 12 1021 66 10000 6.2 240 04:51 08.02.2020
2980 Clouds 12 1021 66 10000 5.7 240 03:55 08.02.2020
2981 Clouds 12 1021 66 10000 6.2 240 02:57 08.02.2020
2982 Clouds 12 1021 66 10000 6.2 240 02:24 08.02.2020
2983 Clouds 13 1021 62 10000 6.7 250 01:28 08.02.2020
2984 Clouds 13 1021 62 10000 5.7 250 00:45 08.02.2020
2985 Clouds 13 1021 62 10000 6.7 260 00:23 08.02.2020
2986 Clouds 13 1021 62 10000 5.7 250 23:56 07.02.2020
2987 Clouds 13 1021 62 10000 5.7 250 23:37 07.02.2020
2988 Clouds 14 1020 58 10000 7.7 260 23:19 07.02.2020
2989 Clouds 14 1020 54 10000 6.2 270 22:41 07.02.2020
2990 Clouds 15 1020 51 10000 6.2 250 22:19 07.02.2020
2991 Clouds 15 1020 47 10000 5.7 270 21:57 07.02.2020
2992 Clouds 15 1020 47 10000 5.7 270 21:39 07.02.2020
2993 Clouds 15 1020 41 10000 6.7 260 21:19 07.02.2020
2994 Clouds 16 1020 38 10000 6.7 250 20:39 07.02.2020
2995 Clouds 16 1020 38 10000 6.2 250 20:19 07.02.2020
2996 Clouds 16 1019 38 10000 6.7 240 19:54 07.02.2020
2997 Clouds 16 1019 36 10000 6.7 250 19:36 07.02.2020
2998 Clouds 16 1019 36 10000 6.7 250 19:18 07.02.2020
2999 Clouds 16 1019 38 6000 6.2 240 18:43 07.02.2020
3000 Clouds 17 1018 36 6000 7.7 240 18:24 07.02.2020
3001 Clouds 16 1018 38 6000 7.2 240 17:55 07.02.2020
3002 Clouds 16 1018 38 6000 7.2 240 17:37 07.02.2020
3003 Clouds 17 1018 33 6000 7.7 250 17:18 07.02.2020
3004 Clouds 17 1018 33 6000 8.7 250 16:42 07.02.2020
3005 Clouds 17 1018 33 6000 8.7 250 16:23 07.02.2020
3006 Clear 18 1017 31 6000 9.3 260 15:53 07.02.2020
3007 Clear 18 1017 31 6000 9.3 260 15:28 07.02.2020
3008 Clouds 19 1017 25 10000 9.8 240 14:55 07.02.2020
3009 Clouds 19 1017 25 10000 9.8 240 14:37 07.02.2020
3010 Clouds 19 1017 25 10000 9.8 240 14:19 07.02.2020
3011 Clouds 19 1017 25 10000 8.7 250 13:56 07.02.2020
3012 Clouds 19 1017 25 10000 8.7 250 13:38 07.02.2020
3013 Clouds 19 1017 25 10000 8.7 250 13:19 07.02.2020
3014 Clouds 18 1017 31 10000 8.7 260 12:41 07.02.2020
3015 Clouds 18 1017 31 10000 8.7 260 12:23 07.02.2020
3016 Clouds 18 1018 34 10000 9.3 240 11:45 07.02.2020
3017 Clouds 18 1018 34 10000 9.3 240 11:23 07.02.2020
3018 Clouds 18 1018 34 10000 10.3 250 10:58 07.02.2020
3019 Clouds 18 1018 34 10000 10.3 250 10:38 07.02.2020
3020 Clouds 16 1019 41 10000 7.7 240 10:19 07.02.2020
3021 Clouds 16 1019 48 10000 6.2 230 09:41 07.02.2020
3022 Clouds 15 1019 51 6000 5.7 250 09:23 07.02.2020
3023 Clouds 14 1019 54 6000 4.6 220 08:50 07.02.2020
3024 Rain 14 1019 58 6000 5.7 230 08:24 07.02.2020
3025 Rain 14 1019 62 6000 6.2 240 07:55 07.02.2020
3026 Rain 14 1018 62 6000 5.1 250 07:37 07.02.2020
3027 Rain 14 1018 62 6000 5.1 250 07:18 07.02.2020
3028 Rain 14 1018 54 6000 7.2 250 06:42 07.02.2020
3029 Rain 15 1018 47 6000 5.1 250 06:21 07.02.2020
3030 Rain 14 1018 41 6000 7.2 260 05:39 07.02.2020
3031 Clouds 15 1017 39 6000 1.5 240 03:54 07.02.2020
3032 Clouds 15 1017 49 6000 1.5 240 02:24 07.02.2020
3033 Clouds 15 1017 44 6000 1 200 01:21 07.02.2020
3034 Clouds 14 1017 47 6000 1.5 170 00:37 07.02.2020
3035 Clear 15 1017 41 6000 1.5 310 23:39 06.02.2020
3036 Clear 15 1018 44 6000 1.5 330 23:20 06.02.2020
3037 Clear 15 1018 41 6000 2.1 330 22:57 06.02.2020
3038 Clear 16 1018 41 6000 2.1 330 22:39 06.02.2020
3039 Clear 16 1018 41 6000 2.1 330 22:20 06.02.2020
3040 Clear 16 1017 36 6000 2.1 250 21:37 06.02.2020
3041 Clear 16 1017 36 6000 2.1 250 21:19 06.02.2020
3042 Clear 16 1017 36 6000 2.6 250 20:56 06.02.2020
3043 Clear 17 1017 33 6000 4.1 260 20:37 06.02.2020
3044 Clear 17 1017 33 6000 4.1 260 20:18 06.02.2020
3045 Clear 17 1017 33 6000 4.6 270 19:57 06.02.2020
3046 Clear 17 1017 33 6000 4.6 270 19:38 06.02.2020
3047 Clear 18 1017 31 6000 4.1 260 19:20 06.02.2020
3048 Clear 18 1016 33 6000 5.1 260 18:57 06.02.2020
3049 Clear 18 1016 33 6000 5.7 260 18:38 06.02.2020
3050 Clear 19 1016 33 6000 5.7 260 18:19 06.02.2020
3051 Sand 19 1016 33 4000 5.1 270 17:42 06.02.2020
3052 Sand 19 1015 35 4000 6.7 270 17:20 06.02.2020
3053 Sand 21 1015 35 4000 6.2 250 16:54 06.02.2020
3054 Sand 21 1015 35 4000 6.2 250 16:36 06.02.2020
3055 Sand 21 1015 35 4000 6.2 250 16:18 06.02.2020
3056 Sand 22 1014 24 4000 7.7 250 15:41 06.02.2020
3057 Sand 22 1014 28 4000 7.7 260 15:21 06.02.2020
3058 Sand 22 1014 30 4000 6.7 240 14:46 06.02.2020
3059 Clear 22 1014 30 6000 6.2 210 14:26 06.02.2020
3060 Clear 22 1014 30 10000 6.2 200 13:54 06.02.2020
3061 Clear 22 1014 30 10000 6.2 200 13:36 06.02.2020
3062 Clear 22 1014 30 10000 6.2 200 13:18 06.02.2020
3063 Clear 22 1014 30 10000 7.2 200 12:43 06.02.2020
3064 Clear 21 1015 32 10000 7.7 200 12:18 06.02.2020
3065 Clear 20 1015 34 10000 7.7 200 11:56 06.02.2020
3066 Clear 19 1015 34 10000 9.3 200 11:37 06.02.2020
3067 Clear 19 1015 34 10000 9.3 200 11:18 06.02.2020
3068 Clear 19 1016 34 6000 9.8 200 10:54 06.02.2020
3069 Clear 19 1016 34 6000 9.8 200 10:36 06.02.2020
3070 Clear 19 1016 34 6000 9.8 200 10:18 06.02.2020
3071 Clear 18 1015 39 6000 11.8 180 09:42 06.02.2020
3072 Clear 18 1015 39 6000 11.8 180 09:20 06.02.2020
3073 Clear 18 1015 36 6000 10.3 190 08:47 06.02.2020
3074 Clear 18 1015 36 6000 10.3 190 08:25 06.02.2020
3075 Clear 17 1014 39 6000 9.3 180 07:57 06.02.2020
3076 Clear 17 1014 39 6000 9.3 180 07:33 06.02.2020
3077 Clear 16 1014 41 10000 9.3 180 06:54 06.02.2020
3078 Clear 16 1014 39 10000 9.3 180 06:21 06.02.2020
3079 Clear 17 1013 36 10000 7.7 170 05:41 06.02.2020
3080 Clear 17 1013 36 10000 7.7 170 04:18 06.02.2020
3081 Clear 17 1013 42 10000 9.3 170 03:18 06.02.2020
3082 Clear 17 1014 42 10000 7.2 170 02:25 06.02.2020
3083 Clear 17 1014 42 10000 7.2 170 01:25 06.02.2020
3084 Clear 17 1014 42 10000 7.2 180 00:53 06.02.2020
3085 Clear 17 1014 42 10000 7.2 180 00:23 06.02.2020
3086 Clear 17 1014 42 10000 7.2 180 23:43 05.02.2020
3087 Clear 18 1014 39 10000 7.2 180 23:24 05.02.2020
3088 Clear 18 1014 39 10000 7.2 180 22:57 05.02.2020
3089 Clear 18 1014 39 10000 7.2 180 22:39 05.02.2020
3090 Clear 18 1014 39 10000 7.2 180 22:20 05.02.2020
3091 Clear 18 1014 42 10000 5.7 160 21:41 05.02.2020
3092 Clear 18 1014 42 10000 5.7 160 21:23 05.02.2020
3093 Clear 18 1014 42 10000 5.7 160 20:57 05.02.2020
3094 Clear 18 1014 42 10000 5.7 160 20:38 05.02.2020
3095 Clear 18 1014 42 10000 5.7 160 20:19 05.02.2020
3096 Clear 18 1014 45 10000 6.2 170 19:55 05.02.2020
3097 Clear 18 1014 45 10000 6.2 170 19:37 05.02.2020
3098 Clear 18 1014 45 10000 6.2 170 19:18 05.02.2020
3099 Clear 19 1014 42 10000 6.2 170 18:44 05.02.2020
3100 Clear 19 1013 42 10000 6.2 170 18:21 05.02.2020
3101 Clear 19 1013 42 10000 6.2 170 17:58 05.02.2020
3102 Clear 19 1013 42 10000 6.2 170 17:37 05.02.2020
3103 Clear 19 1013 42 10000 6.2 170 17:18 05.02.2020
3104 Clear 20 1013 37 10000 7.2 190 16:44 05.02.2020
3105 Clear 20 1013 37 10000 7.2 190 16:25 05.02.2020
3106 Clear 21 1013 35 10000 8.2 190 15:59 05.02.2020
3107 Clear 21 1013 35 10000 8.2 190 15:41 05.02.2020
3108 Clear 21 1013 35 10000 8.2 190 15:19 05.02.2020
3109 Clouds 21 1013 37 6000 7.7 190 14:55 05.02.2020
3110 Clouds 21 1013 37 6000 7.7 190 14:37 05.02.2020
3111 Clouds 21 1013 37 6000 7.2 190 14:19 05.02.2020
3112 Clouds 21 1013 37 6000 8.2 200 13:40 05.02.2020
3113 Clouds 20 1014 37 6000 8.7 200 13:22 05.02.2020
3114 Clouds 21 1014 37 6000 8.7 210 12:44 05.02.2020
3115 Clouds 20 1015 42 6000 8.2 220 12:25 05.02.2020
3116 Clouds 19 1015 45 6000 8.2 210 11:57 05.02.2020
3117 Clouds 19 1015 45 6000 8.2 210 11:39 05.02.2020
3118 Clouds 19 1016 45 6000 7.2 200 11:20 05.02.2020
3119 Clear 19 1016 45 6000 6.2 190 10:43 05.02.2020
3120 Clear 19 1016 45 6000 6.2 190 10:25 05.02.2020
3121 Clear 17 1017 55 6000 6.7 180 09:59 05.02.2020
3122 Clear 17 1017 55 6000 6.7 180 09:38 05.02.2020
3123 Clear 17 1017 55 6000 6.7 180 09:20 05.02.2020
3124 Haze 16 1017 59 4000 4.6 170 08:45 05.02.2020
3125 Haze 16 1017 59 4000 4.6 170 08:24 05.02.2020
3126 Haze 15 1017 62 3000 4.6 170 07:55 05.02.2020
3127 Haze 14 1017 67 3000 4.6 160 07:34 05.02.2020
3128 Haze 13 1016 66 3000 4.6 160 06:54 05.02.2020
3129 Haze 13 1016 66 3000 4.6 170 06:36 05.02.2020
3130 Haze 13 1016 66 3000 4.6 170 06:18 05.02.2020
3131 Clouds 14 1016 67 6000 4.6 180 05:19 05.02.2020
3132 Clouds 13 1016 71 6000 4.6 160 04:54 05.02.2020
3133 Clouds 13 1016 71 6000 2.6 170 03:57 05.02.2020
3134 Clouds 13 1016 71 6000 4.1 140 02:31 05.02.2020
3135 Clouds 13 1016 71 6000 4.1 140 01:55 05.02.2020
3136 Clouds 13 1017 71 6000 3.6 140 00:53 05.02.2020
3137 Clouds 14 1017 67 6000 4.1 130 23:59 04.02.2020
3138 Clouds 14 1017 67 6000 4.1 130 23:39 04.02.2020
3139 Clouds 15 1018 67 6000 2.6 120 23:19 04.02.2020
3140 Clouds 15 1018 67 6000 2.6 120 22:56 04.02.2020
3141 Clouds 15 1018 62 6000 2.6 120 22:38 04.02.2020
3142 Clouds 15 1018 62 6000 2.6 120 22:20 04.02.2020
3143 Clouds 16 1018 59 6000 1.5 80 21:54 04.02.2020
3144 Clouds 16 1018 59 6000 1.5 80 21:36 04.02.2020
3145 Clouds 16 1018 59 6000 1.5 80 21:18 04.02.2020
3146 Clouds 16 1018 59 6000 1.5 20 20:42 04.02.2020
3147 Clouds 17 1018 55 6000 2.99 330 20:21 04.02.2020
3148 Clouds 17 1018 59 6000 3.02 331 19:59 04.02.2020
3149 Clouds 17 1018 59 6000 3.02 331 19:40 04.02.2020
3150 Clouds 17 1018 55 6000 3.02 331 19:22 04.02.2020
3151 Clouds 17 1018 55 10000 1 330 18:56 04.02.2020
3152 Clouds 18 1018 55 10000 1 330 18:38 04.02.2020
3153 Clouds 18 1018 55 10000 1 330 18:38 04.02.2020
3154 Clouds 18 1018 55 10000 1.5 330 18:19 04.02.2020
3155 Clouds 18 1018 55 10000 1.5 330 17:43 04.02.2020
3156 Clouds 18 1018 55 10000 1.5 310 17:22 04.02.2020
3157 Clouds 18 1017 55 10000 1.5 280 16:59 04.02.2020
3158 Clouds 19 1017 52 10000 2.1 310 16:38 04.02.2020
3159 Clouds 19 1017 52 10000 2.1 310 16:20 04.02.2020
3160 Clouds 19 1017 52 10000 0.5 0 15:56 04.02.2020
3161 Clouds 19 1017 52 10000 0.5 0 15:38 04.02.2020
3162 Clouds 19 1018 52 10000 3.1 310 15:19 04.02.2020
3163 Clouds 19 1018 52 10000 3.1 320 14:44 04.02.2020
3164 Clouds 19 1018 52 10000 3.1 330 14:23 04.02.2020
3165 Clouds 19 1018 52 10000 2.1 310 13:58 04.02.2020
3166 Clouds 19 1018 52 10000 2.1 310 13:40 04.02.2020
3167 Clouds 19 1018 55 10000 4.1 290 13:21 04.02.2020
3168 Clouds 19 1019 55 10000 3.1 280 12:44 04.02.2020
3169 Clouds 19 1019 55 10000 4.1 290 12:26 04.02.2020
3170 Clouds 18 1019 59 10000 3.6 260 11:58 04.02.2020
3171 Clouds 18 1019 59 10000 3.6 260 11:39 04.02.2020
3172 Clouds 18 1020 63 10000 3.1 260 11:21 04.02.2020
3173 Clouds 17 1020 67 6000 3.6 300 10:59 04.02.2020
3174 Clouds 17 1020 67 6000 3.6 300 10:40 04.02.2020
3175 Clouds 17 1021 67 6000 3.1 250 10:22 04.02.2020
3176 Clouds 16 1021 72 10000 1.5 310 09:41 04.02.2020
3177 Clouds 16 1021 77 10000 1.5 210 09:23 04.02.2020
3178 Clear 15 1021 82 10000 0.5 230 08:56 04.02.2020
3179 Clear 15 1021 82 10000 0.5 230 08:38 04.02.2020
3180 Clear 15 1021 82 10000 0.5 230 08:38 04.02.2020
3181 Clear 15 1021 77 10000 0.49 291 08:20 04.02.2020
3182 Clear 14 1021 82 10000 0.51 325 07:43 04.02.2020
3183 Clear 12 1021 81 10000 0.51 325 07:22 04.02.2020
3184 Clear 11 1021 81 10000 0.51 325 06:43 04.02.2020
3185 Clear 11 1020 81 10000 0.51 325 05:58 04.02.2020
3186 Clear 11 1020 81 10000 0.51 325 05:28 04.02.2020
3187 Clear 11 1020 81 6000 2.6 120 03:52 04.02.2020
3188 Clear 11 1020 76 6000 1.5 120 03:32 04.02.2020
3189 Clear 12 1020 81 6000 2.6 120 02:56 04.02.2020
3190 Clear 12 1021 81 6000 1.5 110 02:32 04.02.2020
3191 Clear 12 1021 76 6000 2.21 43 01:54 04.02.2020
3192 Clear 12 1021 76 6000 1 80 01:35 04.02.2020
3193 Clear 12 1021 76 6000 1.5 90 00:45 04.02.2020
3194 Clear 12 1022 71 6000 0.5 50 00:21 04.02.2020
3195 Clear 13 1022 71 6000 1 360 23:40 03.02.2020
3196 Clear 12 1022 76 10000 1.5 90 23:22 03.02.2020
3197 Clear 13 1022 71 10000 2.6 100 22:40 03.02.2020
3198 Clear 13 1022 71 10000 3.1 90 22:21 03.02.2020
3199 Clear 13 1022 66 10000 3.1 90 21:56 03.02.2020
3200 Clear 13 1022 62 10000 2.6 70 21:37 03.02.2020
3201 Clear 14 1022 62 10000 2.6 70 21:18 03.02.2020
3202 Clear 14 1022 62 10000 3.1 50 20:42 03.02.2020
3203 Clear 15 1022 62 10000 2.6 20 20:19 03.02.2020
3204 Clear 15 1022 62 10000 2.6 20 20:19 03.02.2020
3205 Clear 16 1021 63 10000 3.1 360 19:58 03.02.2020
3206 Clear 16 1021 63 10000 3.1 360 19:40 03.02.2020
3207 Clear 16 1021 59 10000 3.6 360 19:20 03.02.2020
3208 Clear 16 1021 59 10000 3.6 360 18:56 03.02.2020
3209 Clear 16 1021 55 10000 4.6 360 18:37 03.02.2020
3210 Clear 17 1021 55 10000 4.6 360 18:18 03.02.2020
3211 Clear 17 1021 51 10000 4.1 360 17:40 03.02.2020
3212 Clouds 17 1021 51 10000 4.6 350 17:20 03.02.2020
3213 Clouds 17 1020 48 10000 4.6 360 16:59 03.02.2020
3214 Clouds 17 1020 48 10000 4.6 360 16:39 03.02.2020
3215 Clouds 17 1020 48 10000 4.6 320 16:20 03.02.2020
3216 Clouds 18 1020 48 10000 4.6 350 15:56 03.02.2020
3217 Clouds 18 1020 48 10000 4.6 350 15:37 03.02.2020
3218 Clouds 18 1020 45 10000 6.2 360 15:19 03.02.2020
3219 Clouds 18 1020 48 10000 4.1 340 14:42 03.02.2020
3220 Clouds 18 1020 48 10000 4.1 340 14:24 03.02.2020
3221 Clouds 18 1020 48 10000 4.1 340 14:24 03.02.2020
3222 Clouds 17 1020 51 10000 4.6 340 13:57 03.02.2020
3223 Clouds 18 1020 48 10000 5.1 340 13:39 03.02.2020
3224 Clouds 18 1020 48 10000 5.1 340 13:19 03.02.2020
3225 Clouds 18 1021 48 10000 4.6 10 12:56 03.02.2020
3226 Clouds 17 1021 55 10000 4.1 350 12:36 03.02.2020
3227 Clouds 17 1021 55 10000 4.1 350 12:18 03.02.2020
3228 Clouds 17 1022 55 10000 4.6 340 11:39 03.02.2020
3229 Clouds 17 1022 55 10000 4.6 340 11:19 03.02.2020
3230 Clouds 17 1022 55 10000 4.1 340 10:57 03.02.2020
3231 Clouds 17 1022 55 10000 4.1 340 10:38 03.02.2020
3232 Clouds 16 1023 63 10000 3.6 10 10:20 03.02.2020
3233 Clouds 16 1023 67 10000 3.6 50 09:39 03.02.2020
3234 Clouds 15 1023 77 10000 3.6 50 09:20 03.02.2020
3235 Clouds 14 1023 82 10000 2.6 40 08:41 03.02.2020
3236 Clouds 13 1023 82 10000 2.1 30 08:23 03.02.2020
3237 Clouds 13 1023 82 10000 1.5 350 07:57 03.02.2020
3238 Clouds 13 1023 82 10000 1.5 350 07:39 03.02.2020
3239 Clouds 11 1022 81 10000 2.1 90 07:20 03.02.2020
3240 Clouds 11 1022 81 10000 2.1 90 06:42 03.02.2020
3241 Clouds 10 1022 87 10000 3.6 90 06:24 03.02.2020
3242 Clouds 10 1022 76 10000 3.1 100 05:35 03.02.2020
3243 Clear 10 1022 76 10000 2.1 80 04:50 03.02.2020
3244 Clear 10 1022 76 10000 1 80 02:58 03.02.2020
3245 Clear 10 1022 71 10000 2.6 80 02:33 03.02.2020
3246 Clear 11 1022 71 10000 2.6 80 01:25 03.02.2020
3247 Clear 11 1022 71 10000 2.1 80 00:45 03.02.2020
3248 Clear 13 1023 66 10000 2.1 20 00:21 03.02.2020
3249 Clear 13 1023 66 10000 2.1 20 23:38 02.02.2020
3250 Clear 13 1023 66 10000 1.5 40 23:20 02.02.2020
3251 Clear 13 1023 66 10000 1.5 60 22:57 02.02.2020
3252 Clear 13 1023 66 10000 2.6 50 22:37 02.02.2020
3253 Clear 13 1023 66 10000 2.6 50 22:19 02.02.2020
3254 Clear 14 1023 58 10000 4.1 40 21:42 02.02.2020
3255 Clear 14 1023 58 10000 4.1 40 21:24 02.02.2020
3256 Clear 14 1023 58 10000 2.1 60 20:58 02.02.2020
3257 Clear 14 1023 58 10000 2.1 60 20:39 02.02.2020
3258 Clear 14 1023 58 10000 2.1 60 20:21 02.02.2020
3259 Clear 15 1023 55 10000 4.1 10 19:59 02.02.2020
3260 Clear 16 1023 55 10000 4.1 10 19:41 02.02.2020
3261 Clear 16 1023 55 10000 4.1 10 19:23 02.02.2020
3262 Clear 16 1023 55 10000 4.6 360 18:58 02.02.2020
3263 Clear 16 1023 51 10000 4.6 360 18:38 02.02.2020
3264 Clear 17 1023 51 10000 4.6 360 18:20 02.02.2020
3265 Clear 17 1023 48 10000 5.1 350 17:58 02.02.2020
3266 Clear 17 1023 48 10000 5.1 350 17:38 02.02.2020
3267 Clear 17 1023 48 10000 5.1 350 17:38 02.02.2020
3268 Clear 17 1023 48 10000 5.1 350 17:38 02.02.2020
3269 Clear 17 1022 48 10000 5.1 350 17:18 02.02.2020
3270 Clear 17 1022 45 10000 4.6 340 16:58 02.02.2020
3271 Clear 18 1022 45 10000 4.6 340 16:39 02.02.2020
3272 Clear 18 1022 45 10000 4.6 340 16:39 02.02.2020
3273 Clear 18 1022 45 10000 4.6 340 16:19 02.02.2020
3274 Clear 18 1021 45 10000 3.6 360 15:57 02.02.2020
3275 Clear 18 1021 45 10000 3.6 360 15:38 02.02.2020
3276 Clear 18 1021 45 10000 3.6 360 15:19 02.02.2020
3277 Clear 19 1021 42 10000 4.1 10 14:54 02.02.2020
3278 Clear 19 1021 42 10000 4.1 10 14:36 02.02.2020
3279 Clear 19 1021 42 10000 4.1 10 14:18 02.02.2020
3280 Clear 18 1022 45 10000 3.1 10 13:54 02.02.2020
3281 Clear 18 1022 45 10000 3.1 10 13:36 02.02.2020
3282 Clear 18 1022 45 10000 3.1 10 13:18 02.02.2020
3283 Clear 18 1022 45 10000 1.5 10 12:40 02.02.2020
3284 Clear 18 1022 45 10000 1.5 10 12:22 02.02.2020
3285 Clear 17 1023 48 10000 1.5 70 11:54 02.02.2020
3286 Clear 17 1023 48 10000 1.5 70 11:36 02.02.2020
3287 Clear 17 1023 48 6000 1.5 70 11:18 02.02.2020
3288 Haze 16 1023 55 4000 2.6 360 10:54 02.02.2020
3289 Haze 16 1023 55 4000 2.6 360 10:36 02.02.2020
3290 Haze 16 1023 55 4000 2.6 360 10:36 02.02.2020
3291 Haze 16 1023 55 4000 2.6 360 10:18 02.02.2020
3292 Haze 16 1024 55 2000 2.1 40 09:40 02.02.2020
3293 Haze 16 1024 55 2000 2.1 40 09:21 02.02.2020
3294 Haze 15 1024 67 2000 3.17 55 08:56 02.02.2020
3295 Haze 15 1024 67 2000 3.45 46 08:37 02.02.2020
3296 Haze 15 1024 67 2000 2.93 70 08:19 02.02.2020
3297 Haze 14 1024 71 4000 2.93 70 07:44 02.02.2020
3298 Haze 13 1023 71 4000 2.93 70 07:25 02.02.2020
3299 Haze 9 1023 76 4000 2.93 70 06:38 02.02.2020
3300 Haze 9 1023 76 4000 2.93 70 06:18 02.02.2020
3301 Haze 9 1022 70 4000 2.14 50 05:23 02.02.2020
3302 Haze 12 1022 76 4000 2.14 50 04:30 02.02.2020
3303 Haze 11 1022 71 4000 1.5 110 03:24 02.02.2020
3304 Haze 12 1023 66 4000 2.14 50 02:22 02.02.2020
3305 Haze 13 1023 66 4000 2.35 52 01:51 02.02.2020
3306 Haze 13 1023 66 4000 2.16 54 01:19 02.02.2020
3307 Haze 13 1023 66 4000 2.16 54 00:39 02.02.2020
3308 Haze 13 1023 66 4000 2.16 54 00:18 02.02.2020
3309 Haze 14 1023 67 4000 2.1 330 23:43 01.02.2020
3310 Clouds 14 1023 67 6000 2.1 330 23:21 01.02.2020
3311 Clouds 14 1023 67 6000 2.1 330 22:45 01.02.2020
3312 Clouds 14 1023 67 6000 2.1 330 22:19 01.02.2020
3313 Clouds 14 1023 67 6000 2.1 330 22:19 01.02.2020
3314 Clouds 15 1023 62 6000 2.1 330 21:44 01.02.2020
3315 Clouds 15 1023 62 6000 2.1 330 21:20 01.02.2020
3316 Clouds 16 1023 59 6000 2.1 330 20:57 01.02.2020
3317 Clouds 16 1023 59 6000 2.1 330 20:39 01.02.2020
3318 Clouds 16 1023 51 6000 2.1 330 20:20 01.02.2020
3319 Clouds 16 1023 51 6000 2.1 330 19:56 01.02.2020
3320 Clouds 16 1023 51 6000 2.1 330 19:38 01.02.2020
3321 Clouds 17 1022 45 6000 2.1 330 19:19 01.02.2020
3322 Clouds 17 1022 45 10000 3.1 310 18:57 01.02.2020
3323 Clouds 17 1022 45 10000 3.1 310 18:38 01.02.2020
3324 Clouds 17 1022 45 10000 3.1 310 18:19 01.02.2020
3325 Clouds 17 1022 45 10000 3.1 310 17:55 01.02.2020
3326 Clouds 17 1022 45 10000 3.1 310 17:37 01.02.2020
3327 Clouds 17 1021 45 10000 3.1 310 17:19 01.02.2020
3328 Clouds 17 1021 45 10000 2.6 310 16:42 01.02.2020
3329 Clouds 18 1021 42 10000 3.6 310 16:23 01.02.2020
3330 Clouds 18 1021 42 10000 3.6 290 15:56 01.02.2020
3331 Clouds 18 1021 42 10000 4.6 300 15:38 01.02.2020
3332 Clouds 18 1021 42 10000 4.6 300 15:18 01.02.2020
3333 Clouds 18 1021 42 10000 4.6 300 15:18 01.02.2020
3334 Clouds 19 1021 42 10000 3.6 290 14:40 01.02.2020
3335 Clouds 18 1021 45 10000 4.6 330 14:21 01.02.2020
3336 Clouds 18 1022 45 10000 4.1 310 13:45 01.02.2020
3337 Clouds 17 1022 45 10000 3.6 310 13:24 01.02.2020
3338 Clouds 18 1022 45 10000 4.1 290 12:57 01.02.2020
3339 Clouds 18 1022 45 10000 4.1 290 12:39 01.02.2020
3340 Clouds 18 1022 45 10000 3.6 280 12:21 01.02.2020
3341 Clouds 18 1022 45 10000 2.1 290 11:42 01.02.2020
3342 Clouds 17 1023 48 10000 4.1 310 11:23 01.02.2020
3343 Clouds 17 1023 48 10000 4.1 310 10:59 01.02.2020
3344 Clouds 17 1023 48 10000 4.1 310 10:40 01.02.2020
3345 Clouds 17 1023 51 10000 2.1 300 10:22 01.02.2020
3346 Clear 16 1023 55 10000 2.1 280 09:59 01.02.2020
3347 Clear 16 1023 55 10000 2.1 280 09:40 01.02.2020
3348 Clear 16 1023 55 10000 1.5 320 09:21 01.02.2020
3349 Clear 15 1023 58 10000 1 230 08:52 01.02.2020
3350 Clear 13 1023 62 10000 2.1 150 07:56 01.02.2020
3351 Clear 12 1023 62 10000 2.1 150 07:37 01.02.2020
3352 Clear 11 1023 62 10000 2.1 150 07:19 01.02.2020
3353 Clear 10 1022 66 10000 0.84 17 06:42 01.02.2020
3354 Clear 10 1022 61 10000 2.1 140 05:53 01.02.2020
3355 Clear 10 1022 61 10000 2.1 110 04:22 01.02.2020
3356 Clear 10 1022 61 10000 2.6 100 03:25 01.02.2020
3357 Clear 10 1022 61 10000 2.6 100 02:50 01.02.2020
3358 Clear 9 1022 61 10000 2.6 80 02:30 01.02.2020
3359 Clear 9 1022 61 10000 2.1 80 01:59 01.02.2020
3360 Clear 9 1022 61 10000 2.1 80 01:38 01.02.2020
3361 Clear 11 1022 57 10000 2.1 80 00:46 01.02.2020
3362 Clear 10 1022 61 10000 2.1 90 00:23 01.02.2020
3363 Clear 11 1022 57 10000 2.1 90 23:39 31.01.2020
3364 Clear 11 1022 57 10000 2.1 90 23:18 31.01.2020
3365 Clear 11 1022 57 10000 2.1 90 22:55 31.01.2020
3366 Clear 11 1022 54 10000 2.1 20 22:37 31.01.2020
3367 Clear 12 1022 54 10000 2.1 20 22:19 31.01.2020
3368 Clouds 13 1022 54 6000 2.6 10 21:39 31.01.2020
3369 Clouds 13 1022 54 6000 2.6 10 21:21 31.01.2020
3370 Clouds 13 1022 54 6000 2.6 10 21:21 31.01.2020
3371 Clouds 14 1022 50 6000 2.6 360 20:57 31.01.2020
3372 Clouds 14 1022 50 6000 2.6 360 20:39 31.01.2020
3373 Clouds 14 1022 50 6000 2.6 360 20:21 31.01.2020
3374 Clouds 15 1022 47 10000 2.6 360 19:57 31.01.2020
3375 Clouds 15 1022 47 10000 3.6 350 19:38 31.01.2020
3376 Clouds 15 1022 47 10000 3.6 350 19:38 31.01.2020
3377 Clouds 15 1022 47 10000 3.6 350 19:19 31.01.2020
3378 Clouds 16 1022 41 10000 4.1 350 18:54 31.01.2020
3379 Clouds 16 1021 41 10000 4.6 350 18:36 31.01.2020
3380 Clouds 16 1021 41 10000 4.6 350 18:18 31.01.2020
3381 Clouds 16 1021 41 10000 4.1 340 17:40 31.01.2020
3382 Clouds 16 1021 41 10000 4.1 340 17:40 31.01.2020
3383 Clouds 17 1020 39 10000 5.1 340 17:21 31.01.2020
3384 Clouds 18 1020 39 10000 5.7 340 16:56 31.01.2020
3385 Clouds 18 1020 39 10000 5.7 340 16:56 31.01.2020
3386 Clouds 18 1020 39 10000 5.7 340 16:38 31.01.2020
3387 Clouds 18 1020 39 10000 5.7 340 16:19 31.01.2020
3388 Clouds 19 1020 39 10000 5.1 320 15:57 31.01.2020
3389 Clouds 19 1020 39 10000 5.1 320 15:38 31.01.2020
3390 Clouds 19 1020 39 10000 5.1 320 15:38 31.01.2020
3391 Clouds 19 1020 39 10000 5.1 320 15:19 31.01.2020
3392 Clouds 19 1020 42 10000 6.2 330 14:42 31.01.2020
3393 Clouds 19 1020 42 10000 6.2 330 14:23 31.01.2020
3394 Clouds 18 1020 55 10000 4.6 10 13:53 31.01.2020
3395 Clouds 18 1020 55 10000 4.6 10 13:33 31.01.2020
3396 Clouds 17 1020 59 10000 3.6 350 12:58 31.01.2020
3397 Clouds 17 1020 59 10000 3.6 350 12:39 31.01.2020
3398 Clouds 17 1020 59 10000 3.6 350 12:21 31.01.2020
3399 Clouds 18 1021 55 6000 3.1 310 11:44 31.01.2020
3400 Clouds 18 1021 55 6000 3.1 310 11:26 31.01.2020
3401 Clouds 18 1021 55 6000 3.1 310 10:59 31.01.2020
3402 Clouds 18 1021 55 6000 3.1 310 10:41 31.01.2020
3403 Clouds 17 1022 55 6000 3.1 240 10:21 31.01.2020
3404 Clouds 16 1022 59 6000 2.6 240 09:56 31.01.2020
3405 Clouds 16 1022 59 6000 2.6 240 09:38 31.01.2020
3406 Clouds 15 1022 58 6000 3.1 250 09:18 31.01.2020
3407 Clouds 15 1022 58 6000 3.6 240 08:50 31.01.2020
3408 Clouds 15 1022 58 6000 3.6 240 08:50 31.01.2020
3409 Clouds 14 1022 54 6000 3.6 210 08:25 31.01.2020
3410 Clouds 14 1022 54 6000 3.6 200 07:53 31.01.2020
3411 Clouds 12 1021 58 6000 3.6 200 07:24 31.01.2020
3412 Clear 12 1021 54 6000 4.1 200 06:43 31.01.2020
3413 Clear 11 1021 53 6000 3.1 190 06:18 31.01.2020
3414 Clear 11 1021 50 6000 3.6 170 05:43 31.01.2020
3415 Clear 11 1020 50 6000 3.1 190 04:54 31.01.2020
3416 Clear 13 1020 50 6000 4.1 180 02:58 31.01.2020
3417 Clear 13 1020 50 6000 4.6 180 01:38 31.01.2020
3418 Clear 12 1020 54 6000 3.6 170 00:45 31.01.2020
3419 Clear 12 1020 54 6000 3.1 170 00:26 31.01.2020
3420 Clear 12 1020 54 6000 3.1 170 23:53 30.01.2020
3421 Clear 12 1020 54 6000 3.6 160 23:24 30.01.2020
3422 Clear 12 1021 54 6000 3.6 160 22:57 30.01.2020
3423 Clear 13 1021 50 6000 1.5 160 22:36 30.01.2020
3424 Clear 13 1021 50 6000 1.5 160 22:18 30.01.2020
3425 Clear 13 1021 50 6000 1.5 170 21:55 30.01.2020
3426 Clear 14 1021 47 6000 1 320 21:37 30.01.2020
3427 Clear 14 1021 47 6000 1 320 21:18 30.01.2020
3428 Clear 15 1021 47 6000 2.1 330 20:40 30.01.2020
3429 Clear 16 1021 41 6000 2.6 330 20:22 30.01.2020
3430 Clear 16 1021 41 6000 2.6 330 20:22 30.01.2020
3431 Clear 16 1021 41 6000 3.1 320 19:56 30.01.2020
3432 Clear 17 1021 36 6000 3.6 280 19:38 30.01.2020
3433 Clear 17 1021 36 6000 3.6 280 19:18 30.01.2020
3434 Clear 17 1021 36 10000 3.6 290 18:41 30.01.2020
3435 Clear 17 1020 36 10000 3.1 290 18:22 30.01.2020
3436 Clear 17 1020 36 10000 4.1 280 17:58 30.01.2020
3437 Clear 17 1020 36 10000 4.1 280 17:39 30.01.2020
3438 Clouds 18 1020 36 10000 3.1 290 17:19 30.01.2020
3439 Clouds 18 1020 36 10000 3.1 290 17:19 30.01.2020
3440 Clouds 18 1020 36 10000 4.1 310 16:56 30.01.2020
3441 Clouds 18 1020 36 10000 3.6 320 16:38 30.01.2020
3442 Clouds 18 1020 36 10000 3.6 320 16:20 30.01.2020
3443 Clouds 18 1020 34 10000 4.6 310 15:43 30.01.2020
3444 Clouds 19 1020 34 10000 4.6 310 15:20 30.01.2020
3445 Clouds 19 1020 37 10000 4.1 310 14:50 30.01.2020
3446 Clouds 19 1020 37 10000 4.1 290 14:27 30.01.2020
3447 Clouds 19 1020 34 10000 4.6 260 13:58 30.01.2020
3448 Clouds 19 1020 34 10000 4.6 260 13:58 30.01.2020
3449 Clouds 19 1020 34 10000 4.6 260 13:38 30.01.2020
3450 Clouds 19 1020 34 10000 5.7 270 13:20 30.01.2020
3451 Clouds 18 1021 39 10000 4.6 320 12:43 30.01.2020
3452 Clouds 18 1021 36 10000 5.1 280 12:25 30.01.2020
3453 Clouds 19 1022 37 10000 3.1 310 11:59 30.01.2020
3454 Clouds 19 1022 37 10000 3.1 310 11:40 30.01.2020
3455 Clouds 18 1022 39 10000 4.1 290 11:21 30.01.2020
3456 Clouds 17 1023 45 10000 4.1 310 10:57 30.01.2020
3457 Clouds 17 1023 45 10000 4.1 310 10:38 30.01.2020
3458 Clear 17 1023 45 6000 4.1 310 10:19 30.01.2020
3459 Clear 17 1023 59 6000 2.6 310 09:43 30.01.2020
3460 Clear 17 1023 59 6000 2.6 310 09:22 30.01.2020
3461 Clear 15 1023 77 6000 2.12 270 08:42 30.01.2020
3462 Clear 15 1023 77 6000 1.11 125 08:22 30.01.2020
3463 Clear 13 1023 82 6000 2.1 180 07:53 30.01.2020
3464 Clear 13 1023 82 6000 2.1 180 07:35 30.01.2020
3465 Mist 11 1023 81 3000 2.1 150 06:49 30.01.2020
3466 Mist 11 1023 81 3000 2.1 150 06:31 30.01.2020
3467 Mist 11 1023 81 3000 1.5 140 05:47 30.01.2020
3468 Mist 11 1023 81 3000 1.5 140 05:27 30.01.2020
3469 Mist 13 1023 76 3000 1.6 91 04:40 30.01.2020
3470 Clear 13 1023 76 6000 1.6 91 03:47 30.01.2020
3471 Clear 13 1023 76 6000 1.6 91 02:54 30.01.2020
3472 Clear 15 1024 67 6000 1.89 52 00:57 30.01.2020
3473 Clear 15 1024 67 6000 1.89 52 00:27 30.01.2020
3474 Clear 15 1024 67 6000 1 100 23:55 29.01.2020
3475 Clear 15 1024 67 6000 1 100 23:37 29.01.2020
3476 Clouds 15 1024 67 6000 1 100 23:19 29.01.2020
3477 Clouds 16 1024 63 6000 2.1 340 22:54 29.01.2020
3478 Clouds 16 1024 63 6000 4.6 340 22:36 29.01.2020
3479 Clouds 16 1024 63 6000 4.6 340 22:18 29.01.2020
3480 Clouds 16 1024 63 6000 4.6 340 21:54 29.01.2020
3481 Clouds 16 1024 63 6000 4.6 340 21:36 29.01.2020
3482 Clouds 16 1024 63 6000 4.6 340 21:18 29.01.2020
3483 Clouds 17 1024 59 6000 4.6 340 20:40 29.01.2020
3484 Clear 17 1024 59 6000 4.6 340 20:21 29.01.2020
3485 Clear 17 1024 59 6000 4.6 340 20:21 29.01.2020
3486 Clear 17 1023 51 6000 1.5 10 19:58 29.01.2020
3487 Clear 17 1023 51 6000 1.5 10 19:38 29.01.2020
3488 Clear 17 1023 51 6000 1.5 10 19:38 29.01.2020
3489 Clear 17 1023 51 6000 1.5 10 19:20 29.01.2020
3490 Clouds 16 1023 51 6000 2.1 20 18:58 29.01.2020
3491 Clouds 16 1022 48 6000 2.1 20 18:37 29.01.2020
3492 Clouds 17 1022 48 6000 2.1 20 18:18 29.01.2020
3493 Clouds 18 1022 48 6000 2.6 330 17:41 29.01.2020
3494 Clouds 18 1022 48 6000 2.6 330 17:22 29.01.2020
3495 Clouds 18 1022 48 6000 3.6 320 16:54 29.01.2020
3496 Clouds 18 1022 48 6000 3.6 320 16:36 29.01.2020
3497 Clouds 18 1021 48 6000 4.1 300 16:18 29.01.2020
3498 Clouds 18 1021 48 6000 4.1 300 15:39 29.01.2020
3499 Clouds 18 1021 48 6000 4.1 300 15:21 29.01.2020
3500 Clouds 18 1021 48 6000 4.1 300 15:21 29.01.2020
3501 Clouds 18 1021 48 6000 3.1 300 14:46 29.01.2020
3502 Clouds 18 1021 48 6000 3.1 300 14:23 29.01.2020
3503 Haze 18 1021 48 3000 4.1 280 13:57 29.01.2020
3504 Haze 18 1021 48 3000 4.1 280 13:57 29.01.2020
3505 Haze 18 1021 48 3000 4.1 280 13:39 29.01.2020
3506 Haze 18 1021 48 2000 4.1 280 13:21 29.01.2020
3507 Haze 18 1022 52 2000 3.6 250 12:56 29.01.2020
3508 Haze 18 1022 52 2000 3.6 250 12:37 29.01.2020
3509 Haze 18 1022 52 2000 3.6 250 12:19 29.01.2020
3510 Haze 17 1022 59 2000 2.6 250 11:47 29.01.2020
3511 Haze 17 1022 59 2000 2.6 250 11:24 29.01.2020
3512 Haze 16 1023 59 2000 2.1 240 10:54 29.01.2020
3513 Haze 16 1023 59 2000 2.1 240 10:36 29.01.2020
3514 Haze 16 1023 59 2000 2.1 240 10:36 29.01.2020
3515 Haze 16 1023 67 4000 3.1 240 10:18 29.01.2020
3516 Mist 15 1023 72 4000 2.6 210 09:40 29.01.2020
3517 Mist 15 1023 72 4000 2.6 210 09:21 29.01.2020
3518 Mist 14 1023 76 4000 3.1 200 08:57 29.01.2020
3519 Mist 13 1023 82 4000 2.1 220 08:38 29.01.2020
3520 Mist 13 1023 82 4000 2.1 220 08:20 29.01.2020
3521 Mist 13 1023 76 4000 2.1 210 07:44 29.01.2020
3522 Mist 12 1022 76 4000 1.5 200 07:24 29.01.2020
3523 Haze 10 1022 76 4000 2.6 170 06:54 29.01.2020
3524 Haze 10 1022 76 4000 1.5 190 06:36 29.01.2020
3525 Haze 10 1022 76 4000 1.5 190 06:18 29.01.2020
3526 Haze 11 1022 76 4000 2.1 240 05:43 29.01.2020
3527 Haze 11 1021 76 4000 2.6 220 05:25 29.01.2020
3528 Haze 11 1021 76 4000 2.6 220 04:37 29.01.2020
3529 Haze 12 1021 66 4000 1.5 220 02:43 29.01.2020
3530 Haze 12 1021 62 4000 2.1 200 02:18 29.01.2020
3531 Haze 12 1021 62 4000 2.1 210 00:43 29.01.2020
3532 Haze 13 1021 62 4000 2.6 210 00:24 29.01.2020
3533 Haze 12 1021 66 4000 2.6 210 23:56 28.01.2020
3534 Haze 12 1021 62 4000 2.6 180 23:37 28.01.2020
3535 Haze 12 1021 62 4000 2.6 180 23:18 28.01.2020
3536 Clear 12 1021 66 6000 2.6 190 22:40 28.01.2020
3537 Clear 12 1021 62 6000 2.6 180 22:21 28.01.2020
3538 Clear 12 1021 62 6000 3.1 170 21:42 28.01.2020
3539 Clear 12 1021 62 6000 3.1 170 21:42 28.01.2020
3540 Clear 12 1021 62 6000 2.1 180 21:22 28.01.2020
3541 Clear 12 1021 62 6000 2.1 170 20:58 28.01.2020
3542 Clear 12 1021 62 6000 2.1 170 20:40 28.01.2020
3543 Clear 14 1021 54 6000 1.5 150 20:21 28.01.2020
3544 Clear 13 1021 58 6000 2.1 180 19:39 28.01.2020
3545 Clear 14 1020 54 6000 4.81 316 19:20 28.01.2020
3546 Haze 14 1020 54 4000 4.81 316 18:58 28.01.2020
3547 Haze 14 1020 54 4000 4.81 316 18:40 28.01.2020
3548 Haze 16 1020 51 4000 1 350 18:21 28.01.2020
3549 Clear 16 1020 51 6000 2.1 330 17:57 28.01.2020
3550 Clear 16 1020 51 6000 2.1 330 17:37 28.01.2020
3551 Clear 16 1019 51 6000 3.1 330 17:19 28.01.2020
3552 Clouds 16 1019 51 10000 3.6 330 16:55 28.01.2020
3553 Clouds 16 1019 51 10000 3.6 330 16:55 28.01.2020
3554 Clouds 16 1019 51 10000 3.6 330 16:36 28.01.2020
3555 Clouds 17 1019 48 10000 3.1 320 16:18 28.01.2020
3556 Clouds 17 1019 48 10000 3.1 320 15:42 28.01.2020
3557 Clouds 17 1019 48 10000 4.6 310 15:19 28.01.2020
3558 Clear 17 1018 51 10000 3.6 320 14:55 28.01.2020
3559 Clear 17 1018 51 10000 4.1 330 14:36 28.01.2020
3560 Clouds 17 1018 51 10000 4.1 330 14:18 28.01.2020
3561 Clouds 17 1018 51 10000 4.6 310 13:39 28.01.2020
3562 Clouds 17 1018 51 10000 4.1 280 13:21 28.01.2020
3563 Clouds 17 1018 51 10000 4.1 280 13:21 28.01.2020
3564 Clouds 16 1018 59 6000 3.1 280 12:42 28.01.2020
3565 Clouds 16 1019 59 6000 1.5 290 12:24 28.01.2020
3566 Clouds 15 1020 62 6000 4.1 290 11:55 28.01.2020
3567 Clouds 16 1018 44 0 3.94 289 11:37 28.01.2020
3568 Clouds 15 1020 72 0 2.68 300 11:19 28.01.2020
3569 Clouds 14 1020 82 0 1.34 320 10:41 28.01.2020
3570 Mist 14 1020 82 3000 1.5 320 10:22 28.01.2020
3571 Clouds 14 1020 82 0 1.34 320 09:56 28.01.2020
3572 Clouds 14 1020 57 0 2.49 341 09:37 28.01.2020
3573 Mist 13 1020 82 2000 2.49 341 09:19 28.01.2020
3574 Mist 13 1020 82 2000 2.49 341 08:42 28.01.2020
3575 Mist 13 1020 82 2000 2.48 19 08:20 28.01.2020
3576 Mist 11 1020 81 2000 1.5 300 07:38 28.01.2020
3577 Mist 10 1020 81 2000 2.48 19 06:52 28.01.2020
3578 Mist 9 1019 81 4000 3.1 100 06:29 28.01.2020
3579 Mist 10 1020 81 4000 0.5 10 05:56 28.01.2020
3580 Clouds 11 1020 81 6000 1.5 330 05:34 28.01.2020
3581 Clouds 11 1019 81 6000 2.1 330 04:39 28.01.2020
3582 Clouds 10 1019 81 10000 1.5 30 03:41 28.01.2020
3583 Clouds 11 1019 76 10000 2.1 40 02:40 28.01.2020
3584 Clouds 11 1019 76 10000 3.1 80 02:21 28.01.2020
3585 Clouds 11 1020 76 10000 1.5 50 01:48 28.01.2020
3586 Clouds 11 1020 71 10000 2.1 80 00:51 28.01.2020
3587 Clouds 10 1020 71 10000 1.5 70 00:30 28.01.2020
3588 Clouds 10 1020 71 10000 2.1 70 23:59 27.01.2020
3589 Clouds 10 1020 71 10000 2.1 70 23:41 27.01.2020
3590 Clouds 12 1021 66 10000 3.1 30 23:18 27.01.2020
3591 Clouds 11 1021 71 10000 3.6 40 22:44 27.01.2020
3592 Clouds 12 1021 66 10000 3.1 40 22:20 27.01.2020
3593 Clouds 12 1021 66 10000 3.1 50 21:57 27.01.2020
3594 Clouds 12 1021 66 10000 3.1 50 21:38 27.01.2020
3595 Clouds 12 1021 66 10000 3.6 40 21:18 27.01.2020
3596 Clouds 13 1021 62 10000 4.6 40 20:56 27.01.2020
3597 Clouds 13 1021 62 10000 4.6 40 20:37 27.01.2020
3598 Clouds 13 1021 66 10000 4.1 40 20:18 27.01.2020
3599 Clouds 14 1021 58 10000 4.1 40 19:42 27.01.2020
3600 Clouds 14 1021 54 10000 4.6 40 19:23 27.01.2020
3601 Clouds 14 1021 54 10000 4.6 40 18:58 27.01.2020
3602 Clouds 14 1021 54 10000 4.6 40 18:39 27.01.2020
3603 Clouds 15 1021 58 10000 3.6 20 18:20 27.01.2020
3604 Clouds 15 1021 58 10000 3.6 20 18:20 27.01.2020
3605 Clouds 15 1021 58 10000 3.6 20 18:20 27.01.2020
3606 Clouds 16 1021 51 10000 4.1 350 17:57 27.01.2020
3607 Clouds 17 1021 39 10000 5.7 10 17:37 27.01.2020
3608 Clouds 17 1021 39 10000 5.7 10 17:37 27.01.2020
3609 Clouds 17 1021 39 10000 5.7 10 17:18 27.01.2020
3610 Clouds 17 1021 39 10000 5.7 10 16:42 27.01.2020
3611 Clouds 18 1021 34 10000 6.7 30 16:24 27.01.2020
3612 Clouds 19 1021 25 10000 5.1 50 15:56 27.01.2020
3613 Clouds 19 1021 25 10000 5.1 50 15:38 27.01.2020
3614 Clouds 19 1020 25 10000 5.1 60 15:19 27.01.2020
3615 Clouds 19 1020 25 10000 5.1 60 15:19 27.01.2020
3616 Clouds 19 1021 37 10000 5.7 50 14:55 27.01.2020
3617 Clouds 19 1021 37 10000 5.7 50 14:37 27.01.2020
3618 Clouds 19 1021 28 10000 4.6 40 14:18 27.01.2020
3619 Clouds 18 1021 28 10000 5.7 50 13:42 27.01.2020
3620 Clouds 18 1021 34 10000 6.2 40 13:21 27.01.2020
3621 Clouds 18 1021 31 10000 7.7 60 12:56 27.01.2020
3622 Clouds 18 1021 31 10000 7.7 60 12:38 27.01.2020
3623 Clouds 17 1022 39 10000 7.2 50 12:20 27.01.2020
3624 Clouds 17 1023 36 10000 6.7 60 11:42 27.01.2020
3625 Clouds 16 1023 44 10000 8.2 60 11:21 27.01.2020
3626 Clouds 16 1023 44 10000 8.2 60 11:21 27.01.2020
3627 Clouds 16 1023 48 10000 8.7 60 10:55 27.01.2020
3628 Clouds 15 1024 51 10000 8.7 60 10:36 27.01.2020
3629 Clouds 15 1024 51 10000 8.7 60 10:18 27.01.2020
3630 Clouds 14 1024 54 10000 9.8 60 09:39 27.01.2020
3631 Clouds 13 1025 58 10000 8.7 60 09:19 27.01.2020
3632 Clouds 13 1025 58 6000 8.2 60 08:48 27.01.2020
3633 Clouds 12 1025 66 6000 6.2 60 08:23 27.01.2020
3634 Clouds 11 1025 71 6000 4.6 70 07:55 27.01.2020
3635 Clouds 11 1025 71 6000 4.6 70 07:36 27.01.2020
3636 Clouds 8 1025 81 6000 3.6 60 07:18 27.01.2020
3637 Clouds 8 1025 75 6000 3.1 30 06:33 27.01.2020
3638 Clouds 8 1025 81 6000 2.6 20 05:38 27.01.2020
3639 Clouds 8 1024 75 6000 4.6 60 04:21 27.01.2020
3640 Clouds 8 1025 75 6000 4.6 60 03:27 27.01.2020
3641 Clouds 8 1025 70 6000 4.1 70 01:47 27.01.2020
3642 Clouds 8 1026 70 6000 4.1 70 01:22 27.01.2020
3643 Clouds 8 1026 70 10000 3.6 40 00:40 27.01.2020
3644 Clouds 9 1027 66 10000 3.6 40 00:21 27.01.2020
3645 Clouds 9 1027 66 10000 3.1 50 23:43 26.01.2020
3646 Clouds 10 1027 61 10000 3.6 70 23:22 26.01.2020
3647 Clouds 10 1027 61 10000 3.1 60 22:58 26.01.2020
3648 Clouds 10 1027 61 10000 3.1 60 22:38 26.01.2020
3649 Clouds 11 1027 62 10000 5.1 60 22:20 26.01.2020
3650 Clouds 11 1027 62 10000 5.1 70 21:57 26.01.2020
3651 Clouds 11 1027 62 10000 5.1 70 21:39 26.01.2020
3652 Clouds 11 1028 62 10000 5.1 50 21:20 26.01.2020
3653 Clouds 11 1028 62 10000 5.1 50 20:58 26.01.2020
3654 Clouds 11 1028 62 10000 5.1 50 20:38 26.01.2020
3655 Clouds 12 1028 58 10000 5.1 50 20:19 26.01.2020
3656 Clouds 12 1028 58 10000 6.2 30 19:58 26.01.2020
3657 Clouds 12 1028 58 10000 6.2 30 19:38 26.01.2020
3658 Clouds 13 1028 58 10000 6.7 20 19:19 26.01.2020
3659 Clouds 14 1028 44 10000 4.6 20 18:56 26.01.2020
3660 Clouds 14 1028 44 10000 4.6 20 18:38 26.01.2020
3661 Clouds 14 1027 44 10000 5.1 30 18:19 26.01.2020
3662 Clouds 14 1027 44 10000 6.2 30 17:55 26.01.2020
3663 Clouds 15 1027 44 10000 6.2 30 17:36 26.01.2020
3664 Clear 15 1027 44 10000 6.2 30 17:18 26.01.2020
3665 Clear 16 1027 38 10000 6.2 40 16:55 26.01.2020
3666 Clear 16 1027 38 10000 6.2 40 16:37 26.01.2020
3667 Clear 16 1027 38 10000 6.2 40 16:18 26.01.2020
3668 Clear 17 1027 36 10000 5.1 20 15:43 26.01.2020
3669 Clear 17 1027 36 10000 5.1 20 15:21 26.01.2020
3670 Clear 17 1027 33 10000 5.7 40 14:55 26.01.2020
3671 Clear 17 1027 33 0 5.36 40 14:37 26.01.2020
3672 Clouds 17 1027 33 0 5.36 40 14:18 26.01.2020
3673 Clouds 16 1027 36 0 6.71 40 13:39 26.01.2020
3674 Clouds 16 1027 38 0 5.81 30 13:18 26.01.2020
3675 Clouds 16 1027 36 0 7.15 30 12:54 26.01.2020
3676 Clouds 16 1027 38 0 6.71 60 12:36 26.01.2020
3677 Clouds 16 1027 38 0 6.71 60 12:18 26.01.2020
3678 Clouds 15 1028 41 0 7.15 50 11:56 26.01.2020
3679 Clouds 15 1028 41 0 7.15 50 11:36 26.01.2020
3680 Clear 15 1028 41 0 7.15 50 11:18 26.01.2020
3681 Clouds 14 1030 47 6000 7.7 50 10:39 26.01.2020
3682 Clouds 14 1030 47 6000 7.7 50 10:21 26.01.2020
3683 Clouds 14 1030 47 6000 7.7 50 09:59 26.01.2020
3684 Clouds 14 1030 47 6000 7.7 50 09:41 26.01.2020
3685 Clouds 13 1030 50 6000 7.7 50 09:23 26.01.2020
3686 Clouds 13 1030 50 6000 6.7 50 08:57 26.01.2020
3687 Clouds 13 1030 50 6000 6.7 50 08:57 26.01.2020
3688 Clouds 13 1030 50 6000 6.7 50 08:38 26.01.2020
3689 Clouds 12 1030 54 6000 4.6 60 08:20 26.01.2020
3690 Clouds 11 1030 57 6000 3.6 60 07:47 26.01.2020
3691 Clouds 8 1029 61 6000 4.1 70 07:22 26.01.2020
3692 Clouds 7 1030 70 6000 1.5 80 06:38 26.01.2020
3693 Clouds 7 1030 70 6000 1.5 80 06:18 26.01.2020
3694 Clouds 6 1029 70 6000 2.1 60 05:26 26.01.2020
3695 Clear 8 1029 61 10000 2.6 90 03:23 26.01.2020
3696 Clear 8 1029 66 10000 3.1 40 02:24 26.01.2020
3697 Clear 8 1029 66 10000 3.1 40 01:40 26.01.2020
3698 Clear 10 1029 53 10000 4.6 90 01:21 26.01.2020
3699 Clear 10 1029 57 10000 4.6 90 00:41 26.01.2020
3700 Clear 9 1030 57 10000 3.6 90 00:20 26.01.2020
3701 Clear 9 1030 57 0 3.58 80 23:38 25.01.2020
3702 Clear 9 1030 57 0 3.58 80 23:20 25.01.2020
3703 Clear 9 1030 57 0 2.24 70 22:44 25.01.2020
3704 Clear 10 1030 53 0 2.24 80 22:21 25.01.2020
3705 Clear 10 1030 53 0 2.24 80 21:59 25.01.2020
3706 Clear 10 1030 53 0 2.24 80 21:41 25.01.2020
3707 Clear 10 1030 53 0 2.68 60 21:22 25.01.2020
3708 Clear 9 1030 57 0 4.27 71 20:56 25.01.2020
3709 Clear 11 1030 53 0 2.68 60 20:38 25.01.2020
3710 Clear 11 1030 53 0 2.68 60 20:19 25.01.2020
3711 Clear 14 1030 47 0 4.92 350 19:43 25.01.2020
3712 Clear 14 1030 47 0 4.92 350 19:20 25.01.2020
3713 Clear 14 1030 47 0 4.92 350 18:57 25.01.2020
3714 Clear 14 1030 47 0 4.92 350 18:38 25.01.2020
3715 Clear 14 1030 47 0 4.92 350 18:20 25.01.2020
3716 Clear 14 1030 47 0 4.92 350 17:40 25.01.2020
3717 Clear 15 1029 41 0 4.92 360 17:21 25.01.2020
3718 Clear 15 1029 41 0 4.92 360 16:58 25.01.2020
3719 Clear 15 1029 41 0 4.92 350 16:39 25.01.2020
3720 Clear 15 1029 41 0 4.92 350 16:19 25.01.2020
3721 Clear 16 1029 36 0 4.92 360 15:47 25.01.2020
3722 Clear 16 1029 36 0 4.02 30 15:25 25.01.2020
3723 Clear 16 1029 36 0 4.02 30 14:59 25.01.2020
3724 Clear 16 1029 41 0 4.47 30 14:41 25.01.2020
3725 Clear 16 1029 38 0 4.47 30 14:18 25.01.2020
3726 Clear 16 1029 38 0 4.47 10 13:43 25.01.2020
3727 Clear 15 1029 38 0 3.58 50 13:23 25.01.2020
3728 Clear 15 1030 38 8000 4.1 20 12:46 25.01.2020
3729 Clear 15 1030 38 8000 4.1 20 12:26 25.01.2020
3730 Clear 15 1030 38 8000 4.1 20 11:46 25.01.2020
3731 Clear 15 1030 38 8000 5.1 340 11:22 25.01.2020
3732 Clear 14 1031 44 8000 3.1 10 10:59 25.01.2020
3733 Clear 14 1031 44 8000 3.1 10 10:40 25.01.2020
3734 Clear 13 1031 47 8000 3.1 10 10:21 25.01.2020
3735 Clear 13 1031 50 6000 2.6 360 09:57 25.01.2020
3736 Clear 13 1031 50 6000 2.6 360 09:37 25.01.2020
3737 Clear 13 1031 50 6000 1 40 09:18 25.01.2020
3738 Clear 12 1030 54 6000 1.5 290 08:42 25.01.2020
3739 Clear 10 1030 61 6000 1 220 07:51 25.01.2020
3740 Clear 8 1029 61 6000 1.5 170 06:57 25.01.2020
3741 Clear 7 1029 63 6000 1.72 38 06:31 25.01.2020
3742 Clear 7 1028 56 6000 1.72 38 05:48 25.01.2020
3743 Clear 7 1028 56 6000 1.72 38 05:28 25.01.2020
3744 Clouds 8 1027 52 10000 2.62 29 03:54 25.01.2020
3745 Clouds 7 1027 52 10000 2.62 29 03:23 25.01.2020
3746 Clouds 8 1027 52 10000 1.5 80 02:23 25.01.2020
3747 Clouds 8 1027 61 10000 2.33 23 01:53 25.01.2020
3748 Clouds 8 1027 61 10000 2.6 90 00:52 25.01.2020
3749 Clouds 9 1027 57 10000 2.6 90 00:26 25.01.2020
3750 Clouds 9 1027 57 10000 2.6 90 00:26 25.01.2020
3751 Clouds 9 1027 57 10000 3.1 70 23:59 24.01.2020
3752 Clouds 9 1027 57 10000 3.1 70 23:59 24.01.2020
3753 Clouds 9 1027 57 10000 3.1 70 23:41 24.01.2020
3754 Clouds 9 1027 57 10000 3.1 70 23:41 24.01.2020
3755 Clouds 9 1027 57 10000 3.1 70 23:23 24.01.2020
3756 Clouds 9 1027 54 10000 1.5 60 22:46 24.01.2020
3757 Clouds 9 1027 54 10000 1.5 60 22:46 24.01.2020
3758 Clouds 10 1027 53 10000 3.6 10 22:25 24.01.2020
3759 Clouds 10 1027 57 10000 3.6 360 21:57 24.01.2020
3760 Clouds 10 1027 57 10000 3.6 360 21:39 24.01.2020
3761 Clouds 11 1027 53 10000 3.6 350 21:18 24.01.2020
3762 Clouds 11 1027 53 10000 4.1 350 20:43 24.01.2020
3763 Clouds 12 1027 50 10000 4.6 340 20:21 24.01.2020
3764 Clouds 12 1026 46 10000 6.2 340 19:58 24.01.2020
3765 Clouds 12 1026 46 10000 6.2 340 19:39 24.01.2020
3766 Clouds 12 1026 46 10000 6.2 340 19:21 24.01.2020
3767 Clouds 13 1026 47 10000 5.7 340 18:44 24.01.2020
3768 Clouds 13 1026 47 10000 4.6 320 18:25 24.01.2020
3769 Clouds 14 1025 44 10000 5.1 320 17:56 24.01.2020
3770 Clouds 14 1025 44 10000 5.1 320 17:56 24.01.2020
3771 Clouds 14 1025 44 10000 5.1 320 17:38 24.01.2020
3772 Clouds 14 1025 44 10000 5.1 310 17:20 24.01.2020
3773 Clouds 15 1024 38 10000 5.1 320 16:39 24.01.2020
3774 Clouds 15 1024 38 10000 5.1 320 16:21 24.01.2020
3775 Clouds 15 1024 38 10000 6.2 320 15:56 24.01.2020
3776 Clouds 15 1024 38 10000 6.2 320 15:38 24.01.2020
3777 Clouds 15 1024 38 10000 6.2 320 15:19 24.01.2020
3778 Clouds 16 1024 36 6000 6.2 320 14:41 24.01.2020
3779 Clouds 16 1024 36 6000 6.2 320 14:22 24.01.2020
3780 Clouds 16 1023 38 6000 7.2 340 13:45 24.01.2020
3781 Clouds 16 1023 38 6000 7.2 340 13:24 24.01.2020
3782 Clouds 16 1023 44 6000 7.7 330 12:55 24.01.2020
3783 Clouds 16 1023 44 6000 7.7 330 12:36 24.01.2020
3784 Clouds 16 1023 44 6000 7.7 330 12:18 24.01.2020
3785 Clouds 16 1023 51 6000 6.2 330 11:42 24.01.2020
3786 Clouds 16 1023 51 6000 6.2 330 11:19 24.01.2020
3787 Clouds 15 1023 54 6000 6.2 320 10:43 24.01.2020
3788 Clouds 15 1023 54 6000 6.2 300 10:22 24.01.2020
3789 Clouds 15 1023 54 6000 6.7 300 09:56 24.01.2020
3790 Clouds 15 1023 54 0 6.71 300 09:38 24.01.2020
3791 Clouds 15 1023 54 0 6.71 300 09:38 24.01.2020
3792 Clouds 14 1022 62 0 4.47 280 09:20 24.01.2020
3793 Clouds 14 1023 52 0 7.04 323 08:40 24.01.2020
3794 Clouds 13 1022 66 6000 4.1 250 08:19 24.01.2020
3795 Clouds 13 1022 66 6000 4.1 250 07:50 24.01.2020
3796 Clouds 13 1022 66 6000 4.1 250 07:28 24.01.2020
3797 Clouds 12 1021 71 6000 5.7 240 06:48 24.01.2020
3798 Clouds 12 1021 71 10000 5.7 240 06:29 24.01.2020
3799 Clouds 12 1021 71 10000 5.7 240 05:58 24.01.2020
3800 Clouds 12 1020 71 10000 5.7 240 04:54 24.01.2020
3801 Clouds 13 1021 66 10000 5.7 240 02:53 24.01.2020
3802 Clouds 12 1021 66 10000 5.7 230 02:24 24.01.2020
3803 Clouds 13 1021 58 10000 5.1 230 01:45 24.01.2020
3804 Clouds 12 1021 62 10000 5.1 230 01:26 24.01.2020
3805 Clouds 12 1022 58 10000 4.6 210 00:23 24.01.2020
3806 Clouds 12 1022 58 10000 5.1 210 23:49 23.01.2020
3807 Clouds 12 1023 50 10000 4.1 240 23:31 23.01.2020
3808 Clouds 13 1023 50 10000 5.1 250 22:59 23.01.2020
3809 Clouds 13 1023 50 10000 5.1 250 22:38 23.01.2020
3810 Clouds 13 1023 50 10000 5.1 250 22:38 23.01.2020
3811 Clouds 14 1023 47 10000 5.1 240 22:19 23.01.2020
3812 Clouds 14 1022 47 10000 4.6 240 21:57 23.01.2020
3813 Clouds 14 1022 47 10000 5.1 240 21:39 23.01.2020
3814 Clouds 14 1022 47 10000 5.1 240 21:20 23.01.2020
3815 Clouds 14 1023 50 10000 5.1 240 20:58 23.01.2020
3816 Clouds 15 1022 47 10000 3.1 250 20:38 23.01.2020
3817 Clouds 15 1022 47 10000 3.1 250 20:19 23.01.2020
3818 Clouds 15 1022 47 10000 3.1 250 20:19 23.01.2020
3819 Clouds 15 1022 47 10000 4.1 250 19:56 23.01.2020
3820 Clouds 16 1023 44 10000 3.6 270 19:38 23.01.2020
3821 Clouds 16 1023 44 10000 3.6 270 19:19 23.01.2020
3822 Clouds 16 1023 44 10000 4.1 270 18:42 23.01.2020
3823 Clouds 16 1023 48 10000 5.1 270 18:21 23.01.2020
3824 Clouds 16 1023 48 10000 5.1 270 18:21 23.01.2020
3825 Clouds 16 1023 48 10000 5.7 270 17:58 23.01.2020
3826 Clouds 16 1023 48 10000 5.7 270 17:40 23.01.2020
3827 Clouds 16 1022 48 10000 2.1 250 17:20 23.01.2020
3828 Clouds 16 1022 48 10000 2.6 260 16:56 23.01.2020
3829 Clouds 16 1022 51 10000 1 260 16:37 23.01.2020
3830 Clouds 16 1022 51 10000 1 260 16:18 23.01.2020
3831 Clouds 16 1022 51 10000 5.61 287 15:55 23.01.2020
3832 Clouds 16 1022 51 10000 3.1 320 15:36 23.01.2020
3833 Clouds 16 1022 51 10000 3.1 320 15:18 23.01.2020
3834 Clouds 16 1022 48 10000 5.1 260 14:55 23.01.2020
3835 Clouds 16 1022 48 10000 5.1 260 14:37 23.01.2020
3836 Clouds 16 1022 48 10000 5.7 240 14:18 23.01.2020
3837 Clouds 16 1022 48 10000 4.6 250 13:39 23.01.2020
3838 Clouds 16 1022 51 10000 3.6 220 13:20 23.01.2020
3839 Clouds 16 1022 51 10000 3.6 220 12:47 23.01.2020
3840 Clouds 16 1023 51 6000 5.7 210 12:26 23.01.2020
3841 Sand 15 1024 54 4000 5.7 230 11:59 23.01.2020
3842 Sand 15 1024 54 4000 5.7 230 11:39 23.01.2020
3843 Sand 15 1024 54 4000 5.7 220 11:20 23.01.2020
3844 Sand 15 1024 54 4000 5.7 220 11:20 23.01.2020
3845 Haze 14 1025 58 4000 4.6 210 10:55 23.01.2020
3846 Haze 14 1025 58 4000 4.6 210 10:36 23.01.2020
3847 Haze 14 1025 58 4000 4.6 210 10:18 23.01.2020
3848 Haze 13 1025 58 4000 4.6 190 09:39 23.01.2020
3849 Haze 13 1025 58 4000 4.6 190 09:20 23.01.2020
3850 Haze 12 1024 62 4000 4.6 180 08:43 23.01.2020
3851 Haze 12 1024 62 4000 4.6 180 08:25 23.01.2020
3852 Haze 10 1024 66 4000 4.1 170 07:51 23.01.2020
3853 Haze 10 1024 66 4000 4.1 170 07:27 23.01.2020
3854 Clouds 8 1024 70 6000 4.1 170 06:54 23.01.2020
3855 Clouds 8 1024 70 6000 4.1 170 06:25 23.01.2020
3856 Clouds 8 1023 65 6000 3.6 160 05:59 23.01.2020
3857 Clouds 8 1023 65 6000 2.1 190 04:25 23.01.2020
3858 Clouds 9 1023 66 10000 2.1 190 02:48 23.01.2020
3859 Clouds 10 1023 61 10000 2.1 190 01:51 23.01.2020
3860 Clouds 9 1024 66 10000 1 180 00:41 23.01.2020
3861 Clouds 10 1024 61 10000 1 180 00:20 23.01.2020
3862 Clouds 10 1024 61 10000 1.5 280 23:45 22.01.2020
3863 Clouds 11 1024 57 10000 1.5 280 23:27 22.01.2020
3864 Clouds 12 1024 58 10000 1.5 280 22:43 22.01.2020
3865 Clouds 12 1024 58 10000 1.5 280 22:43 22.01.2020
3866 Clouds 12 1024 58 10000 1.5 280 22:24 22.01.2020
3867 Clouds 12 1024 58 10000 0.86 337 21:58 22.01.2020
3868 Clouds 12 1024 58 10000 0.86 337 21:36 22.01.2020
3869 Clouds 12 1024 58 10000 0.86 337 21:18 22.01.2020
3870 Clouds 12 1024 58 10000 2.1 340 20:42 22.01.2020
3871 Clouds 13 1024 54 10000 2.1 340 20:23 22.01.2020
3872 Clouds 13 1024 50 10000 2.1 340 19:59 22.01.2020
3873 Clouds 14 1024 50 10000 2.1 340 19:41 22.01.2020
3874 Clouds 14 1024 50 10000 2.1 340 19:20 22.01.2020
3875 Clouds 14 1024 50 10000 3.6 340 18:58 22.01.2020
3876 Clouds 14 1024 50 10000 3.6 340 18:40 22.01.2020
3877 Clouds 14 1024 50 10000 3.6 340 18:21 22.01.2020
3878 Clouds 15 1023 47 10000 4.1 360 17:57 22.01.2020
3879 Clouds 14 1023 47 10000 4.1 360 17:57 22.01.2020
3880 Clouds 15 1023 47 10000 4.1 360 17:39 22.01.2020
3881 Clouds 15 1023 47 10000 4.1 360 17:39 22.01.2020
3882 Clouds 15 1023 47 10000 4.1 360 17:19 22.01.2020
3883 Clouds 16 1023 36 10000 4.6 360 16:55 22.01.2020
3884 Clouds 16 1023 36 10000 4.6 360 16:55 22.01.2020
3885 Clouds 16 1023 36 10000 4.6 360 16:37 22.01.2020
3886 Clouds 16 1023 36 10000 4.6 360 16:18 22.01.2020
3887 Clouds 16 1023 36 10000 4.6 290 15:42 22.01.2020
3888 Clouds 16 1023 36 10000 4.6 290 15:23 22.01.2020
3889 Clouds 16 1023 38 10000 4.1 290 14:59 22.01.2020
3890 Clouds 16 1023 38 10000 4.6 310 14:38 22.01.2020
3891 Clouds 16 1023 38 10000 4.6 310 14:20 22.01.2020
3892 Clouds 16 1023 38 10000 5.1 320 13:56 22.01.2020
3893 Clouds 16 1023 38 10000 5.1 320 13:37 22.01.2020
3894 Clouds 15 1023 44 10000 6.2 330 13:19 22.01.2020
3895 Clouds 16 1023 44 10000 4.1 300 12:57 22.01.2020
3896 Clouds 16 1023 44 10000 4.1 300 12:38 22.01.2020
3897 Clouds 16 1023 44 10000 4.1 300 12:19 22.01.2020
3898 Clouds 15 1024 51 10000 5.1 290 11:56 22.01.2020
3899 Clouds 15 1024 51 10000 5.1 290 11:38 22.01.2020
3900 Clouds 15 1024 51 10000 5.1 290 11:19 22.01.2020
3901 Clouds 15 1025 51 6000 4.6 300 10:45 22.01.2020
3902 Clouds 15 1025 51 6000 4.6 300 10:21 22.01.2020
3903 Clouds 14 1025 54 6000 4.1 270 09:58 22.01.2020
3904 Clouds 14 1025 54 6000 4.1 270 09:40 22.01.2020
3905 Clouds 14 1025 54 6000 4.1 270 09:21 22.01.2020
3906 Clouds 13 1024 58 6000 2.1 290 08:55 22.01.2020
3907 Clouds 12 1024 58 6000 4.1 270 08:36 22.01.2020
3908 Clouds 12 1024 58 6000 4.1 270 08:18 22.01.2020
3909 Clouds 11 1024 66 6000 1.5 240 07:44 22.01.2020
3910 Clouds 11 1024 66 6000 1.5 240 07:26 22.01.2020
3911 Clouds 10 1024 66 6000 2.6 290 06:34 22.01.2020
3912 Clouds 10 1023 66 6000 2.1 280 05:54 22.01.2020
3913 Clouds 10 1023 66 6000 2.29 319 04:26 22.01.2020
3914 Clouds 10 1023 66 6000 1 280 03:27 22.01.2020
3915 Clouds 10 1023 66 6000 1.5 300 02:48 22.01.2020
3916 Clouds 10 1023 71 6000 1.5 270 00:47 22.01.2020
3917 Clouds 10 1024 66 6000 1.5 290 00:28 22.01.2020
3918 Clouds 11 1024 66 6000 1.5 310 23:57 21.01.2020
3919 Clouds 11 1024 66 6000 1.5 310 23:37 21.01.2020
3920 Clouds 11 1024 66 6000 2.6 330 23:19 21.01.2020
3921 Clouds 11 1024 66 6000 2.6 310 22:41 21.01.2020
3922 Clouds 11 1024 66 6000 2.6 310 22:23 21.01.2020
3923 Clouds 11 1024 62 10000 3.6 330 21:58 21.01.2020
3924 Clouds 11 1024 62 10000 3.6 330 21:39 21.01.2020
3925 Clouds 11 1024 62 10000 3.6 320 21:20 21.01.2020
3926 Clouds 12 1024 58 10000 6.2 310 20:57 21.01.2020
3927 Clouds 12 1024 58 10000 6.2 310 20:39 21.01.2020
3928 Clouds 12 1024 58 10000 5.1 300 20:20 21.01.2020
3929 Clouds 12 1024 58 10000 5.1 300 19:58 21.01.2020
3930 Clouds 12 1024 58 10000 5.1 300 19:58 21.01.2020
3931 Clouds 12 1024 58 10000 5.1 300 19:39 21.01.2020
3932 Clouds 12 1024 58 10000 4.6 310 19:21 21.01.2020
3933 Clouds 12 1024 54 10000 4.1 310 18:56 21.01.2020
3934 Clouds 13 1024 54 10000 4.1 310 18:38 21.01.2020
3935 Clouds 13 1024 54 10000 3.6 310 18:20 21.01.2020
3936 Clouds 13 1024 54 10000 4.6 350 17:56 21.01.2020
3937 Clouds 13 1024 54 10000 4.6 350 17:37 21.01.2020
3938 Clouds 13 1024 50 10000 4.1 330 17:18 21.01.2020
3939 Clouds 14 1024 47 10000 6.2 320 16:37 21.01.2020
3940 Clouds 14 1024 47 10000 6.2 320 16:19 21.01.2020
3941 Clouds 14 1024 47 10000 5.7 330 15:57 21.01.2020
3942 Clouds 14 1023 47 10000 8.7 330 15:37 21.01.2020
3943 Clouds 14 1023 47 10000 8.7 330 15:19 21.01.2020
3944 Clouds 16 1023 45 10000 8.2 300 14:39 21.01.2020
3945 Clouds 16 1023 39 10000 8.2 300 14:20 21.01.2020
3946 Clouds 16 1023 38 10000 6.7 320 13:43 21.01.2020
3947 Clouds 16 1023 38 10000 6.7 320 13:43 21.01.2020
3948 Clouds 16 1023 38 10000 9.3 300 13:20 21.01.2020
3949 Clouds 16 1023 36 10000 8.2 330 12:58 21.01.2020
3950 Clouds 16 1023 36 10000 8.2 330 12:39 21.01.2020
3951 Clouds 15 1024 38 10000 8.2 310 12:21 21.01.2020
3952 Clouds 15 1024 38 10000 8.7 320 11:55 21.01.2020
3953 Clouds 15 1025 38 10000 6.2 340 11:36 21.01.2020
3954 Clouds 15 1025 38 10000 6.2 340 11:18 21.01.2020
3955 Clouds 15 1025 38 10000 7.7 330 10:42 21.01.2020
3956 Clouds 15 1026 38 10000 7.7 330 10:22 21.01.2020
3957 Clouds 15 1026 44 10000 6.2 320 09:55 21.01.2020
3958 Clouds 14 1026 50 10000 4.6 330 09:37 21.01.2020
3959 Clouds 14 1026 50 10000 4.6 330 09:18 21.01.2020
3960 Clouds 13 1026 54 10000 4.1 320 08:41 21.01.2020
3961 Clouds 13 1026 54 10000 5.1 310 08:21 21.01.2020
3962 Clouds 13 1025 54 10000 5.7 310 07:42 21.01.2020
3963 Clouds 13 1025 54 10000 5.1 300 07:23 21.01.2020
3964 Clouds 12 1025 54 10000 4.6 290 06:56 21.01.2020
3965 Clouds 12 1025 54 10000 4.6 280 06:37 21.01.2020
3966 Clouds 12 1025 54 10000 5.1 280 05:53 21.01.2020
3967 Clouds 12 1025 54 10000 5.7 280 04:41 21.01.2020
3968 Clouds 12 1025 54 10000 4.1 280 04:19 21.01.2020
3969 Clouds 13 1025 58 10000 6.7 290 02:26 21.01.2020
3970 Clouds 13 1025 54 10000 3.6 300 01:31 21.01.2020
3971 Clouds 13 1026 58 10000 3.6 300 00:41 21.01.2020
3972 Clouds 13 1026 58 10000 4.6 290 00:22 21.01.2020
3973 Clouds 13 1026 58 10000 4.6 300 23:41 20.01.2020
3974 Clouds 13 1026 58 10000 4.6 300 23:41 20.01.2020
3975 Clouds 13 1026 54 10000 4.6 310 23:19 20.01.2020
3976 Clouds 13 1027 58 10000 5.1 300 22:59 20.01.2020
3977 Clouds 13 1027 58 10000 5.1 300 22:39 20.01.2020
3978 Clouds 13 1027 58 10000 4.1 290 22:21 20.01.2020
3979 Clouds 13 1027 58 10000 4.6 300 21:58 20.01.2020
3980 Clouds 13 1027 58 10000 4.6 300 21:38 20.01.2020
3981 Clouds 13 1027 58 10000 4.6 290 21:20 20.01.2020
3982 Clouds 13 1027 62 10000 4.6 300 20:58 20.01.2020
3983 Clouds 13 1027 58 10000 5.1 310 20:39 20.01.2020
3984 Clouds 14 1027 58 10000 5.1 310 20:19 20.01.2020
3985 Clouds 14 1027 58 10000 5.1 310 20:19 20.01.2020
3986 Clouds 14 1027 58 10000 5.1 310 19:57 20.01.2020
3987 Clouds 14 1027 58 10000 5.1 310 19:38 20.01.2020
3988 Clouds 14 1027 58 10000 6.2 310 19:19 20.01.2020
3989 Clouds 15 1026 54 10000 6.2 310 18:45 20.01.2020
3990 Clouds 15 1026 54 10000 6.2 310 18:24 20.01.2020
3991 Clouds 15 1026 51 10000 5.7 310 17:59 20.01.2020
3992 Clouds 15 1026 51 10000 6.2 310 17:37 20.01.2020
3993 Clouds 15 1026 51 10000 6.2 310 17:18 20.01.2020
3994 Clouds 16 1026 38 10000 6.2 300 16:45 20.01.2020
3995 Clouds 16 1025 41 10000 7.7 310 16:25 20.01.2020
3996 Clouds 16 1025 44 10000 8.7 300 15:58 20.01.2020
3997 Clouds 16 1025 44 10000 8.7 300 15:40 20.01.2020
3998 Clouds 17 1025 45 10000 8.2 300 15:21 20.01.2020
3999 Clouds 17 1025 48 10000 6.2 290 14:56 20.01.2020
4000 Clouds 17 1025 48 10000 6.2 290 14:37 20.01.2020
4001 Clouds 17 1025 48 10000 6.2 290 14:19 20.01.2020
4002 Clouds 17 1025 48 10000 7.2 290 13:42 20.01.2020
4003 Clouds 17 1025 51 10000 6.2 280 13:23 20.01.2020
4004 Clouds 16 1025 51 10000 6.2 290 12:58 20.01.2020
4005 Clouds 16 1025 51 10000 6.2 290 12:40 20.01.2020
4006 Clouds 16 1025 51 10000 6.2 290 12:21 20.01.2020
4007 Clouds 17 1025 51 10000 5.7 290 11:43 20.01.2020
4008 Clouds 17 1026 55 10000 5.7 280 11:24 20.01.2020
4009 Clouds 16 1026 59 10000 4.1 270 10:58 20.01.2020
4010 Clouds 16 1026 59 10000 4.1 270 10:40 20.01.2020
4011 Clouds 16 1026 59 10000 4.1 250 10:20 20.01.2020
4012 Clouds 15 1026 62 10000 4.6 250 09:41 20.01.2020
4013 Clouds 15 1027 58 10000 4.1 220 09:23 20.01.2020
4014 Clouds 14 1026 62 10000 4.6 220 08:55 20.01.2020
4015 Clouds 14 1026 62 10000 4.6 220 08:31 20.01.2020
4016 Clouds 13 1026 66 10000 4.1 200 07:55 20.01.2020
4017 Clouds 13 1026 66 10000 4.1 200 07:37 20.01.2020
4018 Clouds 13 1026 66 10000 4.1 200 07:19 20.01.2020
4019 Clouds 13 1025 66 10000 2.6 210 06:36 20.01.2020
4020 Clouds 13 1025 66 10000 2.6 210 05:56 20.01.2020
4021 Clouds 13 1025 66 10000 2.6 210 05:37 20.01.2020
4022 Clouds 13 1024 66 10000 2.6 210 05:18 20.01.2020
4023 Clouds 13 1024 66 10000 3.1 210 03:55 20.01.2020
4024 Clouds 13 1024 71 10000 4.1 230 01:58 20.01.2020
4025 Clouds 13 1024 71 10000 4.1 230 01:39 20.01.2020
4026 Clouds 13 1024 66 6000 4.1 230 00:56 20.01.2020
4027 Clouds 13 1024 66 6000 4.1 230 00:37 20.01.2020
4028 Clouds 13 1024 71 6000 3.1 230 00:19 20.01.2020
4029 Clouds 14 1024 67 6000 3.1 220 23:37 19.01.2020
4030 Clouds 14 1024 67 6000 3.1 220 23:18 19.01.2020
4031 Clouds 14 1024 62 6000 3.1 230 22:55 19.01.2020
4032 Clouds 14 1024 62 6000 2.6 210 22:37 19.01.2020
4033 Clouds 14 1024 62 6000 2.6 210 22:18 19.01.2020
4034 Clouds 13 1024 62 6000 2.1 180 21:55 19.01.2020
4035 Clouds 14 1023 62 6000 3.63 270 21:37 19.01.2020
4036 Clouds 14 1023 62 6000 3.63 270 21:19 19.01.2020
4037 Clouds 13 1023 62 6000 3.63 270 20:56 19.01.2020
4038 Clouds 13 1023 62 6000 3.63 270 20:37 19.01.2020
4039 Clouds 14 1023 58 6000 1 230 20:19 19.01.2020
4040 Clouds 14 1023 58 6000 1 190 19:55 19.01.2020
4041 Clouds 14 1023 58 6000 2.1 190 19:37 19.01.2020
4042 Clouds 14 1023 58 6000 2.1 190 19:19 19.01.2020
4043 Clouds 14 1022 58 10000 2.6 190 18:55 19.01.2020
4044 Clouds 15 1022 54 10000 3.1 180 18:37 19.01.2020
4045 Clouds 15 1022 54 10000 3.1 180 18:18 19.01.2020
4046 Clouds 15 1022 54 10000 3.1 180 18:18 19.01.2020
4047 Clouds 15 1022 54 10000 4.6 190 17:57 19.01.2020
4048 Clouds 15 1022 54 10000 4.6 190 17:38 19.01.2020
4049 Clouds 15 1021 54 10000 4.6 180 17:19 19.01.2020
4050 Clouds 15 1021 54 10000 5.1 180 16:57 19.01.2020
4051 Clouds 16 1020 51 10000 5.7 180 16:37 19.01.2020
4052 Clouds 16 1020 51 10000 5.7 180 16:19 19.01.2020
4053 Clouds 16 1020 51 10000 5.7 180 15:55 19.01.2020
4054 Clouds 16 1020 51 10000 5.7 180 15:36 19.01.2020
4055 Clouds 16 1020 51 10000 5.7 180 15:18 19.01.2020
4056 Clouds 16 1020 51 10000 5.7 180 15:18 19.01.2020
4057 Clouds 15 1020 54 6000 6.2 190 14:41 19.01.2020
4058 Clouds 15 1020 54 6000 6.2 190 14:21 19.01.2020
4059 Clouds 15 1020 58 6000 5.7 200 13:59 19.01.2020
4060 Clouds 15 1020 58 6000 5.7 200 13:40 19.01.2020
4061 Clouds 15 1020 58 6000 6.7 200 13:22 19.01.2020
4062 Clouds 15 1020 58 6000 6.7 200 13:22 19.01.2020
4063 Clouds 15 1020 58 6000 6.7 210 12:59 19.01.2020
4064 Clouds 15 1020 58 6000 6.7 210 12:41 19.01.2020
4065 Clouds 15 1020 58 6000 6.7 200 12:21 19.01.2020
4066 Sand 15 1020 58 3000 6.7 210 11:57 19.01.2020
4067 Sand 15 1020 58 3000 6.7 210 11:38 19.01.2020
4068 Sand 15 1020 58 3000 6.7 210 11:18 19.01.2020
4069 Sand 13 1021 66 3000 5.7 190 10:41 19.01.2020
4070 Sand 13 1021 66 3000 5.7 190 10:21 19.01.2020
4071 Sand 12 1021 71 3000 6.7 200 09:58 19.01.2020
4072 Sand 12 1021 71 3000 6.7 200 09:39 19.01.2020
4073 Sand 12 1021 71 3000 6.7 200 09:21 19.01.2020
4074 Sand 11 1020 76 3000 6.2 180 08:56 19.01.2020
4075 Sand 11 1020 76 3000 6.2 180 08:38 19.01.2020
4076 Sand 11 1020 76 3000 6.2 180 08:19 19.01.2020
4077 Clouds 10 1020 76 10000 4.1 190 07:30 19.01.2020
4078 Clouds 10 1020 76 10000 4.1 190 06:56 19.01.2020
4079 Clouds 10 1019 76 10000 4.1 190 06:25 19.01.2020
4080 Clear 12 1019 66 0 3.58 240 04:39 19.01.2020
4081 Clear 13 1019 66 0 4.92 250 02:36 19.01.2020
4082 Clouds 13 1019 66 10000 5.1 250 01:58 19.01.2020
4083 Clouds 13 1019 66 10000 5.1 250 01:24 19.01.2020
4084 Clouds 13 1019 66 10000 6.2 240 00:45 19.01.2020
4085 Clouds 14 1019 62 10000 5.7 240 00:26 19.01.2020
4086 Clouds 14 1019 62 10000 3.6 250 23:55 18.01.2020
4087 Clouds 14 1019 62 10000 3.6 250 23:36 18.01.2020
4088 Clouds 14 1019 62 10000 3.6 250 23:18 18.01.2020
4089 Clouds 14 1019 62 10000 3.6 250 22:54 18.01.2020
4090 Clouds 14 1019 62 10000 3.6 250 22:36 18.01.2020
4091 Clouds 14 1019 62 10000 3.6 250 22:18 18.01.2020
4092 Clouds 14 1019 58 10000 4.1 250 21:56 18.01.2020
4093 Clouds 14 1019 58 10000 4.1 250 21:36 18.01.2020
4094 Clouds 14 1019 58 10000 4.1 250 21:18 18.01.2020
4095 Clouds 15 1019 51 10000 4.1 250 20:41 18.01.2020
4096 Clouds 15 1019 51 10000 4.1 250 20:19 18.01.2020
4097 Clouds 15 1018 51 10000 6.2 220 19:54 18.01.2020
4098 Clouds 15 1018 51 10000 6.2 220 19:36 18.01.2020
4099 Clouds 15 1018 51 10000 6.2 220 19:18 18.01.2020
4100 Clouds 15 1018 51 10000 5.1 270 18:40 18.01.2020
4101 Clouds 16 1018 48 10000 5.1 270 18:21 18.01.2020
4102 Clouds 16 1018 48 10000 5.1 270 17:41 18.01.2020
4103 Clouds 16 1018 48 10000 5.1 270 17:21 18.01.2020
4104 Clouds 16 1017 44 6000 5.7 250 16:57 18.01.2020
4105 Clouds 16 1017 44 6000 5.7 250 16:39 18.01.2020
4106 Clouds 16 1017 44 6000 5.7 250 16:21 18.01.2020
4107 Clouds 16 1017 44 6000 5.7 250 15:57 18.01.2020
4108 Clouds 16 1017 44 6000 5.7 250 15:39 18.01.2020
4109 Clouds 16 1017 59 6000 3.1 210 15:20 18.01.2020
4110 Haze 16 1017 59 3000 4.6 180 14:42 18.01.2020
4111 Haze 15 1017 67 3000 4.6 190 14:20 18.01.2020
4112 Haze 15 1018 67 3000 4.6 200 13:58 18.01.2020
4113 Haze 15 1018 67 3000 4.6 200 13:39 18.01.2020
4114 Haze 15 1018 67 3000 4.6 200 13:20 18.01.2020
4115 Haze 15 1018 67 3000 4.6 200 12:54 18.01.2020
4116 Haze 15 1018 67 3000 4.6 200 12:54 18.01.2020
4117 Haze 15 1018 67 3000 4.6 210 12:36 18.01.2020
4118 Haze 15 1018 67 3000 4.6 210 12:18 18.01.2020
4119 Haze 15 1018 67 3000 4.6 190 11:43 18.01.2020
4120 Haze 15 1019 72 3000 4.6 210 11:21 18.01.2020
4121 Mist 15 1019 72 3000 4.6 200 10:43 18.01.2020
4122 Mist 15 1019 72 3000 4.6 200 10:22 18.01.2020
4123 Mist 14 1020 76 2000 5.7 200 09:57 18.01.2020
4124 Mist 14 1020 76 2000 5.7 200 09:39 18.01.2020
4125 Mist 13 1020 82 2000 5.7 200 09:19 18.01.2020
4126 Mist 13 1020 82 2000 4.6 210 08:42 18.01.2020
4127 Mist 13 1019 82 2000 4.6 210 08:20 18.01.2020
4128 Mist 13 1019 82 2000 4.6 210 07:59 18.01.2020
4129 Mist 12 1019 87 2000 4.6 200 07:39 18.01.2020
4130 Mist 12 1019 87 4000 4.6 190 06:52 18.01.2020
4131 Mist 12 1018 87 4000 4.6 190 06:33 18.01.2020
4132 Rain 12 1018 87 6000 4.6 200 05:49 18.01.2020
4133 Clouds 12 1018 81 10000 4.1 200 04:25 18.01.2020
4134 Clouds 12 1018 81 10000 4.6 200 02:34 18.01.2020
4135 Clear 12 1018 81 10000 4.1 200 01:40 18.01.2020
4136 Clear 12 1018 81 10000 3.6 220 00:39 18.01.2020
4137 Clear 13 1018 76 10000 5.1 220 00:20 18.01.2020
4138 Clear 13 1018 76 10000 4.6 230 23:58 17.01.2020
4139 Clear 13 1018 76 10000 4.6 230 23:39 17.01.2020
4140 Clear 13 1018 76 10000 4.6 230 23:18 17.01.2020
4141 Clouds 14 1018 71 10000 4.1 240 22:41 17.01.2020
4142 Clouds 14 1018 71 10000 4.1 250 22:20 17.01.2020
4143 Clouds 14 1018 71 10000 4.1 250 22:20 17.01.2020
4144 Clouds 14 1018 71 10000 5.1 260 21:56 17.01.2020
4145 Clouds 14 1018 67 10000 3.6 250 21:38 17.01.2020
4146 Clouds 15 1018 67 10000 3.6 250 21:19 17.01.2020
4147 Clouds 15 1018 72 10000 3.6 260 20:43 17.01.2020
4148 Clouds 15 1018 72 10000 3.6 250 20:21 17.01.2020
4149 Clouds 15 1018 72 10000 3.6 250 20:21 17.01.2020
4150 Clouds 15 1018 72 10000 4.6 240 19:58 17.01.2020
4151 Clouds 15 1018 72 10000 4.6 240 19:39 17.01.2020
4152 Clouds 15 1018 72 10000 3.6 240 19:20 17.01.2020
4153 Clouds 15 1018 72 10000 5.7 270 18:58 17.01.2020
4154 Clouds 15 1018 72 10000 5.7 270 18:40 17.01.2020
4155 Clouds 15 1017 72 10000 4.6 270 18:21 17.01.2020
4156 Clouds 15 1017 72 10000 4.6 280 17:40 17.01.2020
4157 Clouds 16 1017 63 10000 5.1 280 17:22 17.01.2020
4158 Clouds 16 1016 67 10000 6.2 290 16:57 17.01.2020
4159 Clouds 16 1016 67 10000 6.2 290 16:39 17.01.2020
4160 Clouds 16 1016 67 10000 6.2 290 16:19 17.01.2020
4161 Clouds 17 1015 63 10000 8.2 280 15:45 17.01.2020
4162 Clouds 17 1015 63 10000 8.2 280 15:26 17.01.2020
4163 Clouds 16 1014 72 10000 6.7 270 14:54 17.01.2020
4164 Clouds 16 1014 72 10000 6.7 270 14:36 17.01.2020
4165 Clouds 16 1014 72 6000 6.7 270 14:18 17.01.2020
4166 Clouds 15 1014 82 3000 7.2 230 13:38 17.01.2020
4167 Mist 15 1014 82 3000 7.2 230 13:19 17.01.2020
4168 Mist 15 1014 77 3000 7.7 180 12:45 17.01.2020
4169 Rain 15 1014 77 3000 7.7 180 12:22 17.01.2020
4170 Rain 14 1015 76 3000 7.2 180 11:41 17.01.2020
4171 Rain 14 1015 76 3000 7.2 180 11:19 17.01.2020
4172 Mist 14 1015 76 3000 7.2 190 10:45 17.01.2020
4173 Mist 13 1016 82 3000 8.7 180 10:24 17.01.2020
4174 Mist 13 1016 82 3000 9.3 190 09:59 17.01.2020
4175 Mist 13 1016 82 3000 9.3 190 09:41 17.01.2020
4176 Mist 13 1015 82 3000 9.3 190 09:20 17.01.2020
4177 Mist 12 1015 87 2000 8.7 180 08:55 17.01.2020
4178 Mist 12 1015 87 2000 8.7 180 08:36 17.01.2020
4179 Mist 12 1015 87 2000 8.7 180 08:18 17.01.2020
4180 Mist 12 1015 81 2000 7.2 180 07:42 17.01.2020
4181 Rain 12 1015 81 2000 5.7 180 07:24 17.01.2020
4182 Mist 12 1015 81 2000 6.7 190 06:43 17.01.2020
4183 Sand 12 1014 81 2000 7.7 190 05:59 17.01.2020
4184 Sand 12 1013 76 2000 7.2 200 04:25 17.01.2020
4185 Sand 12 1013 66 4000 8.2 180 02:55 17.01.2020
4186 Sand 12 1013 66 4000 8.2 180 02:29 17.01.2020
4187 Clear 13 1013 62 0 7.15 180 01:32 17.01.2020
4188 Clear 13 1013 62 0 7.15 180 00:58 17.01.2020
4189 Clouds 13 1013 62 10000 6.2 190 00:29 17.01.2020
4190 Clouds 13 1013 62 10000 6.2 190 23:56 16.01.2020
4191 Clouds 13 1013 62 10000 6.2 190 23:38 16.01.2020
4192 Clouds 13 1013 62 10000 6.2 190 23:19 16.01.2020
4193 Clouds 12 1014 62 10000 5.7 200 22:40 16.01.2020
4194 Clouds 13 1014 58 10000 5.7 210 22:21 16.01.2020
4195 Clouds 13 1014 58 10000 5.7 210 21:56 16.01.2020
4196 Clouds 14 1014 54 10000 7.7 210 21:37 16.01.2020
4197 Clouds 14 1014 54 10000 7.7 210 21:18 16.01.2020
4198 Clouds 14 1014 54 10000 6.7 210 20:56 16.01.2020
4199 Clouds 14 1013 54 10000 6.2 210 20:37 16.01.2020
4200 Clouds 14 1013 54 10000 6.2 210 20:18 16.01.2020
4201 Clouds 14 1013 50 10000 6.7 220 19:55 16.01.2020
4202 Clouds 14 1013 50 10000 6.7 220 19:37 16.01.2020
4203 Clouds 15 1013 47 10000 5.7 220 19:18 16.01.2020
4204 Clouds 15 1013 47 10000 6.7 220 18:55 16.01.2020
4205 Clouds 15 1013 47 10000 7.7 220 18:36 16.01.2020
4206 Clouds 15 1013 47 10000 7.7 220 18:36 16.01.2020
4207 Clouds 15 1013 47 10000 7.7 220 18:18 16.01.2020
4208 Clouds 15 1013 47 10000 7.2 230 17:41 16.01.2020
4209 Clouds 15 1013 47 10000 7.2 230 17:41 16.01.2020
4210 Clouds 16 1012 44 10000 9.3 210 17:22 16.01.2020
4211 Clouds 16 1012 48 10000 10.8 210 16:57 16.01.2020
4212 Clouds 16 1012 48 10000 10.8 210 16:38 16.01.2020
4213 Clouds 16 1012 48 10000 10.8 210 16:19 16.01.2020
4214 Clouds 16 1012 44 10000 10.8 210 15:44 16.01.2020
4215 Clouds 17 1012 45 10000 10.8 210 15:22 16.01.2020
4216 Clouds 17 1012 45 10000 11.3 210 14:57 16.01.2020
4217 Clouds 17 1012 45 10000 10.3 210 14:38 16.01.2020
4218 Clouds 17 1012 45 10000 10.3 210 14:20 16.01.2020
4219 Clouds 17 1012 45 10000 10.8 210 13:44 16.01.2020
4220 Clouds 17 1012 45 10000 10.3 210 13:25 16.01.2020
4221 Clouds 17 1012 45 10000 8.7 200 12:47 16.01.2020
4222 Clouds 17 1012 45 10000 8.7 200 12:47 16.01.2020
4223 Clouds 17 1012 45 10000 8.7 200 12:28 16.01.2020
4224 Clouds 17 1013 45 6000 7.7 210 11:59 16.01.2020
4225 Clouds 17 1013 45 6000 7.7 210 11:40 16.01.2020
4226 Clouds 16 1013 51 6000 8.7 200 11:22 16.01.2020
4227 Clouds 15 1014 58 6000 6.7 210 10:40 16.01.2020
4228 Clouds 15 1014 58 6000 6.7 210 10:22 16.01.2020
4229 Clouds 15 1014 58 10000 7.7 210 09:59 16.01.2020
4230 Clouds 15 1014 58 10000 7.7 210 09:41 16.01.2020
4231 Clouds 15 1014 58 10000 7.7 190 09:23 16.01.2020
4232 Clouds 15 1015 62 10000 6.2 190 08:55 16.01.2020
4233 Clouds 15 1015 62 10000 6.2 190 08:36 16.01.2020
4234 Clouds 14 1014 62 10000 4.6 200 07:59 16.01.2020
4235 Clouds 14 1014 62 10000 4.6 200 07:41 16.01.2020
4236 Clouds 14 1014 62 10000 4.6 200 07:23 16.01.2020
4237 Clouds 15 1014 54 6000 6.7 220 06:46 16.01.2020
4238 Clouds 15 1014 54 6000 6.7 220 06:28 16.01.2020
4239 Clouds 15 1013 54 10000 6.7 220 05:46 16.01.2020
4240 Clouds 17 1012 51 10000 2.1 220 04:46 16.01.2020
4241 Clouds 17 1012 51 10000 2.1 220 04:46 16.01.2020
4242 Clouds 18 1012 45 10000 5.1 140 03:29 16.01.2020
4243 Clouds 18 1012 45 10000 8.2 100 02:44 16.01.2020
4244 Clouds 18 1013 48 10000 8.7 100 01:28 16.01.2020
4245 Clouds 18 1013 48 10000 8.7 100 00:42 16.01.2020
4246 Clouds 18 1013 48 10000 8.7 100 00:22 16.01.2020
4247 Clouds 18 1014 52 10000 8.2 90 23:40 15.01.2020
4248 Clouds 18 1014 52 10000 9.8 90 23:21 15.01.2020
4249 Clouds 18 1014 52 10000 9.8 80 22:56 15.01.2020
4250 Clouds 18 1014 52 10000 9.8 80 22:38 15.01.2020
4251 Clouds 18 1014 52 10000 9.8 80 22:18 15.01.2020
4252 Clouds 17 1015 63 10000 9.3 80 21:56 15.01.2020
4253 Clouds 17 1015 63 10000 9.3 80 21:56 15.01.2020
4254 Clouds 17 1015 63 10000 9.3 80 21:37 15.01.2020
4255 Clouds 17 1015 63 10000 9.3 80 21:18 15.01.2020
4256 Clouds 17 1016 63 10000 9.3 80 20:55 15.01.2020
4257 Clouds 17 1016 63 10000 9.3 80 20:37 15.01.2020
4258 Clouds 18 1016 55 10000 9.3 80 20:18 15.01.2020
4259 Clouds 18 1016 55 10000 6.2 50 19:54 15.01.2020
4260 Clouds 18 1016 55 10000 6.2 50 19:36 15.01.2020
4261 Clouds 18 1016 55 10000 6.2 50 19:18 15.01.2020
4262 Clouds 19 1017 48 10000 6.2 60 18:55 15.01.2020
4263 Clouds 19 1017 48 10000 6.2 60 18:55 15.01.2020
4264 Clouds 19 1017 48 10000 6.2 60 18:37 15.01.2020
4265 Clouds 19 1017 48 10000 6.2 60 18:19 15.01.2020
4266 Clouds 19 1016 48 10000 7.7 50 17:41 15.01.2020
4267 Clouds 20 1016 42 10000 7.7 50 17:23 15.01.2020
4268 Clouds 20 1015 40 10000 8.2 60 16:59 15.01.2020
4269 Clouds 20 1015 40 10000 8.2 60 16:39 15.01.2020
4270 -273 0 0 0 0 0 16:39 15.01.2020
4271 Clouds 20 1015 40 10000 8.7 50 16:21 15.01.2020
4272 Clouds 21 1016 37 10000 7.7 50 15:43 15.01.2020
4273 Clouds 21 1016 35 10000 8.7 50 15:21 15.01.2020
4274 Clouds 21 1016 35 10000 8.7 50 15:21 15.01.2020
4275 Clouds 21 1016 37 10000 8.7 60 14:59 15.01.2020
4276 Clouds 21 1016 37 10000 8.7 60 14:41 15.01.2020
4277 Clouds 21 1016 37 10000 8.2 60 14:18 15.01.2020
4278 Clouds 21 1016 37 10000 8.2 60 13:46 15.01.2020
4279 Clouds 21 1016 40 10000 8.7 60 13:26 15.01.2020
4280 Clouds 21 1016 40 10000 8.7 50 12:59 15.01.2020
4281 Clouds 21 1016 40 10000 8.7 50 12:39 15.01.2020
4282 Clouds 20 1017 45 10000 7.7 50 12:19 15.01.2020
4283 Clouds 20 1018 49 10000 7.2 50 11:56 15.01.2020
4284 Clouds 20 1018 49 10000 7.2 50 11:37 15.01.2020
4285 Clouds 19 1018 55 10000 7.7 50 11:18 15.01.2020
4286 Clouds 18 1019 63 10000 8.2 60 10:42 15.01.2020
4287 Clouds 18 1019 63 10000 8.2 60 10:24 15.01.2020
4288 Clouds 17 1020 72 10000 9.8 60 09:42 15.01.2020
4289 Clouds 17 1020 72 10000 9.8 60 09:23 15.01.2020
4290 Clouds 15 1020 87 10000 9.3 70 08:56 15.01.2020
4291 Clouds 15 1020 87 10000 9.3 70 08:37 15.01.2020
4292 Clouds 15 1020 87 10000 9.3 70 08:19 15.01.2020
4293 Clouds 13 1020 93 6000 7.2 70 07:50 15.01.2020
4294 Clouds 13 1020 93 6000 7.2 70 07:30 15.01.2020
4295 Clouds 12 1020 93 6000 6.2 60 06:44 15.01.2020
4296 Clouds 12 1020 93 6000 6.2 60 06:19 15.01.2020
4297 Clouds 12 1020 87 10000 5.7 60 04:36 15.01.2020
4298 Clear 13 1021 82 10000 4.6 40 02:32 15.01.2020
4299 Clouds 13 1021 82 10000 4.1 40 01:27 15.01.2020
4300 Clouds 13 1021 82 10000 4.6 60 00:45 15.01.2020
4301 Clouds 13 1021 82 10000 4.6 60 00:26 15.01.2020
4302 Clouds 13 1022 76 10000 4.6 50 23:55 14.01.2020
4303 Clouds 13 1022 76 10000 4.6 50 23:36 14.01.2020
4304 Clouds 13 1022 76 10000 4.6 50 23:18 14.01.2020
4305 Clouds 13 1022 71 10000 3.6 60 22:41 14.01.2020
4306 Clouds 14 1022 67 10000 4.6 50 22:19 14.01.2020
4307 Clouds 14 1022 67 10000 4.6 50 22:19 14.01.2020
4308 Clouds 14 1022 67 10000 5.7 40 21:58 14.01.2020
4309 Clouds 14 1022 67 10000 5.7 40 21:58 14.01.2020
4310 Clouds 14 1022 67 10000 5.1 40 21:40 14.01.2020
4311 Clouds 14 1022 67 10000 5.1 40 21:21 14.01.2020
4312 Clouds 14 1022 67 10000 6.2 40 20:59 14.01.2020
4313 Clouds 15 1023 67 10000 7.7 40 20:40 14.01.2020
4314 Clouds 15 1023 67 10000 7.7 40 20:20 14.01.2020
4315 Clouds 15 1023 67 10000 7.7 40 19:56 14.01.2020
4316 Clouds 15 1023 63 10000 7.2 30 19:38 14.01.2020
4317 Clouds 16 1023 63 10000 7.2 30 19:18 14.01.2020
4318 Clouds 16 1022 63 10000 8.2 20 18:55 14.01.2020
4319 Clouds 16 1022 63 10000 8.2 20 18:37 14.01.2020
4320 Clouds 17 1023 55 10000 5.7 30 18:18 14.01.2020
4321 Clouds 17 1023 55 10000 5.7 30 17:38 14.01.2020
4322 Clouds 17 1022 55 10000 6.7 20 17:19 14.01.2020
4323 Clouds 17 1022 55 10000 6.7 20 16:55 14.01.2020
4324 Clouds 17 1022 52 10000 6.7 30 16:37 14.01.2020
4325 Clouds 18 1022 52 10000 6.7 30 16:19 14.01.2020
4326 Clouds 18 1022 52 10000 6.2 30 15:43 14.01.2020
4327 Clouds 18 1021 48 10000 7.2 40 15:19 14.01.2020
4328 Clouds 18 1022 52 10000 7.2 40 14:57 14.01.2020
4329 Clouds 18 1022 52 10000 6.2 40 14:39 14.01.2020
4330 Clouds 18 1022 52 10000 6.2 40 14:18 14.01.2020
4331 Clouds 18 1022 52 10000 6.2 40 13:42 14.01.2020
4332 Clouds 18 1022 52 10000 6.7 60 13:19 14.01.2020
4333 Clouds 18 1022 52 10000 6.7 60 12:43 14.01.2020
4334 Clouds 18 1023 52 10000 5.7 50 12:25 14.01.2020
4335 Clouds 18 1022 55 10000 7.2 50 11:59 14.01.2020
4336 Clouds 18 1022 55 10000 7.2 50 11:40 14.01.2020
4337 Clouds 17 1023 59 10000 7.7 60 11:22 14.01.2020
4338 Clouds 17 1023 59 10000 7.7 50 10:56 14.01.2020
4339 Clouds 16 1024 63 10000 8.2 60 10:37 14.01.2020
4340 Clouds 16 1024 63 10000 8.2 60 10:19 14.01.2020
4341 Clouds 16 1024 67 10000 8.2 60 09:43 14.01.2020
4342 Clouds 16 1024 67 10000 8.2 60 09:43 14.01.2020
4343 Clouds 16 1024 72 10000 7.2 60 09:24 14.01.2020
4344 Clouds 15 1024 72 6000 7.2 50 08:59 14.01.2020
4345 Clouds 15 1024 72 6000 7.2 50 08:40 14.01.2020
4346 Haze 13 1024 81 4000 3.1 60 08:21 14.01.2020
4347 Haze 12 1024 81 4000 3.1 60 07:51 14.01.2020
4348 Haze 12 1024 81 4000 3.1 60 07:24 14.01.2020
4349 Haze 12 1024 76 4000 3.1 70 06:43 14.01.2020
4350 Haze 11 1023 76 4000 2.6 50 05:58 14.01.2020
4351 Haze 12 1024 71 4000 2.6 10 04:51 14.01.2020
4352 Clouds 12 1023 66 6000 2.6 50 03:47 14.01.2020
4353 Clouds 12 1023 66 6000 2.6 70 02:39 14.01.2020
4354 Clouds 13 1024 66 6000 1 140 01:21 14.01.2020
4355 Clouds 12 1024 66 6000 1.5 120 00:48 14.01.2020
4356 Clouds 12 1024 66 6000 2.6 80 00:22 14.01.2020
4357 Clouds 11 1023 66 6000 2.6 70 23:44 13.01.2020
4358 Clouds 11 1024 66 6000 1.5 70 23:19 13.01.2020
4359 Clouds 12 1024 66 6000 2.1 70 22:57 13.01.2020
4360 Clouds 12 1024 66 6000 2.1 70 22:39 13.01.2020
4361 Clouds 13 1024 62 6000 2.1 90 22:19 13.01.2020
4362 Clouds 13 1024 62 6000 3.1 100 21:55 13.01.2020
4363 Clouds 13 1024 62 6000 3.1 100 21:37 13.01.2020
4364 Clouds 13 1024 66 6000 3.1 90 21:18 13.01.2020
4365 Haze 14 1024 62 4000 3.1 80 20:56 13.01.2020
4366 Haze 14 1024 62 4000 3.1 80 20:38 13.01.2020
4367 Haze 14 1024 62 4000 3.1 80 20:19 13.01.2020
4368 Haze 14 1024 62 4000 2.1 60 19:42 13.01.2020
4369 Haze 16 1024 59 4000 2.1 360 19:21 13.01.2020
4370 Haze 16 1024 59 4000 2.1 360 19:21 13.01.2020
4371 Clouds 16 1024 59 6000 3.1 360 18:58 13.01.2020
4372 Clouds 16 1024 59 6000 3.1 360 18:38 13.01.2020
4373 Clouds 17 1024 51 6000 2.6 350 18:19 13.01.2020
4374 Clouds 17 1024 51 6000 2.6 350 18:19 13.01.2020
4375 Clouds 17 1024 51 6000 2.6 350 18:19 13.01.2020
4376 Clouds 17 1023 51 10000 3.1 360 17:58 13.01.2020
4377 Clouds 17 1023 51 10000 3.1 360 17:39 13.01.2020
4378 Clouds 17 1023 48 10000 3.1 10 17:20 13.01.2020
4379 Clouds 17 1023 48 10000 3.6 20 16:43 13.01.2020
4380 Clouds 17 1022 45 0 4.92 20 16:24 13.01.2020
4381 Clouds 17 1022 45 0 4.47 10 15:59 13.01.2020
4382 Clouds 17 1022 45 0 4.47 10 15:41 13.01.2020
4383 Clouds 17 1022 42 0 3.58 30 15:21 13.01.2020
4384 Clouds 17 1022 42 0 3.58 30 14:56 13.01.2020
4385 Clouds 18 1022 39 0 2.24 350 14:36 13.01.2020
4386 Clouds 18 1022 39 0 2.24 350 14:18 13.01.2020
4387 Clouds 17 1022 36 0 2.68 20 13:40 13.01.2020
4388 Clouds 17 1022 36 0 2.68 20 13:22 13.01.2020
4389 Clouds 17 1023 48 6000 1.5 360 12:58 13.01.2020
4390 Clouds 17 1023 48 6000 1.5 360 12:40 13.01.2020
4391 Clouds 17 1023 48 6000 1.5 360 12:21 13.01.2020
4392 Clouds 17 1023 48 6000 1.5 360 11:54 13.01.2020
4393 Clouds 16 1024 51 6000 2.6 10 11:36 13.01.2020
4394 Clouds 16 1024 51 6000 2.6 10 11:18 13.01.2020
4395 Clouds 16 1024 51 6000 2.1 340 10:55 13.01.2020
4396 Clouds 16 1025 55 6000 0.5 360 10:36 13.01.2020
4397 Clouds 16 1025 55 6000 0.5 360 10:18 13.01.2020
4398 Haze 15 1025 58 4000 1.81 351 09:40 13.01.2020
4399 Haze 15 1025 58 4000 1.81 351 09:22 13.01.2020
4400 Haze 14 1025 67 4000 1 150 08:42 13.01.2020
4401 Haze 13 1025 71 4000 1 150 08:21 13.01.2020
4402 Haze 11 1024 76 4000 1 130 07:57 13.01.2020
4403 Haze 11 1024 76 4000 1 130 07:38 13.01.2020
4404 Haze 10 1024 76 4000 0.93 56 06:55 13.01.2020
4405 Haze 10 1024 76 4000 0.93 56 06:36 13.01.2020
4406 Haze 10 1024 76 4000 0.93 56 06:36 13.01.2020
4407 Haze 10 1024 81 4000 0.93 56 05:36 13.01.2020
4408 Haze 10 1023 76 4000 1.5 150 04:25 13.01.2020
4409 Haze 11 1024 76 4000 1.5 130 03:34 13.01.2020
4410 Haze 12 1024 66 4000 2.1 140 02:49 13.01.2020
4411 Haze 12 1024 66 4000 2.1 140 02:29 13.01.2020
4412 Haze 12 1024 71 4000 1.5 140 01:32 13.01.2020
4413 Haze 13 1024 66 4000 1.94 34 00:43 13.01.2020
4414 Haze 13 1024 66 4000 1.94 34 00:24 13.01.2020
4415 Haze 13 1024 62 4000 1.94 34 23:56 12.01.2020
4416 Haze 14 1024 62 4000 1.94 34 23:37 12.01.2020
4417 Haze 14 1024 62 4000 2.04 24 23:19 12.01.2020
4418 Haze 14 1024 58 4000 2.04 24 22:42 12.01.2020
4419 Haze 14 1024 58 4000 2.04 24 22:24 12.01.2020
4420 Clouds 14 1025 54 6000 2.04 24 21:57 12.01.2020
4421 Clouds 14 1025 54 6000 2.04 24 21:39 12.01.2020
4422 Clouds 15 1024 51 6000 1.5 320 21:20 12.01.2020
4423 Clouds 15 1024 51 6000 1.5 320 20:57 12.01.2020
4424 Clouds 15 1024 51 6000 2.6 300 20:39 12.01.2020
4425 Clouds 15 1024 51 6000 2.6 300 20:20 12.01.2020
4426 Clouds 15 1024 51 6000 2.6 300 19:56 12.01.2020
4427 Clouds 15 1024 51 6000 2.6 300 19:38 12.01.2020
4428 Clouds 15 1024 47 6000 2.43 332 19:19 12.01.2020
4429 Clouds 15 1024 47 6000 2.43 332 19:19 12.01.2020
4430 Clouds 15 1024 44 6000 2.43 332 18:58 12.01.2020
4431 Clouds 15 1024 44 6000 2.43 332 18:58 12.01.2020
4432 Clouds 15 1024 44 6000 2.43 332 18:40 12.01.2020
4433 Clouds 15 1024 44 6000 2.43 332 18:40 12.01.2020
4434 Clouds 15 1024 44 6000 2.43 332 18:21 12.01.2020
4435 Clouds 15 1024 44 6000 2.43 332 17:58 12.01.2020
4436 Clouds 15 1024 44 6000 2.43 332 17:38 12.01.2020
4437 Clouds 16 1023 41 6000 1.5 300 17:19 12.01.2020
4438 Clouds 17 1023 36 6000 3.6 300 16:56 12.01.2020
4439 Clouds 17 1023 36 6000 3.6 300 16:37 12.01.2020
4440 Clouds 17 1023 36 6000 3.6 300 16:37 12.01.2020
4441 Clouds 17 1023 36 6000 3.6 300 16:19 12.01.2020
4442 Clouds 18 1023 34 6000 3.6 300 15:43 12.01.2020
4443 Clouds 18 1023 34 6000 3.6 300 15:24 12.01.2020
4444 Clouds 18 1023 39 6000 3.6 240 14:57 12.01.2020
4445 Clouds 18 1023 39 6000 3.6 240 14:38 12.01.2020
4446 Clouds 18 1023 39 6000 3.6 240 14:20 12.01.2020
4447 Clouds 17 1023 45 6000 4.1 270 13:54 12.01.2020
4448 Clouds 17 1023 45 6000 4.1 270 13:36 12.01.2020
4449 Clouds 17 1023 45 6000 4.1 270 13:18 12.01.2020
4450 Haze 17 1024 48 4000 3.6 220 12:42 12.01.2020
4451 Haze 17 1024 48 4000 3.6 220 12:20 12.01.2020
4452 Haze 16 1024 55 4000 2.6 260 11:59 12.01.2020
4453 Haze 16 1024 55 4000 2.6 260 11:59 12.01.2020
4454 Haze 16 1024 55 4000 2.6 260 11:39 12.01.2020
4455 Haze 16 1024 55 4000 2.6 260 11:20 12.01.2020
4456 Haze 16 1026 59 4000 2.1 210 10:42 12.01.2020
4457 Haze 15 1026 62 2000 2.1 210 10:22 12.01.2020
4458 Haze 15 1026 67 2000 2.1 210 09:59 12.01.2020
4459 Haze 15 1026 67 2000 2.1 210 09:41 12.01.2020
4460 Haze 15 1026 67 2000 2.1 210 09:20 12.01.2020
4461 Haze 13 1026 71 2000 2.1 210 08:45 12.01.2020
4462 Haze 13 1026 71 2000 2.1 210 08:21 12.01.2020
4463 Haze 12 1025 76 2000 2.1 230 07:44 12.01.2020
4464 Haze 12 1025 76 2000 2.1 230 07:25 12.01.2020
4465 Haze 12 1025 71 3000 0.66 228 06:50 12.01.2020
4466 Haze 12 1025 71 3000 0.66 228 06:32 12.01.2020
4467 Haze 13 1025 71 3000 0.66 228 05:47 12.01.2020
4468 Haze 12 1024 76 3000 2.6 230 04:52 12.01.2020
4469 Haze 12 1024 71 3000 1 150 03:29 12.01.2020
4470 Haze 12 1024 71 3000 3.1 150 02:34 12.01.2020
4471 Haze 12 1024 71 3000 3.1 150 02:34 12.01.2020
4472 Haze 12 1024 71 3000 3.1 150 01:58 12.01.2020
4473 Haze 12 1024 71 3000 3.1 150 01:30 12.01.2020
4474 Haze 12 1025 66 3000 3.1 150 00:45 12.01.2020
4475 Haze 12 1025 66 3000 3.1 150 00:21 12.01.2020
4476 Haze 12 1025 62 3000 2.1 140 23:56 11.01.2020
4477 Haze 12 1025 62 3000 2.1 140 23:37 11.01.2020
4478 Haze 12 1025 62 3000 2.1 140 23:18 11.01.2020
4479 Haze 11 1026 66 4000 1.5 180 22:56 11.01.2020
4480 Haze 12 1026 58 4000 1.19 75 22:37 11.01.2020
4481 Haze 13 1026 58 4000 1.19 75 22:18 11.01.2020
4482 Haze 13 1026 58 4000 1 220 21:43 11.01.2020
4483 Haze 13 1026 58 4000 1.5 160 21:19 11.01.2020
4484 Clouds 12 1026 58 6000 1.19 75 20:56 11.01.2020
4485 Clouds 12 1026 58 6000 1.19 75 20:37 11.01.2020
4486 Clouds 14 1025 50 6000 1.57 309 20:19 11.01.2020
4487 Clouds 14 1025 50 6000 1.57 309 19:55 11.01.2020
4488 Clouds 14 1025 50 6000 1.57 309 19:37 11.01.2020
4489 Clouds 14 1025 50 6000 1.57 309 19:19 11.01.2020
4490 Clouds 14 1025 47 6000 1.57 309 18:55 11.01.2020
4491 Clouds 14 1025 47 10000 1.57 309 18:36 11.01.2020
4492 Clouds 14 1025 47 10000 1.57 309 18:18 11.01.2020
4493 Clouds 14 1025 47 10000 1.57 309 18:18 11.01.2020
4494 Clouds 15 1025 47 10000 1 180 17:55 11.01.2020
4495 Clouds 15 1024 47 10000 1 180 17:36 11.01.2020
4496 Clouds 15 1024 47 10000 1 180 17:18 11.01.2020
4497 Clouds 16 1024 41 10000 1.7 313 16:43 11.01.2020
4498 Clouds 16 1024 41 10000 1.7 313 16:23 11.01.2020
4499 Clouds 17 1023 39 10000 1.5 190 15:56 11.01.2020
4500 Clouds 17 1024 36 10000 2.1 180 15:37 11.01.2020
4501 Clouds 17 1024 36 10000 2.1 180 15:19 11.01.2020
4502 Clouds 17 1024 36 10000 1.5 210 14:44 11.01.2020
4503 Clouds 17 1024 39 10000 2.1 180 14:24 11.01.2020
4504 Clouds 17 1023 48 0 0.89 230 13:56 11.01.2020
4505 Clouds 16 1024 55 0 3.58 240 13:37 11.01.2020
4506 Clouds 16 1024 55 6000 3.6 240 13:19 11.01.2020
4507 Haze 16 1024 55 4000 2.1 230 12:44 11.01.2020
4508 Haze 16 1024 55 4000 2.1 230 12:26 11.01.2020
4509 Haze 15 1024 58 2000 2.6 250 11:56 11.01.2020
4510 Haze 15 1024 58 2000 2.6 250 11:37 11.01.2020
4511 Haze 15 1024 58 2000 2.6 250 11:18 11.01.2020
4512 Haze 15 1025 67 2000 4.1 230 10:44 11.01.2020
4513 Haze 15 1026 67 2000 4.1 230 10:24 11.01.2020
4514 Mist 14 1026 76 2000 4.1 240 09:42 11.01.2020
4515 Mist 14 1026 76 2000 2.6 240 09:21 11.01.2020
4516 Mist 13 1026 82 2000 3.1 250 08:43 11.01.2020
4517 Mist 12 1025 87 2000 1.5 180 08:23 11.01.2020
4518 Mist 11 1024 87 2000 0.38 50 07:45 11.01.2020
4519 Mist 11 1024 87 2000 1.5 120 07:27 11.01.2020
4520 Mist 9 1024 87 2000 1.5 150 06:57 11.01.2020
4521 Mist 9 1024 87 2000 1.5 150 06:37 11.01.2020
4522 Mist 8 1023 87 2000 3.6 150 05:18 11.01.2020
4523 Mist 8 1023 87 2000 4.1 160 04:37 11.01.2020
4524 Mist 9 1023 87 2000 4.1 160 04:19 11.01.2020
4525 Mist 9 1023 81 2000 2.6 170 02:45 11.01.2020
4526 Mist 9 1023 81 2000 1.5 180 01:45 11.01.2020
4527 Mist 9 1023 81 2000 1.5 180 01:22 11.01.2020
4528 Mist 9 1023 81 2000 2.1 190 00:51 11.01.2020
4529 Mist 10 1023 81 2000 1.5 230 00:21 11.01.2020
4530 Haze 10 1023 76 3000 1.5 240 23:56 10.01.2020
4531 Haze 11 1023 76 3000 1.5 240 23:38 10.01.2020
4532 Haze 11 1023 76 3000 1.5 240 23:20 10.01.2020
4533 Clouds 11 1023 76 6000 2.6 230 22:41 10.01.2020
4534 Clouds 11 1022 71 6000 1.59 333 22:22 10.01.2020
4535 Clouds 11 1022 71 6000 1.59 333 21:58 10.01.2020
4536 Clouds 11 1022 71 6000 1.59 333 21:40 10.01.2020
4537 Clouds 12 1022 66 6000 1.59 333 21:20 10.01.2020
4538 Clouds 13 1022 66 6000 1 280 20:56 10.01.2020
4539 Clouds 13 1022 66 6000 1 280 20:38 10.01.2020
4540 Clouds 13 1022 66 6000 2.1 260 20:19 10.01.2020
4541 Clouds 13 1022 66 6000 1.5 290 19:40 10.01.2020
4542 Clouds 13 1022 66 6000 1.5 290 19:40 10.01.2020
4543 Clouds 13 1021 66 6000 4.07 350 19:20 10.01.2020
4544 Clouds 13 1021 66 10000 1.5 320 18:55 10.01.2020
4545 Clouds 13 1021 66 10000 1.5 320 18:37 10.01.2020
4546 Clouds 13 1021 66 10000 2.1 340 18:18 10.01.2020
4547 Clouds 14 1021 62 10000 3.6 320 17:56 10.01.2020
4548 Clouds 14 1020 62 10000 3.1 330 17:37 10.01.2020
4549 Clouds 14 1020 62 10000 3.1 330 17:19 10.01.2020
4550 Clouds 14 1020 62 10000 3.1 330 17:19 10.01.2020
4551 Clouds 14 1019 62 10000 3.6 300 16:42 10.01.2020
4552 Clouds 14 1019 62 10000 3.6 300 16:21 10.01.2020
4553 Clouds 14 1019 62 10000 3.6 300 16:21 10.01.2020
4554 Clouds 14 1019 62 10000 5.7 300 15:57 10.01.2020
4555 Clouds 14 1019 62 10000 5.7 300 15:38 10.01.2020
4556 Clouds 14 1019 62 10000 5.7 300 15:20 10.01.2020
4557 Clouds 15 1018 55 6000 5.1 290 14:58 10.01.2020
4558 Clouds 15 1018 55 6000 5.1 290 14:58 10.01.2020
4559 Clouds 16 1018 55 6000 5.1 290 14:40 10.01.2020
4560 Clouds 16 1018 55 6000 5.1 290 14:19 10.01.2020
4561 Clouds 16 1018 55 6000 4.6 350 13:57 10.01.2020
4562 Clouds 16 1018 55 6000 4.6 350 13:37 10.01.2020
4563 Clouds 16 1018 55 6000 4.6 350 13:19 10.01.2020
4564 Clouds 16 1018 59 6000 3.6 320 12:56 10.01.2020
4565 Clouds 16 1018 59 6000 3.6 320 12:38 10.01.2020
4566 Clouds 16 1018 59 6000 3.6 320 12:18 10.01.2020
4567 Clouds 15 1018 67 6000 2.6 320 11:42 10.01.2020
4568 Clouds 15 1018 67 6000 2.6 320 11:22 10.01.2020
4569 Clouds 15 1018 67 6000 2.6 320 11:22 10.01.2020
4570 Clouds 15 1018 67 6000 3.1 300 10:59 10.01.2020
4571 Clouds 15 1018 67 6000 3.1 300 10:38 10.01.2020
4572 Clouds 14 1019 76 6000 3.1 260 10:20 10.01.2020
4573 Clouds 13 1019 76 6000 4.1 240 09:55 10.01.2020
4574 Clouds 13 1019 76 6000 4.1 240 09:36 10.01.2020
4575 Clouds 12 1019 81 6000 4.1 240 09:18 10.01.2020
4576 Clouds 11 1019 87 6000 4.1 220 08:40 10.01.2020
4577 Clouds 10 1018 87 6000 4.1 190 08:21 10.01.2020
4578 Clouds 10 1018 87 6000 3.1 190 07:44 10.01.2020
4579 Clouds 9 1018 87 6000 3.6 200 07:23 10.01.2020
4580 Clouds 9 1017 87 6000 4.1 210 06:45 10.01.2020
4581 Clouds 8 1017 87 6000 3.1 210 06:25 10.01.2020
4582 Clouds 8 1017 87 6000 3.1 210 05:44 10.01.2020
4583 Clouds 10 1015 76 6000 4.6 240 03:35 10.01.2020
4584 Clouds 10 1015 76 6000 4.6 240 02:58 10.01.2020
4585 Clouds 10 1015 76 6000 4.6 240 02:37 10.01.2020
4586 Clouds 10 1016 81 6000 5.7 240 01:38 10.01.2020
4587 Clouds 10 1016 81 6000 7.2 230 00:58 10.01.2020
4588 Clouds 11 1016 76 6000 8.7 210 00:38 10.01.2020
4589 Clouds 11 1016 76 6000 6.2 220 23:57 09.01.2020
4590 Clouds 11 1016 76 6000 6.2 220 23:38 09.01.2020
4591 Clouds 11 1016 81 6000 4.6 250 23:20 09.01.2020
4592 Clouds 11 1016 81 6000 4.6 270 22:57 09.01.2020
4593 Clouds 12 1017 76 10000 5.1 250 22:37 09.01.2020
4594 Clouds 12 1017 76 10000 5.1 250 22:19 09.01.2020
4595 Clouds 12 1017 76 10000 4.6 240 21:56 09.01.2020
4596 Clouds 12 1017 76 10000 5.1 250 21:37 09.01.2020
4597 Clouds 12 1017 76 10000 5.1 250 21:18 09.01.2020
4598 Clouds 11 1017 81 10000 5.7 250 20:56 09.01.2020
4599 Clouds 11 1017 81 10000 5.7 250 20:38 09.01.2020
4600 Clouds 12 1017 76 10000 4.6 240 20:19 09.01.2020
4601 Clouds 12 1017 76 10000 4.6 240 20:19 09.01.2020
4602 Clouds 12 1017 76 10000 4.6 240 20:19 09.01.2020
4603 Clouds 12 1017 76 10000 5.1 240 19:56 09.01.2020
4604 Clouds 12 1017 76 10000 5.1 260 19:37 09.01.2020
4605 Clouds 12 1017 76 10000 5.1 260 19:18 09.01.2020
4606 Clouds 12 1016 76 10000 6.2 260 18:54 09.01.2020
4607 Clouds 12 1016 76 10000 6.2 260 18:54 09.01.2020
4608 Clouds 12 1016 76 10000 6.7 250 18:36 09.01.2020
4609 Clouds 12 1016 76 10000 6.7 250 18:18 09.01.2020
4610 Clouds 13 1016 66 10000 5.1 250 17:41 09.01.2020
4611 Clouds 13 1016 66 10000 5.1 250 17:18 09.01.2020
4612 Rain 13 1016 66 10000 5.1 250 16:48 09.01.2020
4613 Clouds 14 1015 54 10000 6.7 260 16:23 09.01.2020
4614 Clouds 14 1015 54 10000 6.7 260 16:23 09.01.2020
4615 Clouds 15 1015 51 10000 7.7 260 15:57 09.01.2020
4616 Clouds 15 1015 51 6000 7.7 260 15:39 09.01.2020
4617 Clouds 15 1015 51 6000 7.7 260 15:18 09.01.2020
4618 Clouds 15 1015 51 6000 8.7 230 14:42 09.01.2020
4619 Clouds 15 1015 51 6000 8.7 230 14:21 09.01.2020
4620 Clouds 15 1015 47 6000 8.2 250 13:57 09.01.2020
4621 Clouds 14 1015 50 6000 8.2 230 13:39 09.01.2020
4622 Clouds 14 1015 50 6000 8.2 230 13:39 09.01.2020
4623 Clouds 14 1015 50 6000 8.2 230 13:20 09.01.2020
4624 Clouds 14 1015 50 6000 8.2 230 12:58 09.01.2020
4625 Clouds 14 1015 50 6000 8.2 220 12:38 09.01.2020
4626 Clouds 14 1015 50 6000 8.2 220 12:19 09.01.2020
4627 Clouds 14 1015 50 6000 8.2 210 11:55 09.01.2020
4628 Clouds 13 1016 58 6000 7.7 200 11:37 09.01.2020
4629 Clouds 13 1016 58 6000 7.7 200 11:19 09.01.2020
4630 Clouds 11 1017 62 6000 5.7 210 10:42 09.01.2020
4631 Clouds 11 1017 62 6000 5.7 210 10:22 09.01.2020
4632 Clouds 11 1018 62 6000 6.7 210 09:55 09.01.2020
4633 Clouds 11 1018 62 6000 6.7 210 09:37 09.01.2020
4634 Clouds 11 1018 62 6000 6.7 210 09:18 09.01.2020
4635 Clouds 10 1018 61 6000 6.7 200 08:54 09.01.2020
4636 Clouds 10 1018 66 6000 6.2 190 08:36 09.01.2020
4637 Clouds 10 1018 66 6000 6.2 190 08:18 09.01.2020
4638 Clouds 10 1018 66 6000 6.2 190 07:41 09.01.2020
4639 Clouds 9 1018 66 6000 6.2 190 07:23 09.01.2020
4640 Clouds 9 1017 66 6000 6.7 200 06:38 09.01.2020
4641 Clouds 9 1017 66 6000 6.7 200 06:18 09.01.2020
4642 Clouds 9 1017 66 6000 5.7 200 05:43 09.01.2020
4643 Clouds 9 1017 61 6000 6.2 220 04:42 09.01.2020
4644 Clouds 10 1017 62 6000 6.2 200 03:30 09.01.2020
4645 Clouds 10 1017 62 6000 6.2 200 03:30 09.01.2020
4646 Clouds 11 1017 62 6000 5.7 220 02:48 09.01.2020
4647 Clouds 11 1017 62 6000 5.7 220 02:23 09.01.2020
4648 Clouds 12 1018 58 6000 6.2 220 01:35 09.01.2020
4649 Clouds 12 1018 62 6000 7.2 240 00:42 09.01.2020
4650 Clouds 12 1018 62 6000 7.2 240 00:21 09.01.2020
4651 Clouds 13 1018 54 6000 5.7 230 23:42 08.01.2020
4652 Clouds 13 1018 54 6000 5.7 230 23:24 08.01.2020
4653 Clouds 13 1018 54 6000 5.7 230 22:58 08.01.2020
4654 Clouds 13 1018 54 6000 5.7 230 22:38 08.01.2020
4655 Clouds 13 1018 54 6000 5.7 230 22:20 08.01.2020
4656 Clouds 13 1019 54 6000 7.2 240 21:57 08.01.2020
4657 Clouds 13 1019 54 6000 7.2 240 21:38 08.01.2020
4658 Clouds 13 1019 50 6000 7.2 240 21:19 08.01.2020
4659 Clouds 14 1019 50 6000 7.2 240 20:57 08.01.2020
4660 Clouds 14 1019 50 6000 7.2 240 20:38 08.01.2020
4661 Clouds 14 1019 50 6000 7.2 240 20:20 08.01.2020
4662 Clouds 14 1018 47 6000 7.2 240 19:56 08.01.2020
4663 Clouds 14 1018 47 6000 7.2 240 19:36 08.01.2020
4664 Clouds 14 1018 47 6000 7.2 240 19:18 08.01.2020
4665 Clouds 14 1018 47 6000 7.7 240 18:55 08.01.2020
4666 Clouds 14 1018 47 6000 7.7 240 18:55 08.01.2020
4667 Clouds 14 1018 47 6000 7.7 240 18:36 08.01.2020
4668 Clouds 14 1018 47 6000 7.7 240 18:18 08.01.2020
4669 Clouds 14 1018 47 6000 7.7 240 17:45 08.01.2020
4670 Clouds 14 1018 47 6000 7.7 240 17:24 08.01.2020
4671 Clouds 15 1017 44 6000 6.2 260 16:57 08.01.2020
4672 Clouds 15 1017 44 6000 6.2 260 16:39 08.01.2020
4673 Clouds 15 1017 44 6000 6.2 260 16:19 08.01.2020
4674 Clouds 16 1017 41 6000 11.3 270 15:57 08.01.2020
4675 Clouds 16 1017 41 6000 11.3 270 15:39 08.01.2020
4676 Clouds 16 1017 41 6000 11.3 270 15:18 08.01.2020
4677 Clouds 16 1016 41 6000 9.3 250 14:55 08.01.2020
4678 Clouds 16 1016 41 6000 9.3 270 14:37 08.01.2020
4679 Clouds 16 1016 41 6000 9.3 270 14:19 08.01.2020
4680 Clouds 16 1016 38 6000 11.3 260 13:39 08.01.2020
4681 Clouds 16 1016 38 6000 11.3 260 13:18 08.01.2020
4682 Clouds 16 1016 38 6000 11.3 250 12:41 08.01.2020
4683 Clouds 16 1016 38 6000 11.3 250 12:18 08.01.2020
4684 Clouds 15 1017 47 6000 10.3 220 11:55 08.01.2020
4685 Clouds 15 1017 47 6000 10.3 220 11:37 08.01.2020
4686 Clouds 15 1017 47 6000 10.3 220 11:18 08.01.2020
4687 Clouds 12 1018 58 6000 9.8 200 10:42 08.01.2020
4688 Clouds 12 1018 58 6000 9.8 200 10:22 08.01.2020
4689 Clouds 11 1018 57 6000 9.3 200 09:59 08.01.2020
4690 Clouds 11 1018 57 6000 9.3 200 09:41 08.01.2020
4691 Clouds 11 1018 57 6000 9.3 200 09:19 08.01.2020
4692 Clouds 11 1018 57 6000 9.3 200 09:19 08.01.2020
4693 Clouds 10 1018 61 6000 8.2 200 08:55 08.01.2020
4694 Clouds 9 1018 66 6000 8.2 200 08:36 08.01.2020
4695 Clouds 9 1018 66 6000 8.2 200 08:18 08.01.2020
4696 Clouds 8 1018 65 6000 7.2 200 07:43 08.01.2020
4697 Clouds 8 1018 65 6000 7.2 200 07:23 08.01.2020
4698 Clouds 9 1017 61 6000 7.7 200 06:44 08.01.2020
4699 Clouds 9 1017 61 10000 7.7 200 05:59 08.01.2020
4700 Clouds 9 1017 61 10000 7.7 200 05:28 08.01.2020
4701 Clouds 9 1017 61 10000 7.2 210 04:54 08.01.2020
4702 Clouds 10 1017 57 10000 8.2 210 03:33 08.01.2020
4703 Clouds 10 1017 57 10000 8.7 220 02:44 08.01.2020
4704 Clouds 10 1017 57 10000 8.7 210 02:19 08.01.2020
4705 Clouds 10 1017 53 10000 8.7 210 01:42 08.01.2020
4706 Clouds 10 1017 53 10000 9.3 210 00:59 08.01.2020
4707 Clouds 10 1017 53 10000 9.3 210 00:27 08.01.2020
4708 Clouds 10 1017 53 10000 9.3 210 23:47 07.01.2020
4709 Clouds 10 1017 53 10000 7.7 210 23:22 07.01.2020
4710 Clouds 10 1017 50 10000 8.2 210 22:58 07.01.2020
4711 Clouds 11 1017 50 10000 8.7 210 22:39 07.01.2020
4712 Clouds 11 1017 50 10000 8.7 210 22:20 07.01.2020
4713 Clouds 11 1017 50 10000 10.8 210 21:55 07.01.2020
4714 Clouds 11 1017 46 10000 10.3 210 21:37 07.01.2020
4715 Clouds 12 1017 46 10000 10.3 210 21:19 07.01.2020
4716 Clouds 12 1017 46 10000 9.8 210 20:42 07.01.2020
4717 Clouds 12 1017 46 10000 9.8 210 20:24 07.01.2020
4718 Clouds 12 1017 46 10000 9.3 220 19:59 07.01.2020
4719 Clouds 12 1018 53 10000 10.3 230 19:38 07.01.2020
4720 Clouds 13 1018 53 10000 10.3 230 19:19 07.01.2020
4721 Clouds 13 1017 53 10000 9.3 230 18:58 07.01.2020
4722 Clouds 13 1017 43 6000 8.2 230 18:40 07.01.2020
4723 Clouds 13 1017 43 6000 8.2 230 18:18 07.01.2020
4724 Clouds 13 1017 43 6000 8.2 230 18:18 07.01.2020
4725 Clouds 13 1016 43 6000 7.2 230 17:58 07.01.2020
4726 Clouds 13 1016 43 6000 7.2 230 17:39 07.01.2020
4727 Clouds 13 1016 43 6000 7.2 230 17:20 07.01.2020
4728 Clouds 13 1016 43 6000 8.7 230 16:56 07.01.2020
4729 Clouds 13 1016 41 6000 10.3 240 16:37 07.01.2020
4730 Clouds 14 1016 41 6000 10.3 240 16:18 07.01.2020
4731 Clouds 15 1016 44 6000 9.8 240 15:57 07.01.2020
4732 Clouds 15 1015 41 6000 10.3 240 15:37 07.01.2020
4733 Clouds 14 1015 41 6000 10.3 240 15:18 07.01.2020
4734 Clouds 15 1015 38 6000 11.8 240 14:42 07.01.2020
4735 Clouds 15 1015 38 6000 11.8 240 14:23 07.01.2020
4736 Clouds 15 1015 38 6000 11.8 220 13:57 07.01.2020
4737 Clouds 15 1014 38 6000 11.3 220 13:38 07.01.2020
4738 Clouds 15 1014 38 6000 11.3 220 13:18 07.01.2020
4739 Clouds 15 1015 44 6000 12.9 220 12:41 07.01.2020
4740 Clouds 14 1015 44 6000 12.9 220 12:19 07.01.2020
4741 Clouds 15 1015 44 6000 12.3 220 11:45 07.01.2020
4742 Clouds 14 1015 44 6000 12.3 220 11:23 07.01.2020
4743 Clouds 14 1016 47 10000 11.3 220 10:59 07.01.2020
4744 Clouds 13 1016 62 10000 8.2 210 10:41 07.01.2020
4745 Clouds 13 1016 62 10000 8.2 210 10:41 07.01.2020
4746 Clouds 13 1016 62 10000 8.2 210 10:23 07.01.2020
4747 Clouds 12 1016 62 6000 8.7 210 09:56 07.01.2020
4748 Clouds 11 1017 66 6000 8.7 210 09:38 07.01.2020
4749 Clouds 11 1017 66 6000 8.7 210 09:20 07.01.2020
4750 Clouds 11 1016 71 6000 8.2 210 08:42 07.01.2020
4751 Clouds 11 1016 71 6000 8.2 210 08:23 07.01.2020
4752 Clouds 11 1016 71 6000 7.7 210 07:54 07.01.2020
4753 Clouds 11 1016 66 6000 7.7 200 07:28 07.01.2020
4754 Clouds 10 1016 71 6000 7.2 200 06:53 07.01.2020
4755 Clouds 11 1015 66 6000 6.2 210 06:34 07.01.2020
4756 Clouds 11 1015 66 10000 6.7 200 05:54 07.01.2020
4757 Clouds 11 1014 71 10000 5.1 180 04:33 07.01.2020
4758 Clouds 11 1014 71 10000 5.1 200 03:26 07.01.2020
4759 Clear 11 1015 71 10000 4.1 200 02:22 07.01.2020
4760 Clear 10 1015 71 10000 2.1 220 01:51 07.01.2020
4761 Clear 11 1015 66 10000 4.1 230 01:28 07.01.2020
4762 Clear 12 1015 50 10000 7.7 220 00:37 07.01.2020
4763 Clear 12 1015 50 10000 7.7 220 00:18 07.01.2020
4764 Clear 13 1014 44 10000 8.7 200 23:39 06.01.2020
4765 Clear 14 1014 44 10000 8.7 200 23:21 06.01.2020
4766 Clear 14 1014 44 10000 9.3 200 22:58 06.01.2020
4767 Clear 14 1014 44 10000 9.3 200 22:39 06.01.2020
4768 Clear 14 1014 44 10000 9.3 200 22:21 06.01.2020
4769 Clear 14 1015 47 10000 9.3 200 21:56 06.01.2020
4770 Clear 14 1015 47 10000 9.8 200 21:38 06.01.2020
4771 Clear 14 1015 47 10000 9.8 200 21:19 06.01.2020
4772 Clear 14 1015 47 10000 8.7 200 20:56 06.01.2020
4773 Clear 14 1015 44 10000 8.7 200 20:37 06.01.2020
4774 Clear 15 1015 44 10000 8.7 200 20:19 06.01.2020
4775 Clouds 15 1014 44 10000 7.7 200 19:55 06.01.2020
4776 Clear 15 1014 47 10000 7.2 190 19:37 06.01.2020
4777 Clear 15 1014 47 10000 7.2 190 19:18 06.01.2020
4778 Clouds 15 1014 44 10000 7.7 190 18:45 06.01.2020
4779 Clouds 15 1014 47 10000 7.2 180 18:21 06.01.2020
4780 Clouds 15 1014 47 10000 7.2 180 17:40 06.01.2020
4781 Clouds 15 1014 47 10000 7.2 180 17:40 06.01.2020
4782 Clouds 15 1014 47 10000 7.2 180 17:20 06.01.2020
4783 Clouds 15 1014 47 10000 7.2 180 17:20 06.01.2020
4784 Clouds 15 1014 51 10000 6.7 180 16:59 06.01.2020
4785 Clouds 15 1014 48 10000 7.2 180 16:41 06.01.2020
4786 Clouds 16 1014 48 10000 7.2 180 16:23 06.01.2020
4787 Clouds 16 1014 44 10000 8.2 180 15:59 06.01.2020
4788 Clouds 16 1014 44 10000 11.3 200 15:37 06.01.2020
4789 Clouds 16 1014 44 10000 11.3 200 15:37 06.01.2020
4790 Clouds 16 1014 42 10000 9.8 200 15:18 06.01.2020
4791 Clouds 16 1014 44 10000 11.3 200 15:18 06.01.2020
4792 Clouds 17 1014 42 10000 10.3 190 14:42 06.01.2020
4793 Clouds 17 1014 42 10000 10.3 190 14:23 06.01.2020
4794 Clouds 17 1014 42 10000 10.3 190 14:23 06.01.2020
4795 Clouds 17 1013 42 10000 11.8 210 13:59 06.01.2020
4796 Clouds 16 1014 44 10000 11.8 200 13:39 06.01.2020
4797 Clouds 16 1014 44 10000 11.8 200 13:21 06.01.2020
4798 Clouds 16 1014 48 10000 11.8 190 12:58 06.01.2020
4799 Clouds 16 1014 48 10000 10.8 200 12:39 06.01.2020
4800 Clouds 16 1014 48 10000 10.8 200 12:39 06.01.2020
4801 Clouds 16 1014 48 10000 10.8 200 12:19 06.01.2020
4802 Clouds 15 1015 51 10000 10.3 190 11:43 06.01.2020
4803 Clouds 15 1015 51 10000 10.3 190 11:24 06.01.2020
4804 Clouds 15 1016 51 10000 10.3 190 11:00 06.01.2020
4805 Clouds 15 1016 50 10000 9.8 180 10:41 06.01.2020
4806 Clouds 14 1016 50 10000 9.8 180 10:21 06.01.2020
4807 Clouds 13 1017 54 10000 8.2 180 09:42 06.01.2020
4808 Clouds 13 1017 54 10000 8.2 180 09:24 06.01.2020
4809 Clouds 13 1017 50 10000 7.2 180 08:57 06.01.2020
4810 Clouds 12 1017 54 10000 10.3 170 08:38 06.01.2020
4811 Clouds 12 1017 54 10000 10.3 170 08:38 06.01.2020
4812 Clouds 12 1017 54 10000 10.3 170 08:19 06.01.2020
4813 Clouds 11 1017 53 10000 8.7 180 07:44 06.01.2020
4814 Clouds 11 1016 53 6000 6.7 190 06:55 06.01.2020
4815 Clouds 10 1016 57 6000 7.7 180 06:35 06.01.2020
4816 Clouds 10 1016 57 6000 7.7 180 05:48 06.01.2020
4817 Clouds 10 1016 57 6000 7.7 180 05:28 06.01.2020
4818 Clouds 10 1016 57 6000 7.7 180 04:24 06.01.2020
4819 Clouds 10 1016 57 6000 5.7 180 03:51 06.01.2020
4820 Clouds 11 1016 53 6000 8.2 180 02:29 06.01.2020
4821 Clouds 11 1016 53 6000 7.2 180 01:54 06.01.2020
4822 Clouds 12 1016 50 6000 7.2 180 01:31 06.01.2020
4823 Clouds 12 1017 50 10000 6.7 190 00:48 06.01.2020
4824 Clouds 12 1017 50 10000 6.7 190 00:29 06.01.2020
4825 Clouds 12 1017 47 10000 6.2 180 23:59 05.01.2020
4826 Clouds 13 1017 47 10000 6.2 180 23:40 05.01.2020
4827 Clouds 13 1017 47 10000 6.2 180 23:21 05.01.2020
4828 Clouds 13 1017 47 10000 6.7 180 22:40 05.01.2020
4829 Clouds 13 1017 47 10000 6.7 180 22:40 05.01.2020
4830 Clouds 13 1017 47 10000 6.7 180 22:21 05.01.2020
4831 Clouds 13 1017 50 10000 6.7 170 21:59 05.01.2020
4832 Clouds 13 1017 50 10000 7.2 170 21:40 05.01.2020
4833 Clouds 13 1017 50 10000 7.2 170 21:20 05.01.2020
4834 Clouds 13 1017 50 10000 7.7 170 20:58 05.01.2020
4835 Clouds 13 1017 54 10000 6.7 170 20:39 05.01.2020
4836 Clouds 13 1017 54 10000 6.7 170 20:19 05.01.2020
4837 Clouds 13 1017 54 10000 6.7 170 19:59 05.01.2020
4838 Clouds 13 1018 54 10000 6.2 170 19:39 05.01.2020
4839 Clouds 13 1018 54 10000 6.2 170 19:20 05.01.2020
4840 Clouds 13 1018 54 10000 6.7 170 18:56 05.01.2020
4841 Clouds 13 1017 50 10000 5.7 180 18:38 05.01.2020
4842 Clouds 14 1017 50 10000 5.7 180 18:19 05.01.2020
4843 Clouds 14 1017 50 10000 5.7 180 18:19 05.01.2020
4844 Clouds 14 1018 50 10000 5.7 180 17:58 05.01.2020
4845 Clouds 14 1017 50 10000 5.7 170 17:39 05.01.2020
4846 Clouds 14 1017 50 10000 5.7 170 17:39 05.01.2020
4847 Clouds 14 1017 50 10000 5.7 170 17:20 05.01.2020
4848 Clouds 15 1017 44 10000 6.2 200 16:57 05.01.2020
4849 Clouds 15 1017 44 10000 6.2 200 16:39 05.01.2020
4850 Clouds 15 1017 44 10000 6.2 200 16:39 05.01.2020
4851 Clouds 15 1017 44 10000 6.2 200 16:20 05.01.2020
4852 Clouds 16 1017 41 10000 6.7 210 15:40 05.01.2020
4853 Clouds 16 1017 41 10000 6.7 210 15:22 05.01.2020
4854 Clouds 16 1017 41 10000 7.7 210 14:57 05.01.2020
4855 Clouds 16 1017 41 10000 7.7 210 14:39 05.01.2020
4856 Clouds 16 1017 41 10000 7.7 210 14:20 05.01.2020
4857 Clouds 15 1017 47 10000 7.7 190 13:57 05.01.2020
4858 Clouds 15 1017 47 10000 7.7 190 13:38 05.01.2020
4859 Clouds 15 1017 47 10000 7.7 190 13:20 05.01.2020
4860 Clouds 15 1017 47 10000 7.7 190 13:20 05.01.2020
4861 Clouds 14 1018 47 10000 8.2 190 12:56 05.01.2020
4862 Clouds 14 1018 47 10000 8.2 190 12:37 05.01.2020
4863 Clouds 14 1018 47 10000 8.2 190 12:19 05.01.2020
4864 Clouds 14 1018 47 10000 8.2 190 12:19 05.01.2020
4865 Clouds 14 1018 47 10000 8.2 190 12:19 05.01.2020
4866 Clouds 14 1019 47 10000 7.7 190 11:54 05.01.2020
4867 Clouds 14 1019 47 10000 7.7 190 11:36 05.01.2020
4868 Clouds 14 1019 47 10000 7.7 190 11:18 05.01.2020
4869 Clouds 13 1020 47 10000 7.7 190 10:40 05.01.2020
4870 Clouds 13 1020 47 10000 7.7 190 10:20 05.01.2020
4871 Clouds 12 1020 50 10000 6.7 190 09:55 05.01.2020
4872 Clouds 11 1020 50 10000 6.7 180 09:36 05.01.2020
4873 Clouds 11 1020 50 10000 6.7 180 09:18 05.01.2020
4874 Clouds 10 1020 53 10000 7.7 180 08:44 05.01.2020
4875 Clouds 9 1020 62 10000 5.7 180 08:21 05.01.2020
4876 Clouds 8 1020 62 6000 4.6 180 07:44 05.01.2020
4877 Clouds 8 1020 62 6000 4.6 180 07:44 05.01.2020
4878 Clouds 8 1020 62 6000 4.6 180 07:26 05.01.2020
4879 Haze 8 1020 62 4000 4.6 180 06:54 05.01.2020
4880 Haze 8 1019 62 4000 4.6 170 05:41 05.01.2020
4881 Haze 9 1019 64 4000 4.6 180 04:56 05.01.2020
4882 Haze 9 1019 64 4000 4.6 180 04:19 05.01.2020
4883 Haze 9 1019 64 4000 4.6 180 04:19 05.01.2020
4884 Haze 9 1019 64 4000 4.6 180 04:19 05.01.2020
4885 Clear 9 1019 64 0 4.92 180 03:38 05.01.2020
4886 Clouds 9 1019 64 10000 5.1 180 02:35 05.01.2020
4887 Clouds 9 1019 63 10000 4.1 180 01:52 05.01.2020
4888 Clouds 9 1020 66 10000 5.1 180 01:20 05.01.2020
4889 Clouds 9 1019 66 10000 4.6 180 00:57 05.01.2020
4890 Clouds 9 1019 66 10000 3.6 170 00:39 05.01.2020
4891 Clouds 9 1019 66 10000 3.6 170 00:20 05.01.2020
4892 Clouds 10 1019 66 10000 3.6 180 23:57 04.01.2020
4893 Clouds 10 1020 66 10000 4.6 210 23:38 04.01.2020
4894 Clouds 11 1020 59 10000 4.6 210 23:18 04.01.2020
4895 Clouds 11 1020 59 10000 5.1 220 22:39 04.01.2020
4896 Clouds 11 1020 59 10000 5.1 220 22:20 04.01.2020
4897 Clouds 12 1020 46 10000 5.7 230 21:56 04.01.2020
4898 Clouds 12 1020 46 10000 4.1 220 21:37 04.01.2020
4899 Clouds 12 1020 46 10000 4.1 220 21:19 04.01.2020
4900 Clouds 12 1020 46 10000 3.1 220 20:55 04.01.2020
4901 Clouds 12 1019 43 10000 5.1 240 20:36 04.01.2020
4902 Clouds 13 1019 43 10000 5.1 240 20:18 04.01.2020
4903 Clouds 13 1019 47 10000 5.1 240 19:41 04.01.2020
4904 Clouds 13 1019 47 10000 5.1 240 19:23 04.01.2020
4905 Clouds 13 1019 47 10000 4.6 240 18:58 04.01.2020
4906 Clouds 13 1019 47 10000 4.6 240 18:38 04.01.2020
4907 Clouds 13 1019 47 10000 4.6 240 18:20 04.01.2020
4908 Clouds 13 1019 47 10000 4.6 240 18:20 04.01.2020
4909 Clouds 14 1019 44 10000 4.6 240 17:56 04.01.2020
4910 Clouds 14 1019 41 10000 5.7 240 17:38 04.01.2020
4911 Clouds 14 1019 41 10000 5.7 240 17:20 04.01.2020
4912 Clouds 15 1018 41 10000 5.7 250 16:42 04.01.2020
4913 Clouds 15 1018 41 10000 5.7 250 16:24 04.01.2020
4914 Clouds 15 1018 51 10000 4.6 210 15:57 04.01.2020
4915 Clouds 15 1018 51 10000 5.1 200 15:38 04.01.2020
4916 Clouds 15 1018 51 10000 5.1 200 15:19 04.01.2020
4917 Clouds 15 1018 51 10000 5.7 190 14:56 04.01.2020
4918 Clouds 15 1018 54 10000 5.1 200 14:38 04.01.2020
4919 Clouds 15 1018 54 10000 5.1 200 14:19 04.01.2020
4920 Clouds 15 1018 54 10000 5.1 200 14:19 04.01.2020
4921 Clouds 15 1018 54 10000 6.2 200 13:55 04.01.2020
4922 Clouds 14 1018 58 10000 6.7 190 13:36 04.01.2020
4923 Clouds 14 1018 58 10000 6.7 190 13:18 04.01.2020
4924 Clouds 14 1018 58 6000 7.2 200 12:41 04.01.2020
4925 Clouds 13 1018 58 6000 7.2 200 12:19 04.01.2020
4926 Clouds 13 1019 62 6000 8.7 200 11:58 04.01.2020
4927 Clouds 13 1019 62 6000 8.2 200 11:39 04.01.2020
4928 Clouds 13 1019 62 6000 8.2 200 11:39 04.01.2020
4929 Clouds 13 1019 62 6000 8.2 200 11:19 04.01.2020
4930 Clouds 11 1020 71 6000 8.2 190 10:42 04.01.2020
4931 Clouds 11 1020 71 6000 8.2 190 10:23 04.01.2020
4932 Clouds 11 1020 76 6000 8.2 200 09:59 04.01.2020
4933 Clouds 11 1020 76 6000 8.2 200 09:41 04.01.2020
4934 Clouds 11 1020 76 6000 8.2 200 09:21 04.01.2020
4935 Sand 10 1019 76 3000 6.7 190 08:41 04.01.2020
4936 Sand 10 1019 76 3000 6.7 190 08:21 04.01.2020
4937 Sand 10 1019 76 3000 6.7 190 08:21 04.01.2020
4938 Clouds 10 1019 76 10000 8.2 180 07:44 04.01.2020
4939 Clouds 9 1019 76 10000 8.2 180 07:21 04.01.2020
4940 Clouds 10 1018 76 10000 7.2 200 06:33 04.01.2020
4941 Clouds 9 1018 81 10000 6.7 200 05:39 04.01.2020
4942 Clouds 9 1018 81 10000 7.7 200 04:44 04.01.2020
4943 Clouds 9 1018 81 10000 7.7 200 04:25 04.01.2020
4944 Rain 9 1018 76 6000 7.2 200 03:19 04.01.2020
4945 Clouds 9 1018 70 6000 8.7 200 02:23 04.01.2020
4946 Clouds 10 1018 57 6000 9.3 200 01:56 04.01.2020
4947 Clouds 10 1018 57 6000 9.3 200 01:32 04.01.2020
4948 Clouds 11 1018 50 6000 11.3 210 00:46 04.01.2020
4949 Clouds 11 1018 50 6000 11.3 210 00:27 04.01.2020
4950 Clouds 11 1017 60 6000 10.8 200 23:48 03.01.2020
4951 Clouds 11 1018 60 6000 10.8 200 23:26 03.01.2020
4952 Clouds 11 1018 51 6000 10.3 210 22:54 03.01.2020
4953 Clouds 12 1018 51 6000 10.3 210 22:36 03.01.2020
4954 Clouds 12 1018 51 6000 10.3 210 22:18 03.01.2020
4955 Clouds 11 1018 51 6000 9.8 210 21:54 03.01.2020
4956 Clouds 11 1018 51 6000 9.8 210 21:36 03.01.2020
4957 Clouds 12 1018 51 6000 9.8 210 21:18 03.01.2020
4958 Clouds 12 1019 51 6000 10.3 220 20:43 03.01.2020
4959 Clear 12 1019 48 6000 10.3 220 20:19 03.01.2020
4960 Clear 12 1019 49 6000 9.3 220 19:59 03.01.2020
4961 Clear 12 1018 49 6000 9.3 220 19:40 03.01.2020
4962 Clear 13 1018 49 6000 9.3 220 19:21 03.01.2020
4963 Clear 13 1018 49 6000 9.3 220 18:46 03.01.2020
4964 Clear 13 1018 49 6000 9.3 220 18:26 03.01.2020
4965 Clouds 13 1018 49 6000 9.3 220 17:57 03.01.2020
4966 Clouds 13 1018 49 6000 11.3 230 17:39 03.01.2020
4967 Clouds 14 1018 34 6000 11.3 230 17:19 03.01.2020
4968 Clouds 14 1018 33 6000 10.8 240 16:43 03.01.2020
4969 Clouds 14 1018 33 6000 10.8 240 16:24 03.01.2020
4970 Clouds 14 1018 26 6000 12.3 230 15:59 03.01.2020
4971 Clouds 15 1018 26 6000 12.3 230 15:41 03.01.2020
4972 Clouds 15 1018 26 6000 12.3 230 15:19 03.01.2020
4973 Clouds 15 1018 30 6000 11.3 220 14:39 03.01.2020
4974 Clouds 15 1018 30 6000 11.3 220 14:20 03.01.2020
4975 Clouds 15 1018 38 10000 10.8 210 13:57 03.01.2020
4976 Clouds 15 1018 38 10000 10.8 210 13:38 03.01.2020
4977 Clouds 15 1018 38 10000 10.8 210 13:20 03.01.2020
4978 Clouds 14 1018 41 10000 9.8 210 12:40 03.01.2020
4979 Clouds 14 1018 41 10000 9.8 210 12:22 03.01.2020
4980 Clouds 14 1018 41 10000 9.8 210 12:21 03.01.2020
4981 Clouds 13 1019 50 6000 9.8 200 11:49 03.01.2020
4982 Clouds 13 1019 50 6000 9.8 200 11:31 03.01.2020
4983 Clouds 13 1020 54 6000 9.3 200 10:57 03.01.2020
4984 Clouds 12 1020 58 6000 7.2 200 10:38 03.01.2020
4985 Clouds 12 1020 58 6000 7.2 200 10:20 03.01.2020
4986 Sand 12 1020 62 3000 7.2 190 09:54 03.01.2020
4987 Sand 11 1021 71 3000 9.3 190 09:36 03.01.2020
4988 Sand 10 1021 71 3000 9.3 190 09:18 03.01.2020
4989 Sand 10 1020 71 3000 7.2 180 08:44 03.01.2020
4990 Sand 10 1020 71 3000 7.2 180 08:21 03.01.2020
4991 Sand 9 1020 76 3000 6.2 180 07:43 03.01.2020
4992 Sand 9 1020 76 3000 6.2 180 07:19 03.01.2020
4993 Sand 9 1020 76 3000 6.2 180 07:19 03.01.2020
4994 Sand 8 1020 75 3000 6.2 170 06:58 03.01.2020
4995 Clear 8 1019 75 6000 6.2 180 06:39 03.01.2020
4996 Clear 8 1019 75 6000 6.2 180 06:20 03.01.2020
4997 Clear 9 1019 70 10000 5.7 180 04:45 03.01.2020
4998 Clear 9 1019 66 10000 6.2 200 03:38 03.01.2020
4999 Clear 10 1019 66 10000 7.2 200 02:53 03.01.2020
5000 Clouds 10 1019 66 10000 7.2 200 01:51 03.01.2020
5001 Clouds 11 1019 62 10000 7.2 210 01:18 03.01.2020
5002 Clouds 11 1019 62 10000 7.2 210 00:40 03.01.2020
5003 Clouds 11 1019 62 10000 7.2 210 00:20 03.01.2020
5004 Clouds 12 1019 54 10000 6.7 210 23:39 02.01.2020
5005 Clear 12 1019 54 10000 6.7 210 23:20 02.01.2020
5006 Clear 12 1019 54 10000 7.2 210 22:59 02.01.2020
5007 Clear 12 1019 50 10000 6.2 210 22:41 02.01.2020
5008 Clear 13 1019 50 10000 6.2 210 22:20 02.01.2020
5009 Clear 13 1019 50 10000 6.7 210 21:56 02.01.2020
5010 Clear 13 1019 50 10000 6.2 210 21:38 02.01.2020
5011 Clear 13 1019 50 10000 6.2 210 21:19 02.01.2020
5012 Clear 13 1019 50 10000 6.7 210 20:56 02.01.2020
5013 Clear 13 1019 50 10000 5.7 220 20:37 02.01.2020
5014 Clouds 13 1019 50 10000 5.7 220 20:18 02.01.2020
5015 Clouds 14 1018 47 10000 5.1 230 19:54 02.01.2020
5016 Clouds 14 1018 47 10000 8.2 240 19:36 02.01.2020
5017 Clouds 14 1018 47 10000 8.2 240 19:18 02.01.2020
5018 Clouds 14 1017 44 10000 6.2 240 18:43 02.01.2020
5019 Clouds 15 1017 44 10000 6.2 240 18:24 02.01.2020
5020 Clouds 15 1017 41 10000 6.7 240 17:58 02.01.2020
5021 Clouds 15 1017 38 10000 7.2 240 17:39 02.01.2020
5022 Clouds 15 1017 38 10000 7.2 240 17:20 02.01.2020
5023 Clouds 15 1016 41 10000 8.2 250 16:59 02.01.2020
5024 Clouds 15 1016 41 10000 8.2 250 16:41 02.01.2020
5025 Clouds 15 1016 41 10000 8.2 250 16:20 02.01.2020
5026 Clouds 15 1016 38 10000 8.7 240 15:58 02.01.2020
5027 Clouds 15 1016 46 10000 7.7 230 15:40 02.01.2020
5028 Clouds 16 1016 46 10000 7.7 230 15:22 02.01.2020
5029 Clouds 16 1016 31 10000 7.2 220 14:57 02.01.2020
5030 Clouds 16 1016 46 10000 7.2 230 14:36 02.01.2020
5031 Clouds 16 1016 36 10000 7.2 230 14:18 02.01.2020
5032 Clouds 16 1016 31 10000 6.2 230 13:50 02.01.2020
5033 Clouds 16 1016 38 10000 6.7 260 13:31 02.01.2020
5034 Clouds 16 1016 38 10000 6.2 240 12:46 02.01.2020
5035 Clouds 16 1016 38 10000 5.1 210 12:26 02.01.2020
5036 Clouds 15 1017 38 6000 5.7 230 11:59 02.01.2020
5037 Clouds 15 1017 38 6000 5.7 230 11:40 02.01.2020
5038 Clouds 15 1017 46 6000 5.7 230 11:20 02.01.2020
5039 Clouds 15 1017 46 6000 5.1 250 10:45 02.01.2020
5040 Clouds 15 1017 38 6000 4.6 230 10:26 02.01.2020
5041 Haze 14 1017 41 4000 3.6 220 09:52 02.01.2020
5042 Haze 14 1018 44 4000 3.1 210 09:33 02.01.2020
5043 Haze 13 1017 50 4000 3.1 210 08:48 02.01.2020
5044 Haze 12 1017 54 4000 3.1 210 08:27 02.01.2020
5045 Haze 12 1017 62 4000 3.6 170 07:54 02.01.2020
5046 Haze 11 1017 71 4000 3.6 170 07:31 02.01.2020
5047 Haze 10 1017 71 4000 2.6 240 06:57 02.01.2020
5048 Haze 10 1017 71 4000 2.6 240 06:57 02.01.2020
5049 Haze 10 1017 71 4000 2.6 240 06:39 02.01.2020
5050 Haze 9 1016 81 4000 1.5 200 05:37 02.01.2020
5051 Haze 10 1016 81 4000 1.5 200 04:34 02.01.2020
5052 Haze 11 1016 71 4000 1 230 03:19 02.01.2020
5053 Haze 12 1016 71 4000 2.6 250 02:20 02.01.2020
5054 Haze 11 1016 76 4000 2.6 250 01:47 02.01.2020
5055 Haze 12 1016 71 4000 1.5 230 01:19 02.01.2020
5056 Haze 11 1016 76 4000 2.2 0 00:36 02.01.2020
5057 Haze 11 1016 76 4000 2.2 0 00:18 02.01.2020
5058 Haze 11 1016 71 4000 2.2 0 23:40 01.01.2020
5059 Haze 12 1016 71 4000 3.07 350 23:20 01.01.2020
5060 Haze 13 1016 66 4000 3.07 350 22:38 01.01.2020
5061 Haze 13 1016 66 4000 3.07 350 22:20 01.01.2020
5062 Haze 14 1017 67 4000 1.5 350 21:57 01.01.2020
5063 Haze 14 1017 67 4000 1.5 350 21:39 01.01.2020
5064 Haze 14 1017 67 4000 1.5 350 21:20 01.01.2020
5065 Clouds 14 1017 62 6000 2.6 350 20:56 01.01.2020
5066 Clouds 15 1017 62 6000 2.6 350 20:38 01.01.2020
5067 Clouds 15 1017 62 6000 2.6 350 20:19 01.01.2020
5068 Clouds 15 1017 58 6000 3.6 340 19:55 01.01.2020
5069 Clouds 15 1017 58 6000 3.6 340 19:37 01.01.2020
5070 Clouds 15 1017 58 6000 3.6 340 19:19 01.01.2020
5071 Clouds 16 1017 55 6000 2.1 340 18:56 01.01.2020
5072 Clouds 16 1017 55 6000 2.1 340 18:36 01.01.2020
5073 Clouds 16 1017 55 6000 2.1 340 18:18 01.01.2020
5074 Clouds 16 1016 51 6000 2.1 340 17:57 01.01.2020
5075 Clouds 16 1016 51 6000 2.1 340 17:38 01.01.2020
5076 Clouds 16 1016 51 6000 2.1 340 17:19 01.01.2020
5077 Clouds 16 1016 51 6000 2.1 320 16:55 01.01.2020
5078 Clouds 16 1016 51 6000 2.1 320 16:36 01.01.2020
5079 Clouds 16 1016 51 6000 2.1 320 16:36 01.01.2020
5080 Clouds 16 1016 51 6000 2.1 320 16:18 01.01.2020
5081 Clouds 16 1017 48 6000 3.6 300 15:54 01.01.2020
5082 Clouds 16 1017 48 6000 3.6 300 15:36 01.01.2020
5083 Clouds 16 1017 48 6000 3.6 300 15:18 01.01.2020
5084 Clouds 17 1016 51 6000 3.1 290 14:40 01.01.2020
5085 Clouds 17 1016 51 6000 3.1 290 14:22 01.01.2020
5086 Clouds 16 1017 55 6000 3.1 280 13:56 01.01.2020
5087 Clouds 16 1017 55 6000 3.1 280 13:37 01.01.2020
5088 Clouds 16 1017 55 6000 3.1 280 13:19 01.01.2020
5089 Clouds 16 1017 55 6000 3.6 290 12:57 01.01.2020
5090 Clouds 17 1017 55 6000 3.6 290 12:39 01.01.2020
5091 Clouds 17 1017 55 6000 3.6 290 12:19 01.01.2020
5092 Clouds 17 1017 55 6000 3.6 290 12:19 01.01.2020
5093 Clouds 16 1018 59 6000 2.1 300 11:56 01.01.2020
5094 Clouds 16 1018 59 6000 2.1 300 11:37 01.01.2020
5095 Clouds 16 1018 59 6000 2.1 300 11:18 01.01.2020
5096 Clouds 15 1019 58 6000 1.5 270 10:41 01.01.2020
5097 Clouds 15 1019 58 6000 1.5 270 10:21 01.01.2020
5098 Haze 15 1019 62 4000 2.1 280 09:59 01.01.2020
5099 Haze 14 1020 62 4000 2.1 300 09:38 01.01.2020
5100 Haze 14 1020 62 4000 2.1 300 09:19 01.01.2020
5101 Haze 13 1020 66 4000 1.5 280 08:56 01.01.2020
5102 Mist 12 1020 71 4000 2.1 230 08:37 01.01.2020
5103 Mist 12 1020 71 4000 2.1 230 08:19 01.01.2020
5104 Mist 12 1019 71 4000 2.1 220 07:55 01.01.2020
5105 Mist 10 1019 81 4000 2.6 230 07:37 01.01.2020
5106 Mist 10 1019 76 4000 2.6 220 06:45 01.01.2020
5107 Mist 11 1019 81 4000 1.5 210 06:22 01.01.2020
5108 Mist 11 1019 81 4000 1 270 05:23 01.01.2020
5109 Haze 12 1019 76 4000 1 260 03:47 01.01.2020
5110 Haze 12 1019 76 4000 1 290 03:24 01.01.2020
5111 Haze 12 1020 71 4000 2.1 310 02:59 01.01.2020
5112 Haze 13 1020 71 4000 2.1 310 02:40 01.01.2020
5113 Haze 13 1020 71 4000 2.1 310 02:21 01.01.2020
5114 Haze 13 1020 71 4000 2.1 310 01:39 01.01.2020
5115 Haze 13 1020 71 4000 2.1 310 01:21 01.01.2020
5116 Haze 13 1020 67 4000 2.1 310 00:44 01.01.2020
5117 Haze 13 1020 67 4000 2.1 310 00:26 01.01.2020
5118 Haze 14 1020 58 4000 1 280 23:42 31.12.2019
5119 Haze 14 1020 58 4000 1 280 23:22 31.12.2019
5120 Haze 14 1020 62 4000 1.5 320 22:59 31.12.2019
5121 Haze 13 1021 58 4000 3.64 20 22:39 31.12.2019
5122 Haze 13 1021 58 4000 3.64 20 22:20 31.12.2019
5123 Haze 13 1021 58 4000 1 320 21:59 31.12.2019
5124 Haze 15 1021 54 4000 2.1 310 21:41 31.12.2019
5125 Haze 15 1021 54 4000 2.1 310 21:23 31.12.2019
5126 Clouds 15 1021 51 6000 1.5 300 20:57 31.12.2019
5127 Clouds 13 1021 43 6000 3.64 20 20:37 31.12.2019
5128 Clouds 13 1021 43 6000 3.98 334 20:19 31.12.2019
5129 Clouds 14 1021 41 6000 3.98 334 19:55 31.12.2019
5130 Clouds 15 1021 41 6000 3.98 334 19:37 31.12.2019
5131 Clouds 15 1021 41 6000 3.98 334 19:18 31.12.2019
5132 Clouds 16 1021 38 10000 1.5 330 18:55 31.12.2019
5133 Clouds 16 1021 38 10000 1.5 320 18:37 31.12.2019
5134 Clouds 16 1021 38 10000 1.5 320 18:19 31.12.2019
5135 Clouds 16 1021 36 10000 1.5 330 17:55 31.12.2019
5136 Clouds 17 1021 36 10000 2.1 330 17:36 31.12.2019
5137 Clouds 16 1021 36 10000 2.1 330 17:36 31.12.2019
5138 Clouds 17 1021 36 10000 2.1 330 17:18 31.12.2019
5139 Clouds 17 1021 39 10000 2.1 330 16:55 31.12.2019
5140 Clouds 17 1021 36 10000 2.6 330 16:36 31.12.2019
5141 Clouds 17 1021 36 10000 2.6 330 16:18 31.12.2019
5142 Clouds 17 1021 36 10000 1.5 330 15:56 31.12.2019
5143 Clouds 17 1020 34 10000 2.1 300 15:37 31.12.2019
5144 Clouds 18 1020 34 10000 2.1 300 15:19 31.12.2019
5145 Clouds 19 1020 32 10000 1.5 320 14:55 31.12.2019
5146 Clouds 18 1020 48 10000 3.1 310 14:37 31.12.2019
5147 Clouds 18 1020 45 10000 3.1 310 14:18 31.12.2019
5148 Clear 18 1020 34 10000 2.1 310 13:56 31.12.2019
5149 Clear 18 1021 34 10000 3.1 290 13:37 31.12.2019
5150 Clear 18 1021 34 10000 3.1 290 13:19 31.12.2019
5151 Clear 18 1021 34 10000 3.1 290 12:55 31.12.2019
5152 Clear 17 1021 36 10000 2.6 260 12:37 31.12.2019
5153 Clear 17 1021 36 10000 2.6 260 12:37 31.12.2019
5154 Clear 17 1021 36 10000 2.6 260 12:18 31.12.2019
5155 Clear 17 1021 36 10000 3.1 260 11:55 31.12.2019
5156 Clear 16 1022 38 10000 3.1 260 11:36 31.12.2019
5157 Clear 16 1022 38 10000 3.1 260 11:18 31.12.2019
5158 Clear 16 1022 41 10000 3.6 240 10:55 31.12.2019
5159 Clear 15 1023 47 10000 3.1 240 10:37 31.12.2019
5160 Clear 15 1023 47 10000 3.1 240 10:19 31.12.2019
5161 Clear 15 1023 47 10000 3.1 220 09:56 31.12.2019
5162 Clear 14 1023 50 10000 3.1 210 09:38 31.12.2019
5163 Clear 13 1023 50 10000 3.1 210 09:18 31.12.2019
5164 Clear 13 1023 50 10000 3.1 210 09:18 31.12.2019
5165 Clear 12 1023 54 10000 3.6 190 08:42 31.12.2019
5166 Clouds 12 1023 54 10000 3.6 190 08:22 31.12.2019
5167 Clouds 12 1023 58 10000 3.6 180 07:57 31.12.2019
5168 Clouds 11 1023 57 10000 3.6 180 07:38 31.12.2019
5169 Clouds 11 1023 57 10000 3.6 180 07:18 31.12.2019
5170 Clouds 10 1022 61 10000 3.6 180 06:40 31.12.2019
5171 Clouds 10 1022 57 10000 4.1 180 04:58 31.12.2019
5172 Clouds 10 1021 57 10000 4.1 170 04:25 31.12.2019
5173 Clouds 11 1021 57 10000 4.6 190 02:59 31.12.2019
5174 Clouds 11 1021 57 10000 4.6 190 02:34 31.12.2019
5175 Clear 11 1021 57 10000 4.1 190 01:51 31.12.2019
5176 Clear 12 1021 54 10000 4.6 200 01:32 31.12.2019
5177 Clear 12 1021 54 10000 4.6 200 01:32 31.12.2019
5178 Clear 12 1021 54 10000 4.6 200 00:54 31.12.2019
5179 Clear 12 1021 54 10000 4.1 180 00:36 31.12.2019
5180 Clear 12 1021 54 10000 4.1 180 00:18 31.12.2019
5181 Clear 12 1021 54 10000 4.6 190 23:54 30.12.2019
5182 Clear 12 1021 54 10000 4.6 190 23:36 30.12.2019
5183 Clear 12 1021 54 10000 4.6 190 23:18 30.12.2019
5184 Clear 12 1021 54 10000 4.1 190 22:54 30.12.2019
5185 Clear 12 1021 54 10000 4.1 200 22:36 30.12.2019
5186 Clear 12 1021 54 10000 4.1 200 22:18 30.12.2019
5187 Clear 13 1021 50 10000 4.1 200 21:55 30.12.2019
5188 Clear 12 1021 50 10000 4.1 220 21:36 30.12.2019
5189 Clear 12 1021 50 10000 4.1 220 21:18 30.12.2019
5190 Clear 12 1021 50 10000 5.1 240 20:41 30.12.2019
5191 Clear 13 1021 50 10000 5.1 240 20:21 30.12.2019
5192 Clear 13 1021 47 10000 6.2 240 19:59 30.12.2019
5193 Clear 13 1020 47 10000 6.7 250 19:40 30.12.2019
5194 Clear 14 1020 47 10000 6.7 250 19:20 30.12.2019
5195 Clear 14 1020 47 10000 6.7 250 19:20 30.12.2019
5196 Clear 14 1020 44 10000 6.2 250 18:59 30.12.2019
5197 Clear 14 1019 35 10000 6.2 250 18:41 30.12.2019
5198 Clear 14 1019 35 10000 6.2 250 18:21 30.12.2019
5199 Clear 15 1019 30 10000 6.7 240 17:59 30.12.2019
5200 Clear 15 1018 30 10000 7.2 240 17:40 30.12.2019
5201 Clear 15 1018 30 10000 7.2 240 17:19 30.12.2019
5202 Clear 15 1018 30 10000 7.7 240 16:59 30.12.2019
5203 Clear 15 1017 29 10000 10.3 240 16:40 30.12.2019
5204 Clear 16 1017 29 10000 10.3 240 16:20 30.12.2019
5205 Clouds 16 1017 29 10000 8.7 250 15:56 30.12.2019
5206 Clouds 16 1017 29 10000 7.7 220 15:38 30.12.2019
5207 Clouds 16 1017 29 10000 7.7 220 15:19 30.12.2019
5208 Clouds 16 1017 30 10000 8.2 210 14:55 30.12.2019
5209 Clouds 16 1017 29 10000 9.3 200 14:37 30.12.2019
5210 Clouds 17 1016 25 10000 8.7 220 14:18 30.12.2019
5211 Clouds 17 1016 25 10000 10.3 240 13:42 30.12.2019
5212 Clouds 17 1016 25 10000 10.3 240 13:23 30.12.2019
5213 Clouds 16 1016 26 10000 9.8 230 12:58 30.12.2019
5214 Clouds 16 1016 29 10000 9.68 241 12:40 30.12.2019
5215 Clouds 16 1016 29 10000 9.68 241 12:19 30.12.2019
5216 Clouds 16 1016 29 10000 9.68 241 11:56 30.12.2019
5217 Clouds 16 1016 31 10000 9.3 210 11:37 30.12.2019
5218 Clouds 16 1016 31 10000 9.3 210 11:18 30.12.2019
5219 Clouds 14 1017 47 10000 7.7 210 10:43 30.12.2019
5220 Clouds 14 1017 47 10000 7.7 210 10:20 30.12.2019
5221 Clouds 14 1017 50 10000 7.7 210 09:55 30.12.2019
5222 Clouds 13 1017 58 10000 6.7 220 09:37 30.12.2019
5223 Clouds 13 1017 58 10000 6.7 220 09:18 30.12.2019
5224 Clouds 12 1017 62 6000 6.2 220 08:46 30.12.2019
5225 Clouds 12 1017 62 6000 6.2 220 08:23 30.12.2019
5226 Sand 12 1016 58 4000 7.2 210 07:53 30.12.2019
5227 Sand 12 1015 58 4000 7.2 210 07:32 30.12.2019
5228 Clouds 12 1015 58 6000 5.7 200 06:50 30.12.2019
5229 Clouds 13 1014 50 10000 6.7 190 04:45 30.12.2019
5230 Clouds 13 1014 50 10000 6.2 190 03:52 30.12.2019
5231 Clouds 14 1013 47 10000 8.7 180 02:47 30.12.2019
5232 Clouds 14 1013 47 10000 8.7 180 02:47 30.12.2019
5233 Clouds 14 1013 47 10000 8.7 180 02:29 30.12.2019
5234 Clouds 15 1013 44 10000 8.2 180 01:47 30.12.2019
5235 Clouds 15 1013 44 10000 8.2 180 01:19 30.12.2019
5236 Clouds 15 1013 44 10000 7.2 170 00:42 30.12.2019
5237 Clouds 15 1013 44 10000 7.7 180 23:59 29.12.2019
5238 Clouds 15 1013 44 10000 6.7 180 23:38 29.12.2019
5239 Clouds 15 1013 44 10000 6.7 180 23:20 29.12.2019
5240 Clouds 16 1014 41 10000 7.7 190 22:41 29.12.2019
5241 Clouds 16 1014 41 10000 7.7 190 22:22 29.12.2019
5242 Clouds 16 1014 41 10000 7.7 190 22:22 29.12.2019
5243 Clouds 16 1014 38 10000 7.2 190 21:57 29.12.2019
5244 Clouds 16 1014 39 10000 7.2 180 21:39 29.12.2019
5245 Clouds 17 1014 39 10000 7.2 180 21:20 29.12.2019
5246 Clouds 16 1014 41 10000 5.1 190 20:57 29.12.2019
5247 Clouds 16 1014 39 10000 5.7 160 20:38 29.12.2019
5248 Clouds 17 1014 39 10000 5.7 160 20:20 29.12.2019
5249 Clouds 17 1014 39 10000 6.2 160 19:58 29.12.2019
5250 Clouds 17 1013 39 10000 6.2 170 19:39 29.12.2019
5251 Clouds 17 1013 39 10000 6.2 170 19:20 29.12.2019
5252 Clouds 16 1013 41 10000 5.1 160 18:56 29.12.2019
5253 Clouds 16 1013 44 10000 5.7 160 18:38 29.12.2019
5254 Clouds 16 1013 44 10000 5.7 160 18:19 29.12.2019
5255 Clouds 17 1013 42 10000 7.2 170 17:57 29.12.2019
5256 Clouds 17 1013 39 10000 6.2 170 17:39 29.12.2019
5257 Clouds 17 1013 39 10000 6.2 170 17:20 29.12.2019
5258 Clouds 18 1013 36 10000 6.7 180 16:56 29.12.2019
5259 Clouds 18 1013 36 10000 6.7 180 16:37 29.12.2019
5260 Clouds 18 1013 36 10000 6.7 180 16:19 29.12.2019
5261 Clouds 18 1013 39 10000 8.2 200 15:57 29.12.2019
5262 Clouds 18 1013 39 10000 8.2 200 15:38 29.12.2019
5263 Clouds 18 1013 39 10000 8.2 200 15:19 29.12.2019
5264 Clouds 18 1013 34 10000 8.7 190 14:56 29.12.2019
5265 Clouds 19 1013 34 10000 8.7 190 14:38 29.12.2019
5266 Clouds 19 1013 34 10000 8.7 190 14:18 29.12.2019
5267 Clouds 19 1013 29 10000 8.7 180 13:57 29.12.2019
5268 Clouds 19 1013 29 10000 8.7 180 13:37 29.12.2019
5269 Clouds 19 1013 29 10000 8.7 180 13:37 29.12.2019
5270 Clouds 19 1013 29 10000 8.7 180 13:19 29.12.2019
5271 Clouds 19 1014 29 10000 8.2 180 12:45 29.12.2019
5272 Clouds 19 1014 29 10000 8.2 180 12:27 29.12.2019
5273 Clouds 18 1014 31 10000 8.7 180 11:57 29.12.2019
5274 Clouds 18 1014 31 10000 8.7 180 11:38 29.12.2019
5275 Clouds 18 1014 31 10000 8.7 180 11:20 29.12.2019
5276 Clouds 17 1016 35 10000 8.7 180 10:43 29.12.2019
5277 Clouds 17 1016 35 10000 8.7 180 10:25 29.12.2019
5278 Clouds 16 1016 35 10000 8.2 180 09:58 29.12.2019
5279 Clouds 16 1016 35 10000 8.2 180 09:39 29.12.2019
5280 Clouds 16 1016 35 10000 8.2 180 09:21 29.12.2019
5281 Clouds 15 1016 38 10000 7.2 180 08:48 29.12.2019
5282 Clouds 15 1016 38 10000 7.2 180 08:28 29.12.2019
5283 Clouds 14 1016 43 10000 5.7 170 07:56 29.12.2019
5284 Clouds 13 1016 43 10000 5.7 170 07:28 29.12.2019
5285 Clouds 12 1015 50 6000 5.7 160 06:56 29.12.2019
5286 Clouds 11 1015 50 6000 5.7 160 06:26 29.12.2019
5287 Clouds 11 1015 50 6000 5.7 160 05:53 29.12.2019
5288 Clouds 11 1015 53 6000 4.6 160 04:36 29.12.2019
5289 Clouds 11 1016 50 6000 4.1 170 03:58 29.12.2019
5290 Clouds 11 1016 50 6000 4.1 170 03:21 29.12.2019
5291 Clouds 12 1016 50 6000 4.6 170 02:21 29.12.2019
5292 Clouds 13 1016 50 6000 4.1 180 01:40 29.12.2019
5293 Clouds 13 1016 50 6000 4.1 180 01:21 29.12.2019
5294 Clouds 13 1016 50 6000 4.6 180 00:42 29.12.2019
5295 Clouds 13 1016 50 6000 4.6 180 00:23 29.12.2019
5296 Clouds 14 1016 47 6000 4.1 180 23:44 28.12.2019
5297 Clouds 14 1016 47 6000 4.1 180 23:18 28.12.2019
5298 Clouds 14 1016 47 6000 4.1 180 23:18 28.12.2019
5299 Clouds 14 1016 47 10000 4.1 180 22:39 28.12.2019
5300 Clouds 14 1016 47 10000 4.1 180 22:21 28.12.2019
5301 Clouds 14 1016 44 10000 4.1 180 21:58 28.12.2019
5302 Clouds 15 1017 44 10000 4.6 180 21:40 28.12.2019
5303 Clouds 15 1017 44 10000 4.6 180 21:21 28.12.2019
5304 Clouds 15 1017 41 10000 5.1 190 20:58 28.12.2019
5305 Clouds 16 1016 41 10000 4.1 190 20:38 28.12.2019
5306 Clouds 16 1016 41 10000 4.1 190 20:20 28.12.2019
5307 Clouds 16 1016 44 10000 4.6 190 19:58 28.12.2019
5308 Clouds 16 1016 44 10000 4.6 190 19:39 28.12.2019
5309 Clouds 16 1016 44 10000 4.6 190 19:21 28.12.2019
5310 Clouds 16 1016 41 10000 5.1 180 18:58 28.12.2019
5311 Clouds 16 1016 39 10000 5.7 190 18:40 28.12.2019
5312 Clouds 17 1016 39 10000 5.7 190 18:19 28.12.2019
5313 Clouds 17 1016 39 10000 5.1 190 17:55 28.12.2019
5314 Clouds 17 1015 39 10000 4.6 190 17:36 28.12.2019
5315 Clouds 17 1015 39 10000 4.6 190 17:18 28.12.2019
5316 Clouds 17 1015 39 10000 4.6 190 16:46 28.12.2019
5317 Clouds 17 1015 39 10000 6.7 210 16:26 28.12.2019
5318 Clouds 17 1015 39 10000 6.7 210 15:47 28.12.2019
5319 Clouds 18 1015 36 10000 5.7 220 15:24 28.12.2019
5320 Clouds 18 1015 36 10000 5.7 220 14:59 28.12.2019
5321 Clouds 18 1015 36 10000 5.7 220 14:39 28.12.2019
5322 Clouds 18 1015 36 10000 5.7 220 14:20 28.12.2019
5323 Clouds 18 1015 36 10000 5.1 200 13:56 28.12.2019
5324 Clouds 17 1015 39 10000 5.1 180 13:37 28.12.2019
5325 Clouds 17 1015 39 10000 5.1 180 13:18 28.12.2019
5326 Clear 17 1016 42 10000 6.2 200 12:43 28.12.2019
5327 Clear 17 1016 42 10000 6.2 200 12:43 28.12.2019
5328 Clear 17 1016 42 10000 6.2 200 12:24 28.12.2019
5329 Clear 17 1016 42 10000 6.2 200 11:57 28.12.2019
5330 Clear 16 1018 44 10000 6.2 190 11:38 28.12.2019
5331 Clear 16 1018 44 10000 6.2 190 11:20 28.12.2019
5332 Clear 16 1018 44 10000 6.2 190 10:44 28.12.2019
5333 Clear 16 1018 44 10000 6.2 190 10:22 28.12.2019
5334 Clear 15 1018 51 10000 6.7 180 09:58 28.12.2019
5335 Clear 15 1019 51 10000 6.7 180 09:40 28.12.2019
5336 Clear 15 1019 51 10000 6.7 180 09:20 28.12.2019
5337 Clear 13 1019 58 10000 4.6 180 08:44 28.12.2019
5338 Clear 13 1019 58 10000 4.6 180 08:26 28.12.2019
5339 Clear 13 1018 58 10000 5.1 170 07:55 28.12.2019
5340 Clear 12 1018 62 10000 6.2 160 07:32 28.12.2019
5341 Clouds 10 1018 66 10000 5.1 160 06:41 28.12.2019
5342 Clouds 11 1018 62 10000 4.1 160 04:59 28.12.2019
5343 Clouds 10 1018 61 10000 2.6 170 03:47 28.12.2019
5344 Clouds 10 1018 61 10000 2.6 170 02:49 28.12.2019
5345 Clouds 10 1018 62 10000 2.6 170 01:59 28.12.2019
5346 Clouds 11 1018 62 10000 2.6 170 01:31 28.12.2019
5347 Clouds 12 1018 58 10000 2.1 190 00:58 28.12.2019
5348 Clouds 12 1018 58 10000 3.1 220 00:40 28.12.2019
5349 Clouds 13 1018 58 10000 3.1 220 00:20 28.12.2019
5350 Clouds 13 1018 58 10000 2.6 220 23:44 27.12.2019
5351 Clouds 13 1018 58 10000 2.6 220 23:44 27.12.2019
5352 Clouds 13 1018 58 10000 2.6 220 23:20 27.12.2019
5353 Clouds 13 1019 58 10000 2.6 240 22:58 27.12.2019
5354 Clouds 13 1019 58 10000 2.6 240 22:39 27.12.2019
5355 Clouds 13 1019 58 10000 2.6 240 22:20 27.12.2019
5356 Clouds 13 1019 54 10000 2.6 260 21:58 27.12.2019
5357 Clouds 14 1019 54 10000 2.6 260 21:37 27.12.2019
5358 Clouds 14 1019 54 10000 2.6 260 21:19 27.12.2019
5359 Clouds 14 1018 51 10000 2.6 260 20:42 27.12.2019
5360 Clouds 15 1018 51 10000 2.6 260 20:23 27.12.2019
5361 Clouds 15 1018 54 10000 1.5 280 19:54 27.12.2019
5362 Clouds 15 1018 54 10000 1.5 280 19:36 27.12.2019
5363 Clouds 15 1018 54 10000 3.6 300 19:18 27.12.2019
5364 Clouds 15 1018 48 10000 3.6 300 18:40 27.12.2019
5365 Clouds 16 1018 48 10000 3.6 300 18:22 27.12.2019
5366 Clouds 16 1017 41 10000 4.6 280 17:59 27.12.2019
5367 Clouds 16 1017 41 10000 4.6 280 17:41 27.12.2019
5368 Clouds 16 1017 41 10000 4.6 280 17:19 27.12.2019
5369 Clouds 16 1017 39 10000 5.7 290 16:59 27.12.2019
5370 Clouds 17 1017 39 10000 5.7 290 16:39 27.12.2019
5371 Clouds 17 1017 39 10000 5.7 290 16:21 27.12.2019
5372 Clouds 17 1016 39 10000 5.7 260 15:56 27.12.2019
5373 Clouds 18 1016 34 10000 7.2 260 15:37 27.12.2019
5374 Clouds 18 1016 34 10000 7.2 260 15:18 27.12.2019
5375 Clouds 18 1016 34 10000 7.2 260 14:54 27.12.2019
5376 Clouds 18 1016 42 10000 5.1 260 14:36 27.12.2019
5377 Clouds 18 1016 42 10000 5.1 260 14:18 27.12.2019
5378 Clouds 17 1016 45 10000 6.7 260 13:43 27.12.2019
5379 Clouds 17 1016 45 10000 6.7 260 13:22 27.12.2019
5380 Clouds 17 1016 45 10000 6.7 260 12:48 27.12.2019
5381 Clear 16 1017 51 10000 6.7 240 12:29 27.12.2019
5382 Clear 16 1017 51 10000 6.7 240 11:59 27.12.2019
5383 Clear 16 1016 39 0 7.94 286 11:41 27.12.2019
5384 Clear 15 1017 58 0 6.71 240 11:20 27.12.2019
5385 Clear 15 1017 58 0 6.71 240 10:46 27.12.2019
5386 Clear 15 1017 58 10000 6.7 240 10:24 27.12.2019
5387 Clear 15 1017 58 10000 6.7 240 09:55 27.12.2019
5388 Clear 15 1017 58 10000 6.7 240 09:37 27.12.2019
5389 Clear 15 1017 58 10000 6.7 240 09:19 27.12.2019
5390 Clear 15 1017 58 10000 6.7 240 09:19 27.12.2019
5391 Clear 13 1017 66 10000 4.6 240 08:43 27.12.2019
5392 Clear 13 1017 66 10000 4.6 240 08:25 27.12.2019
5393 Clouds 13 1016 62 10000 6.7 230 07:41 27.12.2019
5394 Clouds 13 1016 62 10000 6.7 230 07:22 27.12.2019
5395 Clear 12 1016 62 10000 7.2 230 06:27 27.12.2019
5396 Clear 13 1015 58 10000 6.7 250 04:40 27.12.2019
5397 Clear 14 1015 58 10000 8.7 250 02:29 27.12.2019
5398 Clear 14 1015 58 10000 8.2 240 01:48 27.12.2019
5399 Clear 14 1015 58 10000 8.2 240 01:23 27.12.2019
5400 Clear 14 1015 54 10000 7.7 250 00:51 27.12.2019
5401 Clear 15 1015 54 10000 7.7 250 00:33 27.12.2019
5402 Clear 15 1015 54 10000 7.7 250 23:56 26.12.2019
5403 Clear 15 1015 54 10000 8.2 250 23:38 26.12.2019
5404 Clear 15 1015 54 10000 8.2 250 23:20 26.12.2019
5405 Clear 15 1015 48 10000 7.2 230 22:41 26.12.2019
5406 Clear 16 1015 48 10000 7.2 230 22:19 26.12.2019
5407 Clear 16 1015 51 10000 7.2 230 21:55 26.12.2019
5408 Clear 16 1015 48 10000 6.2 240 21:37 26.12.2019
5409 Clear 16 1015 48 10000 6.2 240 21:19 26.12.2019
5410 Clear 16 1015 48 10000 5.1 270 20:44 26.12.2019
5411 Clear 16 1015 48 10000 5.1 270 20:44 26.12.2019
5412 Clear 16 1015 48 10000 5.1 270 20:22 26.12.2019
5413 Clouds 17 1015 39 10000 6.7 260 19:58 26.12.2019
5414 Clouds 17 1014 33 10000 8.2 240 19:39 26.12.2019
5415 Clouds 17 1014 33 10000 8.2 240 19:20 26.12.2019
5416 Clouds 17 1014 33 10000 8.7 240 18:57 26.12.2019
5417 Clouds 17 1014 34 10000 8.7 240 18:38 26.12.2019
5418 Clouds 18 1014 34 10000 8.7 240 18:19 26.12.2019
5419 Clouds 18 1014 34 10000 10.3 240 17:42 26.12.2019
5420 Clouds 18 1014 34 10000 10.3 240 17:22 26.12.2019
5421 Clouds 18 1013 34 10000 9.3 230 16:58 26.12.2019
5422 Clouds 18 1013 34 10000 9.8 240 16:39 26.12.2019
5423 Clouds 18 1013 34 10000 9.8 240 16:20 26.12.2019
5424 Clouds 18 1013 37 10000 9.8 250 15:41 26.12.2019
5425 Clouds 19 1013 37 10000 9.8 250 15:21 26.12.2019
5426 Clouds 19 1013 34 10000 10.8 240 14:58 26.12.2019
5427 Clouds 19 1012 32 10000 11.3 230 14:38 26.12.2019
5428 Clouds 20 1012 32 10000 11.3 230 14:20 26.12.2019
5429 Clouds 20 1012 37 10000 11.3 250 13:43 26.12.2019
5430 Clouds 19 1012 37 10000 11.3 250 13:21 26.12.2019
5431 Clouds 19 1012 37 10000 12.3 230 12:58 26.12.2019
5432 Clouds 19 1012 39 10000 12.3 250 12:37 26.12.2019
5433 Clouds 19 1012 39 10000 12.3 250 12:19 26.12.2019
5434 Clouds 19 1012 42 10000 12.3 240 11:57 26.12.2019
5435 Clouds 19 1013 42 10000 11.8 250 11:38 26.12.2019
5436 Clouds 19 1013 42 10000 11.8 250 11:19 26.12.2019
5437 Clouds 17 1014 59 10000 9.3 210 10:42 26.12.2019
5438 Clouds 17 1014 59 10000 9.3 210 10:18 26.12.2019
5439 Clouds 15 1014 62 10000 10.3 210 09:49 26.12.2019
5440 Clouds 15 1014 62 10000 10.3 210 09:31 26.12.2019
5441 Clouds 14 1014 62 10000 10.3 200 08:42 26.12.2019
5442 Clouds 14 1014 62 10000 10.3 200 08:24 26.12.2019
5443 Clouds 13 1014 62 10000 9.8 200 07:53 26.12.2019
5444 Clouds 13 1014 62 10000 9.8 200 07:27 26.12.2019
5445 Clouds 13 1013 62 6000 9.8 200 06:53 26.12.2019
5446 Clouds 13 1013 62 6000 9.8 200 06:32 26.12.2019
5447 Clouds 13 1013 58 6000 9.3 200 05:45 26.12.2019
5448 Clouds 13 1013 58 6000 9.8 200 04:57 26.12.2019
5449 Clouds 13 1013 58 6000 9.8 200 04:30 26.12.2019
5450 Clouds 14 1013 50 6000 11.3 200 02:56 26.12.2019
5451 Clouds 14 1013 50 6000 11.3 200 02:34 26.12.2019
5452 Clouds 14 1013 47 6000 11.8 200 01:50 26.12.2019
5453 Clouds 14 1014 47 6000 11.3 200 01:32 26.12.2019
5454 Clouds 14 1014 47 6000 10.3 200 00:50 26.12.2019
5455 Clouds 14 1014 47 6000 10.3 210 00:27 26.12.2019
5456 Clouds 14 1014 47 6000 10.3 210 23:59 25.12.2019
5457 Clouds 14 1014 44 6000 9.8 210 23:40 25.12.2019
5458 Clouds 15 1014 44 6000 9.8 210 23:21 25.12.2019
5459 Clouds 15 1014 41 6000 10.3 210 22:59 25.12.2019
5460 Clouds 15 1014 44 6000 10.8 210 22:39 25.12.2019
5461 Clouds 15 1014 44 6000 10.8 210 22:21 25.12.2019
5462 Clouds 15 1014 41 6000 10.3 220 21:58 25.12.2019
5463 Sand 15 1014 44 4000 9.3 210 21:39 25.12.2019
5464 Sand 15 1014 44 4000 9.3 210 21:20 25.12.2019
5465 Sand 16 1014 41 4000 10.3 210 20:56 25.12.2019
5466 Sand 16 1014 39 4000 10.3 220 20:38 25.12.2019
5467 Sand 17 1014 39 4000 10.3 220 20:18 25.12.2019
5468 Sand 17 1014 42 4000 10.8 220 19:43 25.12.2019
5469 Sand 17 1014 42 4000 10.8 220 19:25 25.12.2019
5470 Sand 17 1014 42 4000 9.3 220 18:58 25.12.2019
5471 Sand 17 1014 42 4000 9.3 230 18:37 25.12.2019
5472 Sand 17 1014 42 4000 9.3 230 18:19 25.12.2019
5473 Sand 17 1013 36 4000 9.8 230 17:42 25.12.2019
5474 Sand 18 1013 36 4000 9.8 230 17:20 25.12.2019
5475 Sand 18 1013 39 4000 10.3 230 16:58 25.12.2019
5476 Sand 18 1013 39 4000 8.7 230 16:38 25.12.2019
5477 Sand 18 1013 39 4000 8.7 230 16:19 25.12.2019
5478 Sand 18 1013 39 4000 11.3 230 15:57 25.12.2019
5479 Sand 18 1013 39 4000 11.8 240 15:39 25.12.2019
5480 Sand 18 1013 39 4000 11.8 240 15:20 25.12.2019
5481 Sand 19 1012 39 4000 9.8 230 14:58 25.12.2019
5482 Sand 19 1012 39 4000 9.8 230 14:39 25.12.2019
5483 Sand 19 1012 39 4000 9.8 230 14:39 25.12.2019
5484 Sand 19 1012 39 4000 9.8 230 14:20 25.12.2019
5485 Sand 18 1013 42 3000 10.8 240 13:45 25.12.2019
5486 Sand 18 1013 42 3000 10.8 240 13:22 25.12.2019
5487 Sand 19 1012 42 3000 10.8 250 12:58 25.12.2019
5488 Sand 18 1013 45 3000 9.8 250 12:38 25.12.2019
5489 Sand 18 1013 45 3000 9.8 250 12:20 25.12.2019
5490 Sand 17 1013 45 3000 10.8 220 11:54 25.12.2019
5491 Sand 16 1013 48 2000 9.3 200 11:36 25.12.2019
5492 Sand 16 1013 48 2000 9.3 200 11:18 25.12.2019
5493 Clear 15 1014 52 0 10.92 250 10:37 25.12.2019
5494 Sand 14 1015 54 1500 11.8 210 10:19 25.12.2019
5495 Sand 14 1015 54 1500 11.8 210 09:49 25.12.2019
5496 Sand 13 1014 54 1500 10.8 200 09:30 25.12.2019
5497 Sand 13 1014 54 1500 10.8 200 08:47 25.12.2019
5498 Sand 12 1014 58 1500 9.8 210 08:29 25.12.2019
5499 Sand 12 1014 58 1500 9.8 210 07:50 25.12.2019
5500 Sand 12 1014 58 1500 9.8 210 07:31 25.12.2019
5501 Sand 12 1014 58 1000 9.8 210 06:50 25.12.2019
5502 Sand 12 1013 54 2000 9.8 210 06:22 25.12.2019
5503 Sand 13 1013 50 4000 6.7 200 05:18 25.12.2019
5504 Sand 13 1013 50 4000 6.7 200 04:39 25.12.2019
5505 Sand 13 1013 50 4000 6.7 200 04:20 25.12.2019
5506 Sand 14 1013 47 4000 6.2 200 03:41 25.12.2019
5507 Sand 14 1013 47 4000 6.2 200 02:53 25.12.2019
5508 Sand 14 1013 47 4000 6.2 200 02:20 25.12.2019
5509 Sand 14 1013 44 4000 6.7 210 01:25 25.12.2019
5510 Sand 15 1013 44 4000 7.7 210 00:53 25.12.2019
5511 Sand 15 1013 44 4000 7.7 210 00:30 25.12.2019
5512 Sand 15 1013 41 4000 8.7 220 23:57 24.12.2019
5513 Sand 16 1013 41 4000 8.2 220 23:38 24.12.2019
5514 Sand 16 1013 41 4000 8.2 220 23:20 24.12.2019
5515 Sand 16 1013 39 4000 9.3 230 22:41 24.12.2019
5516 Sand 17 1013 39 4000 9.3 230 22:21 24.12.2019
5517 Sand 17 1013 39 4000 9.3 230 21:44 24.12.2019
5518 Sand 17 1013 39 4000 9.3 230 21:23 24.12.2019
5519 Sand 17 1013 39 3000 9.3 230 20:59 24.12.2019
5520 Sand 17 1013 39 3000 9.3 230 20:40 24.12.2019
5521 Sand 17 1013 39 3000 9.3 230 20:19 24.12.2019
5522 Sand 17 1013 39 3000 9.3 230 19:45 24.12.2019
5523 Sand 17 1013 36 3000 9.3 230 19:20 24.12.2019
5524 Sand 17 1013 36 3000 9.3 240 18:57 24.12.2019
5525 Sand 17 1012 34 3000 9.3 240 18:38 24.12.2019
5526 Sand 18 1012 34 3000 9.3 240 18:18 24.12.2019
5527 Sand 18 1012 34 3000 10.8 240 17:39 24.12.2019
5528 Sand 18 1012 34 3000 10.8 240 17:21 24.12.2019
5529 Sand 18 1011 31 3000 9.8 240 16:56 24.12.2019
5530 Clouds 18 1011 29 6000 10.8 240 16:38 24.12.2019
5531 Clouds 19 1011 29 6000 10.8 240 16:20 24.12.2019
5532 Clouds 19 1011 34 6000 9.8 240 15:56 24.12.2019
5533 Clouds 19 1011 32 6000 11.8 230 15:36 24.12.2019
5534 Clouds 20 1011 32 6000 11.8 230 15:18 24.12.2019
5535 Clouds 20 1011 32 6000 11.8 240 14:57 24.12.2019
5536 Clouds 20 1011 32 6000 11.8 210 14:38 24.12.2019
5537 Clouds 20 1011 32 6000 11.8 210 14:20 24.12.2019
5538 Clear 20 1011 32 6000 10.3 210 13:55 24.12.2019
5539 Clear 20 1011 32 6000 11.8 220 13:37 24.12.2019
5540 Clear 20 1011 32 6000 11.8 220 13:19 24.12.2019
5541 Clear 19 1011 34 6000 11.3 210 12:55 24.12.2019
5542 Clear 19 1011 34 6000 11.3 210 12:36 24.12.2019
5543 Clear 19 1011 34 6000 11.3 210 12:18 24.12.2019
5544 Clear 19 1012 37 6000 10.3 210 11:55 24.12.2019
5545 Clear 19 1012 37 6000 10.3 210 11:55 24.12.2019
5546 Clear 18 1012 39 6000 9.3 210 11:37 24.12.2019
5547 Clear 18 1012 39 6000 9.3 210 11:37 24.12.2019
5548 Clear 18 1012 39 6000 9.3 210 11:37 24.12.2019
5549 Clear 18 1012 39 6000 9.3 210 11:18 24.12.2019
5550 Clear 17 1013 39 6000 9.8 200 10:56 24.12.2019
5551 Clear 16 1013 44 6000 10.3 200 10:37 24.12.2019
5552 Clear 16 1013 44 6000 10.3 200 10:19 24.12.2019
5553 Clear 15 1014 47 6000 9.8 200 09:55 24.12.2019
5554 Clear 15 1014 47 6000 9.8 200 09:37 24.12.2019
5555 Clear 15 1014 47 6000 9.8 200 09:18 24.12.2019
5556 Clear 15 1014 44 6000 9.3 190 08:45 24.12.2019
5557 Clear 14 1014 50 6000 9.3 180 08:21 24.12.2019
5558 Clear 13 1013 54 6000 9.8 180 07:46 24.12.2019
5559 Clear 13 1013 54 6000 9.8 180 07:26 24.12.2019
5560 Clear 13 1013 54 6000 9.8 180 07:26 24.12.2019
5561 Clear 13 1013 54 6000 9.8 180 06:58 24.12.2019
5562 Clear 13 1013 54 6000 8.2 190 06:38 24.12.2019
5563 Clear 13 1013 54 6000 8.2 190 06:19 24.12.2019
5564 Clear 13 1013 54 6000 8.2 190 05:40 24.12.2019
5565 Clear 13 1013 54 6000 8.2 190 05:18 24.12.2019
5566 Clear 13 1012 58 6000 8.7 180 03:50 24.12.2019
5567 Clear 13 1013 58 6000 10.8 170 03:23 24.12.2019
5568 Clear 14 1013 54 6000 8.7 180 02:25 24.12.2019
5569 Clear 14 1013 58 6000 8.7 180 01:51 24.12.2019
5570 Clear 14 1013 58 6000 8.7 180 01:23 24.12.2019
5571 Clear 14 1013 58 6000 8.7 180 00:46 24.12.2019
5572 Clear 14 1013 54 6000 8.2 180 00:26 24.12.2019
5573 Clear 15 1013 54 6000 7.7 190 23:59 23.12.2019
5574 Clear 15 1013 54 6000 7.7 190 23:59 23.12.2019
5575 Clear 15 1013 54 6000 6.7 190 23:41 23.12.2019
5576 Clear 15 1013 54 6000 6.7 190 23:23 23.12.2019
5577 Clear 15 1013 54 6000 8.2 190 22:56 23.12.2019
5578 Clear 15 1013 54 6000 8.2 190 22:56 23.12.2019
5579 Clear 15 1013 51 6000 8.2 190 22:37 23.12.2019
5580 Clear 15 1013 51 6000 8.2 190 22:37 23.12.2019
5581 Clear 16 1013 51 6000 8.2 190 22:19 23.12.2019
5582 Clear 16 1013 51 6000 8.7 190 21:55 23.12.2019
5583 Clear 16 1013 55 6000 8.2 190 21:36 23.12.2019
5584 Clear 16 1013 55 6000 8.2 190 21:36 23.12.2019
5585 Clear 16 1013 55 6000 8.2 190 21:36 23.12.2019
5586 Clear 16 1013 55 6000 8.2 190 21:18 23.12.2019
5587 Clear 16 1013 55 6000 7.7 180 20:57 23.12.2019
5588 Clear 16 1013 55 6000 7.2 180 20:39 23.12.2019
5589 Clear 16 1013 55 6000 7.2 180 20:18 23.12.2019
5590 Clear 17 1013 51 6000 7.7 180 19:56 23.12.2019
5591 Clear 16 1014 55 6000 7.2 180 19:38 23.12.2019
5592 Clear 16 1014 55 6000 7.2 180 19:19 23.12.2019
5593 Clear 16 1014 59 6000 7.2 180 18:58 23.12.2019
5594 Clear 16 1014 59 6000 7.2 180 18:58 23.12.2019
5595 Clear 17 1013 59 6000 7.7 180 18:38 23.12.2019
5596 Clear 17 1013 59 6000 7.7 180 18:20 23.12.2019
5597 Clear 17 1013 55 6000 6.2 180 17:56 23.12.2019
5598 Clear 17 1013 51 6000 7.2 190 17:38 23.12.2019
5599 Clear 17 1013 51 6000 7.2 190 17:19 23.12.2019
5600 Clear 17 1013 51 6000 7.2 190 17:19 23.12.2019
5601 Clear 17 1013 55 6000 7.7 180 16:55 23.12.2019
5602 Clear 17 1013 55 6000 7.7 180 16:55 23.12.2019
5603 Clear 18 1013 55 6000 7.7 180 16:36 23.12.2019
5604 Clear 18 1014 52 6000 7.2 200 16:18 23.12.2019
5605 Clear 18 1014 52 6000 7.2 200 16:18 23.12.2019
5606 Clear 18 1014 52 6000 7.2 200 15:55 23.12.2019
5607 Clear 19 1014 48 6000 6.7 200 15:36 23.12.2019
5608 Clear 19 1014 48 6000 6.7 200 15:18 23.12.2019
5609 Clear 19 1014 48 6000 6.7 200 14:45 23.12.2019
5610 Clear 19 1014 52 6000 8.2 200 14:26 23.12.2019
5611 Clear 19 1014 52 6000 8.2 200 14:26 23.12.2019
5612 Sand 19 1014 52 4000 7.2 200 13:59 23.12.2019
5613 Sand 18 1014 59 2000 7.7 200 13:41 23.12.2019
5614 Sand 18 1014 59 2000 7.7 200 13:22 23.12.2019
5615 Sand 18 1014 55 2000 7.2 200 12:59 23.12.2019
5616 Sand 17 1015 59 2000 8.2 210 12:40 23.12.2019
5617 Sand 17 1015 59 2000 8.2 210 12:21 23.12.2019
5618 Sand 17 1015 59 2000 6.7 210 11:56 23.12.2019
5619 Sand 17 1016 59 2000 6.7 190 11:38 23.12.2019
5620 Sand 17 1016 59 2000 6.7 190 11:20 23.12.2019
5621 Sand 16 1016 63 2000 6.7 200 10:55 23.12.2019
5622 Sand 16 1017 63 2000 6.2 200 10:37 23.12.2019
5623 Sand 16 1017 63 2000 6.2 200 10:18 23.12.2019
5624 Sand 15 1017 62 2000 5.7 200 09:54 23.12.2019
5625 Sand 14 1017 67 2000 6.2 180 09:36 23.12.2019
5626 Sand 14 1017 67 2000 6.2 180 09:18 23.12.2019
5627 Mist 13 1017 82 2000 4.1 180 08:41 23.12.2019
5628 Mist 13 1017 82 2000 4.1 180 08:22 23.12.2019
5629 Mist 13 1017 82 2000 3.6 200 07:49 23.12.2019
5630 Mist 11 1017 93 2000 3.6 160 07:22 23.12.2019
5631 Mist 11 1017 93 2000 3.6 160 06:57 23.12.2019
5632 Mist 11 1017 93 2000 1.5 190 06:32 23.12.2019
5633 Mist 10 1017 93 4000 1.5 180 05:56 23.12.2019
5634 Mist 11 1017 93 4000 1 260 05:33 23.12.2019
5635 Mist 10 1017 81 4000 1.15 227 04:40 23.12.2019
5636 Mist 12 1017 87 4000 1.15 227 03:36 23.12.2019
5637 Mist 11 1016 81 4000 4.6 100 02:43 23.12.2019
5638 Mist 12 1016 81 4000 4.6 100 02:19 23.12.2019
5639 Mist 12 1017 81 4000 3.6 90 01:45 23.12.2019
5640 Mist 12 1017 87 4000 1.5 100 01:27 23.12.2019
5641 Clouds 12 1018 81 6000 2.1 50 00:45 23.12.2019
5642 Clouds 12 1018 81 6000 2.1 50 00:25 23.12.2019
5643 Clouds 14 1018 76 6000 2.1 350 23:56 22.12.2019
5644 Clouds 14 1018 76 6000 2.6 20 23:37 22.12.2019
5645 Clouds 14 1018 76 6000 2.6 20 23:18 22.12.2019
5646 Clouds 14 1017 76 10000 4.1 70 22:41 22.12.2019
5647 Clouds 14 1017 76 10000 4.1 70 22:22 22.12.2019
5648 Clouds 14 1017 76 10000 5.1 80 21:59 22.12.2019
5649 Clouds 14 1018 71 10000 5.1 80 21:40 22.12.2019
5650 Clouds 14 1018 71 10000 5.1 80 21:22 22.12.2019
5651 Clouds 14 1018 71 10000 5.1 80 20:59 22.12.2019
5652 Clouds 14 1019 67 10000 3.6 50 20:40 22.12.2019
5653 Clear 14 1019 67 10000 3.6 50 20:19 22.12.2019
5654 Clear 14 1019 62 10000 3.6 70 19:57 22.12.2019
5655 Clear 15 1019 63 10000 4.1 40 19:39 22.12.2019
5656 Clear 16 1019 63 10000 4.1 40 19:20 22.12.2019
5657 Clear 16 1019 59 10000 3.6 20 18:44 22.12.2019
5658 Clear 17 1019 59 10000 3.6 20 18:25 22.12.2019
5659 Clear 18 1019 55 10000 4.1 360 17:58 22.12.2019
5660 Clear 18 1019 55 10000 3.6 350 17:39 22.12.2019
5661 Clear 18 1019 55 10000 3.6 350 17:19 22.12.2019
5662 Clear 19 1018 45 10000 4.6 20 16:59 22.12.2019
5663 Clear 19 1018 45 10000 5.1 20 16:41 22.12.2019
5664 Clear 19 1018 45 10000 5.1 20 16:22 22.12.2019
5665 Clear 20 1018 45 10000 4.6 30 15:57 22.12.2019
5666 Clear 20 1018 45 10000 5.1 20 15:39 22.12.2019
5667 Clear 20 1018 45 10000 5.1 20 15:21 22.12.2019
5668 Clear 21 1018 43 10000 5.1 40 14:56 22.12.2019
5669 Clear 20 1018 42 10000 5.1 40 14:38 22.12.2019
5670 Clear 20 1018 42 10000 5.1 40 14:19 22.12.2019
5671 Clear 20 1018 42 10000 4.1 40 13:56 22.12.2019
5672 Clear 20 1018 40 10000 4.6 40 13:38 22.12.2019
5673 Clear 20 1018 40 10000 4.6 40 13:19 22.12.2019
5674 Clear 20 1019 42 10000 4.6 30 12:57 22.12.2019
5675 Clear 20 1019 42 10000 4.6 40 12:38 22.12.2019
5676 Clear 20 1019 42 10000 4.6 40 12:19 22.12.2019
5677 Clear 19 1019 48 10000 4.6 50 11:56 22.12.2019
5678 Clear 19 1019 48 10000 5.1 40 11:38 22.12.2019
5679 Clear 19 1019 48 10000 5.1 40 11:38 22.12.2019
5680 Clear 19 1019 48 10000 5.1 40 11:19 22.12.2019
5681 Clear 19 1020 52 10000 5.1 50 10:56 22.12.2019
5682 Clear 18 1020 55 10000 6.2 40 10:38 22.12.2019
5683 Clear 18 1020 55 10000 6.2 40 10:19 22.12.2019
5684 Clear 18 1020 55 10000 6.2 40 10:19 22.12.2019
5685 Clouds 18 1021 55 10000 6.2 40 09:57 22.12.2019
5686 Clouds 17 1021 59 10000 5.1 30 09:39 22.12.2019
5687 Clouds 17 1021 59 10000 5.1 30 09:20 22.12.2019
5688 Clouds 15 1021 77 10000 4.1 60 08:42 22.12.2019
5689 Clouds 15 1021 77 10000 4.1 60 08:22 22.12.2019
5690 Clouds 14 1021 82 10000 3.1 70 07:44 22.12.2019
5691 Clouds 13 1021 82 10000 2.1 60 07:21 22.12.2019
5692 Clouds 12 1022 87 10000 2.1 60 06:53 22.12.2019
5693 Clouds 12 1021 81 10000 2.1 60 06:26 22.12.2019
5694 Clear 12 1021 81 10000 1 60 05:33 22.12.2019
5695 Clear 12 1021 81 10000 1.5 70 04:55 22.12.2019
5696 Clear 11 1021 81 10000 2.1 70 04:25 22.12.2019
5697 Clear 12 1021 81 10000 4.1 60 02:46 22.12.2019
5698 Clear 12 1021 81 10000 4.6 70 02:23 22.12.2019
5699 Clear 12 1021 87 10000 4.1 70 01:31 22.12.2019
5700 Clear 13 1021 82 10000 4.1 70 00:56 22.12.2019
5701 Clear 12 1021 81 10000 3.1 70 00:36 22.12.2019
5702 Clear 12 1021 81 10000 3.1 70 00:18 22.12.2019
5703 Clear 12 1021 81 10000 3.1 60 23:41 21.12.2019
5704 Clear 12 1021 81 10000 3.1 60 23:21 21.12.2019
5705 Clear 13 1022 76 10000 3.6 60 22:57 21.12.2019
5706 Clear 13 1022 82 10000 3.6 70 22:37 21.12.2019
5707 Clear 13 1022 82 10000 3.6 70 22:18 21.12.2019
5708 Clear 13 1022 82 10000 3.6 70 22:18 21.12.2019
5709 Clear 13 1022 82 10000 3.6 70 21:55 21.12.2019
5710 Clear 13 1022 82 10000 3.6 70 21:36 21.12.2019
5711 Clear 13 1022 82 10000 3.6 70 21:18 21.12.2019
5712 Clear 14 1022 71 10000 3.6 70 20:57 21.12.2019
5713 Clear 14 1022 71 10000 3.6 50 20:37 21.12.2019
5714 Clear 14 1022 71 10000 3.6 50 20:19 21.12.2019
5715 Clear 14 1022 67 10000 4.1 50 19:55 21.12.2019
5716 Clear 16 1021 63 10000 5.1 20 19:36 21.12.2019
5717 Clear 17 1021 63 10000 5.1 20 19:18 21.12.2019
5718 Clear 17 1021 55 10000 4.1 360 18:41 21.12.2019
5719 Clear 18 1021 55 10000 4.1 360 18:23 21.12.2019
5720 Clear 18 1021 55 10000 3.6 360 17:56 21.12.2019
5721 Clear 18 1021 55 10000 4.6 350 17:38 21.12.2019
5722 Clear 18 1021 55 10000 4.6 350 17:20 21.12.2019
5723 Clear 19 1021 52 10000 5.1 360 16:57 21.12.2019
5724 Clear 19 1021 52 10000 5.1 360 16:38 21.12.2019
5725 Clear 19 1021 52 10000 5.1 360 16:18 21.12.2019
5726 Clear 19 1020 52 6000 5.7 360 15:55 21.12.2019
5727 Clear 20 1020 45 6000 5.1 350 15:37 21.12.2019
5728 Clear 20 1020 45 6000 5.1 350 15:18 21.12.2019
5729 Clear 20 1020 40 6000 5.7 10 14:42 21.12.2019
5730 Clouds 20 1020 40 6000 5.7 10 14:23 21.12.2019
5731 Clouds 20 1020 42 6000 5.1 360 13:58 21.12.2019
5732 Clouds 20 1020 42 6000 5.1 340 13:39 21.12.2019
5733 Clouds 20 1020 42 6000 5.1 340 13:19 21.12.2019
5734 Clouds 21 1020 35 6000 4.6 20 12:57 21.12.2019
5735 Clouds 20 1021 37 6000 4.6 20 12:38 21.12.2019
5736 Clouds 20 1021 37 6000 4.6 20 12:20 21.12.2019
5737 Clouds 19 1021 42 6000 4.6 30 11:55 21.12.2019
5738 Clouds 19 1022 39 6000 4.6 20 11:37 21.12.2019
5739 Clouds 19 1022 39 6000 4.6 20 11:19 21.12.2019
5740 Clouds 17 1022 59 6000 3.1 30 10:41 21.12.2019
5741 Clouds 17 1022 59 6000 3.1 30 10:23 21.12.2019
5742 Clouds 17 1022 59 6000 3.1 30 10:23 21.12.2019
5743 Clouds 16 1023 63 6000 2.1 10 09:58 21.12.2019
5744 Clouds 16 1023 63 6000 2.1 10 09:40 21.12.2019
5745 Clouds 16 1023 63 6000 2.1 10 09:20 21.12.2019
5746 Clouds 15 1023 72 6000 1.5 60 08:53 21.12.2019
5747 Clouds 15 1023 72 6000 1.5 60 08:27 21.12.2019
5748 Clouds 14 1022 71 6000 1.5 90 07:59 21.12.2019
5749 Clouds 12 1022 76 6000 1.5 90 07:41 21.12.2019
5750 Clouds 12 1022 76 6000 1.5 90 07:21 21.12.2019
5751 Clouds 12 1022 66 6000 2.49 31 06:42 21.12.2019
5752 Clouds 12 1022 66 6000 2.49 31 06:24 21.12.2019
5753 Clouds 11 1022 71 6000 0.5 340 05:43 21.12.2019
5754 Clear 11 1022 71 10000 1.5 80 04:56 21.12.2019
5755 Clear 13 1021 62 10000 2.1 80 03:56 21.12.2019
5756 Clear 12 1022 54 10000 2.52 27 02:39 21.12.2019
5757 Clear 11 1022 53 10000 2.29 50 01:53 21.12.2019
5758 Clear 11 1021 57 10000 0.5 70 01:27 21.12.2019
5759 Clear 11 1021 53 10000 1.5 80 00:50 21.12.2019
5760 Clear 11 1021 53 10000 1.5 80 00:28 21.12.2019
5761 Clear 11 1022 57 10000 1.5 70 23:55 20.12.2019
5762 Clear 11 1022 57 10000 1.5 70 23:37 20.12.2019
5763 Clear 11 1022 57 10000 1.5 70 23:18 20.12.2019
5764 Clear 12 1022 58 10000 4.1 70 22:40 20.12.2019
5765 Clear 12 1022 58 10000 4.1 70 22:21 20.12.2019
5766 Clear 13 1022 50 10000 2.6 90 21:57 20.12.2019
5767 Clear 14 1022 50 10000 3.1 80 21:39 20.12.2019
5768 Clear 14 1022 50 10000 3.1 80 21:18 20.12.2019
5769 Clear 14 1022 50 10000 3.1 70 20:39 20.12.2019
5770 Clear 14 1022 50 10000 3.1 70 20:19 20.12.2019
5771 Clear 14 1022 47 10000 3.1 70 19:58 20.12.2019
5772 Clear 14 1022 44 10000 2.6 80 19:40 20.12.2019
5773 Clear 14 1022 44 10000 2.6 80 19:40 20.12.2019
5774 Clear 15 1022 44 10000 2.6 80 19:19 20.12.2019
5775 Clear 15 1022 44 6000 2.1 80 18:54 20.12.2019
5776 Clear 15 1022 41 6000 1 50 18:36 20.12.2019
5777 Clear 16 1022 41 6000 1 50 18:18 20.12.2019
5778 Clear 18 1022 36 6000 2.6 360 17:42 20.12.2019
5779 Clear 18 1022 36 6000 2.6 360 17:21 20.12.2019
5780 Haze 19 1021 37 3000 3.6 360 16:59 20.12.2019
5781 -273 0 0 0 0 0 16:39 20.12.2019
5782 Haze 19 1021 37 3000 3.6 360 16:20 20.12.2019
5783 Haze 20 1021 34 3000 5.1 20 15:56 20.12.2019
5784 Haze 20 1021 34 3000 5.1 20 15:38 20.12.2019
5785 Haze 20 1021 34 3000 5.1 20 15:19 20.12.2019
5786 Haze 20 1021 37 3000 3.1 340 14:57 20.12.2019
5787 Haze 20 1021 37 3000 3.1 340 14:39 20.12.2019
5788 Haze 20 1021 37 3000 3.1 340 14:20 20.12.2019
5789 Haze 19 1021 52 3000 3.6 330 13:41 20.12.2019
5790 Haze 19 1021 52 3000 3.6 330 13:21 20.12.2019
5791 Haze 19 1021 55 2000 3.1 340 12:59 20.12.2019
5792 Haze 19 1021 55 2000 3.1 340 12:40 20.12.2019
5793 Haze 19 1021 55 2000 3.1 340 12:19 20.12.2019
5794 Haze 18 1022 59 1500 1.5 360 11:59 20.12.2019
5795 Haze 18 1022 59 1500 1.5 360 11:40 20.12.2019
5796 Haze 18 1022 59 1500 1.5 360 11:20 20.12.2019
5797 Haze 17 1022 67 1500 1.5 50 10:59 20.12.2019
5798 Haze 17 1022 67 1500 1.5 50 10:41 20.12.2019
5799 Mist 16 1023 77 1500 1.5 350 10:20 20.12.2019
5800 Mist 15 1023 82 1500 1.5 340 09:56 20.12.2019
5801 Mist 15 1024 77 1000 1.5 340 09:38 20.12.2019
5802 Mist 13 1024 77 1000 1.5 340 09:19 20.12.2019
5803 Haze 13 1024 76 100 1.5 10 08:43 20.12.2019
5804 Haze 13 1024 76 500 1 10 08:24 20.12.2019
5805 Haze 13 1024 76 4000 2.1 10 07:58 20.12.2019
5806 Haze 13 1024 76 4000 2.1 10 07:40 20.12.2019
5807 Haze 11 1024 71 4000 1 60 07:19 20.12.2019
5808 Haze 10 1023 76 4000 3.51 60 06:52 20.12.2019
5809 Haze 10 1023 71 4000 1.5 100 06:32 20.12.2019
5810 Clear 10 1023 71 6000 3.51 60 05:53 20.12.2019
5811 Clear 10 1023 71 10000 3.51 60 05:35 20.12.2019
5812 Clear 11 1023 66 10000 4.25 67 04:33 20.12.2019
5813 Clear 12 1023 66 10000 2.1 360 03:30 20.12.2019
5814 Clear 11 1023 66 10000 2.1 30 02:43 20.12.2019
5815 Clear 10 1023 71 10000 4.76 75 01:49 20.12.2019
5816 Clear 10 1023 71 10000 4.76 75 01:49 20.12.2019
5817 Clear 10 1023 66 10000 1.5 60 01:30 20.12.2019
5818 Clear 11 1023 66 10000 2.1 30 00:43 20.12.2019
5819 Clear 11 1023 66 10000 3.6 60 00:23 20.12.2019
5820 Clear 11 1023 66 10000 4.1 50 23:44 19.12.2019
5821 Clear 12 1024 62 10000 4.1 60 23:25 19.12.2019
5822 Clear 12 1024 62 10000 4.6 60 22:59 19.12.2019
5823 Clear 12 1024 62 10000 4.6 60 22:37 19.12.2019
5824 Clear 13 1025 62 10000 3.1 60 22:18 19.12.2019
5825 Clear 13 1025 62 10000 3.1 50 21:55 19.12.2019
5826 Clear 13 1025 62 10000 4.1 40 21:37 19.12.2019
5827 Clear 13 1025 62 10000 4.1 40 21:18 19.12.2019
5828 Clear 13 1025 62 10000 4.1 40 21:18 19.12.2019
5829 Clear 14 1025 62 10000 4.6 30 20:55 19.12.2019
5830 Clear 14 1025 54 10000 4.6 40 20:36 19.12.2019
5831 Clouds 15 1025 54 10000 4.6 40 20:18 19.12.2019
5832 Clouds 15 1025 51 10000 5.1 40 19:54 19.12.2019
5833 Clouds 15 1025 51 10000 5.1 40 19:54 19.12.2019
5834 Clouds 16 1025 41 10000 6.2 30 19:36 19.12.2019
5835 Clouds 16 1025 41 10000 6.2 30 19:18 19.12.2019
5836 Clouds 16 1025 41 10000 5.7 30 18:41 19.12.2019
5837 Clouds 17 1025 36 10000 6.7 30 18:22 19.12.2019
5838 Clouds 17 1025 36 10000 6.7 30 17:58 19.12.2019
5839 Clouds 17 1025 31 10000 7.2 40 17:39 19.12.2019
5840 Clear 18 1025 31 10000 7.2 40 17:19 19.12.2019
5841 Clear 19 1025 29 10000 7.2 40 16:58 19.12.2019
5842 Clear 19 1025 29 10000 7.2 40 16:40 19.12.2019
5843 Clear 19 1024 31 10000 8.2 30 16:22 19.12.2019
5844 Clouds 20 1024 24 10000 8.7 30 15:59 19.12.2019
5845 Clouds 20 1024 24 10000 8.7 30 15:39 19.12.2019
5846 Clouds 21 1024 31 10000 8.7 30 15:20 19.12.2019
5847 Clouds 21 1024 31 10000 8.7 30 15:20 19.12.2019
5848 Clouds 21 1024 24 10000 9.3 30 14:59 19.12.2019
5849 Clouds 22 1024 24 10000 9.3 30 14:41 19.12.2019
5850 Clouds 22 1024 24 10000 8.7 30 14:19 19.12.2019
5851 Clouds 22 1025 26 10000 7.7 30 13:57 19.12.2019
5852 Clouds 21 1026 30 10000 6.2 30 13:37 19.12.2019
5853 Clouds 21 1026 30 10000 6.2 30 13:18 19.12.2019
5854 Clouds 21 1026 30 10000 6.2 30 12:55 19.12.2019
5855 Clouds 21 1026 30 10000 6.2 30 12:55 19.12.2019
5856 Clouds 21 1026 30 10000 6.2 30 12:37 19.12.2019
5857 Clouds 21 1026 30 10000 6.2 30 12:18 19.12.2019
5858 Clouds 21 1026 30 10000 6.2 30 11:57 19.12.2019
5859 Clouds 21 1026 30 10000 6.2 30 11:57 19.12.2019
5860 Clouds 21 1026 32 10000 5.7 30 11:38 19.12.2019
5861 Clouds 21 1026 32 10000 5.7 30 11:18 19.12.2019
5862 Clouds 20 1026 40 10000 6.2 40 10:55 19.12.2019
5863 Clouds 19 1027 55 10000 5.7 40 10:36 19.12.2019
5864 Clouds 18 1027 55 10000 5.7 40 10:18 19.12.2019
5865 Clouds 18 1027 55 10000 5.7 40 10:18 19.12.2019
5866 Clouds 18 1027 55 10000 5.7 40 10:18 19.12.2019
5867 Clouds 18 1027 63 10000 5.7 40 09:38 19.12.2019
5868 Clear 19 1026 35 0 5.88 57 09:20 19.12.2019
5869 Clear 19 1026 35 0 5.88 57 09:20 19.12.2019
5870 Clear 19 1026 35 0 5.88 57 09:20 19.12.2019
5871 Clear 15 1027 93 6000 3.6 40 08:58 19.12.2019
5872 Clear 15 1027 93 6000 3.6 40 08:39 19.12.2019
5873 Clear 15 1027 93 6000 3.6 40 08:19 19.12.2019
5874 Clear 15 1027 100 6000 3.6 60 07:56 19.12.2019
5875 Clear 14 1027 100 6000 3.6 60 07:38 19.12.2019
5876 Clear 13 1027 93 6000 4.6 70 07:19 19.12.2019
5877 Clear 12 1027 100 6000 4.6 70 06:46 19.12.2019
5878 Clear 12 1026 93 6000 4.6 70 06:27 19.12.2019
5879 Clear 12 1026 93 6000 4.6 70 05:52 19.12.2019
5880 Clear 12 1026 93 6000 4.6 70 05:32 19.12.2019
5881 Clear 12 1026 93 10000 6.2 70 04:48 19.12.2019
5882 Clear 12 1026 93 10000 5.1 70 02:49 19.12.2019
5883 Clear 12 1026 93 10000 5.1 40 01:47 19.12.2019
5884 Clear 13 1026 87 10000 4.6 50 01:22 19.12.2019
5885 Clear 13 1027 87 10000 4.6 60 00:39 19.12.2019
5886 Clear 12 1027 87 10000 4.1 40 00:39 19.12.2019
5887 Clear 13 1027 87 10000 4.6 60 00:39 19.12.2019
5888 Clear 13 1027 87 10000 4.6 60 00:20 19.12.2019
5889 Clear 14 1027 82 10000 5.1 70 23:55 18.12.2019
5890 Clear 14 1027 82 10000 4.6 80 23:36 18.12.2019
5891 Clear 14 1027 82 10000 4.6 80 23:18 18.12.2019
5892 Clear 14 1027 82 10000 4.1 70 22:55 18.12.2019
5893 Clear 14 1027 82 10000 5.1 60 22:36 18.12.2019
5894 Clear 14 1027 82 10000 5.1 60 22:18 18.12.2019
5895 Clear 14 1027 72 10000 5.1 50 21:55 18.12.2019
5896 Clear 15 1027 72 10000 5.1 50 21:36 18.12.2019
5897 Clear 15 1027 72 10000 5.1 50 21:18 18.12.2019
5898 Clear 15 1027 72 10000 6.7 40 20:54 18.12.2019
5899 Clear 15 1027 72 10000 6.7 40 20:36 18.12.2019
5900 Clear 15 1027 72 10000 6.7 40 20:18 18.12.2019
5901 Clear 16 1027 67 10000 8.2 50 19:54 18.12.2019
5902 Clear 16 1027 67 10000 8.2 50 19:54 18.12.2019
5903 Clear 16 1027 63 10000 6.7 40 19:36 18.12.2019
5904 Clear 16 1027 63 10000 6.7 40 19:18 18.12.2019
5905 Clear 16 1027 63 10000 6.7 40 18:43 18.12.2019
5906 Clear 17 1027 59 10000 6.2 30 18:25 18.12.2019
5907 Clear 18 1027 55 10000 7.2 30 17:56 18.12.2019
5908 Clear 18 1027 52 10000 6.2 30 17:38 18.12.2019
5909 Clear 18 1027 52 10000 6.2 30 17:19 18.12.2019
5910 Clear 19 1026 48 10000 8.2 30 16:54 18.12.2019
5911 Clear 19 1026 48 10000 8.2 30 16:36 18.12.2019
5912 Clear 19 1026 48 10000 8.2 30 16:18 18.12.2019
5913 Clear 19 1026 48 10000 8.2 30 15:54 18.12.2019
5914 Clear 20 1026 45 10000 8.2 40 15:36 18.12.2019
5915 Clear 20 1026 45 10000 8.2 40 15:18 18.12.2019
5916 Clear 21 1026 43 10000 8.2 40 14:40 18.12.2019
5917 Clear 21 1026 43 10000 8.2 40 14:20 18.12.2019
5918 Clouds 21 1026 43 10000 8.7 40 13:57 18.12.2019
5919 Clouds 20 1026 45 10000 8.7 50 13:37 18.12.2019
5920 Clouds 20 1026 45 10000 8.7 50 13:19 18.12.2019
5921 Clouds 20 1026 43 10000 8.7 50 12:57 18.12.2019
5922 Clouds 20 1026 49 10000 8.7 40 12:38 18.12.2019
5923 Clouds 20 1026 49 10000 8.7 40 12:19 18.12.2019
5924 Clouds 20 1026 49 10000 8.7 50 11:55 18.12.2019
5925 Clouds 20 1027 52 10000 8.7 50 11:37 18.12.2019
5926 Clouds 20 1027 52 10000 8.7 50 11:18 18.12.2019
5927 Clouds 20 1027 55 10000 8.7 40 10:55 18.12.2019
5928 Clouds 19 1028 55 10000 8.7 50 10:37 18.12.2019
5929 Clouds 19 1028 55 10000 8.7 50 10:19 18.12.2019
5930 Clear 17 1028 72 10000 6.7 50 09:43 18.12.2019
5931 Clear 17 1028 72 10000 6.7 50 09:18 18.12.2019
5932 Clouds 15 1028 82 6000 4.1 50 08:40 18.12.2019
5933 Clouds 15 1028 82 6000 4.1 50 08:21 18.12.2019
5934 Clouds 13 1028 93 6000 4.1 70 07:43 18.12.2019
5935 Clouds 13 1028 93 6000 4.1 70 07:23 18.12.2019
5936 Clouds 12 1028 87 6000 3.1 70 06:55 18.12.2019
5937 Clouds 11 1028 93 6000 3.1 70 06:27 18.12.2019
5938 Clouds 11 1027 93 10000 3.1 70 05:54 18.12.2019
5939 Clouds 11 1027 87 10000 2.6 80 04:57 18.12.2019
5940 Clear 13 1026 82 10000 3.6 70 02:55 18.12.2019
5941 Clear 13 1026 82 10000 3.6 70 02:36 18.12.2019
5942 Clear 13 1026 82 10000 3.6 70 02:18 18.12.2019
5943 Clear 13 1026 82 10000 4.1 80 01:40 18.12.2019
5944 Clear 13 1026 82 10000 4.1 80 01:21 18.12.2019
5945 Clouds 13 1026 82 10000 3.6 80 00:41 18.12.2019
5946 Clouds 13 1026 82 10000 3.6 80 00:23 18.12.2019
5947 Clouds 13 1026 82 10000 3.1 70 23:56 17.12.2019
5948 Clouds 13 1027 76 10000 4.1 70 23:38 17.12.2019
5949 Clouds 14 1027 76 10000 4.1 70 23:18 17.12.2019
5950 Clouds 14 1027 76 10000 3.6 70 22:56 17.12.2019
5951 Clouds 14 1027 76 10000 3.6 70 22:37 17.12.2019
5952 Clouds 14 1027 72 10000 4.1 50 22:18 17.12.2019
5953 Clouds 15 1027 72 10000 4.1 50 21:55 17.12.2019
5954 Clouds 15 1027 72 10000 4.1 50 21:37 17.12.2019
5955 Clouds 15 1027 72 10000 4.1 50 21:19 17.12.2019
5956 Clouds 16 1027 67 10000 4.1 40 20:56 17.12.2019
5957 Clouds 16 1027 67 10000 4.1 40 20:38 17.12.2019
5958 Clouds 16 1027 67 10000 4.1 40 20:18 17.12.2019
5959 Clouds 16 1027 67 10000 4.6 40 19:55 17.12.2019
5960 Clouds 16 1027 67 10000 4.6 40 19:37 17.12.2019
5961 Clouds 16 1027 67 10000 4.6 40 19:18 17.12.2019
5962 Clouds 17 1026 55 10000 4.1 30 18:42 17.12.2019
5963 Clouds 17 1026 55 10000 4.1 30 18:42 17.12.2019
5964 Clouds 18 1026 55 10000 4.1 30 18:22 17.12.2019
5965 Clouds 18 1026 55 10000 3.6 10 17:59 17.12.2019
5966 Clouds 18 1026 55 10000 3.6 10 17:59 17.12.2019
5967 Clouds 19 1026 55 10000 3.6 10 17:41 17.12.2019
5968 Clouds 19 1025 55 10000 4.6 10 17:19 17.12.2019
5969 Clouds 19 1025 55 10000 4.6 10 16:56 17.12.2019
5970 Clouds 19 1025 49 10000 4.6 360 16:37 17.12.2019
5971 Clouds 20 1025 49 10000 4.6 360 16:37 17.12.2019
5972 Clouds 20 1025 49 10000 4.6 360 16:19 17.12.2019
5973 Clouds 20 1025 49 10000 4.6 20 15:56 17.12.2019
5974 Clouds 20 1025 49 10000 4.6 20 15:37 17.12.2019
5975 Clouds 20 1025 49 10000 4.6 20 15:37 17.12.2019
5976 Clouds 20 1025 49 10000 4.6 20 15:19 17.12.2019
5977 Clouds 20 1025 49 10000 4.6 20 15:19 17.12.2019
5978 Clouds 20 1025 49 10000 5.1 10 14:55 17.12.2019
5979 Clouds 20 1025 49 10000 5.1 40 14:36 17.12.2019
5980 Clouds 20 1025 49 10000 5.1 40 14:18 17.12.2019
5981 Clouds 20 1025 45 10000 6.7 30 13:55 17.12.2019
5982 Clouds 20 1025 49 10000 6.7 30 13:37 17.12.2019
5983 Clouds 20 1025 49 10000 6.7 30 13:18 17.12.2019
5984 Clouds 20 1025 52 10000 6.7 20 12:41 17.12.2019
5985 Clouds 20 1025 52 10000 6.7 20 12:19 17.12.2019
5986 Clouds 20 1025 52 10000 5.7 40 11:59 17.12.2019
5987 Clouds 20 1025 59 10000 5.7 50 11:37 17.12.2019
5988 Clouds 19 1025 59 10000 5.7 50 11:19 17.12.2019
5989 Clouds 19 1025 59 6000 6.7 50 10:59 17.12.2019
5990 Clouds 18 1026 68 6000 4.1 30 10:41 17.12.2019
5991 Clouds 18 1026 68 6000 4.1 30 10:41 17.12.2019
5992 Clouds 18 1026 68 6000 4.1 30 10:22 17.12.2019
5993 Mist 18 1026 68 4000 3.1 60 09:59 17.12.2019
5994 Mist 17 1026 72 4000 3.1 40 09:41 17.12.2019
5995 Mist 17 1026 72 4000 3.1 40 09:20 17.12.2019
5996 Mist 16 1026 77 4000 2.6 40 08:56 17.12.2019
5997 Mist 16 1026 77 4000 2.6 40 08:56 17.12.2019
5998 Mist 14 1026 87 4000 1.5 60 08:38 17.12.2019
5999 Mist 14 1026 87 4000 1.5 60 08:38 17.12.2019
6000 Mist 14 1026 87 4000 1.5 60 08:20 17.12.2019
6001 Mist 14 1026 87 4000 1 70 07:54 17.12.2019
6002 Mist 13 1026 87 4000 2.1 70 07:36 17.12.2019
6003 Mist 12 1026 87 4000 2.1 70 07:18 17.12.2019
6004 Mist 11 1025 87 2000 2.6 70 06:35 17.12.2019
6005 Mist 11 1025 87 4000 4.77 48 05:56 17.12.2019
6006 Mist 11 1025 87 4000 4.77 48 05:36 17.12.2019
6007 Mist 12 1024 87 4000 1.5 80 04:45 17.12.2019
6008 Clouds 12 1024 81 6000 1 70 02:47 17.12.2019
6009 Clear 13 1024 76 6000 3.01 25 01:56 17.12.2019
6010 Clear 13 1024 82 6000 3.01 25 01:20 17.12.2019
6011 Clear 13 1024 76 6000 1 90 00:38 17.12.2019
6012 Clear 13 1024 76 6000 1 90 00:20 17.12.2019
6013 Clear 13 1024 76 6000 2.1 90 23:42 16.12.2019
6014 Clear 14 1024 76 6000 2.1 90 23:19 16.12.2019
6015 Clear 13 1024 76 6000 2.6 70 22:58 16.12.2019
6016 Clear 13 1024 67 6000 3.1 60 22:38 16.12.2019
6017 Clear 14 1024 67 6000 3.1 60 22:20 16.12.2019
6018 Clear 14 1024 67 6000 2.6 70 21:56 16.12.2019
6019 Clear 14 1024 67 6000 2.6 60 21:38 16.12.2019
6020 Clear 14 1024 67 6000 2.6 60 21:38 16.12.2019
6021 Clear 14 1024 67 6000 2.6 60 21:20 16.12.2019
6022 Clear 14 1024 67 10000 2.1 60 20:58 16.12.2019
6023 Clear 14 1024 62 10000 2.6 50 20:38 16.12.2019
6024 Clear 15 1024 59 10000 3.6 30 20:19 16.12.2019
6025 Clear 16 1024 59 10000 3.6 30 19:56 16.12.2019
6026 Clear 16 1024 59 10000 3.6 30 19:56 16.12.2019
6027 Clear 16 1024 59 10000 3.6 10 19:37 16.12.2019
6028 Clear 17 1024 59 10000 3.6 10 19:19 16.12.2019
6029 Clear 17 1024 59 10000 4.1 20 18:56 16.12.2019
6030 Clear 17 1024 59 10000 4.1 20 18:56 16.12.2019
6031 Clear 17 1023 55 10000 5.1 20 18:38 16.12.2019
6032 Clear 17 1023 55 10000 5.1 20 18:38 16.12.2019
6033 Clear 17 1023 52 10000 5.1 20 18:19 16.12.2019
6034 Clear 17 1023 52 10000 5.1 20 17:57 16.12.2019
6035 Clear 18 1023 52 10000 5.7 20 17:38 16.12.2019
6036 Clear 18 1023 52 10000 5.7 20 17:20 16.12.2019
6037 Clear 18 1023 52 10000 5.7 20 17:20 16.12.2019
6038 Clouds 18 1022 48 10000 7.7 10 16:57 16.12.2019
6039 Clouds 19 1022 48 10000 7.7 10 16:38 16.12.2019
6040 Clouds 19 1022 48 10000 7.7 10 16:19 16.12.2019
6041 Clouds 19 1022 48 10000 7.7 20 15:57 16.12.2019
6042 Clouds 19 1022 45 10000 7.7 10 15:38 16.12.2019
6043 Clouds 20 1022 45 10000 7.7 10 15:20 16.12.2019
6044 Clouds 20 1022 45 10000 7.2 20 14:55 16.12.2019
6045 Clouds 20 1022 49 10000 5.7 10 14:37 16.12.2019
6046 Clouds 20 1022 49 10000 5.7 10 14:19 16.12.2019
6047 Clouds 19 1022 48 10000 6.2 10 13:56 16.12.2019
6048 Clouds 19 1022 45 10000 7.2 30 13:37 16.12.2019
6049 Clouds 19 1022 45 10000 7.2 30 13:19 16.12.2019
6050 Clouds 19 1022 48 10000 5.7 10 12:57 16.12.2019
6051 Clouds 19 1022 52 10000 6.2 350 12:39 16.12.2019
6052 Clouds 19 1022 52 10000 6.2 10 12:18 16.12.2019
6053 Clouds 19 1022 52 10000 6.2 10 11:57 16.12.2019
6054 Clouds 18 1023 55 10000 5.7 350 11:39 16.12.2019
6055 Clouds 18 1023 55 10000 5.7 350 11:19 16.12.2019
6056 Clouds 18 1023 55 10000 5.7 350 10:55 16.12.2019
6057 Clear 17 1023 59 10000 5.1 20 10:36 16.12.2019
6058 Clear 17 1023 59 10000 5.1 20 10:18 16.12.2019
6059 Clear 15 1023 67 10000 3.6 40 09:44 16.12.2019
6060 Clear 15 1023 67 10000 3.6 40 09:44 16.12.2019
6061 Clear 15 1023 67 10000 3.6 40 09:26 16.12.2019
6062 Mist 14 1023 82 4000 2.6 30 08:41 16.12.2019
6063 Mist 13 1023 82 4000 2.6 30 08:21 16.12.2019
6064 Mist 13 1023 82 4000 2.1 40 07:57 16.12.2019
6065 Mist 12 1022 87 4000 2.1 100 07:38 16.12.2019
6066 Mist 11 1022 87 4000 2.1 100 07:19 16.12.2019
6067 Mist 10 1021 87 4000 2.6 30 06:40 16.12.2019
6068 Mist 10 1021 87 4000 2.6 30 06:21 16.12.2019
6069 Mist 10 1021 87 4000 2.6 30 06:21 16.12.2019
6070 Mist 10 1021 87 4000 1 60 05:44 16.12.2019
6071 Mist 10 1021 87 4000 1 60 05:26 16.12.2019
6072 Mist 11 1020 81 2000 3.1 50 03:33 16.12.2019
6073 Haze 12 1019 71 3000 0.62 41 01:57 16.12.2019
6074 Haze 12 1019 76 3000 2.1 10 01:39 16.12.2019
6075 Clouds 12 1018 71 6000 1 60 00:41 16.12.2019
6076 Clouds 13 1018 71 6000 1 60 00:23 16.12.2019
6077 Clouds 13 1018 66 6000 0.71 151 23:58 15.12.2019
6078 Clouds 13 1018 67 6000 1 80 23:38 15.12.2019
6079 Clouds 14 1018 67 10000 1.86 193 23:19 15.12.2019
6080 Clouds 14 1018 67 10000 1.86 193 22:54 15.12.2019
6081 Clouds 15 1018 67 10000 2.1 320 22:36 15.12.2019
6082 Clouds 15 1018 67 10000 2.1 320 22:18 15.12.2019
6083 Clouds 15 1018 67 10000 2.1 340 21:55 15.12.2019
6084 Clouds 15 1018 62 10000 1.5 220 21:37 15.12.2019
6085 Clouds 15 1018 62 10000 1.5 220 21:37 15.12.2019
6086 Clouds 15 1018 62 10000 1.5 220 21:18 15.12.2019
6087 Clouds 15 1017 62 10000 1.5 190 20:54 15.12.2019
6088 Clouds 15 1017 62 10000 2.1 210 20:36 15.12.2019
6089 Clouds 15 1017 62 10000 2.1 210 20:36 15.12.2019
6090 Clouds 15 1017 62 10000 2.1 210 20:18 15.12.2019
6091 Clouds 15 1017 62 10000 0.5 230 19:54 15.12.2019
6092 Clouds 15 1017 59 10000 3.1 160 19:36 15.12.2019
6093 Clouds 16 1017 59 10000 3.1 160 19:18 15.12.2019
6094 Clouds 16 1016 63 10000 3.6 150 18:54 15.12.2019
6095 Clouds 16 1016 63 10000 3.6 150 18:36 15.12.2019
6096 Clouds 16 1016 63 10000 3.6 150 18:18 15.12.2019
6097 Clouds 16 1016 59 10000 4.1 170 17:55 15.12.2019
6098 Clouds 16 1015 59 10000 5.7 180 17:36 15.12.2019
6099 Clouds 16 1015 59 10000 5.7 180 17:18 15.12.2019
6100 Clouds 17 1014 51 6000 5.7 180 16:42 15.12.2019
6101 Clouds 17 1014 51 6000 5.7 180 16:22 15.12.2019
6102 Clouds 17 1014 51 6000 5.7 190 15:57 15.12.2019
6103 Clouds 17 1014 51 6000 6.2 190 15:39 15.12.2019
6104 Clouds 17 1014 51 6000 6.2 190 15:19 15.12.2019
6105 Clouds 17 1014 51 6000 7.2 190 14:56 15.12.2019
6106 Clouds 17 1013 48 10000 8.2 190 14:38 15.12.2019
6107 Clouds 17 1013 48 10000 8.2 190 14:19 15.12.2019
6108 Clouds 17 1013 45 10000 7.2 200 13:59 15.12.2019
6109 Clouds 17 1013 45 10000 7.2 200 13:39 15.12.2019
6110 Clouds 17 1013 45 10000 7.2 200 13:20 15.12.2019
6111 Clouds 17 1013 42 6000 9.3 200 12:57 15.12.2019
6112 Clouds 17 1013 45 6000 8.2 200 12:39 15.12.2019
6113 Clouds 17 1013 45 6000 8.2 200 12:21 15.12.2019
6114 Clouds 17 1013 48 6000 8.7 190 11:59 15.12.2019
6115 Clouds 17 1013 42 6000 7.2 200 11:38 15.12.2019
6116 Clouds 17 1013 42 6000 7.2 200 11:19 15.12.2019
6117 Clouds 17 1013 42 6000 7.2 200 11:19 15.12.2019
6118 Clouds 17 1013 42 6000 7.2 200 11:19 15.12.2019
6119 Clouds 16 1014 41 6000 6.7 200 10:55 15.12.2019
6120 Clouds 16 1014 38 6000 8.2 190 10:37 15.12.2019
6121 Clouds 16 1014 38 6000 8.2 190 10:19 15.12.2019
6122 Clouds 15 1014 41 6000 8.2 200 09:56 15.12.2019
6123 Clouds 15 1014 41 6000 7.2 200 09:37 15.12.2019
6124 Clouds 15 1014 41 6000 7.2 200 09:18 15.12.2019
6125 Clouds 14 1013 41 6000 8.2 190 08:41 15.12.2019
6126 Clouds 14 1013 41 6000 8.2 190 08:22 15.12.2019
6127 Clouds 13 1013 43 6000 8.2 170 07:57 15.12.2019
6128 Clouds 13 1013 43 6000 8.2 170 07:38 15.12.2019
6129 Clouds 12 1013 50 6000 8.2 170 06:59 15.12.2019
6130 Clouds 12 1012 54 6000 8.2 170 06:24 15.12.2019
6131 Rain 12 1012 77 6000 9.8 180 05:42 15.12.2019
6132 Rain 12 1012 33 6000 9.8 180 05:20 15.12.2019
6133 Clouds 15 1012 24 6000 8.7 180 04:19 15.12.2019
6134 Clouds 15 1012 24 6000 10.3 180 02:49 15.12.2019
6135 Clouds 15 1012 24 6000 10.8 180 02:30 15.12.2019
6136 Clear 15 1012 24 6000 10.8 180 01:40 15.12.2019
6137 Clear 15 1013 23 6000 9.3 180 01:18 15.12.2019
6138 Clear 16 1013 23 6000 9.3 180 00:47 15.12.2019
6139 Clear 16 1013 23 6000 9.3 180 00:29 15.12.2019
6140 Clear 16 1013 25 6000 8.2 170 23:41 14.12.2019
6141 Clear 16 1013 25 6000 8.2 170 23:22 14.12.2019
6142 Clear 16 1014 25 6000 8.2 180 22:59 14.12.2019
6143 Clear 16 1014 25 6000 7.7 180 22:41 14.12.2019
6144 Clear 16 1014 25 6000 7.7 180 22:22 14.12.2019
6145 Clear 16 1014 25 6000 8.2 190 21:56 14.12.2019
6146 Clear 16 1014 26 6000 7.2 190 21:38 14.12.2019
6147 Clear 16 1014 26 6000 7.2 190 21:19 14.12.2019
6148 Clear 16 1014 26 6000 7.2 190 21:19 14.12.2019
6149 Clear 16 1014 26 6000 7.2 190 20:59 14.12.2019
6150 Clear 16 1014 25 6000 7.7 180 20:40 14.12.2019
6151 Clear 17 1014 25 6000 7.7 180 20:20 14.12.2019
6152 Clear 17 1014 27 10000 8.2 180 19:57 14.12.2019
6153 Clear 17 1014 25 10000 6.7 180 19:38 14.12.2019
6154 Clear 17 1014 25 10000 6.7 180 19:20 14.12.2019
6155 Clear 17 1014 23 10000 6.7 190 18:56 14.12.2019
6156 Clear 17 1014 23 10000 6.7 190 18:38 14.12.2019
6157 Clear 17 1014 23 10000 6.7 190 18:38 14.12.2019
6158 Clear 17 1014 23 10000 6.7 190 18:19 14.12.2019
6159 Clear 17 1014 23 10000 7.2 190 17:44 14.12.2019
6160 Clear 17 1014 23 10000 7.2 190 17:24 14.12.2019
6161 Clear 18 1013 22 10000 7.7 200 16:58 14.12.2019
6162 Clear 18 1013 23 10000 7.2 200 16:39 14.12.2019
6163 Clear 18 1013 23 10000 7.2 200 16:19 14.12.2019
6164 Clear 18 1013 23 10000 7.2 200 16:19 14.12.2019
6165 Clear 18 1014 24 10000 9.8 200 15:43 14.12.2019
6166 Clear 19 1014 24 10000 9.8 200 15:24 14.12.2019
6167 Clear 18 1014 23 10000 10.8 200 14:59 14.12.2019
6168 Clear 18 1014 24 10000 8.7 200 14:39 14.12.2019
6169 Clear 19 1014 24 10000 8.7 200 14:20 14.12.2019
6170 Clear 19 1014 25 10000 9.3 200 13:57 14.12.2019
6171 Clear 18 1014 31 10000 9.3 200 13:39 14.12.2019
6172 Clear 18 1014 31 10000 9.3 200 13:19 14.12.2019
6173 Clear 18 1014 31 10000 9.3 200 13:19 14.12.2019
6174 Clear 18 1015 31 10000 9.3 200 12:55 14.12.2019
6175 Clear 18 1015 24 10000 10.8 200 12:37 14.12.2019
6176 Clear 18 1015 24 10000 10.8 200 12:18 14.12.2019
6177 Clear 18 1015 24 6000 9.3 210 11:55 14.12.2019
6178 Clear 17 1016 24 6000 9.3 190 11:37 14.12.2019
6179 Clear 16 1016 31 6000 9.3 190 11:18 14.12.2019
6180 Clear 16 1016 31 6000 9.3 190 10:55 14.12.2019
6181 Clear 16 1016 31 6000 9.3 190 10:37 14.12.2019
6182 Clear 16 1016 31 6000 9.3 190 10:18 14.12.2019
6183 Clouds 15 1017 33 6000 8.7 170 09:40 14.12.2019
6184 Clouds 15 1017 33 6000 8.7 170 09:21 14.12.2019
6185 Clouds 14 1017 30 6000 8.2 170 08:45 14.12.2019
6186 Clouds 14 1017 39 6000 8.2 170 08:20 14.12.2019
6187 Clouds 13 1017 37 10000 6.7 170 07:57 14.12.2019
6188 Clouds 12 1017 40 10000 6.7 170 07:38 14.12.2019
6189 Clouds 12 1017 40 10000 6.7 170 07:19 14.12.2019
6190 Clouds 12 1016 40 10000 6.7 170 06:41 14.12.2019
6191 Clouds 12 1016 40 10000 6.7 170 06:22 14.12.2019
6192 Clouds 11 1016 43 10000 6.7 170 05:25 14.12.2019
6193 Clouds 11 1016 38 10000 5.1 170 02:51 14.12.2019
6194 Clouds 12 1016 47 10000 5.1 170 02:23 14.12.2019
6195 Clouds 12 1016 40 10000 3.6 180 01:44 14.12.2019
6196 Clouds 13 1016 37 10000 3.1 180 00:58 14.12.2019
6197 Clouds 13 1016 48 10000 3.1 180 00:40 14.12.2019
6198 Clouds 13 1016 48 10000 3.1 180 00:19 14.12.2019
6199 Clouds 14 1016 41 10000 4.1 200 23:41 13.12.2019
6200 Clouds 14 1016 41 10000 4.1 200 23:41 13.12.2019
6201 Clouds 14 1016 41 10000 4.1 200 23:19 13.12.2019
6202 Clouds 14 1016 41 10000 4.6 210 22:56 13.12.2019
6203 Clouds 14 1016 41 10000 4.6 210 22:37 13.12.2019
6204 Clouds 14 1016 41 10000 4.6 210 22:18 13.12.2019
6205 Clouds 14 1016 41 10000 5.1 210 21:44 13.12.2019
6206 Clouds 15 1016 41 10000 5.1 210 21:22 13.12.2019
6207 Clouds 15 1016 44 10000 5.7 220 20:59 13.12.2019
6208 Clouds 15 1016 41 10000 5.7 220 20:39 13.12.2019
6209 Clouds 16 1016 41 10000 5.7 220 20:20 13.12.2019
6210 Clouds 16 1016 48 10000 5.7 220 19:56 13.12.2019
6211 Clouds 16 1016 48 10000 5.7 220 19:38 13.12.2019
6212 Clouds 16 1016 48 10000 5.7 220 19:19 13.12.2019
6213 Clouds 17 1016 45 10000 5.1 210 18:54 13.12.2019
6214 Clouds 17 1015 51 10000 3.6 220 18:36 13.12.2019
6215 Clouds 17 1015 51 10000 3.6 220 18:18 13.12.2019
6216 Clouds 17 1015 51 10000 3.6 220 18:18 13.12.2019
6217 Clouds 17 1015 48 10000 3.6 250 17:40 13.12.2019
6218 Clouds 18 1015 48 10000 3.6 250 17:19 13.12.2019
6219 Clouds 18 1015 52 10000 6.7 260 16:57 13.12.2019
6220 Clouds 18 1015 52 10000 6.7 260 16:57 13.12.2019
6221 Clouds 18 1015 52 10000 6.7 260 16:38 13.12.2019
6222 Clouds 18 1015 52 10000 6.7 260 16:20 13.12.2019
6223 Clouds 19 1014 48 10000 7.2 230 15:43 13.12.2019
6224 Clouds 19 1014 48 10000 7.2 230 15:22 13.12.2019
6225 Clouds 19 1014 48 6000 7.7 220 14:57 13.12.2019
6226 Clouds 19 1014 48 6000 7.7 220 14:39 13.12.2019
6227 Clouds 19 1014 48 6000 7.7 220 14:19 13.12.2019
6228 Clouds 19 1014 52 6000 8.7 210 13:44 13.12.2019
6229 Clouds 19 1014 52 6000 8.7 210 13:26 13.12.2019
6230 Clouds 18 1015 52 6000 10.3 210 12:59 13.12.2019
6231 Clouds 18 1015 52 6000 10.3 210 12:41 13.12.2019
6232 Clouds 18 1015 52 6000 10.3 210 12:19 13.12.2019
6233 Sand 17 1016 55 4000 7.2 200 11:45 13.12.2019
6234 Sand 17 1016 55 4000 7.2 200 11:27 13.12.2019
6235 Sand 17 1016 55 4000 6.7 200 10:58 13.12.2019
6236 Sand 17 1016 55 4000 6.7 200 10:40 13.12.2019
6237 Sand 16 1016 59 4000 6.7 200 10:21 13.12.2019
6238 Sand 15 1016 58 4000 7.2 190 09:43 13.12.2019
6239 Sand 15 1016 58 4000 7.2 190 09:22 13.12.2019
6240 Sand 14 1016 62 4000 8.2 190 08:55 13.12.2019
6241 Sand 14 1016 62 4000 8.2 190 08:37 13.12.2019
6242 Sand 14 1016 62 4000 8.2 190 08:19 13.12.2019
6243 Sand 13 1016 62 4000 7.2 180 07:43 13.12.2019
6244 Sand 13 1015 62 4000 7.2 180 07:19 13.12.2019
6245 Sand 13 1015 62 4000 7.2 180 06:46 13.12.2019
6246 Sand 12 1015 66 4000 8.2 180 06:27 13.12.2019
6247 Clouds 12 1015 62 6000 7.2 190 05:41 13.12.2019
6248 Clouds 13 1014 62 6000 8.2 190 05:20 13.12.2019
6249 Clouds 13 1014 62 6000 7.7 180 04:33 13.12.2019
6250 Clouds 14 1014 58 6000 7.2 190 03:29 13.12.2019
6251 Clouds 14 1014 54 10000 7.7 190 02:31 13.12.2019
6252 Clouds 13 1014 58 10000 6.7 190 01:40 13.12.2019
6253 Clouds 13 1014 58 10000 8.2 190 00:51 13.12.2019
6254 Clouds 13 1014 54 10000 7.7 180 00:32 13.12.2019
6255 Clouds 14 1014 54 10000 6.7 180 23:47 12.12.2019
6256 Clouds 15 1014 58 10000 7.7 180 23:27 12.12.2019
6257 Clouds 15 1014 54 10000 6.2 190 22:59 12.12.2019
6258 Clouds 15 1014 54 10000 6.2 190 22:41 12.12.2019
6259 Clouds 15 1014 54 10000 6.2 190 22:41 12.12.2019
6260 Clouds 15 1014 58 10000 6.2 200 22:22 12.12.2019
6261 Clouds 15 1014 58 10000 5.1 210 21:56 12.12.2019
6262 Clouds 15 1014 58 10000 5.1 210 21:56 12.12.2019
6263 Clouds 15 1014 58 10000 5.1 210 21:38 12.12.2019
6264 Clouds 15 1014 58 10000 3.6 210 21:20 12.12.2019
6265 Clouds 15 1014 58 6000 4.6 210 20:59 12.12.2019
6266 Clouds 15 1014 58 6000 4.6 210 20:41 12.12.2019
6267 Clouds 15 1014 58 6000 5.1 210 20:23 12.12.2019
6268 Clouds 15 1014 58 6000 4.6 230 19:59 12.12.2019
6269 Clouds 15 1014 58 6000 4.6 230 19:59 12.12.2019
6270 Clouds 15 1014 58 6000 4.6 230 19:40 12.12.2019
6271 Clouds 15 1014 58 6000 6.7 230 19:21 12.12.2019
6272 Clouds 16 1014 55 6000 7.2 240 18:57 12.12.2019
6273 Clouds 16 1014 55 6000 7.2 240 18:57 12.12.2019
6274 Clouds 16 1013 55 6000 8.7 240 18:38 12.12.2019
6275 Clouds 16 1013 55 6000 8.7 240 18:20 12.12.2019
6276 Clouds 16 1013 51 6000 8.2 240 17:57 12.12.2019
6277 Clouds 16 1013 51 6000 8.2 240 17:39 12.12.2019
6278 Clouds 16 1012 51 6000 7.7 240 17:20 12.12.2019
6279 Clouds 17 1012 48 6000 7.52 261 16:57 12.12.2019
6280 Clouds 17 1012 48 6000 7.52 261 16:38 12.12.2019
6281 Clouds 17 1012 45 6000 7.52 261 16:20 12.12.2019
6282 Clouds 17 1012 45 6000 8.7 250 15:54 12.12.2019
6283 Clouds 17 1012 42 6000 9.8 250 15:36 12.12.2019
6284 Clouds 18 1012 42 6000 9.8 250 15:18 12.12.2019
6285 Clouds 18 1011 48 6000 11.8 250 14:38 12.12.2019
6286 Clouds 18 1011 48 6000 11.8 250 14:20 12.12.2019
6287 Clouds 18 1010 45 6000 12.9 250 13:58 12.12.2019
6288 Clouds 19 1010 45 6000 12.9 250 13:39 12.12.2019
6289 Clouds 19 1010 45 10000 11.3 250 13:21 12.12.2019
6290 Clouds 19 1010 59 10000 6.7 250 12:58 12.12.2019
6291 Clouds 19 1010 59 10000 6.7 250 12:40 12.12.2019
6292 Clouds 19 1010 59 10000 8.7 220 12:21 12.12.2019
6293 Clouds 17 1011 72 10000 7.7 200 11:56 12.12.2019
6294 Clouds 17 1011 72 10000 5.7 210 11:38 12.12.2019
6295 Clouds 17 1011 72 10000 5.7 210 11:19 12.12.2019
6296 Clouds 15 1012 82 6000 4.6 230 10:55 12.12.2019
6297 Clouds 15 1012 82 6000 4.6 230 10:37 12.12.2019
6298 Clouds 15 1012 82 6000 4.6 230 10:19 12.12.2019
6299 Rain 14 1012 87 4000 5.7 240 09:42 12.12.2019
6300 Rain 14 1013 82 4000 14.9 230 09:24 12.12.2019
6301 Clouds 19 1010 52 6000 8.7 190 08:59 12.12.2019
6302 Clouds 19 1010 52 6000 8.7 190 08:40 12.12.2019
6303 Clouds 19 1010 52 10000 8.7 190 08:22 12.12.2019
6304 Clouds 18 1010 52 10000 7.2 180 07:47 12.12.2019
6305 Clouds 18 1010 52 10000 7.2 180 07:25 12.12.2019
6306 Clouds 17 1009 55 6000 7.7 150 06:55 12.12.2019
6307 Clouds 17 1009 55 6000 7.7 150 06:34 12.12.2019
6308 Clouds 17 1010 55 6000 7.2 160 05:41 12.12.2019
6309 Clouds 17 1010 51 6000 4.1 170 04:54 12.12.2019
6310 Clouds 16 1011 51 6000 3.1 170 03:50 12.12.2019
6311 Clouds 16 1011 48 6000 4.6 160 02:40 12.12.2019
6312 Clouds 16 1011 48 6000 4.6 160 02:21 12.12.2019
6313 Clouds 16 1011 48 6000 2.6 160 01:46 12.12.2019
6314 Clouds 16 1011 51 6000 4.1 150 01:28 12.12.2019
6315 Clouds 16 1011 51 6000 4.1 150 00:47 12.12.2019
6316 Clouds 16 1011 51 6000 4.1 150 00:20 12.12.2019
6317 Clouds 16 1012 48 6000 4.1 150 23:45 11.12.2019
6318 Clouds 16 1013 48 6000 4.1 160 23:21 11.12.2019
6319 Clouds 16 1013 51 6000 4.1 160 22:58 11.12.2019
6320 Clouds 16 1013 48 6000 4.6 160 22:39 11.12.2019
6321 Clouds 17 1013 48 6000 4.6 160 22:20 11.12.2019
6322 Clouds 17 1013 48 6000 4.6 160 21:59 11.12.2019
6323 Clouds 17 1013 48 6000 4.6 160 21:39 11.12.2019
6324 Clouds 17 1013 48 6000 4.6 170 21:20 11.12.2019
6325 Clouds 17 1013 48 6000 4.6 160 20:57 11.12.2019
6326 Clouds 17 1013 51 6000 4.1 160 20:39 11.12.2019
6327 Clouds 17 1013 51 6000 4.1 160 20:19 11.12.2019
6328 Clouds 17 1013 51 6000 4.1 170 19:58 11.12.2019
6329 Clouds 17 1013 51 6000 4.1 170 19:40 11.12.2019
6330 Clouds 18 1013 48 6000 3.1 170 19:20 11.12.2019
6331 Clouds 18 1013 45 6000 3.6 170 18:55 11.12.2019
6332 Clouds 18 1013 45 6000 3.6 170 18:37 11.12.2019
6333 Clouds 18 1013 45 6000 3.6 170 18:18 11.12.2019
6334 Clouds 19 1013 42 6000 2.6 140 17:55 11.12.2019
6335 Clouds 19 1013 42 6000 3.6 170 17:36 11.12.2019
6336 Clouds 19 1013 42 6000 3.6 170 17:18 11.12.2019
6337 Clouds 19 1013 42 6000 3.6 170 16:55 11.12.2019
6338 Clouds 19 1013 42 6000 3.6 170 16:36 11.12.2019
6339 Clouds 19 1013 42 6000 3.6 170 16:18 11.12.2019
6340 Clouds 19 1013 42 6000 3.6 170 15:41 11.12.2019
6341 Clouds 19 1013 39 6000 3.1 200 15:23 11.12.2019
6342 Clouds 19 1013 39 6000 3.1 200 15:23 11.12.2019
6343 Clouds 19 1013 39 6000 3.6 190 14:57 11.12.2019
6344 Clouds 19 1013 39 6000 3.6 190 14:39 11.12.2019
6345 Clouds 19 1013 39 6000 4.6 210 14:20 11.12.2019
6346 Clouds 19 1013 37 6000 4.6 210 13:58 11.12.2019
6347 Clouds 19 1013 37 6000 4.6 210 13:39 11.12.2019
6348 Clouds 19 1013 37 6000 5.7 200 13:20 11.12.2019
6349 Clouds 19 1013 37 6000 5.7 200 13:20 11.12.2019
6350 Clouds 19 1013 34 6000 6.7 210 12:57 11.12.2019
6351 Clouds 19 1013 34 6000 6.7 210 12:38 11.12.2019
6352 Clouds 18 1013 36 6000 5.7 210 12:38 11.12.2019
6353 Clouds 18 1013 36 6000 5.7 210 12:20 11.12.2019
6354 Clouds 18 1014 36 6000 6.2 210 11:58 11.12.2019
6355 Clouds 18 1014 36 6000 6.2 210 11:38 11.12.2019
6356 Clouds 18 1014 36 6000 6.2 210 11:18 11.12.2019
6357 Clouds 18 1014 39 6000 4.6 210 10:57 11.12.2019
6358 Clouds 18 1014 39 6000 4.6 210 10:38 11.12.2019
6359 Clouds 18 1015 39 6000 4.6 200 10:19 11.12.2019
6360 Clouds 17 1014 45 6000 4.1 190 09:43 11.12.2019
6361 Clouds 17 1015 42 6000 4.6 180 09:21 11.12.2019
6362 Clouds 17 1015 42 6000 4.6 180 09:21 11.12.2019
6363 Clouds 17 1015 45 6000 4.6 180 08:58 11.12.2019
6364 Clouds 16 1015 48 6000 4.6 170 08:39 11.12.2019
6365 Clouds 16 1015 48 6000 4.6 170 08:19 11.12.2019
6366 Clouds 16 1015 48 6000 4.6 170 08:19 11.12.2019
6367 Clouds 16 1014 48 6000 4.6 170 07:58 11.12.2019
6368 Clouds 16 1014 48 6000 4.6 170 07:39 11.12.2019
6369 Clouds 16 1014 48 6000 4.6 170 07:21 11.12.2019
6370 Clouds 15 1014 51 6000 4.1 160 06:44 11.12.2019
6371 Clouds 15 1014 51 6000 4.6 160 06:22 11.12.2019
6372 Clouds 15 1014 51 6000 4.6 150 05:45 11.12.2019
6373 Clouds 15 1014 51 6000 4.6 150 05:27 11.12.2019
6374 Clouds 15 1013 51 6000 4.6 170 04:41 11.12.2019
6375 Clouds 16 1013 48 6000 5.1 190 02:49 11.12.2019
6376 Clouds 17 1013 45 10000 4.6 190 01:26 11.12.2019
6377 Clouds 17 1013 45 10000 4.6 170 00:49 11.12.2019
6378 Clouds 17 1013 45 10000 3.1 190 00:23 11.12.2019
6379 Clouds 17 1013 42 10000 2.1 190 23:59 10.12.2019
6380 Clouds 18 1013 42 10000 4.6 160 23:40 10.12.2019
6381 Clear 18 1013 42 10000 4.6 160 23:21 10.12.2019
6382 Clear 18 1013 42 10000 5.7 150 22:41 10.12.2019
6383 Clear 18 1013 42 10000 5.7 150 22:22 10.12.2019
6384 Clear 18 1013 48 10000 2.6 150 21:57 10.12.2019
6385 Clear 18 1013 48 10000 2.6 150 21:39 10.12.2019
6386 Clear 18 1013 48 10000 2.6 150 21:21 10.12.2019
6387 Clear 18 1013 48 10000 3.1 120 20:57 10.12.2019
6388 Clear 18 1013 48 10000 3.1 120 20:38 10.12.2019
6389 Clear 18 1013 48 10000 3.1 120 20:19 10.12.2019
6390 Clear 18 1013 48 10000 3.1 120 20:19 10.12.2019
6391 Clear 18 1013 48 10000 3.1 120 20:19 10.12.2019
6392 Clear 19 1013 45 10000 3.1 140 19:56 10.12.2019
6393 Clear 19 1013 45 10000 3.1 140 19:37 10.12.2019
6394 Clear 19 1013 45 10000 3.1 140 19:19 10.12.2019
6395 Clear 19 1013 45 10000 2.1 160 18:55 10.12.2019
6396 Clear 19 1013 45 10000 2.1 200 18:36 10.12.2019
6397 Clear 19 1013 45 10000 2.1 200 18:18 10.12.2019
6398 Clear 20 1013 42 10000 3.6 220 17:41 10.12.2019
6399 Clear 20 1013 42 10000 3.6 220 17:22 10.12.2019
6400 Clear 21 1012 40 10000 4.1 230 16:57 10.12.2019
6401 Clear 21 1012 35 10000 4.1 190 16:39 10.12.2019
6402 Clear 22 1012 35 10000 4.1 190 16:19 10.12.2019
6403 Clear 22 1012 35 10000 4.1 190 16:19 10.12.2019
6404 Clear 22 1012 37 10000 5.1 190 15:39 10.12.2019
6405 Clear 23 1011 35 10000 5.7 170 15:18 10.12.2019
6406 Clear 22 1011 37 10000 6.2 170 14:56 10.12.2019
6407 Clear 22 1011 37 10000 6.2 170 14:38 10.12.2019
6408 Clouds 23 1012 38 10000 6.7 190 14:20 10.12.2019
6409 Clouds 22 1012 40 10000 7.7 200 13:58 10.12.2019
6410 Clouds 22 1012 40 10000 7.7 200 13:40 10.12.2019
6411 Clouds 23 1012 40 10000 6.7 190 13:20 10.12.2019
6412 Clouds 23 1012 40 10000 6.7 190 13:20 10.12.2019
6413 Clouds 24 1012 38 10000 6.2 200 12:49 10.12.2019
6414 Clouds 23 1012 40 10000 5.7 190 12:28 10.12.2019
6415 -273 0 0 0 0 0 11:59 10.12.2019
6416 Clouds 23 1013 40 10000 6.7 180 11:40 10.12.2019
6417 Clouds 23 1014 40 10000 5.7 200 11:21 10.12.2019
6418 Clouds 21 1015 43 10000 5.1 200 10:44 10.12.2019
6419 Clouds 21 1015 43 10000 6.2 190 10:25 10.12.2019
6420 Clouds 21 1015 43 10000 5.1 180 09:58 10.12.2019
6421 Clouds 21 1015 43 10000 5.1 180 09:40 10.12.2019
6422 Clouds 20 1015 45 10000 6.2 180 09:22 10.12.2019
6423 Clouds 20 1015 45 10000 6.2 180 09:22 10.12.2019
6424 Clouds 20 1015 45 10000 5.7 170 08:59 10.12.2019
6425 Clouds 20 1015 45 10000 5.7 170 08:40 10.12.2019
6426 Clouds 19 1015 48 10000 3.6 150 08:22 10.12.2019
6427 Clouds 18 1015 52 6000 4.6 150 07:57 10.12.2019
6428 Clouds 18 1015 52 6000 4.6 150 07:39 10.12.2019
6429 Clouds 17 1015 59 6000 4.1 140 07:20 10.12.2019
6430 Clouds 17 1015 59 6000 4.1 150 06:46 10.12.2019
6431 Clouds 16 1014 59 6000 4.1 150 06:19 10.12.2019
6432 Clouds 16 1014 59 6000 4.1 150 06:19 10.12.2019
6433 Clouds 16 1015 63 6000 3.6 150 05:52 10.12.2019
6434 Clouds 15 1015 62 6000 3.1 160 04:51 10.12.2019
6435 Clouds 15 1015 67 10000 3.1 160 03:32 10.12.2019
6436 Clouds 15 1015 67 10000 3.1 160 02:40 10.12.2019
6437 Clouds 16 1015 63 10000 3.1 150 01:44 10.12.2019
6438 Clouds 16 1015 63 10000 2.1 210 01:20 10.12.2019
6439 Clouds 17 1015 63 10000 1.69 162 00:41 10.12.2019
6440 Clouds 17 1014 63 10000 2.1 30 00:20 10.12.2019
6441 Clouds 17 1014 63 10000 2.1 80 23:41 09.12.2019
6442 Clouds 18 1015 63 10000 2.1 120 23:22 09.12.2019
6443 Clouds 17 1015 59 10000 1.5 100 22:58 09.12.2019
6444 Clouds 17 1015 59 10000 1.5 100 22:39 09.12.2019
6445 Clouds 18 1016 59 10000 1.5 110 22:19 09.12.2019
6446 Clouds 18 1016 59 10000 1 90 21:56 09.12.2019
6447 Clouds 18 1016 59 10000 1 90 21:38 09.12.2019
6448 Clouds 18 1016 55 10000 1.5 42 21:19 09.12.2019
6449 Clouds 19 1016 55 10000 1.5 360 20:56 09.12.2019
6450 Clouds 18 1016 55 10000 0.5 30 20:38 09.12.2019
6451 Clouds 18 1016 55 10000 0.5 30 20:20 09.12.2019
6452 Clouds 19 1016 55 10000 2.1 10 19:55 09.12.2019
6453 Clouds 19 1016 59 10000 2.1 20 19:37 09.12.2019
6454 Clouds 19 1016 59 10000 2.1 20 19:19 09.12.2019
6455 Clouds 19 1016 59 10000 2.6 360 18:56 09.12.2019
6456 Clouds 19 1016 59 10000 2.6 360 18:38 09.12.2019
6457 Clouds 20 1016 60 10000 3.1 330 18:19 09.12.2019
6458 Clouds 20 1015 56 10000 4.1 310 17:57 09.12.2019
6459 Clouds 20 1015 52 10000 4.1 290 17:39 09.12.2019
6460 Clouds 20 1015 52 10000 4.1 290 17:20 09.12.2019
6461 Clouds 21 1015 43 10000 5.1 260 16:56 09.12.2019
6462 Clouds 21 1015 43 10000 5.1 250 16:37 09.12.2019
6463 Clouds 21 1015 43 10000 5.1 250 16:19 09.12.2019
6464 Clouds 21 1015 43 10000 5.1 250 15:55 09.12.2019
6465 Clouds 21 1015 43 10000 5.1 250 15:37 09.12.2019
6466 Clouds 21 1014 43 10000 5.7 230 15:19 09.12.2019
6467 Clouds 22 1014 40 10000 5.7 250 14:55 09.12.2019
6468 Clouds 22 1014 40 10000 4.6 240 14:37 09.12.2019
6469 Clouds 22 1014 40 10000 4.6 240 14:18 09.12.2019
6470 Clouds 22 1014 40 10000 6.2 250 13:39 09.12.2019
6471 Clouds 22 1014 43 10000 6.7 320 13:20 09.12.2019
6472 Clouds 22 1014 43 10000 5.7 230 12:58 09.12.2019
6473 Clouds 22 1014 43 10000 5.7 230 12:39 09.12.2019
6474 Clouds 22 1015 53 10000 6.2 220 12:21 09.12.2019
6475 Clouds 22 1015 53 6000 7.7 240 11:59 09.12.2019
6476 Clouds 22 1015 53 6000 7.7 240 11:39 09.12.2019
6477 Clouds 22 1015 53 6000 7.7 240 11:39 09.12.2019
6478 Clouds 21 1016 56 6000 6.2 220 11:21 09.12.2019
6479 Clouds 21 1016 56 6000 5.1 220 10:56 09.12.2019
6480 Clouds 20 1016 60 6000 6.2 210 10:38 09.12.2019
6481 Clouds 20 1016 60 6000 6.2 210 10:18 09.12.2019
6482 Sand 20 1016 60 4000 5.7 210 09:41 09.12.2019
6483 Sand 19 1017 59 4000 6.2 200 09:23 09.12.2019
6484 Sand 19 1017 63 4000 5.7 200 08:55 09.12.2019
6485 Sand 18 1017 63 3000 5.7 190 08:37 09.12.2019
6486 Sand 18 1017 63 3000 5.7 190 08:19 09.12.2019
6487 Sand 17 1016 67 3000 6.2 180 07:44 09.12.2019
6488 Haze 16 1016 72 2000 4.6 180 07:25 09.12.2019
6489 Haze 16 1016 72 2000 4.6 170 06:55 09.12.2019
6490 Haze 16 1016 72 2000 4.6 170 06:28 09.12.2019
6491 Haze 16 1015 77 2000 4.6 180 05:30 09.12.2019
6492 Haze 16 1015 77 3000 4.6 180 04:54 09.12.2019
6493 Haze 17 1016 72 3000 3.6 180 04:23 09.12.2019
6494 Clouds 17 1016 77 10000 3.6 210 02:27 09.12.2019
6495 Clouds 17 1016 77 10000 2.1 220 01:45 09.12.2019
6496 Clouds 18 1016 72 10000 3.6 240 00:55 09.12.2019
6497 Clouds 18 1016 72 10000 3.6 240 00:32 09.12.2019
6498 Clouds 18 1016 68 10000 4.1 260 23:54 08.12.2019
6499 Clouds 19 1016 63 10000 5.1 260 23:36 08.12.2019
6500 Clouds 19 1016 63 10000 5.1 260 23:18 08.12.2019
6501 Clouds 19 1016 63 10000 4.6 270 22:56 08.12.2019
6502 Clouds 19 1016 63 10000 4.6 270 22:37 08.12.2019
6503 Clouds 19 1017 63 10000 5.7 260 22:18 08.12.2019
6504 Clouds 19 1017 59 10000 4.1 290 21:55 08.12.2019
6505 Clouds 20 1017 56 10000 4.1 220 21:36 08.12.2019
6506 Clouds 20 1017 56 10000 4.1 220 21:18 08.12.2019
6507 Clouds 20 1017 56 10000 4.1 240 20:54 08.12.2019
6508 Clouds 20 1017 56 10000 4.1 240 20:36 08.12.2019
6509 Clouds 20 1017 52 10000 4.1 260 20:18 08.12.2019
6510 Clouds 20 1017 49 10000 4.6 240 19:54 08.12.2019
6511 Clouds 20 1017 45 10000 4.6 230 19:36 08.12.2019
6512 Clouds 20 1017 45 10000 4.6 230 19:18 08.12.2019
6513 Clouds 21 1017 43 10000 3.6 250 18:54 08.12.2019
6514 Clouds 21 1017 40 10000 4.1 250 18:36 08.12.2019
6515 Clouds 21 1017 40 10000 4.1 250 18:18 08.12.2019
6516 Clouds 21 1017 40 10000 4.6 250 17:54 08.12.2019
6517 Clouds 21 1016 43 10000 5.1 240 17:36 08.12.2019
6518 Clouds 21 1016 43 10000 5.1 240 17:18 08.12.2019
6519 Clouds 21 1016 43 10000 5.7 260 16:42 08.12.2019
6520 Clouds 22 1016 43 10000 7.2 260 16:23 08.12.2019
6521 Clouds 22 1016 49 10000 7.2 270 15:58 08.12.2019
6522 Clouds 22 1016 53 10000 5.7 260 15:37 08.12.2019
6523 Clouds 22 1016 53 10000 5.7 260 15:18 08.12.2019
6524 Clouds 22 1015 49 10000 5.7 270 14:46 08.12.2019
6525 Clouds 22 1015 53 10000 5.1 250 14:25 08.12.2019
6526 Clouds 23 1016 49 10000 6.7 240 13:59 08.12.2019
6527 Clouds 23 1016 49 10000 6.7 240 13:41 08.12.2019
6528 Clouds 23 1016 46 10000 6.2 220 13:22 08.12.2019
6529 Clouds 22 1016 56 6000 5.7 210 12:59 08.12.2019
6530 Clouds 22 1016 53 6000 6.7 220 12:40 08.12.2019
6531 Clouds 22 1016 53 6000 6.7 220 12:19 08.12.2019
6532 Clouds 22 1016 53 6000 6.7 220 12:19 08.12.2019
6533 Clouds 22 1017 53 6000 6.7 200 11:58 08.12.2019
6534 Clouds 22 1017 53 6000 6.7 200 11:37 08.12.2019
6535 Clouds 21 1017 56 6000 6.2 210 11:19 08.12.2019
6536 Sand 20 1019 60 4000 5.7 220 10:57 08.12.2019
6537 Sand 20 1019 60 4000 5.7 220 10:38 08.12.2019
6538 Sand 20 1019 60 4000 5.7 220 10:19 08.12.2019
6539 Clouds 19 1019 59 6000 5.7 200 09:55 08.12.2019
6540 Clouds 19 1019 59 6000 5.7 200 09:36 08.12.2019
6541 Clouds 19 1019 59 6000 5.7 200 09:18 08.12.2019
6542 Clouds 19 1019 59 6000 5.1 190 08:42 08.12.2019
6543 Clouds 19 1019 59 10000 5.1 190 08:23 08.12.2019
6544 Clouds 17 1019 63 10000 3.1 200 07:57 08.12.2019
6545 Clouds 17 1019 63 10000 3.1 200 07:39 08.12.2019
6546 Clouds 17 1019 63 10000 3.1 200 07:18 08.12.2019
6547 Clouds 16 1018 67 10000 3.6 180 06:41 08.12.2019
6548 Clouds 16 1018 67 10000 3.6 180 06:21 08.12.2019
6549 Clouds 16 1018 63 10000 2.6 200 05:27 08.12.2019
6550 Clouds 17 1018 63 10000 2.6 200 04:54 08.12.2019
6551 Clouds 16 1018 67 10000 1.5 220 03:41 08.12.2019
6552 Clouds 16 1018 63 10000 2.1 180 02:52 08.12.2019
6553 Clouds 16 1018 63 10000 2.1 180 02:27 08.12.2019
6554 Clear 16 1018 63 10000 1.5 200 01:48 08.12.2019
6555 Clear 16 1019 63 10000 1.5 190 00:56 08.12.2019
6556 Clear 15 1019 67 10000 1 190 00:38 08.12.2019
6557 Clear 15 1019 67 10000 1 190 00:19 08.12.2019
6558 Clear 16 1019 63 10000 1.5 170 23:40 07.12.2019
6559 Clear 16 1019 63 10000 1.5 170 23:40 07.12.2019
6560 Clear 16 1019 63 10000 2.1 160 23:20 07.12.2019
6561 Clear 17 1020 63 10000 2.29 330 22:56 07.12.2019
6562 Clear 17 1020 63 10000 2.29 330 22:38 07.12.2019
6563 Clear 17 1020 63 10000 1.5 290 22:19 07.12.2019
6564 Clear 17 1020 63 10000 1.5 290 22:19 07.12.2019
6565 Clouds 18 1020 59 10000 1.5 310 21:56 07.12.2019
6566 Clouds 18 1020 59 10000 1.5 310 21:38 07.12.2019
6567 Clouds 18 1020 59 10000 3.1 310 21:19 07.12.2019
6568 Clouds 18 1020 59 10000 2.6 320 20:54 07.12.2019
6569 Clouds 18 1020 59 10000 3.6 310 20:36 07.12.2019
6570 Clouds 18 1020 59 10000 3.6 310 20:18 07.12.2019
6571 Clouds 18 1020 59 6000 3.6 320 19:55 07.12.2019
6572 Clouds 18 1020 59 6000 3.6 320 19:36 07.12.2019
6573 Clouds 19 1020 55 6000 4.1 320 19:18 07.12.2019
6574 Clouds 19 1020 55 6000 4.1 310 18:43 07.12.2019
6575 Clouds 20 1020 52 6000 2.6 320 18:19 07.12.2019
6576 Clouds 20 1019 49 6000 2.1 320 17:57 07.12.2019
6577 Clouds 20 1019 49 6000 2.1 320 17:39 07.12.2019
6578 Clouds 20 1019 49 10000 2.6 330 17:20 07.12.2019
6579 Clouds 20 1019 49 10000 2.1 320 16:56 07.12.2019
6580 Clouds 21 1019 43 10000 2.6 300 16:37 07.12.2019
6581 Clouds 21 1019 43 10000 2.6 300 16:19 07.12.2019
6582 Clouds 21 1019 46 10000 2.1 310 15:42 07.12.2019
6583 Clouds 21 1019 46 10000 2.6 280 15:23 07.12.2019
6584 Clouds 21 1019 46 10000 2.1 270 14:57 07.12.2019
6585 Clouds 21 1019 43 10000 3.6 310 14:39 07.12.2019
6586 Clouds 21 1019 43 10000 3.6 310 14:18 07.12.2019
6587 Clouds 22 1018 40 10000 3.6 270 13:41 07.12.2019
6588 Clouds 22 1018 40 10000 3.6 270 13:41 07.12.2019
6589 Clouds 22 1018 40 10000 3.1 320 13:21 07.12.2019
6590 Clouds 22 1018 40 10000 3.6 280 12:59 07.12.2019
6591 Clouds 22 1018 40 10000 3.6 280 12:40 07.12.2019
6592 Clouds 21 1019 43 10000 4.1 300 12:22 07.12.2019
6593 Clouds 21 1019 43 10000 2.1 360 11:58 07.12.2019
6594 Clouds 21 1019 43 10000 2.1 360 11:39 07.12.2019
6595 Clouds 20 1020 49 10000 3.6 320 11:21 07.12.2019
6596 Clouds 20 1020 45 10000 3.1 330 10:38 07.12.2019
6597 Clouds 20 1020 45 10000 3.1 330 10:19 07.12.2019
6598 Clouds 19 1021 52 10000 4.1 330 09:56 07.12.2019
6599 Clouds 19 1021 52 10000 4.1 330 09:36 07.12.2019
6600 Clouds 19 1021 52 10000 4.1 330 09:18 07.12.2019
6601 Clouds 18 1021 55 10000 2.1 280 08:40 07.12.2019
6602 Clouds 18 1021 55 10000 2.1 280 08:21 07.12.2019
6603 Clouds 17 1021 63 10000 1.5 240 07:45 07.12.2019
6604 Clouds 16 1021 67 10000 3.92 341 07:26 07.12.2019
6605 Clouds 16 1021 67 10000 2.1 210 06:50 07.12.2019
6606 Clouds 16 1020 67 10000 2.1 210 06:25 07.12.2019
6607 Clouds 15 1020 67 10000 2.1 230 05:30 07.12.2019
6608 Clouds 16 1020 72 10000 1 300 03:59 07.12.2019
6609 Clouds 16 1020 72 10000 1 300 03:40 07.12.2019
6610 Clouds 16 1020 72 10000 2.1 320 02:21 07.12.2019
6611 Clouds 16 1020 67 10000 4.1 310 01:34 07.12.2019
6612 Clouds 16 1020 67 10000 4.1 310 01:34 07.12.2019
6613 Clouds 17 1020 67 10000 2.6 320 00:53 07.12.2019
6614 Clouds 17 1020 67 10000 2.6 320 00:20 07.12.2019
6615 Clouds 17 1020 67 10000 3.6 320 23:56 06.12.2019
6616 Clouds 17 1020 67 10000 3.6 320 23:38 06.12.2019
6617 Clouds 18 1021 63 10000 4.1 300 23:18 06.12.2019
6618 Clouds 18 1021 63 10000 3.1 300 22:38 06.12.2019
6619 Clouds 18 1021 63 10000 3.1 300 22:20 06.12.2019
6620 Clouds 18 1021 68 10000 2.6 320 21:58 06.12.2019
6621 Clouds 18 1021 68 10000 2.6 320 21:39 06.12.2019
6622 Clouds 18 1021 68 10000 2.6 320 21:39 06.12.2019
6623 Clouds 18 1021 68 10000 2.6 320 21:20 06.12.2019
6624 Clouds 18 1021 68 10000 3.6 330 20:43 06.12.2019
6625 Clouds 18 1021 68 10000 3.6 330 20:25 06.12.2019
6626 Clouds 18 1021 68 10000 4.1 300 19:59 06.12.2019
6627 Clouds 18 1021 68 10000 4.1 300 19:40 06.12.2019
6628 Clouds 18 1021 68 10000 4.1 300 19:22 06.12.2019
6629 Clouds 18 1021 68 10000 4.1 300 19:22 06.12.2019
6630 Clouds 18 1021 68 10000 4.1 300 19:22 06.12.2019
6631 Clouds 18 1021 68 10000 4.6 310 18:57 06.12.2019
6632 Clouds 18 1021 68 10000 4.6 310 18:39 06.12.2019
6633 Clouds 19 1021 63 10000 4.6 310 18:19 06.12.2019
6634 Clouds 19 1021 63 10000 4.6 310 18:19 06.12.2019
6635 Clouds 19 1021 63 10000 5.1 320 17:56 06.12.2019
6636 Clouds 19 1021 63 10000 5.1 320 17:56 06.12.2019
6637 Clouds 19 1021 63 10000 5.1 320 17:38 06.12.2019
6638 Clouds 19 1021 63 10000 5.1 320 17:19 06.12.2019
6639 Clouds 19 1021 63 10000 5.1 320 17:19 06.12.2019
6640 Clouds 20 1020 60 10000 6.2 300 16:43 06.12.2019
6641 Clouds 20 1020 60 10000 6.2 300 16:25 06.12.2019
6642 Clouds 20 1020 56 10000 6.7 290 15:59 06.12.2019
6643 Clouds 20 1020 56 10000 6.7 290 15:40 06.12.2019
6644 Clouds 20 1020 56 10000 6.7 290 15:19 06.12.2019
6645 Clouds 20 1020 52 6000 5.1 300 14:57 06.12.2019
6646 Clouds 20 1020 52 6000 5.1 300 14:39 06.12.2019
6647 Clouds 20 1020 52 6000 5.7 310 14:19 06.12.2019
6648 Clouds 21 1020 52 6000 5.7 300 13:44 06.12.2019
6649 Clouds 21 1020 52 6000 5.7 300 13:26 06.12.2019
6650 Clouds 21 1020 52 6000 5.7 290 12:44 06.12.2019
6651 Clouds 21 1020 52 6000 5.7 290 12:23 06.12.2019
6652 Clouds 20 1021 60 6000 4.1 320 11:58 06.12.2019
6653 Clouds 20 1021 60 6000 4.1 320 11:40 06.12.2019
6654 Clouds 20 1021 60 6000 4.1 320 11:22 06.12.2019
6655 Clouds 20 1021 56 6000 5.1 310 10:54 06.12.2019
6656 Clouds 20 1022 60 6000 4.6 320 10:36 06.12.2019
6657 Clouds 20 1022 60 6000 4.6 320 10:18 06.12.2019
6658 Clouds 20 1022 60 6000 5.1 300 09:54 06.12.2019
6659 Clouds 19 1022 63 6000 4.6 310 09:36 06.12.2019
6660 Clouds 19 1022 63 6000 4.6 310 09:18 06.12.2019
6661 Clouds 19 1022 63 6000 4.1 320 08:40 06.12.2019
6662 Clouds 19 1022 59 6000 2.6 350 08:21 06.12.2019
6663 Clouds 19 1022 63 6000 3.6 320 07:38 06.12.2019
6664 Clouds 18 1022 72 6000 3.6 320 07:20 06.12.2019
6665 Haze 18 1021 72 4000 3.6 320 06:31 06.12.2019
6666 Haze 18 1021 72 4000 3.6 320 06:31 06.12.2019
6667 Haze 18 1021 72 4000 3.6 320 05:57 06.12.2019
6668 Haze 18 1021 72 4000 2.6 310 05:38 06.12.2019
6669 Haze 18 1020 77 4000 3.1 320 02:20 06.12.2019
6670 Haze 18 1020 77 4000 3.6 330 01:43 06.12.2019
6671 Haze 18 1021 77 4000 3.1 320 00:49 06.12.2019
6672 Haze 18 1020 82 4000 3.1 320 00:22 06.12.2019
6673 Haze 18 1020 82 4000 2.1 310 23:51 05.12.2019
6674 Haze 18 1020 82 4000 2.1 310 23:51 05.12.2019
6675 Haze 18 1021 82 4000 3.1 330 23:20 05.12.2019
6676 Haze 18 1021 82 4000 3.1 330 22:58 05.12.2019
6677 Haze 18 1021 82 4000 3.1 330 22:39 05.12.2019
6678 Haze 19 1021 77 4000 3.1 350 22:19 05.12.2019
6679 Clear 19 1021 77 6000 3.1 350 21:56 05.12.2019
6680 Clear 19 1021 77 6000 4.1 340 21:37 05.12.2019
6681 Clear 19 1021 77 6000 4.1 340 21:19 05.12.2019
6682 Clear 19 1021 77 6000 3.6 350 20:56 05.12.2019
6683 Clear 19 1021 77 6000 3.6 350 20:56 05.12.2019
6684 Clear 20 1021 72 6000 4.6 350 20:37 05.12.2019
6685<